<?xml version="1.0" encoding="UTF-8" standalone="no" ?>
<gpx xmlns="http://www.topografix.com/GPX/1/1" xmlns:xsi="http://www.w3.org/2001/XMLSchema-instance" xsi:schemaLocation="http://www.topografix.com/GPX/1/1 http://www.topografix.com/GPX/1/1/gpx.xsd" version="1.1" creator="VisuGPX - https://www.visugpx.com">
  <metadata>
    <name>la rando du diable</name>
    <desc><![CDATA[la rando du diable]]></desc>
  </metadata>
  <trk>
    <name><![CDATA[Valedudiable201]]></name>
    <trkseg>
      <trkpt lat="50.46822" lon="2.49495">
        <ele>64.545654</ele>
        <time>2011-04-16T16:45:14Z</time>
      </trkpt>
      <trkpt lat="50.46828" lon="2.49502">
        <ele>63.103637</ele>
        <time>2011-04-16T16:45:14Z</time>
      </trkpt>
      <trkpt lat="50.46832" lon="2.49507">
        <ele>62.142334</ele>
        <time>2011-04-16T16:45:16Z</time>
      </trkpt>
      <trkpt lat="50.46836" lon="2.49513">
        <ele>61.661743</ele>
        <time>2011-04-16T16:45:18Z</time>
      </trkpt>
      <trkpt lat="50.46841" lon="2.49517">
        <ele>61.18103</ele>
        <time>2011-04-16T16:45:20Z</time>
      </trkpt>
      <trkpt lat="50.46844" lon="2.49522">
        <ele>61.661743</ele>
        <time>2011-04-16T16:45:22Z</time>
      </trkpt>
      <trkpt lat="50.46847" lon="2.49526">
        <ele>62.622924</ele>
        <time>2011-04-16T16:45:24Z</time>
      </trkpt>
      <trkpt lat="50.4685" lon="2.49531">
        <ele>62.622924</ele>
        <time>2011-04-16T16:45:26Z</time>
      </trkpt>
      <trkpt lat="50.46855" lon="2.49543">
        <ele>63.103637</ele>
        <time>2011-04-16T16:45:29Z</time>
      </trkpt>
      <trkpt lat="50.46858" lon="2.49544">
        <ele>63.58435</ele>
        <time>2011-04-16T16:45:31Z</time>
      </trkpt>
      <trkpt lat="50.4687" lon="2.49537">
        <ele>65.026367</ele>
        <time>2011-04-16T16:45:35Z</time>
      </trkpt>
      <trkpt lat="50.4688" lon="2.4952">
        <ele>65.50708</ele>
        <time>2011-04-16T16:45:42Z</time>
      </trkpt>
      <trkpt lat="50.46891" lon="2.49504">
        <ele>65.98767</ele>
        <time>2011-04-16T16:45:47Z</time>
      </trkpt>
      <trkpt lat="50.46898" lon="2.49493">
        <ele>66.948974</ele>
        <time>2011-04-16T16:45:51Z</time>
      </trkpt>
      <trkpt lat="50.46914" lon="2.4947">
        <ele>68.390869</ele>
        <time>2011-04-16T16:46:00Z</time>
      </trkpt>
      <trkpt lat="50.46925" lon="2.49452">
        <ele>68.871582</ele>
        <time>2011-04-16T16:46:06Z</time>
      </trkpt>
      <trkpt lat="50.46946" lon="2.4942">
        <ele>70.794189</ele>
        <time>2011-04-16T16:46:18Z</time>
      </trkpt>
      <trkpt lat="50.46958" lon="2.49399">
        <ele>71.755493</ele>
        <time>2011-04-16T16:46:25Z</time>
      </trkpt>
      <trkpt lat="50.46969" lon="2.49383">
        <ele>72.716918</ele>
        <time>2011-04-16T16:46:31Z</time>
      </trkpt>
      <trkpt lat="50.46983" lon="2.49359">
        <ele>75.120239</ele>
        <time>2011-04-16T16:46:40Z</time>
      </trkpt>
      <trkpt lat="50.46997" lon="2.49336">
        <ele>77.042846</ele>
        <time>2011-04-16T16:46:48Z</time>
      </trkpt>
      <trkpt lat="50.47007" lon="2.49317">
        <ele>79.446044</ele>
        <time>2011-04-16T16:46:54Z</time>
      </trkpt>
      <trkpt lat="50.47019" lon="2.49297">
        <ele>81.849365</ele>
        <time>2011-04-16T16:47:01Z</time>
      </trkpt>
      <trkpt lat="50.47034" lon="2.49271">
        <ele>84.252685</ele>
        <time>2011-04-16T16:47:10Z</time>
      </trkpt>
      <trkpt lat="50.47047" lon="2.49249">
        <ele>86.175293</ele>
        <time>2011-04-16T16:47:18Z</time>
      </trkpt>
      <trkpt lat="50.4706" lon="2.49229">
        <ele>87.617187</ele>
        <time>2011-04-16T16:47:25Z</time>
      </trkpt>
      <trkpt lat="50.47073" lon="2.49207">
        <ele>89.539917</ele>
        <time>2011-04-16T16:47:33Z</time>
      </trkpt>
      <trkpt lat="50.47084" lon="2.49189">
        <ele>90.020629</ele>
        <time>2011-04-16T16:47:39Z</time>
      </trkpt>
      <trkpt lat="50.47101" lon="2.49161">
        <ele>91.943237</ele>
        <time>2011-04-16T16:47:49Z</time>
      </trkpt>
      <trkpt lat="50.47122" lon="2.49128">
        <ele>93.865844</ele>
        <time>2011-04-16T16:48:01Z</time>
      </trkpt>
      <trkpt lat="50.47135" lon="2.49104">
        <ele>95.788452</ele>
        <time>2011-04-16T16:48:09Z</time>
      </trkpt>
      <trkpt lat="50.47155" lon="2.49074">
        <ele>98.672485</ele>
        <time>2011-04-16T16:48:20Z</time>
      </trkpt>
      <trkpt lat="50.47171" lon="2.49051">
        <ele>100.59509</ele>
        <time>2011-04-16T16:48:28Z</time>
      </trkpt>
      <trkpt lat="50.47185" lon="2.49032">
        <ele>102.5177</ele>
        <time>2011-04-16T16:48:36Z</time>
      </trkpt>
      <trkpt lat="50.47199" lon="2.4901">
        <ele>103.95971</ele>
        <time>2011-04-16T16:48:44Z</time>
      </trkpt>
      <trkpt lat="50.47218" lon="2.48983">
        <ele>105.88244</ele>
        <time>2011-04-16T16:48:54Z</time>
      </trkpt>
      <trkpt lat="50.47232" lon="2.48963">
        <ele>106.36303</ele>
        <time>2011-04-16T16:49:02Z</time>
      </trkpt>
      <trkpt lat="50.47247" lon="2.48937">
        <ele>108.28564</ele>
        <time>2011-04-16T16:49:10Z</time>
      </trkpt>
      <trkpt lat="50.47263" lon="2.48911">
        <ele>110.20825</ele>
        <time>2011-04-16T16:49:20Z</time>
      </trkpt>
      <trkpt lat="50.47275" lon="2.48891">
        <ele>111.65026</ele>
        <time>2011-04-16T16:49:27Z</time>
      </trkpt>
      <trkpt lat="50.47293" lon="2.48859">
        <ele>114.53417</ele>
        <time>2011-04-16T16:49:38Z</time>
      </trkpt>
      <trkpt lat="50.47308" lon="2.48832">
        <ele>115.4956</ele>
        <time>2011-04-16T16:49:47Z</time>
      </trkpt>
      <trkpt lat="50.47325" lon="2.48795">
        <ele>116.45678</ele>
        <time>2011-04-16T16:49:58Z</time>
      </trkpt>
      <trkpt lat="50.47319" lon="2.4878">
        <ele>116.45678</ele>
        <time>2011-04-16T16:50:03Z</time>
      </trkpt>
      <trkpt lat="50.47295" lon="2.48757">
        <ele>115.97619</ele>
        <time>2011-04-16T16:50:14Z</time>
      </trkpt>
      <trkpt lat="50.47279" lon="2.48742">
        <ele>115.4956</ele>
        <time>2011-04-16T16:50:22Z</time>
      </trkpt>
      <trkpt lat="50.47247" lon="2.48711">
        <ele>115.4956</ele>
        <time>2011-04-16T16:50:37Z</time>
      </trkpt>
      <trkpt lat="50.47213" lon="2.48683">
        <ele>115.01489</ele>
        <time>2011-04-16T16:50:52Z</time>
      </trkpt>
      <trkpt lat="50.47187" lon="2.48656">
        <ele>114.05358</ele>
        <time>2011-04-16T16:51:04Z</time>
      </trkpt>
      <trkpt lat="50.47147" lon="2.48622">
        <ele>114.05358</ele>
        <time>2011-04-16T16:51:23Z</time>
      </trkpt>
      <trkpt lat="50.47093" lon="2.48573">
        <ele>114.53417</ele>
        <time>2011-04-16T16:51:48Z</time>
      </trkpt>
      <trkpt lat="50.47047" lon="2.48533">
        <ele>115.01489</ele>
        <time>2011-04-16T16:52:09Z</time>
      </trkpt>
      <trkpt lat="50.46991" lon="2.48483">
        <ele>115.4956</ele>
        <time>2011-04-16T16:52:35Z</time>
      </trkpt>
      <trkpt lat="50.46951" lon="2.48435">
        <ele>115.97619</ele>
        <time>2011-04-16T16:52:55Z</time>
      </trkpt>
      <trkpt lat="50.4692" lon="2.4839">
        <ele>116.45678</ele>
        <time>2011-04-16T16:53:12Z</time>
      </trkpt>
      <trkpt lat="50.46885" lon="2.48336">
        <ele>117.41821</ele>
        <time>2011-04-16T16:53:31Z</time>
      </trkpt>
      <trkpt lat="50.46849" lon="2.4828">
        <ele>118.37939</ele>
        <time>2011-04-16T16:53:51Z</time>
      </trkpt>
      <trkpt lat="50.46819" lon="2.48234">
        <ele>119.82141</ele>
        <time>2011-04-16T16:54:08Z</time>
      </trkpt>
      <trkpt lat="50.46813" lon="2.48224">
        <ele>120.30212</ele>
        <time>2011-04-16T16:54:12Z</time>
      </trkpt>
      <trkpt lat="50.46776" lon="2.48169">
        <ele>121.26354</ele>
        <time>2011-04-16T16:54:32Z</time>
      </trkpt>
      <trkpt lat="50.4675" lon="2.48132">
        <ele>121.74414</ele>
        <time>2011-04-16T16:54:46Z</time>
      </trkpt>
      <trkpt lat="50.46731" lon="2.48103">
        <ele>122.22473</ele>
        <time>2011-04-16T16:54:57Z</time>
      </trkpt>
      <trkpt lat="50.46726" lon="2.48073">
        <ele>122.22473</ele>
        <time>2011-04-16T16:55:05Z</time>
      </trkpt>
      <trkpt lat="50.46731" lon="2.48062">
        <ele>121.74414</ele>
        <time>2011-04-16T16:55:08Z</time>
      </trkpt>
      <trkpt lat="50.46748" lon="2.48037">
        <ele>120.78283</ele>
        <time>2011-04-16T16:55:18Z</time>
      </trkpt>
      <trkpt lat="50.46755" lon="2.48013">
        <ele>120.30212</ele>
        <time>2011-04-16T16:55:25Z</time>
      </trkpt>
      <trkpt lat="50.46753" lon="2.48007">
        <ele>120.78283</ele>
        <time>2011-04-16T16:55:26Z</time>
      </trkpt>
      <trkpt lat="50.46723" lon="2.4796">
        <ele>120.78283</ele>
        <time>2011-04-16T16:55:43Z</time>
      </trkpt>
      <trkpt lat="50.46701" lon="2.47925">
        <ele>121.74414</ele>
        <time>2011-04-16T16:55:56Z</time>
      </trkpt>
      <trkpt lat="50.46666" lon="2.47873">
        <ele>121.74414</ele>
        <time>2011-04-16T16:56:15Z</time>
      </trkpt>
      <trkpt lat="50.46644" lon="2.47842">
        <ele>121.74414</ele>
        <time>2011-04-16T16:56:27Z</time>
      </trkpt>
      <trkpt lat="50.46606" lon="2.47785">
        <ele>121.74414</ele>
        <time>2011-04-16T16:56:48Z</time>
      </trkpt>
      <trkpt lat="50.46567" lon="2.47724">
        <ele>121.74414</ele>
        <time>2011-04-16T16:57:10Z</time>
      </trkpt>
      <trkpt lat="50.46529" lon="2.47667">
        <ele>121.74414</ele>
        <time>2011-04-16T16:57:31Z</time>
      </trkpt>
      <trkpt lat="50.46509" lon="2.47633">
        <ele>121.74414</ele>
        <time>2011-04-16T16:57:43Z</time>
      </trkpt>
      <trkpt lat="50.46476" lon="2.47582">
        <ele>121.26354</ele>
        <time>2011-04-16T16:58:01Z</time>
      </trkpt>
      <trkpt lat="50.46438" lon="2.47524">
        <ele>121.26354</ele>
        <time>2011-04-16T16:58:22Z</time>
      </trkpt>
      <trkpt lat="50.4642" lon="2.47496">
        <ele>121.74414</ele>
        <time>2011-04-16T16:58:32Z</time>
      </trkpt>
      <trkpt lat="50.46395" lon="2.47456">
        <ele>122.22473</ele>
        <time>2011-04-16T16:58:47Z</time>
      </trkpt>
      <trkpt lat="50.46378" lon="2.47432">
        <ele>122.22473</ele>
        <time>2011-04-16T16:58:56Z</time>
      </trkpt>
      <trkpt lat="50.4637" lon="2.47415">
        <ele>121.74414</ele>
        <time>2011-04-16T16:59:01Z</time>
      </trkpt>
      <trkpt lat="50.46377" lon="2.47397">
        <ele>121.26354</ele>
        <time>2011-04-16T16:59:07Z</time>
      </trkpt>
      <trkpt lat="50.46399" lon="2.47368">
        <ele>120.78283</ele>
        <time>2011-04-16T16:59:18Z</time>
      </trkpt>
      <trkpt lat="50.46432" lon="2.47321">
        <ele>118.8601</ele>
        <time>2011-04-16T16:59:36Z</time>
      </trkpt>
      <trkpt lat="50.46465" lon="2.47276">
        <ele>116.9375</ele>
        <time>2011-04-16T16:59:53Z</time>
      </trkpt>
      <trkpt lat="50.46517" lon="2.47204">
        <ele>112.61157</ele>
        <time>2011-04-16T17:00:21Z</time>
      </trkpt>
      <trkpt lat="50.46553" lon="2.47154">
        <ele>110.68884</ele>
        <time>2011-04-16T17:00:41Z</time>
      </trkpt>
      <trkpt lat="50.46583" lon="2.47111">
        <ele>109.24694</ele>
        <time>2011-04-16T17:00:57Z</time>
      </trkpt>
      <trkpt lat="50.46593" lon="2.47083">
        <ele>108.76623</ele>
        <time>2011-04-16T17:01:05Z</time>
      </trkpt>
      <trkpt lat="50.46591" lon="2.47077">
        <ele>108.76623</ele>
        <time>2011-04-16T17:01:07Z</time>
      </trkpt>
      <trkpt lat="50.46571" lon="2.47018">
        <ele>108.76623</ele>
        <time>2011-04-16T17:01:24Z</time>
      </trkpt>
      <trkpt lat="50.46553" lon="2.46953">
        <ele>108.76623</ele>
        <time>2011-04-16T17:01:42Z</time>
      </trkpt>
      <trkpt lat="50.46545" lon="2.4693">
        <ele>108.76623</ele>
        <time>2011-04-16T17:01:49Z</time>
      </trkpt>
      <trkpt lat="50.46549" lon="2.46901">
        <ele>107.80505</ele>
        <time>2011-04-16T17:01:56Z</time>
      </trkpt>
      <trkpt lat="50.46587" lon="2.4684">
        <ele>105.88244</ele>
        <time>2011-04-16T17:02:18Z</time>
      </trkpt>
      <trkpt lat="50.46638" lon="2.4676">
        <ele>104.44042</ele>
        <time>2011-04-16T17:02:47Z</time>
      </trkpt>
      <trkpt lat="50.46687" lon="2.46683">
        <ele>104.44042</ele>
        <time>2011-04-16T17:03:15Z</time>
      </trkpt>
      <trkpt lat="50.46726" lon="2.46622">
        <ele>104.92102</ele>
        <time>2011-04-16T17:03:37Z</time>
      </trkpt>
      <trkpt lat="50.46749" lon="2.46609">
        <ele>104.92102</ele>
        <time>2011-04-16T17:03:47Z</time>
      </trkpt>
      <trkpt lat="50.46763" lon="2.46627">
        <ele>104.92102</ele>
        <time>2011-04-16T17:03:54Z</time>
      </trkpt>
      <trkpt lat="50.46792" lon="2.46684">
        <ele>105.40173</ele>
        <time>2011-04-16T17:04:12Z</time>
      </trkpt>
      <trkpt lat="50.46825" lon="2.46751">
        <ele>106.36303</ele>
        <time>2011-04-16T17:04:34Z</time>
      </trkpt>
      <trkpt lat="50.46872" lon="2.46835">
        <ele>106.36303</ele>
        <time>2011-04-16T17:05:02Z</time>
      </trkpt>
      <trkpt lat="50.46899" lon="2.46886">
        <ele>106.84362</ele>
        <time>2011-04-16T17:05:19Z</time>
      </trkpt>
      <trkpt lat="50.46904" lon="2.46894">
        <ele>106.84362</ele>
        <time>2011-04-16T17:05:22Z</time>
      </trkpt>
      <trkpt lat="50.46921" lon="2.46927">
        <ele>106.84362</ele>
        <time>2011-04-16T17:05:33Z</time>
      </trkpt>
      <trkpt lat="50.46943" lon="2.46961">
        <ele>106.84362</ele>
        <time>2011-04-16T17:05:45Z</time>
      </trkpt>
      <trkpt lat="50.46972" lon="2.47019">
        <ele>106.36303</ele>
        <time>2011-04-16T17:06:04Z</time>
      </trkpt>
      <trkpt lat="50.46996" lon="2.47061">
        <ele>105.88244</ele>
        <time>2011-04-16T17:06:19Z</time>
      </trkpt>
      <trkpt lat="50.47035" lon="2.47115">
        <ele>104.92102</ele>
        <time>2011-04-16T17:06:39Z</time>
      </trkpt>
      <trkpt lat="50.47088" lon="2.47182">
        <ele>103.95971</ele>
        <time>2011-04-16T17:07:07Z</time>
      </trkpt>
      <trkpt lat="50.47107" lon="2.47208">
        <ele>102.99829</ele>
        <time>2011-04-16T17:07:17Z</time>
      </trkpt>
      <trkpt lat="50.47119" lon="2.47214">
        <ele>102.5177</ele>
        <time>2011-04-16T17:07:22Z</time>
      </trkpt>
      <trkpt lat="50.47121" lon="2.47205">
        <ele>102.99829</ele>
        <time>2011-04-16T17:07:24Z</time>
      </trkpt>
      <trkpt lat="50.47125" lon="2.47154">
        <ele>102.99829</ele>
        <time>2011-04-16T17:07:37Z</time>
      </trkpt>
      <trkpt lat="50.47135" lon="2.47084">
        <ele>102.99829</ele>
        <time>2011-04-16T17:07:55Z</time>
      </trkpt>
      <trkpt lat="50.47147" lon="2.47024">
        <ele>102.0371</ele>
        <time>2011-04-16T17:08:11Z</time>
      </trkpt>
      <trkpt lat="50.47159" lon="2.46978">
        <ele>102.0371</ele>
        <time>2011-04-16T17:08:24Z</time>
      </trkpt>
      <trkpt lat="50.4717" lon="2.46953">
        <ele>101.55639</ele>
        <time>2011-04-16T17:08:32Z</time>
      </trkpt>
      <trkpt lat="50.47177" lon="2.46935">
        <ele>101.55639</ele>
        <time>2011-04-16T17:08:37Z</time>
      </trkpt>
      <trkpt lat="50.47184" lon="2.46916">
        <ele>100.59509</ele>
        <time>2011-04-16T17:08:43Z</time>
      </trkpt>
      <trkpt lat="50.47196" lon="2.46886">
        <ele>100.59509</ele>
        <time>2011-04-16T17:08:52Z</time>
      </trkpt>
      <trkpt lat="50.47227" lon="2.46829">
        <ele>100.1145</ele>
        <time>2011-04-16T17:09:11Z</time>
      </trkpt>
      <trkpt lat="50.4726" lon="2.46787">
        <ele>98.672485</ele>
        <time>2011-04-16T17:09:28Z</time>
      </trkpt>
      <trkpt lat="50.47288" lon="2.46765">
        <ele>96.749877</ele>
        <time>2011-04-16T17:09:41Z</time>
      </trkpt>
      <trkpt lat="50.47309" lon="2.46748">
        <ele>95.307739</ele>
        <time>2011-04-16T17:09:50Z</time>
      </trkpt>
      <trkpt lat="50.47358" lon="2.46717">
        <ele>92.904541</ele>
        <time>2011-04-16T17:10:11Z</time>
      </trkpt>
      <trkpt lat="50.47391" lon="2.46702">
        <ele>90.981933</ele>
        <time>2011-04-16T17:10:25Z</time>
      </trkpt>
      <trkpt lat="50.4743" lon="2.46693">
        <ele>88.578735</ele>
        <time>2011-04-16T17:10:41Z</time>
      </trkpt>
      <trkpt lat="50.47491" lon="2.46699">
        <ele>82.810791</ele>
        <time>2011-04-16T17:11:05Z</time>
      </trkpt>
      <trkpt lat="50.47548" lon="2.46709">
        <ele>79.926635</ele>
        <time>2011-04-16T17:11:28Z</time>
      </trkpt>
      <trkpt lat="50.4757" lon="2.46714">
        <ele>78.484741</ele>
        <time>2011-04-16T17:11:37Z</time>
      </trkpt>
      <trkpt lat="50.47617" lon="2.46742">
        <ele>77.042846</ele>
        <time>2011-04-16T17:11:57Z</time>
      </trkpt>
      <trkpt lat="50.47654" lon="2.4678">
        <ele>76.08142</ele>
        <time>2011-04-16T17:12:15Z</time>
      </trkpt>
      <trkpt lat="50.47699" lon="2.46833">
        <ele>75.60083</ele>
        <time>2011-04-16T17:12:37Z</time>
      </trkpt>
      <trkpt lat="50.47734" lon="2.4688">
        <ele>75.120239</ele>
        <time>2011-04-16T17:12:56Z</time>
      </trkpt>
      <trkpt lat="50.47739" lon="2.46888">
        <ele>74.639526</ele>
        <time>2011-04-16T17:12:59Z</time>
      </trkpt>
      <trkpt lat="50.4777" lon="2.46936">
        <ele>74.639526</ele>
        <time>2011-04-16T17:13:16Z</time>
      </trkpt>
      <trkpt lat="50.47801" lon="2.47">
        <ele>77.042846</ele>
        <time>2011-04-16T17:13:36Z</time>
      </trkpt>
      <trkpt lat="50.47839" lon="2.4707">
        <ele>78.965454</ele>
        <time>2011-04-16T17:14:00Z</time>
      </trkpt>
      <trkpt lat="50.47859" lon="2.47119">
        <ele>78.004028</ele>
        <time>2011-04-16T17:14:15Z</time>
      </trkpt>
      <trkpt lat="50.47882" lon="2.47156">
        <ele>76.562133</ele>
        <time>2011-04-16T17:14:28Z</time>
      </trkpt>
      <trkpt lat="50.479" lon="2.47184">
        <ele>75.60083</ele>
        <time>2011-04-16T17:14:38Z</time>
      </trkpt>
      <trkpt lat="50.4793" lon="2.47199">
        <ele>75.60083</ele>
        <time>2011-04-16T17:14:51Z</time>
      </trkpt>
      <trkpt lat="50.47948" lon="2.47182">
        <ele>74.639526</ele>
        <time>2011-04-16T17:14:59Z</time>
      </trkpt>
      <trkpt lat="50.47951" lon="2.47175">
        <ele>74.158813</ele>
        <time>2011-04-16T17:15:01Z</time>
      </trkpt>
      <trkpt lat="50.47956" lon="2.47162">
        <ele>74.639526</ele>
        <time>2011-04-16T17:15:05Z</time>
      </trkpt>
      <trkpt lat="50.47975" lon="2.47131">
        <ele>75.120239</ele>
        <time>2011-04-16T17:15:16Z</time>
      </trkpt>
      <trkpt lat="50.48003" lon="2.47107">
        <ele>74.639526</ele>
        <time>2011-04-16T17:15:29Z</time>
      </trkpt>
      <trkpt lat="50.48046" lon="2.47087">
        <ele>73.197631</ele>
        <time>2011-04-16T17:15:47Z</time>
      </trkpt>
      <trkpt lat="50.48051" lon="2.47085">
        <ele>73.197631</ele>
        <time>2011-04-16T17:15:49Z</time>
      </trkpt>
      <trkpt lat="50.48069" lon="2.47048">
        <ele>70.794189</ele>
        <time>2011-04-16T17:16:01Z</time>
      </trkpt>
      <trkpt lat="50.48071" lon="2.47021">
        <ele>69.832885</ele>
        <time>2011-04-16T17:16:08Z</time>
      </trkpt>
      <trkpt lat="50.48085" lon="2.46956">
        <ele>66.948974</ele>
        <time>2011-04-16T17:16:25Z</time>
      </trkpt>
      <trkpt lat="50.48092" lon="2.46921">
        <ele>65.50708</ele>
        <time>2011-04-16T17:16:34Z</time>
      </trkpt>
      <trkpt lat="50.48094" lon="2.46908">
        <ele>64.545654</ele>
        <time>2011-04-16T17:16:38Z</time>
      </trkpt>
      <trkpt lat="50.48114" lon="2.46836">
        <ele>61.18103</ele>
        <time>2011-04-16T17:16:58Z</time>
      </trkpt>
      <trkpt lat="50.48128" lon="2.46801">
        <ele>59.258422</ele>
        <time>2011-04-16T17:17:08Z</time>
      </trkpt>
      <trkpt lat="50.48131" lon="2.46755">
        <ele>58.77771</ele>
        <time>2011-04-16T17:17:20Z</time>
      </trkpt>
      <trkpt lat="50.48142" lon="2.46708">
        <ele>57.335815</ele>
        <time>2011-04-16T17:17:33Z</time>
      </trkpt>
      <trkpt lat="50.48155" lon="2.46696">
        <ele>56.855102</ele>
        <time>2011-04-16T17:17:39Z</time>
      </trkpt>
      <trkpt lat="50.48201" lon="2.4666">
        <ele>56.855102</ele>
        <time>2011-04-16T17:17:59Z</time>
      </trkpt>
      <trkpt lat="50.48247" lon="2.46617">
        <ele>53.490478</ele>
        <time>2011-04-16T17:18:21Z</time>
      </trkpt>
      <trkpt lat="50.48303" lon="2.46574">
        <ele>50.606567</ele>
        <time>2011-04-16T17:18:46Z</time>
      </trkpt>
      <trkpt lat="50.48351" lon="2.46511">
        <ele>51.087158</ele>
        <time>2011-04-16T17:19:11Z</time>
      </trkpt>
      <trkpt lat="50.48371" lon="2.46489">
        <ele>51.567871</ele>
        <time>2011-04-16T17:19:21Z</time>
      </trkpt>
      <trkpt lat="50.48415" lon="2.46464">
        <ele>52.529174</ele>
        <time>2011-04-16T17:19:39Z</time>
      </trkpt>
      <trkpt lat="50.48462" lon="2.46447">
        <ele>51.087158</ele>
        <time>2011-04-16T17:19:59Z</time>
      </trkpt>
      <trkpt lat="50.48486" lon="2.4642">
        <ele>50.125976</ele>
        <time>2011-04-16T17:20:10Z</time>
      </trkpt>
      <trkpt lat="50.48486" lon="2.46385">
        <ele>50.125976</ele>
        <time>2011-04-16T17:20:19Z</time>
      </trkpt>
      <trkpt lat="50.48483" lon="2.46374">
        <ele>50.125976</ele>
        <time>2011-04-16T17:20:22Z</time>
      </trkpt>
      <trkpt lat="50.48453" lon="2.46297">
        <ele>50.606567</ele>
        <time>2011-04-16T17:20:45Z</time>
      </trkpt>
      <trkpt lat="50.48435" lon="2.46223">
        <ele>51.087158</ele>
        <time>2011-04-16T17:21:05Z</time>
      </trkpt>
      <trkpt lat="50.48426" lon="2.46166">
        <ele>52.529174</ele>
        <time>2011-04-16T17:21:21Z</time>
      </trkpt>
      <trkpt lat="50.48425" lon="2.46152">
        <ele>53.009765</ele>
        <time>2011-04-16T17:21:24Z</time>
      </trkpt>
      <trkpt lat="50.48432" lon="2.46124">
        <ele>53.490478</ele>
        <time>2011-04-16T17:21:32Z</time>
      </trkpt>
      <trkpt lat="50.48434" lon="2.46118">
        <ele>53.490478</ele>
        <time>2011-04-16T17:21:34Z</time>
      </trkpt>
      <trkpt lat="50.48449" lon="2.46058">
        <ele>53.971191</ele>
        <time>2011-04-16T17:21:50Z</time>
      </trkpt>
      <trkpt lat="50.48458" lon="2.46026">
        <ele>54.451782</ele>
        <time>2011-04-16T17:21:59Z</time>
      </trkpt>
      <trkpt lat="50.48477" lon="2.4599">
        <ele>55.413085</ele>
        <time>2011-04-16T17:22:11Z</time>
      </trkpt>
      <trkpt lat="50.48481" lon="2.45973">
        <ele>56.374511</ele>
        <time>2011-04-16T17:22:15Z</time>
      </trkpt>
      <trkpt lat="50.48485" lon="2.45949">
        <ele>57.335815</ele>
        <time>2011-04-16T17:22:22Z</time>
      </trkpt>
      <trkpt lat="50.48486" lon="2.45901">
        <ele>60.219726</ele>
        <time>2011-04-16T17:22:34Z</time>
      </trkpt>
      <trkpt lat="50.48494" lon="2.45889">
        <ele>61.661743</ele>
        <time>2011-04-16T17:22:39Z</time>
      </trkpt>
      <trkpt lat="50.4851" lon="2.45886">
        <ele>63.58435</ele>
        <time>2011-04-16T17:22:45Z</time>
      </trkpt>
      <trkpt lat="50.48528" lon="2.45884">
        <ele>66.948974</ele>
        <time>2011-04-16T17:22:52Z</time>
      </trkpt>
      <trkpt lat="50.4854" lon="2.45877">
        <ele>69.832885</ele>
        <time>2011-04-16T17:22:57Z</time>
      </trkpt>
      <trkpt lat="50.4855" lon="2.45861">
        <ele>72.236206</ele>
        <time>2011-04-16T17:23:03Z</time>
      </trkpt>
      <trkpt lat="50.48559" lon="2.45847">
        <ele>73.197631</ele>
        <time>2011-04-16T17:23:08Z</time>
      </trkpt>
      <trkpt lat="50.48568" lon="2.45831">
        <ele>76.562133</ele>
        <time>2011-04-16T17:23:13Z</time>
      </trkpt>
      <trkpt lat="50.48582" lon="2.45814">
        <ele>80.40747</ele>
        <time>2011-04-16T17:23:20Z</time>
      </trkpt>
      <trkpt lat="50.48595" lon="2.458">
        <ele>81.849365</ele>
        <time>2011-04-16T17:23:27Z</time>
      </trkpt>
      <trkpt lat="50.48609" lon="2.45791">
        <ele>83.771972</ele>
        <time>2011-04-16T17:23:33Z</time>
      </trkpt>
      <trkpt lat="50.48631" lon="2.45777">
        <ele>86.175293</ele>
        <time>2011-04-16T17:23:42Z</time>
      </trkpt>
      <trkpt lat="50.48648" lon="2.45766">
        <ele>87.136596</ele>
        <time>2011-04-16T17:23:50Z</time>
      </trkpt>
      <trkpt lat="50.48667" lon="2.45753">
        <ele>84.733398</ele>
        <time>2011-04-16T17:23:58Z</time>
      </trkpt>
      <trkpt lat="50.48703" lon="2.45738">
        <ele>85.69458</ele>
        <time>2011-04-16T17:24:13Z</time>
      </trkpt>
      <trkpt lat="50.48725" lon="2.45724">
        <ele>87.617187</ele>
        <time>2011-04-16T17:24:22Z</time>
      </trkpt>
      <trkpt lat="50.48747" lon="2.45701">
        <ele>89.059326</ele>
        <time>2011-04-16T17:24:33Z</time>
      </trkpt>
      <trkpt lat="50.48772" lon="2.45672">
        <ele>90.020629</ele>
        <time>2011-04-16T17:24:46Z</time>
      </trkpt>
      <trkpt lat="50.48787" lon="2.45638">
        <ele>91.462524</ele>
        <time>2011-04-16T17:24:56Z</time>
      </trkpt>
      <trkpt lat="50.48801" lon="2.45593">
        <ele>92.904541</ele>
        <time>2011-04-16T17:25:09Z</time>
      </trkpt>
      <trkpt lat="50.48815" lon="2.45555">
        <ele>94.346557</ele>
        <time>2011-04-16T17:25:20Z</time>
      </trkpt>
      <trkpt lat="50.48829" lon="2.45515">
        <ele>96.749877</ele>
        <time>2011-04-16T17:25:32Z</time>
      </trkpt>
      <trkpt lat="50.48836" lon="2.45489">
        <ele>97.711181</ele>
        <time>2011-04-16T17:25:39Z</time>
      </trkpt>
      <trkpt lat="50.4885" lon="2.45452">
        <ele>99.153076</ele>
        <time>2011-04-16T17:25:50Z</time>
      </trkpt>
      <trkpt lat="50.48863" lon="2.45412">
        <ele>101.55639</ele>
        <time>2011-04-16T17:26:01Z</time>
      </trkpt>
      <trkpt lat="50.48869" lon="2.45376">
        <ele>102.99829</ele>
        <time>2011-04-16T17:26:11Z</time>
      </trkpt>
      <trkpt lat="50.48869" lon="2.45328">
        <ele>104.92102</ele>
        <time>2011-04-16T17:26:23Z</time>
      </trkpt>
      <trkpt lat="50.48871" lon="2.45277">
        <ele>106.84362</ele>
        <time>2011-04-16T17:26:36Z</time>
      </trkpt>
      <trkpt lat="50.48881" lon="2.45232">
        <ele>107.80505</ele>
        <time>2011-04-16T17:26:48Z</time>
      </trkpt>
      <trkpt lat="50.48901" lon="2.45164">
        <ele>108.76623</ele>
        <time>2011-04-16T17:27:07Z</time>
      </trkpt>
      <trkpt lat="50.48921" lon="2.45112">
        <ele>109.24694</ele>
        <time>2011-04-16T17:27:23Z</time>
      </trkpt>
      <trkpt lat="50.48945" lon="2.45058">
        <ele>109.24694</ele>
        <time>2011-04-16T17:27:39Z</time>
      </trkpt>
      <trkpt lat="50.48973" lon="2.44994">
        <ele>109.72766</ele>
        <time>2011-04-16T17:27:59Z</time>
      </trkpt>
      <trkpt lat="50.48999" lon="2.44935">
        <ele>110.20825</ele>
        <time>2011-04-16T17:28:17Z</time>
      </trkpt>
      <trkpt lat="50.49018" lon="2.44878">
        <ele>110.68884</ele>
        <time>2011-04-16T17:28:34Z</time>
      </trkpt>
      <trkpt lat="50.49037" lon="2.44818">
        <ele>111.65026</ele>
        <time>2011-04-16T17:28:51Z</time>
      </trkpt>
      <trkpt lat="50.4906" lon="2.44764">
        <ele>112.13098</ele>
        <time>2011-04-16T17:29:08Z</time>
      </trkpt>
      <trkpt lat="50.49089" lon="2.4472">
        <ele>111.16955</ele>
        <time>2011-04-16T17:29:24Z</time>
      </trkpt>
      <trkpt lat="50.49127" lon="2.44664">
        <ele>109.24694</ele>
        <time>2011-04-16T17:29:45Z</time>
      </trkpt>
      <trkpt lat="50.49166" lon="2.44605">
        <ele>107.32434</ele>
        <time>2011-04-16T17:30:06Z</time>
      </trkpt>
      <trkpt lat="50.49182" lon="2.44579">
        <ele>106.84362</ele>
        <time>2011-04-16T17:30:16Z</time>
      </trkpt>
      <trkpt lat="50.4919" lon="2.4457">
        <ele>106.84362</ele>
        <time>2011-04-16T17:30:19Z</time>
      </trkpt>
      <trkpt lat="50.49191" lon="2.4457">
        <ele>106.36303</ele>
        <time>2011-04-16T17:30:20Z</time>
      </trkpt>
      <trkpt lat="50.49195" lon="2.44564">
        <ele>106.84362</ele>
        <time>2011-04-16T17:30:20Z</time>
      </trkpt>
      <trkpt lat="50.49201" lon="2.44557">
        <ele>106.36303</ele>
        <time>2011-04-16T17:30:23Z</time>
      </trkpt>
      <trkpt lat="50.49205" lon="2.44551">
        <ele>107.32434</ele>
        <time>2011-04-16T17:30:23Z</time>
      </trkpt>
      <trkpt lat="50.49208" lon="2.44545">
        <ele>108.28564</ele>
        <time>2011-04-16T17:30:25Z</time>
      </trkpt>
      <trkpt lat="50.49213" lon="2.44538">
        <ele>108.76623</ele>
        <time>2011-04-16T17:30:28Z</time>
      </trkpt>
      <trkpt lat="50.49224" lon="2.44521">
        <ele>109.24694</ele>
        <time>2011-04-16T17:30:33Z</time>
      </trkpt>
      <trkpt lat="50.49235" lon="2.44499">
        <ele>108.76623</ele>
        <time>2011-04-16T17:30:41Z</time>
      </trkpt>
      <trkpt lat="50.49239" lon="2.44479">
        <ele>108.28564</ele>
        <time>2011-04-16T17:30:46Z</time>
      </trkpt>
      <trkpt lat="50.49246" lon="2.44449">
        <ele>108.28564</ele>
        <time>2011-04-16T17:30:54Z</time>
      </trkpt>
      <trkpt lat="50.49262" lon="2.44379">
        <ele>109.72766</ele>
        <time>2011-04-16T17:31:13Z</time>
      </trkpt>
      <trkpt lat="50.49272" lon="2.44328">
        <ele>111.65026</ele>
        <time>2011-04-16T17:31:27Z</time>
      </trkpt>
      <trkpt lat="50.49285" lon="2.4427">
        <ele>113.09228</ele>
        <time>2011-04-16T17:31:42Z</time>
      </trkpt>
      <trkpt lat="50.49295" lon="2.44228">
        <ele>114.53417</ele>
        <time>2011-04-16T17:31:54Z</time>
      </trkpt>
      <trkpt lat="50.49309" lon="2.44194">
        <ele>115.4956</ele>
        <time>2011-04-16T17:32:04Z</time>
      </trkpt>
      <trkpt lat="50.49321" lon="2.44157">
        <ele>115.97619</ele>
        <time>2011-04-16T17:32:15Z</time>
      </trkpt>
      <trkpt lat="50.49325" lon="2.44118">
        <ele>116.9375</ele>
        <time>2011-04-16T17:32:25Z</time>
      </trkpt>
      <trkpt lat="50.49327" lon="2.44081">
        <ele>117.8988</ele>
        <time>2011-04-16T17:32:34Z</time>
      </trkpt>
      <trkpt lat="50.49332" lon="2.44037">
        <ele>119.82141</ele>
        <time>2011-04-16T17:32:46Z</time>
      </trkpt>
      <trkpt lat="50.49343" lon="2.43986">
        <ele>121.26354</ele>
        <time>2011-04-16T17:32:59Z</time>
      </trkpt>
      <trkpt lat="50.49356" lon="2.43935">
        <ele>121.74414</ele>
        <time>2011-04-16T17:33:13Z</time>
      </trkpt>
      <trkpt lat="50.49371" lon="2.43872">
        <ele>121.26354</ele>
        <time>2011-04-16T17:33:31Z</time>
      </trkpt>
      <trkpt lat="50.49386" lon="2.43811">
        <ele>121.26354</ele>
        <time>2011-04-16T17:33:47Z</time>
      </trkpt>
      <trkpt lat="50.49405" lon="2.43743">
        <ele>120.30212</ele>
        <time>2011-04-16T17:34:06Z</time>
      </trkpt>
      <trkpt lat="50.49425" lon="2.43675">
        <ele>118.8601</ele>
        <time>2011-04-16T17:34:25Z</time>
      </trkpt>
      <trkpt lat="50.49454" lon="2.4361">
        <ele>116.9375</ele>
        <time>2011-04-16T17:34:45Z</time>
      </trkpt>
      <trkpt lat="50.49458" lon="2.43601">
        <ele>116.45678</ele>
        <time>2011-04-16T17:34:48Z</time>
      </trkpt>
      <trkpt lat="50.49466" lon="2.43558">
        <ele>115.01489</ele>
        <time>2011-04-16T17:35:00Z</time>
      </trkpt>
      <trkpt lat="50.49455" lon="2.43513">
        <ele>115.01489</ele>
        <time>2011-04-16T17:35:12Z</time>
      </trkpt>
      <trkpt lat="50.49425" lon="2.43452">
        <ele>115.01489</ele>
        <time>2011-04-16T17:35:31Z</time>
      </trkpt>
      <trkpt lat="50.49393" lon="2.43412">
        <ele>115.01489</ele>
        <time>2011-04-16T17:35:48Z</time>
      </trkpt>
      <trkpt lat="50.4935" lon="2.43379">
        <ele>114.53417</ele>
        <time>2011-04-16T17:36:07Z</time>
      </trkpt>
      <trkpt lat="50.49324" lon="2.43345">
        <ele>115.01489</ele>
        <time>2011-04-16T17:36:20Z</time>
      </trkpt>
      <trkpt lat="50.49275" lon="2.43235">
        <ele>115.4956</ele>
        <time>2011-04-16T17:36:55Z</time>
      </trkpt>
      <trkpt lat="50.49249" lon="2.43174">
        <ele>115.4956</ele>
        <time>2011-04-16T17:37:13Z</time>
      </trkpt>
      <trkpt lat="50.49222" lon="2.43128">
        <ele>115.4956</ele>
        <time>2011-04-16T17:37:29Z</time>
      </trkpt>
      <trkpt lat="50.49188" lon="2.43075">
        <ele>115.4956</ele>
        <time>2011-04-16T17:37:48Z</time>
      </trkpt>
      <trkpt lat="50.49169" lon="2.43017">
        <ele>115.4956</ele>
        <time>2011-04-16T17:38:05Z</time>
      </trkpt>
      <trkpt lat="50.49149" lon="2.4294">
        <ele>115.97619</ele>
        <time>2011-04-16T17:38:26Z</time>
      </trkpt>
      <trkpt lat="50.49129" lon="2.42867">
        <ele>115.97619</ele>
        <time>2011-04-16T17:38:46Z</time>
      </trkpt>
      <trkpt lat="50.49112" lon="2.42791">
        <ele>116.45678</ele>
        <time>2011-04-16T17:39:07Z</time>
      </trkpt>
      <trkpt lat="50.49104" lon="2.4276">
        <ele>116.45678</ele>
        <time>2011-04-16T17:39:15Z</time>
      </trkpt>
      <trkpt lat="50.49095" lon="2.4272">
        <ele>118.37939</ele>
        <time>2011-04-16T17:39:26Z</time>
      </trkpt>
      <trkpt lat="50.49085" lon="2.42649">
        <ele>119.82141</ele>
        <time>2011-04-16T17:39:45Z</time>
      </trkpt>
      <trkpt lat="50.49084" lon="2.42579">
        <ele>121.74414</ele>
        <time>2011-04-16T17:40:03Z</time>
      </trkpt>
      <trkpt lat="50.49085" lon="2.42496">
        <ele>123.66674</ele>
        <time>2011-04-16T17:40:24Z</time>
      </trkpt>
      <trkpt lat="50.49085" lon="2.42442">
        <ele>126.06994</ele>
        <time>2011-04-16T17:40:38Z</time>
      </trkpt>
      <trkpt lat="50.49084" lon="2.42389">
        <ele>127.99255</ele>
        <time>2011-04-16T17:40:51Z</time>
      </trkpt>
      <trkpt lat="50.49077" lon="2.4233">
        <ele>129.43469</ele>
        <time>2011-04-16T17:41:06Z</time>
      </trkpt>
      <trkpt lat="50.49068" lon="2.42288">
        <ele>129.91528</ele>
        <time>2011-04-16T17:41:18Z</time>
      </trkpt>
      <trkpt lat="50.49047" lon="2.42243">
        <ele>129.91528</ele>
        <time>2011-04-16T17:41:32Z</time>
      </trkpt>
      <trkpt lat="50.49021" lon="2.42183">
        <ele>127.99255</ele>
        <time>2011-04-16T17:41:50Z</time>
      </trkpt>
      <trkpt lat="50.4899" lon="2.42119">
        <ele>125.10876</ele>
        <time>2011-04-16T17:42:11Z</time>
      </trkpt>
      <trkpt lat="50.48959" lon="2.42073">
        <ele>122.22473</ele>
        <time>2011-04-16T17:42:28Z</time>
      </trkpt>
      <trkpt lat="50.4895" lon="2.42032">
        <ele>119.82141</ele>
        <time>2011-04-16T17:42:39Z</time>
      </trkpt>
      <trkpt lat="50.48956" lon="2.42015">
        <ele>118.37939</ele>
        <time>2011-04-16T17:42:44Z</time>
      </trkpt>
      <trkpt lat="50.4896" lon="2.41982">
        <ele>116.9375</ele>
        <time>2011-04-16T17:42:53Z</time>
      </trkpt>
      <trkpt lat="50.48949" lon="2.41965">
        <ele>115.4956</ele>
        <time>2011-04-16T17:42:59Z</time>
      </trkpt>
      <trkpt lat="50.48908" lon="2.41918">
        <ele>112.13098</ele>
        <time>2011-04-16T17:43:19Z</time>
      </trkpt>
      <trkpt lat="50.48847" lon="2.41854">
        <ele>106.84362</ele>
        <time>2011-04-16T17:43:49Z</time>
      </trkpt>
      <trkpt lat="50.48773" lon="2.41774">
        <ele>101.07568</ele>
        <time>2011-04-16T17:44:25Z</time>
      </trkpt>
      <trkpt lat="50.48701" lon="2.41696">
        <ele>97.711181</ele>
        <time>2011-04-16T17:44:59Z</time>
      </trkpt>
      <trkpt lat="50.48683" lon="2.41676">
        <ele>97.230468</ele>
        <time>2011-04-16T17:45:08Z</time>
      </trkpt>
      <trkpt lat="50.48675" lon="2.41648">
        <ele>96.749877</ele>
        <time>2011-04-16T17:45:16Z</time>
      </trkpt>
      <trkpt lat="50.48684" lon="2.41622">
        <ele>96.269287</ele>
        <time>2011-04-16T17:45:24Z</time>
      </trkpt>
      <trkpt lat="50.48679" lon="2.41605">
        <ele>95.788452</ele>
        <time>2011-04-16T17:45:28Z</time>
      </trkpt>
      <trkpt lat="50.48669" lon="2.41569">
        <ele>93.865844</ele>
        <time>2011-04-16T17:45:38Z</time>
      </trkpt>
      <trkpt lat="50.48686" lon="2.41544">
        <ele>92.42395</ele>
        <time>2011-04-16T17:45:47Z</time>
      </trkpt>
      <trkpt lat="50.48693" lon="2.4154">
        <ele>92.42395</ele>
        <time>2011-04-16T17:45:51Z</time>
      </trkpt>
      <trkpt lat="50.48746" lon="2.4151">
        <ele>92.42395</ele>
        <time>2011-04-16T17:46:13Z</time>
      </trkpt>
      <trkpt lat="50.48797" lon="2.41478">
        <ele>92.904541</ele>
        <time>2011-04-16T17:46:35Z</time>
      </trkpt>
      <trkpt lat="50.48826" lon="2.4146">
        <ele>92.904541</ele>
        <time>2011-04-16T17:46:47Z</time>
      </trkpt>
      <trkpt lat="50.48855" lon="2.4146">
        <ele>93.385131</ele>
        <time>2011-04-16T17:46:59Z</time>
      </trkpt>
      <trkpt lat="50.48868" lon="2.41466">
        <ele>93.865844</ele>
        <time>2011-04-16T17:47:05Z</time>
      </trkpt>
      <trkpt lat="50.48908" lon="2.41493">
        <ele>95.307739</ele>
        <time>2011-04-16T17:47:22Z</time>
      </trkpt>
      <trkpt lat="50.48932" lon="2.41509">
        <ele>96.269287</ele>
        <time>2011-04-16T17:47:32Z</time>
      </trkpt>
      <trkpt lat="50.48971" lon="2.4153">
        <ele>98.672485</ele>
        <time>2011-04-16T17:47:49Z</time>
      </trkpt>
      <trkpt lat="50.49001" lon="2.41543">
        <ele>101.55639</ele>
        <time>2011-04-16T17:48:02Z</time>
      </trkpt>
      <trkpt lat="50.49037" lon="2.41553">
        <ele>104.44042</ele>
        <time>2011-04-16T17:48:16Z</time>
      </trkpt>
      <trkpt lat="50.49065" lon="2.41556">
        <ele>105.88244</ele>
        <time>2011-04-16T17:48:27Z</time>
      </trkpt>
      <trkpt lat="50.49093" lon="2.41556">
        <ele>107.32434</ele>
        <time>2011-04-16T17:48:38Z</time>
      </trkpt>
      <trkpt lat="50.49114" lon="2.41567">
        <ele>108.76623</ele>
        <time>2011-04-16T17:48:47Z</time>
      </trkpt>
      <trkpt lat="50.49137" lon="2.4158">
        <ele>110.20825</ele>
        <time>2011-04-16T17:48:57Z</time>
      </trkpt>
      <trkpt lat="50.49162" lon="2.41601">
        <ele>112.13098</ele>
        <time>2011-04-16T17:49:09Z</time>
      </trkpt>
      <trkpt lat="50.49179" lon="2.41614">
        <ele>114.05358</ele>
        <time>2011-04-16T17:49:16Z</time>
      </trkpt>
      <trkpt lat="50.49193" lon="2.41624">
        <ele>116.9375</ele>
        <time>2011-04-16T17:49:22Z</time>
      </trkpt>
      <trkpt lat="50.49201" lon="2.41622">
        <ele>117.8988</ele>
        <time>2011-04-16T17:49:26Z</time>
      </trkpt>
      <trkpt lat="50.49208" lon="2.41601">
        <ele>117.41821</ele>
        <time>2011-04-16T17:49:31Z</time>
      </trkpt>
      <trkpt lat="50.4922" lon="2.41559">
        <ele>118.37939</ele>
        <time>2011-04-16T17:49:43Z</time>
      </trkpt>
      <trkpt lat="50.49227" lon="2.41531">
        <ele>119.82141</ele>
        <time>2011-04-16T17:49:51Z</time>
      </trkpt>
      <trkpt lat="50.49235" lon="2.41491">
        <ele>121.26354</ele>
        <time>2011-04-16T17:50:02Z</time>
      </trkpt>
      <trkpt lat="50.49241" lon="2.41455">
        <ele>123.18615</ele>
        <time>2011-04-16T17:50:11Z</time>
      </trkpt>
      <trkpt lat="50.49245" lon="2.41414">
        <ele>125.58935</ele>
        <time>2011-04-16T17:50:22Z</time>
      </trkpt>
      <trkpt lat="50.49248" lon="2.41378">
        <ele>127.03137</ele>
        <time>2011-04-16T17:50:31Z</time>
      </trkpt>
      <trkpt lat="50.49249" lon="2.41353">
        <ele>127.51196</ele>
        <time>2011-04-16T17:50:37Z</time>
      </trkpt>
      <trkpt lat="50.4925" lon="2.41326">
        <ele>127.99255</ele>
        <time>2011-04-16T17:50:44Z</time>
      </trkpt>
      <trkpt lat="50.49247" lon="2.4129">
        <ele>127.51196</ele>
        <time>2011-04-16T17:50:53Z</time>
      </trkpt>
      <trkpt lat="50.49246" lon="2.41252">
        <ele>126.55065</ele>
        <time>2011-04-16T17:51:03Z</time>
      </trkpt>
      <trkpt lat="50.49245" lon="2.41221">
        <ele>126.55065</ele>
        <time>2011-04-16T17:51:11Z</time>
      </trkpt>
      <trkpt lat="50.49247" lon="2.4118">
        <ele>126.06994</ele>
        <time>2011-04-16T17:51:21Z</time>
      </trkpt>
      <trkpt lat="50.49247" lon="2.41151">
        <ele>125.10876</ele>
        <time>2011-04-16T17:51:29Z</time>
      </trkpt>
      <trkpt lat="50.49248" lon="2.41118">
        <ele>124.62805</ele>
        <time>2011-04-16T17:51:37Z</time>
      </trkpt>
      <trkpt lat="50.49249" lon="2.41114">
        <ele>124.62805</ele>
        <time>2011-04-16T17:51:38Z</time>
      </trkpt>
      <trkpt lat="50.49257" lon="2.4111">
        <ele>125.10876</ele>
        <time>2011-04-16T17:51:42Z</time>
      </trkpt>
      <trkpt lat="50.49276" lon="2.41112">
        <ele>126.55065</ele>
        <time>2011-04-16T17:51:49Z</time>
      </trkpt>
      <trkpt lat="50.49292" lon="2.41112">
        <ele>127.99255</ele>
        <time>2011-04-16T17:51:56Z</time>
      </trkpt>
      <trkpt lat="50.49316" lon="2.41114">
        <ele>129.43469</ele>
        <time>2011-04-16T17:52:05Z</time>
      </trkpt>
      <trkpt lat="50.49332" lon="2.41117">
        <ele>131.35729</ele>
        <time>2011-04-16T17:52:12Z</time>
      </trkpt>
      <trkpt lat="50.49346" lon="2.41123">
        <ele>132.3186</ele>
        <time>2011-04-16T17:52:17Z</time>
      </trkpt>
      <trkpt lat="50.49358" lon="2.4113">
        <ele>134.72192</ele>
        <time>2011-04-16T17:52:23Z</time>
      </trkpt>
      <trkpt lat="50.49371" lon="2.41141">
        <ele>136.16394</ele>
        <time>2011-04-16T17:52:29Z</time>
      </trkpt>
      <trkpt lat="50.49388" lon="2.41158">
        <ele>137.60583</ele>
        <time>2011-04-16T17:52:37Z</time>
      </trkpt>
      <trkpt lat="50.49414" lon="2.41177">
        <ele>139.04785</ele>
        <time>2011-04-16T17:52:48Z</time>
      </trkpt>
      <trkpt lat="50.49444" lon="2.41199">
        <ele>139.04785</ele>
        <time>2011-04-16T17:53:01Z</time>
      </trkpt>
      <trkpt lat="50.49484" lon="2.41234">
        <ele>138.08654</ele>
        <time>2011-04-16T17:53:20Z</time>
      </trkpt>
      <trkpt lat="50.49536" lon="2.41276">
        <ele>136.64465</ele>
        <time>2011-04-16T17:53:43Z</time>
      </trkpt>
      <trkpt lat="50.49587" lon="2.41315">
        <ele>135.20251</ele>
        <time>2011-04-16T17:54:06Z</time>
      </trkpt>
      <trkpt lat="50.49646" lon="2.4135">
        <ele>132.79931</ele>
        <time>2011-04-16T17:54:31Z</time>
      </trkpt>
      <trkpt lat="50.4971" lon="2.41376">
        <ele>130.39599</ele>
        <time>2011-04-16T17:54:58Z</time>
      </trkpt>
      <trkpt lat="50.49752" lon="2.41372">
        <ele>128.47338</ele>
        <time>2011-04-16T17:55:14Z</time>
      </trkpt>
      <trkpt lat="50.49804" lon="2.41367">
        <ele>127.03137</ele>
        <time>2011-04-16T17:55:35Z</time>
      </trkpt>
      <trkpt lat="50.49851" lon="2.41372">
        <ele>127.03137</ele>
        <time>2011-04-16T17:55:54Z</time>
      </trkpt>
      <trkpt lat="50.49895" lon="2.41378">
        <ele>127.99255</ele>
        <time>2011-04-16T17:56:12Z</time>
      </trkpt>
      <trkpt lat="50.4994" lon="2.41387">
        <ele>127.99255</ele>
        <time>2011-04-16T17:56:30Z</time>
      </trkpt>
      <trkpt lat="50.49979" lon="2.41397">
        <ele>127.03137</ele>
        <time>2011-04-16T17:56:46Z</time>
      </trkpt>
      <trkpt lat="50.50053" lon="2.41426">
        <ele>126.55065</ele>
        <time>2011-04-16T17:57:16Z</time>
      </trkpt>
      <trkpt lat="50.50098" lon="2.41445">
        <ele>125.58935</ele>
        <time>2011-04-16T17:57:35Z</time>
      </trkpt>
      <trkpt lat="50.50132" lon="2.4144">
        <ele>124.14733</ele>
        <time>2011-04-16T17:57:49Z</time>
      </trkpt>
      <trkpt lat="50.50148" lon="2.41437">
        <ele>123.18615</ele>
        <time>2011-04-16T17:57:55Z</time>
      </trkpt>
      <trkpt lat="50.50208" lon="2.41431">
        <ele>120.78283</ele>
        <time>2011-04-16T17:58:19Z</time>
      </trkpt>
      <trkpt lat="50.50278" lon="2.41426">
        <ele>117.8988</ele>
        <time>2011-04-16T17:58:47Z</time>
      </trkpt>
      <trkpt lat="50.50356" lon="2.41419">
        <ele>115.01489</ele>
        <time>2011-04-16T17:59:19Z</time>
      </trkpt>
      <trkpt lat="50.50426" lon="2.41405">
        <ele>113.57299</ele>
        <time>2011-04-16T17:59:47Z</time>
      </trkpt>
      <trkpt lat="50.50501" lon="2.41369">
        <ele>113.09228</ele>
        <time>2011-04-16T18:00:18Z</time>
      </trkpt>
      <trkpt lat="50.50541" lon="2.41339">
        <ele>112.61157</ele>
        <time>2011-04-16T18:00:36Z</time>
      </trkpt>
      <trkpt lat="50.50625" lon="2.41261">
        <ele>111.16955</ele>
        <time>2011-04-16T18:01:15Z</time>
      </trkpt>
      <trkpt lat="50.50673" lon="2.41228">
        <ele>110.68884</ele>
        <time>2011-04-16T18:01:36Z</time>
      </trkpt>
      <trkpt lat="50.50738" lon="2.41194">
        <ele>109.24694</ele>
        <time>2011-04-16T18:02:03Z</time>
      </trkpt>
      <trkpt lat="50.50829" lon="2.41161">
        <ele>107.80505</ele>
        <time>2011-04-16T18:02:41Z</time>
      </trkpt>
      <trkpt lat="50.50837" lon="2.41158">
        <ele>107.80505</ele>
        <time>2011-04-16T18:02:44Z</time>
      </trkpt>
      <trkpt lat="50.50868" lon="2.41165">
        <ele>107.80505</ele>
        <time>2011-04-16T18:02:56Z</time>
      </trkpt>
      <trkpt lat="50.50881" lon="2.41166">
        <ele>108.28564</ele>
        <time>2011-04-16T18:03:02Z</time>
      </trkpt>
      <trkpt lat="50.50928" lon="2.41163">
        <ele>109.24694</ele>
        <time>2011-04-16T18:03:20Z</time>
      </trkpt>
      <trkpt lat="50.50972" lon="2.41162">
        <ele>109.72766</ele>
        <time>2011-04-16T18:03:38Z</time>
      </trkpt>
      <trkpt lat="50.51015" lon="2.41165">
        <ele>109.72766</ele>
        <time>2011-04-16T18:03:55Z</time>
      </trkpt>
      <trkpt lat="50.51058" lon="2.41163">
        <ele>109.72766</ele>
        <time>2011-04-16T18:04:12Z</time>
      </trkpt>
      <trkpt lat="50.51109" lon="2.4116">
        <ele>110.20825</ele>
        <time>2011-04-16T18:04:33Z</time>
      </trkpt>
      <trkpt lat="50.51152" lon="2.41156">
        <ele>111.16955</ele>
        <time>2011-04-16T18:04:50Z</time>
      </trkpt>
      <trkpt lat="50.51183" lon="2.41144">
        <ele>111.65026</ele>
        <time>2011-04-16T18:05:03Z</time>
      </trkpt>
      <trkpt lat="50.51221" lon="2.41135">
        <ele>111.65026</ele>
        <time>2011-04-16T18:05:18Z</time>
      </trkpt>
      <trkpt lat="50.51262" lon="2.41136">
        <ele>112.61157</ele>
        <time>2011-04-16T18:05:35Z</time>
      </trkpt>
      <trkpt lat="50.51293" lon="2.41149">
        <ele>113.09228</ele>
        <time>2011-04-16T18:05:48Z</time>
      </trkpt>
      <trkpt lat="50.51326" lon="2.41169">
        <ele>113.09228</ele>
        <time>2011-04-16T18:06:02Z</time>
      </trkpt>
      <trkpt lat="50.51331" lon="2.41173">
        <ele>113.09228</ele>
        <time>2011-04-16T18:06:04Z</time>
      </trkpt>
      <trkpt lat="50.51343" lon="2.41171">
        <ele>112.61157</ele>
        <time>2011-04-16T18:06:09Z</time>
      </trkpt>
      <trkpt lat="50.51342" lon="2.41153">
        <ele>112.61157</ele>
        <time>2011-04-16T18:06:13Z</time>
      </trkpt>
      <trkpt lat="50.51339" lon="2.41147">
        <ele>112.61157</ele>
        <time>2011-04-16T18:06:15Z</time>
      </trkpt>
      <trkpt lat="50.51329" lon="2.4113">
        <ele>112.61157</ele>
        <time>2011-04-16T18:06:21Z</time>
      </trkpt>
      <trkpt lat="50.51282" lon="2.41051">
        <ele>113.09228</ele>
        <time>2011-04-16T18:06:49Z</time>
      </trkpt>
      <trkpt lat="50.51248" lon="2.40994">
        <ele>113.57299</ele>
        <time>2011-04-16T18:07:09Z</time>
      </trkpt>
      <trkpt lat="50.51213" lon="2.40938">
        <ele>114.05358</ele>
        <time>2011-04-16T18:07:29Z</time>
      </trkpt>
      <trkpt lat="50.51203" lon="2.40926">
        <ele>114.05358</ele>
        <time>2011-04-16T18:07:34Z</time>
      </trkpt>
      <trkpt lat="50.51158" lon="2.40892">
        <ele>114.05358</ele>
        <time>2011-04-16T18:07:54Z</time>
      </trkpt>
      <trkpt lat="50.51117" lon="2.40861">
        <ele>114.05358</ele>
        <time>2011-04-16T18:08:12Z</time>
      </trkpt>
      <trkpt lat="50.51098" lon="2.40834">
        <ele>114.05358</ele>
        <time>2011-04-16T18:08:22Z</time>
      </trkpt>
      <trkpt lat="50.51087" lon="2.4081">
        <ele>114.05358</ele>
        <time>2011-04-16T18:08:30Z</time>
      </trkpt>
      <trkpt lat="50.51074" lon="2.40757">
        <ele>113.57299</ele>
        <time>2011-04-16T18:08:44Z</time>
      </trkpt>
      <trkpt lat="50.51062" lon="2.40693">
        <ele>113.57299</ele>
        <time>2011-04-16T18:09:01Z</time>
      </trkpt>
      <trkpt lat="50.51047" lon="2.40613">
        <ele>114.05358</ele>
        <time>2011-04-16T18:09:22Z</time>
      </trkpt>
      <trkpt lat="50.51037" lon="2.40553">
        <ele>114.53417</ele>
        <time>2011-04-16T18:09:38Z</time>
      </trkpt>
      <trkpt lat="50.5102" lon="2.40472">
        <ele>115.4956</ele>
        <time>2011-04-16T18:10:00Z</time>
      </trkpt>
      <trkpt lat="50.51001" lon="2.40392">
        <ele>115.01489</ele>
        <time>2011-04-16T18:10:22Z</time>
      </trkpt>
      <trkpt lat="50.50982" lon="2.40317">
        <ele>112.61157</ele>
        <time>2011-04-16T18:10:42Z</time>
      </trkpt>
      <trkpt lat="50.50974" lon="2.40282">
        <ele>111.16955</ele>
        <time>2011-04-16T18:10:52Z</time>
      </trkpt>
      <trkpt lat="50.50965" lon="2.40244">
        <ele>111.65026</ele>
        <time>2011-04-16T18:11:02Z</time>
      </trkpt>
      <trkpt lat="50.50956" lon="2.40206">
        <ele>112.13098</ele>
        <time>2011-04-16T18:11:12Z</time>
      </trkpt>
      <trkpt lat="50.50946" lon="2.40157">
        <ele>114.05358</ele>
        <time>2011-04-16T18:11:25Z</time>
      </trkpt>
      <trkpt lat="50.50933" lon="2.401">
        <ele>113.57299</ele>
        <time>2011-04-16T18:11:41Z</time>
      </trkpt>
      <trkpt lat="50.50921" lon="2.40047">
        <ele>113.09228</ele>
        <time>2011-04-16T18:11:55Z</time>
      </trkpt>
      <trkpt lat="50.5091" lon="2.39996">
        <ele>114.05358</ele>
        <time>2011-04-16T18:12:09Z</time>
      </trkpt>
      <trkpt lat="50.50897" lon="2.39943">
        <ele>115.97619</ele>
        <time>2011-04-16T18:12:23Z</time>
      </trkpt>
      <trkpt lat="50.50885" lon="2.39904">
        <ele>116.9375</ele>
        <time>2011-04-16T18:12:34Z</time>
      </trkpt>
      <trkpt lat="50.50873" lon="2.39877">
        <ele>117.41821</ele>
        <time>2011-04-16T18:12:43Z</time>
      </trkpt>
      <trkpt lat="50.5085" lon="2.39825">
        <ele>120.30212</ele>
        <time>2011-04-16T18:12:59Z</time>
      </trkpt>
      <trkpt lat="50.50835" lon="2.39792">
        <ele>121.74414</ele>
        <time>2011-04-16T18:13:09Z</time>
      </trkpt>
      <trkpt lat="50.50815" lon="2.3978">
        <ele>121.74414</ele>
        <time>2011-04-16T18:13:18Z</time>
      </trkpt>
      <trkpt lat="50.50784" lon="2.39778">
        <ele>123.18615</ele>
        <time>2011-04-16T18:13:30Z</time>
      </trkpt>
      <trkpt lat="50.50742" lon="2.39774">
        <ele>125.10876</ele>
        <time>2011-04-16T18:13:47Z</time>
      </trkpt>
      <trkpt lat="50.50722" lon="2.39771">
        <ele>125.58935</ele>
        <time>2011-04-16T18:13:55Z</time>
      </trkpt>
      <trkpt lat="50.50717" lon="2.39751">
        <ele>126.06994</ele>
        <time>2011-04-16T18:14:00Z</time>
      </trkpt>
      <trkpt lat="50.50724" lon="2.39705">
        <ele>126.55065</ele>
        <time>2011-04-16T18:14:12Z</time>
      </trkpt>
      <trkpt lat="50.50734" lon="2.39638">
        <ele>126.55065</ele>
        <time>2011-04-16T18:14:30Z</time>
      </trkpt>
      <trkpt lat="50.50735" lon="2.39631">
        <ele>126.55065</ele>
        <time>2011-04-16T18:14:32Z</time>
      </trkpt>
      <trkpt lat="50.50735" lon="2.39599">
        <ele>127.51196</ele>
        <time>2011-04-16T18:14:40Z</time>
      </trkpt>
      <trkpt lat="50.50731" lon="2.39588">
        <ele>127.51196</ele>
        <time>2011-04-16T18:14:43Z</time>
      </trkpt>
      <trkpt lat="50.50705" lon="2.3952">
        <ele>128.9541</ele>
        <time>2011-04-16T18:15:03Z</time>
      </trkpt>
      <trkpt lat="50.50679" lon="2.39466">
        <ele>128.47338</ele>
        <time>2011-04-16T18:15:20Z</time>
      </trkpt>
      <trkpt lat="50.50654" lon="2.39427">
        <ele>125.58935</ele>
        <time>2011-04-16T18:15:34Z</time>
      </trkpt>
      <trkpt lat="50.50646" lon="2.39413">
        <ele>125.10876</ele>
        <time>2011-04-16T18:15:39Z</time>
      </trkpt>
      <trkpt lat="50.50644" lon="2.39392">
        <ele>124.14733</ele>
        <time>2011-04-16T18:15:45Z</time>
      </trkpt>
      <trkpt lat="50.50652" lon="2.39386">
        <ele>123.18615</ele>
        <time>2011-04-16T18:15:48Z</time>
      </trkpt>
      <trkpt lat="50.50661" lon="2.39382">
        <ele>122.22473</ele>
        <time>2011-04-16T18:15:52Z</time>
      </trkpt>
      <trkpt lat="50.50685" lon="2.39358">
        <ele>119.82141</ele>
        <time>2011-04-16T18:16:03Z</time>
      </trkpt>
      <trkpt lat="50.50692" lon="2.39326">
        <ele>117.41821</ele>
        <time>2011-04-16T18:16:12Z</time>
      </trkpt>
      <trkpt lat="50.50693" lon="2.39313">
        <ele>116.9375</ele>
        <time>2011-04-16T18:16:15Z</time>
      </trkpt>
      <trkpt lat="50.50699" lon="2.39223">
        <ele>112.13098</ele>
        <time>2011-04-16T18:16:38Z</time>
      </trkpt>
      <trkpt lat="50.50687" lon="2.39162">
        <ele>110.20825</ele>
        <time>2011-04-16T18:16:54Z</time>
      </trkpt>
      <trkpt lat="50.50682" lon="2.39149">
        <ele>110.20825</ele>
        <time>2011-04-16T18:16:58Z</time>
      </trkpt>
      <trkpt lat="50.50645" lon="2.39065">
        <ele>111.16955</ele>
        <time>2011-04-16T18:17:24Z</time>
      </trkpt>
      <trkpt lat="50.50641" lon="2.39054">
        <ele>111.16955</ele>
        <time>2011-04-16T18:17:27Z</time>
      </trkpt>
      <trkpt lat="50.50636" lon="2.39012">
        <ele>112.13098</ele>
        <time>2011-04-16T18:17:38Z</time>
      </trkpt>
      <trkpt lat="50.50632" lon="2.38949">
        <ele>115.01489</ele>
        <time>2011-04-16T18:17:54Z</time>
      </trkpt>
      <trkpt lat="50.50631" lon="2.3894">
        <ele>115.01489</ele>
        <time>2011-04-16T18:17:57Z</time>
      </trkpt>
      <trkpt lat="50.50636" lon="2.38902">
        <ele>113.57299</ele>
        <time>2011-04-16T18:18:07Z</time>
      </trkpt>
      <trkpt lat="50.50646" lon="2.38829">
        <ele>112.61157</ele>
        <time>2011-04-16T18:18:26Z</time>
      </trkpt>
      <trkpt lat="50.50641" lon="2.38789">
        <ele>111.16955</ele>
        <time>2011-04-16T18:18:36Z</time>
      </trkpt>
      <trkpt lat="50.50624" lon="2.38756">
        <ele>112.13098</ele>
        <time>2011-04-16T18:18:47Z</time>
      </trkpt>
      <trkpt lat="50.50606" lon="2.38731">
        <ele>112.61157</ele>
        <time>2011-04-16T18:18:56Z</time>
      </trkpt>
      <trkpt lat="50.50599" lon="2.38717">
        <ele>113.57299</ele>
        <time>2011-04-16T18:19:01Z</time>
      </trkpt>
      <trkpt lat="50.50587" lon="2.38665">
        <ele>114.05358</ele>
        <time>2011-04-16T18:19:15Z</time>
      </trkpt>
      <trkpt lat="50.50579" lon="2.38613">
        <ele>114.05358</ele>
        <time>2011-04-16T18:19:29Z</time>
      </trkpt>
      <trkpt lat="50.50569" lon="2.38581">
        <ele>115.01489</ele>
        <time>2011-04-16T18:19:38Z</time>
      </trkpt>
      <trkpt lat="50.50543" lon="2.38533">
        <ele>116.9375</ele>
        <time>2011-04-16T18:19:54Z</time>
      </trkpt>
      <trkpt lat="50.50512" lon="2.3849">
        <ele>119.34082</ele>
        <time>2011-04-16T18:20:10Z</time>
      </trkpt>
      <trkpt lat="50.50488" lon="2.3846">
        <ele>121.26354</ele>
        <time>2011-04-16T18:20:23Z</time>
      </trkpt>
      <trkpt lat="50.50474" lon="2.38441">
        <ele>121.74414</ele>
        <time>2011-04-16T18:20:30Z</time>
      </trkpt>
      <trkpt lat="50.5046" lon="2.38399">
        <ele>123.66674</ele>
        <time>2011-04-16T18:20:42Z</time>
      </trkpt>
      <trkpt lat="50.50453" lon="2.38353">
        <ele>123.66674</ele>
        <time>2011-04-16T18:20:54Z</time>
      </trkpt>
      <trkpt lat="50.50453" lon="2.38297">
        <ele>124.62805</ele>
        <time>2011-04-16T18:21:08Z</time>
      </trkpt>
      <trkpt lat="50.50453" lon="2.38291">
        <ele>124.62805</ele>
        <time>2011-04-16T18:21:10Z</time>
      </trkpt>
      <trkpt lat="50.50444" lon="2.38244">
        <ele>124.62805</ele>
        <time>2011-04-16T18:21:23Z</time>
      </trkpt>
      <trkpt lat="50.50429" lon="2.38172">
        <ele>127.03137</ele>
        <time>2011-04-16T18:21:42Z</time>
      </trkpt>
      <trkpt lat="50.5042" lon="2.38109">
        <ele>128.47338</ele>
        <time>2011-04-16T18:21:58Z</time>
      </trkpt>
      <trkpt lat="50.50411" lon="2.38041">
        <ele>131.35729</ele>
        <time>2011-04-16T18:22:16Z</time>
      </trkpt>
      <trkpt lat="50.50402" lon="2.37978">
        <ele>130.8767</ele>
        <time>2011-04-16T18:22:32Z</time>
      </trkpt>
      <trkpt lat="50.50394" lon="2.37927">
        <ele>132.3186</ele>
        <time>2011-04-16T18:22:46Z</time>
      </trkpt>
      <trkpt lat="50.50393" lon="2.37921">
        <ele>132.3186</ele>
        <time>2011-04-16T18:22:47Z</time>
      </trkpt>
      <trkpt lat="50.50379" lon="2.37862">
        <ele>135.20251</ele>
        <time>2011-04-16T18:23:03Z</time>
      </trkpt>
      <trkpt lat="50.50355" lon="2.37795">
        <ele>137.12524</ele>
        <time>2011-04-16T18:23:23Z</time>
      </trkpt>
      <trkpt lat="50.5034" lon="2.37738">
        <ele>138.56726</ele>
        <time>2011-04-16T18:23:39Z</time>
      </trkpt>
      <trkpt lat="50.50328" lon="2.37673">
        <ele>138.08654</ele>
        <time>2011-04-16T18:23:56Z</time>
      </trkpt>
      <trkpt lat="50.50314" lon="2.37595">
        <ele>136.16394</ele>
        <time>2011-04-16T18:24:16Z</time>
      </trkpt>
      <trkpt lat="50.50301" lon="2.37513">
        <ele>136.64465</ele>
        <time>2011-04-16T18:24:38Z</time>
      </trkpt>
      <trkpt lat="50.50285" lon="2.37442">
        <ele>138.08654</ele>
        <time>2011-04-16T18:24:57Z</time>
      </trkpt>
      <trkpt lat="50.50268" lon="2.37407">
        <ele>139.52844</ele>
        <time>2011-04-16T18:25:08Z</time>
      </trkpt>
      <trkpt lat="50.50265" lon="2.37402">
        <ele>140.00915</ele>
        <time>2011-04-16T18:25:10Z</time>
      </trkpt>
      <trkpt lat="50.5023" lon="2.37372">
        <ele>141.93176</ele>
        <time>2011-04-16T18:25:26Z</time>
      </trkpt>
      <trkpt lat="50.50201" lon="2.37347">
        <ele>144.3352</ele>
        <time>2011-04-16T18:25:39Z</time>
      </trkpt>
      <trkpt lat="50.50198" lon="2.37343">
        <ele>144.3352</ele>
        <time>2011-04-16T18:25:41Z</time>
      </trkpt>
      <trkpt lat="50.50187" lon="2.37321">
        <ele>145.77709</ele>
        <time>2011-04-16T18:25:48Z</time>
      </trkpt>
      <trkpt lat="50.50178" lon="2.37282">
        <ele>148.18041</ele>
        <time>2011-04-16T18:25:59Z</time>
      </trkpt>
      <trkpt lat="50.50169" lon="2.3724">
        <ele>151.0642</ele>
        <time>2011-04-16T18:26:10Z</time>
      </trkpt>
      <trkpt lat="50.50163" lon="2.37207">
        <ele>153.46765</ele>
        <time>2011-04-16T18:26:19Z</time>
      </trkpt>
      <trkpt lat="50.50159" lon="2.37179">
        <ele>155.87097</ele>
        <time>2011-04-16T18:26:26Z</time>
      </trkpt>
      <trkpt lat="50.50157" lon="2.37148">
        <ele>158.27416</ele>
        <time>2011-04-16T18:26:34Z</time>
      </trkpt>
      <trkpt lat="50.50156" lon="2.37118">
        <ele>160.67749</ele>
        <time>2011-04-16T18:26:41Z</time>
      </trkpt>
      <trkpt lat="50.50158" lon="2.37097">
        <ele>163.08081</ele>
        <time>2011-04-16T18:26:47Z</time>
      </trkpt>
      <trkpt lat="50.50168" lon="2.37087">
        <ele>164.04211</ele>
        <time>2011-04-16T18:26:52Z</time>
      </trkpt>
      <trkpt lat="50.50182" lon="2.37083">
        <ele>162.1195</ele>
        <time>2011-04-16T18:26:58Z</time>
      </trkpt>
      <trkpt lat="50.50199" lon="2.37077">
        <ele>161.63891</ele>
        <time>2011-04-16T18:27:04Z</time>
      </trkpt>
      <trkpt lat="50.50218" lon="2.37067">
        <ele>163.56152</ele>
        <time>2011-04-16T18:27:13Z</time>
      </trkpt>
      <trkpt lat="50.50248" lon="2.3705">
        <ele>165.48413</ele>
        <time>2011-04-16T18:27:25Z</time>
      </trkpt>
      <trkpt lat="50.50274" lon="2.37029">
        <ele>167.88732</ele>
        <time>2011-04-16T18:27:37Z</time>
      </trkpt>
      <trkpt lat="50.50295" lon="2.37005">
        <ele>170.29064</ele>
        <time>2011-04-16T18:27:47Z</time>
      </trkpt>
      <trkpt lat="50.50318" lon="2.36977">
        <ele>171.73266</ele>
        <time>2011-04-16T18:27:59Z</time>
      </trkpt>
      <trkpt lat="50.50336" lon="2.36956">
        <ele>173.17468</ele>
        <time>2011-04-16T18:28:08Z</time>
      </trkpt>
      <trkpt lat="50.5035" lon="2.3693">
        <ele>174.13586</ele>
        <time>2011-04-16T18:28:17Z</time>
      </trkpt>
      <trkpt lat="50.50369" lon="2.36908">
        <ele>175.09729</ele>
        <time>2011-04-16T18:28:26Z</time>
      </trkpt>
      <trkpt lat="50.50396" lon="2.36879">
        <ele>176.5393</ele>
        <time>2011-04-16T18:28:39Z</time>
      </trkpt>
      <trkpt lat="50.50424" lon="2.3685">
        <ele>176.5393</ele>
        <time>2011-04-16T18:28:53Z</time>
      </trkpt>
      <trkpt lat="50.50451" lon="2.36832">
        <ele>177.02001</ele>
        <time>2011-04-16T18:29:04Z</time>
      </trkpt>
      <trkpt lat="50.50487" lon="2.36819">
        <ele>177.50061</ele>
        <time>2011-04-16T18:29:19Z</time>
      </trkpt>
      <trkpt lat="50.50529" lon="2.36801">
        <ele>178.94262</ele>
        <time>2011-04-16T18:29:37Z</time>
      </trkpt>
      <trkpt lat="50.50576" lon="2.36774">
        <ele>179.9038</ele>
        <time>2011-04-16T18:29:57Z</time>
      </trkpt>
      <trkpt lat="50.50618" lon="2.36755">
        <ele>180.86523</ele>
        <time>2011-04-16T18:30:14Z</time>
      </trkpt>
      <trkpt lat="50.50627" lon="2.36752">
        <ele>180.86523</ele>
        <time>2011-04-16T18:30:18Z</time>
      </trkpt>
      <trkpt lat="50.50668" lon="2.36727">
        <ele>181.34582</ele>
        <time>2011-04-16T18:30:35Z</time>
      </trkpt>
      <trkpt lat="50.50701" lon="2.36707">
        <ele>181.34582</ele>
        <time>2011-04-16T18:30:49Z</time>
      </trkpt>
      <trkpt lat="50.50741" lon="2.36682">
        <ele>180.38452</ele>
        <time>2011-04-16T18:31:07Z</time>
      </trkpt>
      <trkpt lat="50.50775" lon="2.36654">
        <ele>179.9038</ele>
        <time>2011-04-16T18:31:22Z</time>
      </trkpt>
      <trkpt lat="50.50808" lon="2.36631">
        <ele>178.46191</ele>
        <time>2011-04-16T18:31:37Z</time>
      </trkpt>
      <trkpt lat="50.50815" lon="2.36628">
        <ele>178.46191</ele>
        <time>2011-04-16T18:31:39Z</time>
      </trkpt>
      <trkpt lat="50.50851" lon="2.36621">
        <ele>176.5393</ele>
        <time>2011-04-16T18:31:54Z</time>
      </trkpt>
      <trkpt lat="50.50874" lon="2.36618">
        <ele>175.57788</ele>
        <time>2011-04-16T18:32:03Z</time>
      </trkpt>
      <trkpt lat="50.50902" lon="2.36632">
        <ele>173.17468</ele>
        <time>2011-04-16T18:32:15Z</time>
      </trkpt>
      <trkpt lat="50.50911" lon="2.36659">
        <ele>171.73266</ele>
        <time>2011-04-16T18:32:22Z</time>
      </trkpt>
      <trkpt lat="50.50918" lon="2.36678">
        <ele>171.25207</ele>
        <time>2011-04-16T18:32:28Z</time>
      </trkpt>
      <trkpt lat="50.50932" lon="2.367">
        <ele>169.32946</ele>
        <time>2011-04-16T18:32:36Z</time>
      </trkpt>
      <trkpt lat="50.50939" lon="2.36697">
        <ele>168.36804</ele>
        <time>2011-04-16T18:32:39Z</time>
      </trkpt>
      <trkpt lat="50.5095" lon="2.36688">
        <ele>167.40673</ele>
        <time>2011-04-16T18:32:44Z</time>
      </trkpt>
      <trkpt lat="50.50954" lon="2.36685">
        <ele>167.40673</ele>
        <time>2011-04-16T18:32:46Z</time>
      </trkpt>
      <trkpt lat="50.50973" lon="2.3667">
        <ele>167.88732</ele>
        <time>2011-04-16T18:32:54Z</time>
      </trkpt>
      <trkpt lat="50.50998" lon="2.36652">
        <ele>169.81005</ele>
        <time>2011-04-16T18:33:05Z</time>
      </trkpt>
      <trkpt lat="50.51014" lon="2.36645">
        <ele>170.77136</ele>
        <time>2011-04-16T18:33:12Z</time>
      </trkpt>
      <trkpt lat="50.51018" lon="2.36646">
        <ele>170.77136</ele>
        <time>2011-04-16T18:33:14Z</time>
      </trkpt>
      <trkpt lat="50.51032" lon="2.36664">
        <ele>168.84875</ele>
        <time>2011-04-16T18:33:21Z</time>
      </trkpt>
      <trkpt lat="50.51047" lon="2.36695">
        <ele>164.5227</ele>
        <time>2011-04-16T18:33:31Z</time>
      </trkpt>
      <trkpt lat="50.51067" lon="2.36729">
        <ele>164.5227</ele>
        <time>2011-04-16T18:33:43Z</time>
      </trkpt>
      <trkpt lat="50.51082" lon="2.36752">
        <ele>164.5227</ele>
        <time>2011-04-16T18:33:51Z</time>
      </trkpt>
      <trkpt lat="50.511" lon="2.36763">
        <ele>166.92602</ele>
        <time>2011-04-16T18:33:59Z</time>
      </trkpt>
      <trkpt lat="50.51116" lon="2.36774">
        <ele>170.77136</ele>
        <time>2011-04-16T18:34:06Z</time>
      </trkpt>
      <trkpt lat="50.51128" lon="2.3678">
        <ele>172.21325</ele>
        <time>2011-04-16T18:34:11Z</time>
      </trkpt>
      <trkpt lat="50.51143" lon="2.36783">
        <ele>174.13586</ele>
        <time>2011-04-16T18:34:17Z</time>
      </trkpt>
      <trkpt lat="50.51152" lon="2.36773">
        <ele>173.17468</ele>
        <time>2011-04-16T18:34:21Z</time>
      </trkpt>
      <trkpt lat="50.51162" lon="2.36758">
        <ele>176.05859</ele>
        <time>2011-04-16T18:34:27Z</time>
      </trkpt>
      <trkpt lat="50.51171" lon="2.36743">
        <ele>178.94262</ele>
        <time>2011-04-16T18:34:32Z</time>
      </trkpt>
      <trkpt lat="50.5119" lon="2.36706">
        <ele>179.9038</ele>
        <time>2011-04-16T18:34:44Z</time>
      </trkpt>
      <trkpt lat="50.51199" lon="2.36693">
        <ele>180.38452</ele>
        <time>2011-04-16T18:34:49Z</time>
      </trkpt>
      <trkpt lat="50.51208" lon="2.36676">
        <ele>178.46191</ele>
        <time>2011-04-16T18:34:55Z</time>
      </trkpt>
      <trkpt lat="50.51233" lon="2.36644">
        <ele>178.46191</ele>
        <time>2011-04-16T18:35:08Z</time>
      </trkpt>
      <trkpt lat="50.51256" lon="2.36622">
        <ele>177.02001</ele>
        <time>2011-04-16T18:35:18Z</time>
      </trkpt>
      <trkpt lat="50.51262" lon="2.36616">
        <ele>175.57788</ele>
        <time>2011-04-16T18:35:21Z</time>
      </trkpt>
      <trkpt lat="50.51265" lon="2.36611">
        <ele>175.09729</ele>
        <time>2011-04-16T18:35:23Z</time>
      </trkpt>
      <trkpt lat="50.51285" lon="2.3662">
        <ele>187.59436</ele>
        <time>2011-04-16T18:35:23Z</time>
      </trkpt>
      <trkpt lat="50.51286" lon="2.36624">
        <ele>187.11376</ele>
        <time>2011-04-16T18:35:24Z</time>
      </trkpt>
      <trkpt lat="50.51291" lon="2.36649">
        <ele>184.71057</ele>
        <time>2011-04-16T18:35:30Z</time>
      </trkpt>
      <trkpt lat="50.51292" lon="2.36668">
        <ele>182.78784</ele>
        <time>2011-04-16T18:35:36Z</time>
      </trkpt>
      <trkpt lat="50.51294" lon="2.36699">
        <ele>178.94262</ele>
        <time>2011-04-16T18:35:44Z</time>
      </trkpt>
      <trkpt lat="50.51301" lon="2.36743">
        <ele>176.5393</ele>
        <time>2011-04-16T18:35:55Z</time>
      </trkpt>
      <trkpt lat="50.51308" lon="2.36777">
        <ele>175.57788</ele>
        <time>2011-04-16T18:36:04Z</time>
      </trkpt>
      <trkpt lat="50.51314" lon="2.36809">
        <ele>175.09729</ele>
        <time>2011-04-16T18:36:12Z</time>
      </trkpt>
      <trkpt lat="50.51323" lon="2.36854">
        <ele>174.61657</ele>
        <time>2011-04-16T18:36:25Z</time>
      </trkpt>
      <trkpt lat="50.51331" lon="2.36892">
        <ele>175.57788</ele>
        <time>2011-04-16T18:36:35Z</time>
      </trkpt>
      <trkpt lat="50.51339" lon="2.3694">
        <ele>174.61657</ele>
        <time>2011-04-16T18:36:47Z</time>
      </trkpt>
      <trkpt lat="50.51348" lon="2.36994">
        <ele>173.65527</ele>
        <time>2011-04-16T18:37:02Z</time>
      </trkpt>
      <trkpt lat="50.51359" lon="2.37062">
        <ele>171.25207</ele>
        <time>2011-04-16T18:37:19Z</time>
      </trkpt>
      <trkpt lat="50.51367" lon="2.37118">
        <ele>166.92602</ele>
        <time>2011-04-16T18:37:34Z</time>
      </trkpt>
      <trkpt lat="50.51371" lon="2.37145">
        <ele>164.5227</ele>
        <time>2011-04-16T18:37:41Z</time>
      </trkpt>
      <trkpt lat="50.51377" lon="2.37198">
        <ele>159.71618</ele>
        <time>2011-04-16T18:37:55Z</time>
      </trkpt>
      <trkpt lat="50.51386" lon="2.37219">
        <ele>157.31286</ele>
        <time>2011-04-16T18:38:01Z</time>
      </trkpt>
      <trkpt lat="50.51405" lon="2.37247">
        <ele>154.90954</ele>
        <time>2011-04-16T18:38:11Z</time>
      </trkpt>
      <trkpt lat="50.51439" lon="2.37295">
        <ele>152.50634</ele>
        <time>2011-04-16T18:38:30Z</time>
      </trkpt>
      <trkpt lat="50.51466" lon="2.37343">
        <ele>150.58361</ele>
        <time>2011-04-16T18:38:46Z</time>
      </trkpt>
      <trkpt lat="50.51493" lon="2.37388">
        <ele>149.62231</ele>
        <time>2011-04-16T18:39:02Z</time>
      </trkpt>
      <trkpt lat="50.51516" lon="2.37446">
        <ele>147.21899</ele>
        <time>2011-04-16T18:39:19Z</time>
      </trkpt>
      <trkpt lat="50.5152" lon="2.37459">
        <ele>146.7384</ele>
        <time>2011-04-16T18:39:23Z</time>
      </trkpt>
      <trkpt lat="50.51537" lon="2.37558">
        <ele>142.41247</ele>
        <time>2011-04-16T18:39:49Z</time>
      </trkpt>
      <trkpt lat="50.51553" lon="2.37613">
        <ele>139.52844</ele>
        <time>2011-04-16T18:40:05Z</time>
      </trkpt>
      <trkpt lat="50.51569" lon="2.37667">
        <ele>136.64465</ele>
        <time>2011-04-16T18:40:20Z</time>
      </trkpt>
      <trkpt lat="50.51601" lon="2.3773">
        <ele>134.24121</ele>
        <time>2011-04-16T18:40:40Z</time>
      </trkpt>
      <trkpt lat="50.51635" lon="2.37809">
        <ele>131.35729</ele>
        <time>2011-04-16T18:41:05Z</time>
      </trkpt>
      <trkpt lat="50.51667" lon="2.37868">
        <ele>127.99255</ele>
        <time>2011-04-16T18:41:24Z</time>
      </trkpt>
      <trkpt lat="50.51726" lon="2.37944">
        <ele>121.74414</ele>
        <time>2011-04-16T18:41:55Z</time>
      </trkpt>
      <trkpt lat="50.51748" lon="2.37968">
        <ele>120.30212</ele>
        <time>2011-04-16T18:42:06Z</time>
      </trkpt>
      <trkpt lat="50.51755" lon="2.37974">
        <ele>119.82141</ele>
        <time>2011-04-16T18:42:09Z</time>
      </trkpt>
      <trkpt lat="50.51757" lon="2.37972">
        <ele>119.82141</ele>
        <time>2011-04-16T18:42:10Z</time>
      </trkpt>
      <trkpt lat="50.5176" lon="2.37961">
        <ele>120.30212</ele>
        <time>2011-04-16T18:42:13Z</time>
      </trkpt>
      <trkpt lat="50.51779" lon="2.37943">
        <ele>121.26354</ele>
        <time>2011-04-16T18:42:21Z</time>
      </trkpt>
      <trkpt lat="50.51801" lon="2.37922">
        <ele>120.78283</ele>
        <time>2011-04-16T18:42:32Z</time>
      </trkpt>
      <trkpt lat="50.51844" lon="2.37883">
        <ele>120.30212</ele>
        <time>2011-04-16T18:42:52Z</time>
      </trkpt>
      <trkpt lat="50.51888" lon="2.37841">
        <ele>119.34082</ele>
        <time>2011-04-16T18:43:12Z</time>
      </trkpt>
      <trkpt lat="50.51933" lon="2.37797">
        <ele>117.8988</ele>
        <time>2011-04-16T18:43:34Z</time>
      </trkpt>
      <trkpt lat="50.51989" lon="2.37735">
        <ele>116.9375</ele>
        <time>2011-04-16T18:44:01Z</time>
      </trkpt>
      <trkpt lat="50.52024" lon="2.37706">
        <ele>116.45678</ele>
        <time>2011-04-16T18:44:17Z</time>
      </trkpt>
      <trkpt lat="50.52064" lon="2.37688">
        <ele>115.01489</ele>
        <time>2011-04-16T18:44:34Z</time>
      </trkpt>
      <trkpt lat="50.52152" lon="2.37656">
        <ele>112.61157</ele>
        <time>2011-04-16T18:45:10Z</time>
      </trkpt>
      <trkpt lat="50.52188" lon="2.37644">
        <ele>112.13098</ele>
        <time>2011-04-16T18:45:24Z</time>
      </trkpt>
      <trkpt lat="50.52211" lon="2.37616">
        <ele>111.65026</ele>
        <time>2011-04-16T18:45:36Z</time>
      </trkpt>
      <trkpt lat="50.5221" lon="2.37597">
        <ele>111.65026</ele>
        <time>2011-04-16T18:45:41Z</time>
      </trkpt>
      <trkpt lat="50.52206" lon="2.37577">
        <ele>111.65026</ele>
        <time>2011-04-16T18:45:46Z</time>
      </trkpt>
      <trkpt lat="50.52191" lon="2.37515">
        <ele>112.61157</ele>
        <time>2011-04-16T18:46:03Z</time>
      </trkpt>
      <trkpt lat="50.52192" lon="2.37467">
        <ele>112.61157</ele>
        <time>2011-04-16T18:46:15Z</time>
      </trkpt>
      <trkpt lat="50.52207" lon="2.37443">
        <ele>111.65026</ele>
        <time>2011-04-16T18:46:24Z</time>
      </trkpt>
      <trkpt lat="50.52213" lon="2.37436">
        <ele>111.65026</ele>
        <time>2011-04-16T18:46:27Z</time>
      </trkpt>
      <trkpt lat="50.52247" lon="2.37408">
        <ele>110.68884</ele>
        <time>2011-04-16T18:46:42Z</time>
      </trkpt>
      <trkpt lat="50.52265" lon="2.37403">
        <ele>109.24694</ele>
        <time>2011-04-16T18:46:50Z</time>
      </trkpt>
      <trkpt lat="50.52299" lon="2.37398">
        <ele>107.32434</ele>
        <time>2011-04-16T18:47:03Z</time>
      </trkpt>
      <trkpt lat="50.52308" lon="2.37392">
        <ele>106.84362</ele>
        <time>2011-04-16T18:47:07Z</time>
      </trkpt>
      <trkpt lat="50.52317" lon="2.3736">
        <ele>105.40173</ele>
        <time>2011-04-16T18:47:16Z</time>
      </trkpt>
      <trkpt lat="50.52318" lon="2.37338">
        <ele>100.1145</ele>
        <time>2011-04-16T18:47:22Z</time>
      </trkpt>
      <trkpt lat="50.52307" lon="2.37292">
        <ele>92.904541</ele>
        <time>2011-04-16T18:47:34Z</time>
      </trkpt>
      <trkpt lat="50.52287" lon="2.37198">
        <ele>99.633789</ele>
        <time>2011-04-16T18:48:00Z</time>
      </trkpt>
      <trkpt lat="50.52287" lon="2.37189">
        <ele>97.711181</ele>
        <time>2011-04-16T18:48:02Z</time>
      </trkpt>
      <trkpt lat="50.52301" lon="2.37186">
        <ele>89.059326</ele>
        <time>2011-04-16T18:48:08Z</time>
      </trkpt>
      <trkpt lat="50.5232" lon="2.37186">
        <ele>78.004028</ele>
        <time>2011-04-16T18:48:15Z</time>
      </trkpt>
      <trkpt lat="50.52342" lon="2.37188">
        <ele>71.274902</ele>
        <time>2011-04-16T18:48:24Z</time>
      </trkpt>
      <trkpt lat="50.52379" lon="2.37189">
        <ele>64.065063</ele>
        <time>2011-04-16T18:48:39Z</time>
      </trkpt>
      <trkpt lat="50.52421" lon="2.37186">
        <ele>62.622924</ele>
        <time>2011-04-16T18:48:56Z</time>
      </trkpt>
      <trkpt lat="50.52464" lon="2.37192">
        <ele>66.948974</ele>
        <time>2011-04-16T18:49:13Z</time>
      </trkpt>
      <trkpt lat="50.52479" lon="2.37191">
        <ele>69.352294</ele>
        <time>2011-04-16T18:49:19Z</time>
      </trkpt>
      <trkpt lat="50.52501" lon="2.37164">
        <ele>77.042846</ele>
        <time>2011-04-16T18:49:30Z</time>
      </trkpt>
      <trkpt lat="50.5251" lon="2.37109">
        <ele>83.291381</ele>
        <time>2011-04-16T18:49:45Z</time>
      </trkpt>
      <trkpt lat="50.52509" lon="2.37053">
        <ele>83.771972</ele>
        <time>2011-04-16T18:49:59Z</time>
      </trkpt>
      <trkpt lat="50.52512" lon="2.36991">
        <ele>86.656005</ele>
        <time>2011-04-16T18:50:15Z</time>
      </trkpt>
      <trkpt lat="50.52516" lon="2.36919">
        <ele>89.059326</ele>
        <time>2011-04-16T18:50:33Z</time>
      </trkpt>
      <trkpt lat="50.52521" lon="2.36852">
        <ele>90.501342</ele>
        <time>2011-04-16T18:50:50Z</time>
      </trkpt>
      <trkpt lat="50.52524" lon="2.36819">
        <ele>90.981933</ele>
        <time>2011-04-16T18:50:59Z</time>
      </trkpt>
      <trkpt lat="50.52525" lon="2.36808">
        <ele>91.462524</ele>
        <time>2011-04-16T18:51:02Z</time>
      </trkpt>
      <trkpt lat="50.5253" lon="2.3679">
        <ele>92.904541</ele>
        <time>2011-04-16T18:51:07Z</time>
      </trkpt>
      <trkpt lat="50.52549" lon="2.36758">
        <ele>94.827148</ele>
        <time>2011-04-16T18:51:18Z</time>
      </trkpt>
      <trkpt lat="50.5257" lon="2.36737">
        <ele>96.749877</ele>
        <time>2011-04-16T18:51:28Z</time>
      </trkpt>
      <trkpt lat="50.52594" lon="2.36725">
        <ele>99.153076</ele>
        <time>2011-04-16T18:51:38Z</time>
      </trkpt>
      <trkpt lat="50.52613" lon="2.36725">
        <ele>100.59509</ele>
        <time>2011-04-16T18:51:45Z</time>
      </trkpt>
      <trkpt lat="50.5263" lon="2.36736">
        <ele>102.5177</ele>
        <time>2011-04-16T18:51:53Z</time>
      </trkpt>
      <trkpt lat="50.52648" lon="2.36749">
        <ele>105.40173</ele>
        <time>2011-04-16T18:52:01Z</time>
      </trkpt>
      <trkpt lat="50.52664" lon="2.36752">
        <ele>107.32434</ele>
        <time>2011-04-16T18:52:07Z</time>
      </trkpt>
      <trkpt lat="50.52681" lon="2.36746">
        <ele>108.76623</ele>
        <time>2011-04-16T18:52:14Z</time>
      </trkpt>
      <trkpt lat="50.52701" lon="2.36735">
        <ele>109.24694</ele>
        <time>2011-04-16T18:52:22Z</time>
      </trkpt>
      <trkpt lat="50.52717" lon="2.36725">
        <ele>108.76623</ele>
        <time>2011-04-16T18:52:29Z</time>
      </trkpt>
      <trkpt lat="50.52718" lon="2.36723">
        <ele>108.76623</ele>
        <time>2011-04-16T18:52:30Z</time>
      </trkpt>
      <trkpt lat="50.52716" lon="2.36707">
        <ele>110.20825</ele>
        <time>2011-04-16T18:52:34Z</time>
      </trkpt>
      <trkpt lat="50.52715" lon="2.36704">
        <ele>110.68884</ele>
        <time>2011-04-16T18:52:35Z</time>
      </trkpt>
      <trkpt lat="50.52706" lon="2.36675">
        <ele>112.61157</ele>
        <time>2011-04-16T18:52:43Z</time>
      </trkpt>
      <trkpt lat="50.52697" lon="2.36644">
        <ele>112.61157</ele>
        <time>2011-04-16T18:52:52Z</time>
      </trkpt>
      <trkpt lat="50.52686" lon="2.36596">
        <ele>112.13098</ele>
        <time>2011-04-16T18:53:05Z</time>
      </trkpt>
      <trkpt lat="50.52676" lon="2.36539">
        <ele>110.68884</ele>
        <time>2011-04-16T18:53:20Z</time>
      </trkpt>
      <trkpt lat="50.52663" lon="2.36458">
        <ele>111.16955</ele>
        <time>2011-04-16T18:53:41Z</time>
      </trkpt>
      <trkpt lat="50.52659" lon="2.36443">
        <ele>112.13098</ele>
        <time>2011-04-16T18:53:45Z</time>
      </trkpt>
      <trkpt lat="50.52645" lon="2.36382">
        <ele>113.09228</ele>
        <time>2011-04-16T18:54:02Z</time>
      </trkpt>
      <trkpt lat="50.52627" lon="2.36313">
        <ele>113.57299</ele>
        <time>2011-04-16T18:54:21Z</time>
      </trkpt>
      <trkpt lat="50.52621" lon="2.36289">
        <ele>113.57299</ele>
        <time>2011-04-16T18:54:27Z</time>
      </trkpt>
      <trkpt lat="50.526" lon="2.36248">
        <ele>114.05358</ele>
        <time>2011-04-16T18:54:41Z</time>
      </trkpt>
      <trkpt lat="50.52584" lon="2.36203">
        <ele>115.01489</ele>
        <time>2011-04-16T18:54:54Z</time>
      </trkpt>
      <trkpt lat="50.52573" lon="2.3615">
        <ele>114.53417</ele>
        <time>2011-04-16T18:55:08Z</time>
      </trkpt>
      <trkpt lat="50.52557" lon="2.36091">
        <ele>115.4956</ele>
        <time>2011-04-16T18:55:24Z</time>
      </trkpt>
      <trkpt lat="50.52548" lon="2.36061">
        <ele>115.4956</ele>
        <time>2011-04-16T18:55:33Z</time>
      </trkpt>
      <trkpt lat="50.52546" lon="2.36026">
        <ele>115.01489</ele>
        <time>2011-04-16T18:55:42Z</time>
      </trkpt>
      <trkpt lat="50.5255" lon="2.36011">
        <ele>115.4956</ele>
        <time>2011-04-16T18:55:46Z</time>
      </trkpt>
      <trkpt lat="50.52564" lon="2.35981">
        <ele>115.4956</ele>
        <time>2011-04-16T18:55:55Z</time>
      </trkpt>
      <trkpt lat="50.52579" lon="2.35952">
        <ele>116.45678</ele>
        <time>2011-04-16T18:56:05Z</time>
      </trkpt>
      <trkpt lat="50.52583" lon="2.35951">
        <ele>116.45678</ele>
        <time>2011-04-16T18:56:07Z</time>
      </trkpt>
      <trkpt lat="50.5262" lon="2.35946">
        <ele>116.9375</ele>
        <time>2011-04-16T18:56:21Z</time>
      </trkpt>
      <trkpt lat="50.52668" lon="2.3594">
        <ele>115.4956</ele>
        <time>2011-04-16T18:56:41Z</time>
      </trkpt>
      <trkpt lat="50.52702" lon="2.35936">
        <ele>114.53417</ele>
        <time>2011-04-16T18:56:54Z</time>
      </trkpt>
      <trkpt lat="50.52753" lon="2.35929">
        <ele>113.57299</ele>
        <time>2011-04-16T18:57:15Z</time>
      </trkpt>
      <trkpt lat="50.52827" lon="2.35927">
        <ele>113.09228</ele>
        <time>2011-04-16T18:57:44Z</time>
      </trkpt>
      <trkpt lat="50.5289" lon="2.35927">
        <ele>112.61157</ele>
        <time>2011-04-16T18:58:10Z</time>
      </trkpt>
      <trkpt lat="50.52933" lon="2.35914">
        <ele>113.09228</ele>
        <time>2011-04-16T18:58:27Z</time>
      </trkpt>
      <trkpt lat="50.52994" lon="2.35885">
        <ele>113.57299</ele>
        <time>2011-04-16T18:58:53Z</time>
      </trkpt>
      <trkpt lat="50.53009" lon="2.35867">
        <ele>114.05358</ele>
        <time>2011-04-16T18:59:00Z</time>
      </trkpt>
      <trkpt lat="50.5301" lon="2.35851">
        <ele>114.05358</ele>
        <time>2011-04-16T18:59:05Z</time>
      </trkpt>
      <trkpt lat="50.52993" lon="2.35749">
        <ele>114.53417</ele>
        <time>2011-04-16T18:59:31Z</time>
      </trkpt>
      <trkpt lat="50.52977" lon="2.35648">
        <ele>115.97619</ele>
        <time>2011-04-16T18:59:58Z</time>
      </trkpt>
      <trkpt lat="50.52967" lon="2.35586">
        <ele>116.9375</ele>
        <time>2011-04-16T19:00:14Z</time>
      </trkpt>
      <trkpt lat="50.52965" lon="2.35571">
        <ele>117.41821</ele>
        <time>2011-04-16T19:00:18Z</time>
      </trkpt>
      <trkpt lat="50.52961" lon="2.35555">
        <ele>117.8988</ele>
        <time>2011-04-16T19:00:22Z</time>
      </trkpt>
      <trkpt lat="50.5295" lon="2.3548">
        <ele>119.82141</ele>
        <time>2011-04-16T19:00:42Z</time>
      </trkpt>
      <trkpt lat="50.52942" lon="2.35427">
        <ele>122.22473</ele>
        <time>2011-04-16T19:00:56Z</time>
      </trkpt>
      <trkpt lat="50.52942" lon="2.35378">
        <ele>123.18615</ele>
        <time>2011-04-16T19:01:08Z</time>
      </trkpt>
      <trkpt lat="50.52942" lon="2.35313">
        <ele>124.14733</ele>
        <time>2011-04-16T19:01:25Z</time>
      </trkpt>
      <trkpt lat="50.52944" lon="2.35267">
        <ele>125.10876</ele>
        <time>2011-04-16T19:01:37Z</time>
      </trkpt>
      <trkpt lat="50.52946" lon="2.35207">
        <ele>126.55065</ele>
        <time>2011-04-16T19:01:52Z</time>
      </trkpt>
      <trkpt lat="50.52947" lon="2.3516">
        <ele>128.47338</ele>
        <time>2011-04-16T19:02:04Z</time>
      </trkpt>
      <trkpt lat="50.52949" lon="2.35117">
        <ele>130.39599</ele>
        <time>2011-04-16T19:02:15Z</time>
      </trkpt>
      <trkpt lat="50.5295" lon="2.35068">
        <ele>131.35729</ele>
        <time>2011-04-16T19:02:27Z</time>
      </trkpt>
      <trkpt lat="50.52951" lon="2.35007">
        <ele>132.79931</ele>
        <time>2011-04-16T19:02:43Z</time>
      </trkpt>
      <trkpt lat="50.52952" lon="2.34964">
        <ele>132.79931</ele>
        <time>2011-04-16T19:02:54Z</time>
      </trkpt>
      <trkpt lat="50.52952" lon="2.34946">
        <ele>132.79931</ele>
        <time>2011-04-16T19:02:58Z</time>
      </trkpt>
      <trkpt lat="50.52939" lon="2.34933">
        <ele>132.79931</ele>
        <time>2011-04-16T19:03:04Z</time>
      </trkpt>
      <trkpt lat="50.52909" lon="2.34933">
        <ele>133.2799</ele>
        <time>2011-04-16T19:03:16Z</time>
      </trkpt>
      <trkpt lat="50.52886" lon="2.34934">
        <ele>132.3186</ele>
        <time>2011-04-16T19:03:25Z</time>
      </trkpt>
      <trkpt lat="50.52847" lon="2.34945">
        <ele>129.43469</ele>
        <time>2011-04-16T19:03:42Z</time>
      </trkpt>
      <trkpt lat="50.5283" lon="2.3494">
        <ele>127.03137</ele>
        <time>2011-04-16T19:03:48Z</time>
      </trkpt>
      <trkpt lat="50.5283" lon="2.34929">
        <ele>126.55065</ele>
        <time>2011-04-16T19:03:51Z</time>
      </trkpt>
      <trkpt lat="50.52834" lon="2.3492">
        <ele>125.58935</ele>
        <time>2011-04-16T19:03:54Z</time>
      </trkpt>
      <trkpt lat="50.52849" lon="2.34884">
        <ele>126.55065</ele>
        <time>2011-04-16T19:04:05Z</time>
      </trkpt>
      <trkpt lat="50.52873" lon="2.34821">
        <ele>129.43469</ele>
        <time>2011-04-16T19:04:24Z</time>
      </trkpt>
      <trkpt lat="50.52895" lon="2.34764">
        <ele>130.8767</ele>
        <time>2011-04-16T19:04:41Z</time>
      </trkpt>
      <trkpt lat="50.52915" lon="2.34714">
        <ele>130.8767</ele>
        <time>2011-04-16T19:04:56Z</time>
      </trkpt>
      <trkpt lat="50.52932" lon="2.34661">
        <ele>131.35729</ele>
        <time>2011-04-16T19:05:11Z</time>
      </trkpt>
      <trkpt lat="50.5295" lon="2.34574">
        <ele>131.83789</ele>
        <time>2011-04-16T19:05:34Z</time>
      </trkpt>
      <trkpt lat="50.52972" lon="2.34501">
        <ele>132.79931</ele>
        <time>2011-04-16T19:05:55Z</time>
      </trkpt>
      <trkpt lat="50.52996" lon="2.34423">
        <ele>134.24121</ele>
        <time>2011-04-16T19:06:17Z</time>
      </trkpt>
      <trkpt lat="50.53011" lon="2.34376">
        <ele>134.72192</ele>
        <time>2011-04-16T19:06:30Z</time>
      </trkpt>
      <trkpt lat="50.53021" lon="2.34318">
        <ele>135.20251</ele>
        <time>2011-04-16T19:06:45Z</time>
      </trkpt>
      <trkpt lat="50.53015" lon="2.3429">
        <ele>136.16394</ele>
        <time>2011-04-16T19:06:53Z</time>
      </trkpt>
      <trkpt lat="50.53005" lon="2.34278">
        <ele>136.64465</ele>
        <time>2011-04-16T19:06:58Z</time>
      </trkpt>
      <trkpt lat="50.52969" lon="2.34243">
        <ele>138.56726</ele>
        <time>2011-04-16T19:07:15Z</time>
      </trkpt>
      <trkpt lat="50.52945" lon="2.34223">
        <ele>140.48986</ele>
        <time>2011-04-16T19:07:26Z</time>
      </trkpt>
      <trkpt lat="50.52933" lon="2.34239">
        <ele>139.04785</ele>
        <time>2011-04-16T19:07:32Z</time>
      </trkpt>
      <trkpt lat="50.52916" lon="2.34274">
        <ele>135.6831</ele>
        <time>2011-04-16T19:07:43Z</time>
      </trkpt>
      <trkpt lat="50.52897" lon="2.34334">
        <ele>130.8767</ele>
        <time>2011-04-16T19:08:00Z</time>
      </trkpt>
      <trkpt lat="50.52893" lon="2.34347">
        <ele>129.91528</ele>
        <time>2011-04-16T19:08:04Z</time>
      </trkpt>
      <trkpt lat="50.52874" lon="2.34389">
        <ele>127.03137</ele>
        <time>2011-04-16T19:08:17Z</time>
      </trkpt>
      <trkpt lat="50.52834" lon="2.34454">
        <ele>124.62805</ele>
        <time>2011-04-16T19:08:40Z</time>
      </trkpt>
      <trkpt lat="50.52804" lon="2.34514">
        <ele>122.22473</ele>
        <time>2011-04-16T19:08:59Z</time>
      </trkpt>
      <trkpt lat="50.52787" lon="2.34556">
        <ele>120.30212</ele>
        <time>2011-04-16T19:09:12Z</time>
      </trkpt>
      <trkpt lat="50.52777" lon="2.34567">
        <ele>118.8601</ele>
        <time>2011-04-16T19:09:17Z</time>
      </trkpt>
      <trkpt lat="50.52774" lon="2.34565">
        <ele>118.37939</ele>
        <time>2011-04-16T19:09:18Z</time>
      </trkpt>
      <trkpt lat="50.52763" lon="2.34554">
        <ele>118.8601</ele>
        <time>2011-04-16T19:09:24Z</time>
      </trkpt>
      <trkpt lat="50.52727" lon="2.34526">
        <ele>118.8601</ele>
        <time>2011-04-16T19:09:40Z</time>
      </trkpt>
      <trkpt lat="50.5271" lon="2.34512">
        <ele>119.34082</ele>
        <time>2011-04-16T19:09:47Z</time>
      </trkpt>
      <trkpt lat="50.52689" lon="2.34474">
        <ele>120.78283</ele>
        <time>2011-04-16T19:10:00Z</time>
      </trkpt>
      <trkpt lat="50.52671" lon="2.34423">
        <ele>122.22473</ele>
        <time>2011-04-16T19:10:15Z</time>
      </trkpt>
      <trkpt lat="50.52667" lon="2.3441">
        <ele>122.70544</ele>
        <time>2011-04-16T19:10:19Z</time>
      </trkpt>
      <trkpt lat="50.52653" lon="2.34382">
        <ele>123.66674</ele>
        <time>2011-04-16T19:10:28Z</time>
      </trkpt>
      <trkpt lat="50.52628" lon="2.34317">
        <ele>125.10876</ele>
        <time>2011-04-16T19:10:47Z</time>
      </trkpt>
      <trkpt lat="50.52602" lon="2.34256">
        <ele>127.03137</ele>
        <time>2011-04-16T19:11:06Z</time>
      </trkpt>
      <trkpt lat="50.52586" lon="2.34206">
        <ele>128.47338</ele>
        <time>2011-04-16T19:11:20Z</time>
      </trkpt>
      <trkpt lat="50.5257" lon="2.34148">
        <ele>129.91528</ele>
        <time>2011-04-16T19:11:36Z</time>
      </trkpt>
      <trkpt lat="50.52554" lon="2.34095">
        <ele>131.83789</ele>
        <time>2011-04-16T19:11:51Z</time>
      </trkpt>
      <trkpt lat="50.52536" lon="2.34037">
        <ele>133.76049</ele>
        <time>2011-04-16T19:12:08Z</time>
      </trkpt>
      <trkpt lat="50.52524" lon="2.33995">
        <ele>135.20251</ele>
        <time>2011-04-16T19:12:19Z</time>
      </trkpt>
      <trkpt lat="50.52512" lon="2.3395">
        <ele>136.64465</ele>
        <time>2011-04-16T19:12:32Z</time>
      </trkpt>
      <trkpt lat="50.52502" lon="2.3391">
        <ele>138.08654</ele>
        <time>2011-04-16T19:12:43Z</time>
      </trkpt>
      <trkpt lat="50.52492" lon="2.33869">
        <ele>139.04785</ele>
        <time>2011-04-16T19:12:54Z</time>
      </trkpt>
      <trkpt lat="50.52482" lon="2.33828">
        <ele>140.00915</ele>
        <time>2011-04-16T19:13:05Z</time>
      </trkpt>
      <trkpt lat="50.52473" lon="2.33789">
        <ele>141.45104</ele>
        <time>2011-04-16T19:13:15Z</time>
      </trkpt>
      <trkpt lat="50.52465" lon="2.33746">
        <ele>143.37365</ele>
        <time>2011-04-16T19:13:27Z</time>
      </trkpt>
      <trkpt lat="50.52461" lon="2.33712">
        <ele>145.29638</ele>
        <time>2011-04-16T19:13:36Z</time>
      </trkpt>
      <trkpt lat="50.52456" lon="2.33672">
        <ele>144.3352</ele>
        <time>2011-04-16T19:13:46Z</time>
      </trkpt>
      <trkpt lat="50.52452" lon="2.33642">
        <ele>145.29638</ele>
        <time>2011-04-16T19:13:54Z</time>
      </trkpt>
      <trkpt lat="50.52446" lon="2.3361">
        <ele>147.21899</ele>
        <time>2011-04-16T19:14:02Z</time>
      </trkpt>
      <trkpt lat="50.52442" lon="2.33569">
        <ele>148.18041</ele>
        <time>2011-04-16T19:14:13Z</time>
      </trkpt>
      <trkpt lat="50.52438" lon="2.33532">
        <ele>149.62231</ele>
        <time>2011-04-16T19:14:23Z</time>
      </trkpt>
      <trkpt lat="50.52432" lon="2.33492">
        <ele>151.54492</ele>
        <time>2011-04-16T19:14:33Z</time>
      </trkpt>
      <trkpt lat="50.52427" lon="2.33456">
        <ele>152.98693</ele>
        <time>2011-04-16T19:14:42Z</time>
      </trkpt>
      <trkpt lat="50.52421" lon="2.3341">
        <ele>155.39025</ele>
        <time>2011-04-16T19:14:54Z</time>
      </trkpt>
      <trkpt lat="50.52419" lon="2.3338">
        <ele>157.79357</ele>
        <time>2011-04-16T19:15:02Z</time>
      </trkpt>
      <trkpt lat="50.52424" lon="2.33367">
        <ele>158.27416</ele>
        <time>2011-04-16T19:15:06Z</time>
      </trkpt>
      <trkpt lat="50.52434" lon="2.33357">
        <ele>158.75476</ele>
        <time>2011-04-16T19:15:10Z</time>
      </trkpt>
      <trkpt lat="50.52435" lon="2.33355">
        <ele>158.75476</ele>
        <time>2011-04-16T19:15:11Z</time>
      </trkpt>
      <trkpt lat="50.52443" lon="2.33349">
        <ele>159.23547</ele>
        <time>2011-04-16T19:15:15Z</time>
      </trkpt>
      <trkpt lat="50.52456" lon="2.33334">
        <ele>160.19689</ele>
        <time>2011-04-16T19:15:21Z</time>
      </trkpt>
      <trkpt lat="50.5247" lon="2.33321">
        <ele>160.67749</ele>
        <time>2011-04-16T19:15:28Z</time>
      </trkpt>
      <trkpt lat="50.52479" lon="2.33312">
        <ele>161.63891</ele>
        <time>2011-04-16T19:15:32Z</time>
      </trkpt>
      <trkpt lat="50.52492" lon="2.33299">
        <ele>163.08081</ele>
        <time>2011-04-16T19:15:38Z</time>
      </trkpt>
      <trkpt lat="50.52501" lon="2.33293">
        <ele>164.04211</ele>
        <time>2011-04-16T19:15:42Z</time>
      </trkpt>
      <trkpt lat="50.52508" lon="2.33286">
        <ele>165.48413</ele>
        <time>2011-04-16T19:15:45Z</time>
      </trkpt>
      <trkpt lat="50.52515" lon="2.3327">
        <ele>167.88732</ele>
        <time>2011-04-16T19:15:50Z</time>
      </trkpt>
      <trkpt lat="50.52519" lon="2.33251">
        <ele>170.29064</ele>
        <time>2011-04-16T19:15:56Z</time>
      </trkpt>
      <trkpt lat="50.52521" lon="2.33246">
        <ele>170.77136</ele>
        <time>2011-04-16T19:15:57Z</time>
      </trkpt>
      <trkpt lat="50.52528" lon="2.33228">
        <ele>170.29064</ele>
        <time>2011-04-16T19:16:02Z</time>
      </trkpt>
      <trkpt lat="50.5254" lon="2.33207">
        <ele>171.73266</ele>
        <time>2011-04-16T19:16:10Z</time>
      </trkpt>
      <trkpt lat="50.52561" lon="2.33183">
        <ele>173.65527</ele>
        <time>2011-04-16T19:16:20Z</time>
      </trkpt>
      <trkpt lat="50.52579" lon="2.33162">
        <ele>174.61657</ele>
        <time>2011-04-16T19:16:29Z</time>
      </trkpt>
      <trkpt lat="50.52604" lon="2.33135">
        <ele>175.57788</ele>
        <time>2011-04-16T19:16:41Z</time>
      </trkpt>
      <trkpt lat="50.52623" lon="2.33118">
        <ele>176.5393</ele>
        <time>2011-04-16T19:16:50Z</time>
      </trkpt>
      <trkpt lat="50.52643" lon="2.331">
        <ele>177.9812</ele>
        <time>2011-04-16T19:16:59Z</time>
      </trkpt>
      <trkpt lat="50.52645" lon="2.33098">
        <ele>178.46191</ele>
        <time>2011-04-16T19:17:00Z</time>
      </trkpt>
      <trkpt lat="50.52661" lon="2.3308">
        <ele>179.9038</ele>
        <time>2011-04-16T19:17:08Z</time>
      </trkpt>
      <trkpt lat="50.52681" lon="2.33057">
        <ele>183.26843</ele>
        <time>2011-04-16T19:17:18Z</time>
      </trkpt>
      <trkpt lat="50.52685" lon="2.33052">
        <ele>184.22985</ele>
        <time>2011-04-16T19:17:20Z</time>
      </trkpt>
      <trkpt lat="50.52698" lon="2.33034">
        <ele>185.19116</ele>
        <time>2011-04-16T19:17:27Z</time>
      </trkpt>
      <trkpt lat="50.52721" lon="2.33001">
        <ele>187.11376</ele>
        <time>2011-04-16T19:17:39Z</time>
      </trkpt>
      <trkpt lat="50.52744" lon="2.32965">
        <ele>185.67175</ele>
        <time>2011-04-16T19:17:52Z</time>
      </trkpt>
      <trkpt lat="50.52763" lon="2.32935">
        <ele>180.86523</ele>
        <time>2011-04-16T19:18:03Z</time>
      </trkpt>
      <trkpt lat="50.52766" lon="2.32931">
        <ele>177.50061</ele>
        <time>2011-04-16T19:18:05Z</time>
      </trkpt>
      <trkpt lat="50.52771" lon="2.32927">
        <ele>176.05859</ele>
        <time>2011-04-16T19:18:05Z</time>
      </trkpt>
      <trkpt lat="50.52785" lon="2.32908">
        <ele>172.69396</ele>
        <time>2011-04-16T19:18:12Z</time>
      </trkpt>
      <trkpt lat="50.52796" lon="2.32885">
        <ele>167.40673</ele>
        <time>2011-04-16T19:18:20Z</time>
      </trkpt>
      <trkpt lat="50.52799" lon="2.3288">
        <ele>166.44531</ele>
        <time>2011-04-16T19:18:21Z</time>
      </trkpt>
      <trkpt lat="50.52829" lon="2.32841">
        <ele>159.23547</ele>
        <time>2011-04-16T19:18:37Z</time>
      </trkpt>
      <trkpt lat="50.52854" lon="2.3281">
        <ele>152.98693</ele>
        <time>2011-04-16T19:18:49Z</time>
      </trkpt>
      <trkpt lat="50.52859" lon="2.32803">
        <ele>151.54492</ele>
        <time>2011-04-16T19:18:52Z</time>
      </trkpt>
      <trkpt lat="50.52881" lon="2.32793">
        <ele>146.25781</ele>
        <time>2011-04-16T19:19:01Z</time>
      </trkpt>
      <trkpt lat="50.52888" lon="2.32797">
        <ele>145.29638</ele>
        <time>2011-04-16T19:19:04Z</time>
      </trkpt>
      <trkpt lat="50.52919" lon="2.32789">
        <ele>143.37365</ele>
        <time>2011-04-16T19:19:17Z</time>
      </trkpt>
      <trkpt lat="50.5296" lon="2.32744">
        <ele>140.48986</ele>
        <time>2011-04-16T19:19:37Z</time>
      </trkpt>
      <trkpt lat="50.52994" lon="2.32711">
        <ele>136.64465</ele>
        <time>2011-04-16T19:19:53Z</time>
      </trkpt>
      <trkpt lat="50.53061" lon="2.32648">
        <ele>132.3186</ele>
        <time>2011-04-16T19:20:24Z</time>
      </trkpt>
      <trkpt lat="50.53117" lon="2.32594">
        <ele>129.91528</ele>
        <time>2011-04-16T19:20:50Z</time>
      </trkpt>
      <trkpt lat="50.53153" lon="2.32562">
        <ele>130.8767</ele>
        <time>2011-04-16T19:21:07Z</time>
      </trkpt>
      <trkpt lat="50.53163" lon="2.32555">
        <ele>131.83789</ele>
        <time>2011-04-16T19:21:11Z</time>
      </trkpt>
      <trkpt lat="50.5319" lon="2.32526">
        <ele>134.24121</ele>
        <time>2011-04-16T19:21:24Z</time>
      </trkpt>
      <trkpt lat="50.53221" lon="2.32495">
        <ele>136.16394</ele>
        <time>2011-04-16T19:21:39Z</time>
      </trkpt>
      <trkpt lat="50.53251" lon="2.32465">
        <ele>138.56726</ele>
        <time>2011-04-16T19:21:53Z</time>
      </trkpt>
      <trkpt lat="50.53268" lon="2.32446">
        <ele>140.00915</ele>
        <time>2011-04-16T19:22:02Z</time>
      </trkpt>
      <trkpt lat="50.53294" lon="2.3242">
        <ele>141.45104</ele>
        <time>2011-04-16T19:22:14Z</time>
      </trkpt>
      <trkpt lat="50.53319" lon="2.32395">
        <ele>143.37365</ele>
        <time>2011-04-16T19:22:26Z</time>
      </trkpt>
      <trkpt lat="50.53346" lon="2.32367">
        <ele>144.3352</ele>
        <time>2011-04-16T19:22:39Z</time>
      </trkpt>
      <trkpt lat="50.53382" lon="2.32328">
        <ele>145.29638</ele>
        <time>2011-04-16T19:22:56Z</time>
      </trkpt>
      <trkpt lat="50.53414" lon="2.32292">
        <ele>144.81579</ele>
        <time>2011-04-16T19:23:12Z</time>
      </trkpt>
      <trkpt lat="50.53454" lon="2.32238">
        <ele>143.85437</ele>
        <time>2011-04-16T19:23:33Z</time>
      </trkpt>
      <trkpt lat="50.53492" lon="2.32184">
        <ele>142.41247</ele>
        <time>2011-04-16T19:23:54Z</time>
      </trkpt>
      <trkpt lat="50.53497" lon="2.32178">
        <ele>141.93176</ele>
        <time>2011-04-16T19:23:56Z</time>
      </trkpt>
      <trkpt lat="50.53543" lon="2.32112">
        <ele>140.00915</ele>
        <time>2011-04-16T19:24:21Z</time>
      </trkpt>
      <trkpt lat="50.53581" lon="2.3206">
        <ele>138.56726</ele>
        <time>2011-04-16T19:24:41Z</time>
      </trkpt>
      <trkpt lat="50.53627" lon="2.31994">
        <ele>135.20251</ele>
        <time>2011-04-16T19:25:06Z</time>
      </trkpt>
      <trkpt lat="50.5366" lon="2.31945">
        <ele>132.3186</ele>
        <time>2011-04-16T19:25:24Z</time>
      </trkpt>
      <trkpt lat="50.53681" lon="2.31914">
        <ele>129.43469</ele>
        <time>2011-04-16T19:25:36Z</time>
      </trkpt>
      <trkpt lat="50.53696" lon="2.31893">
        <ele>127.51196</ele>
        <time>2011-04-16T19:25:44Z</time>
      </trkpt>
      <trkpt lat="50.53752" lon="2.31814">
        <ele>125.10876</ele>
        <time>2011-04-16T19:26:14Z</time>
      </trkpt>
      <trkpt lat="50.53797" lon="2.31747">
        <ele>127.99255</ele>
        <time>2011-04-16T19:26:39Z</time>
      </trkpt>
      <trkpt lat="50.53811" lon="2.3173">
        <ele>127.99255</ele>
        <time>2011-04-16T19:26:46Z</time>
      </trkpt>
      <trkpt lat="50.53825" lon="2.31681">
        <ele>127.03137</ele>
        <time>2011-04-16T19:27:00Z</time>
      </trkpt>
      <trkpt lat="50.53824" lon="2.31668">
        <ele>126.55065</ele>
        <time>2011-04-16T19:27:03Z</time>
      </trkpt>
      <trkpt lat="50.53821" lon="2.31614">
        <ele>125.58935</ele>
        <time>2011-04-16T19:27:17Z</time>
      </trkpt>
      <trkpt lat="50.53827" lon="2.31577">
        <ele>125.58935</ele>
        <time>2011-04-16T19:27:26Z</time>
      </trkpt>
      <trkpt lat="50.53839" lon="2.31571">
        <ele>125.58935</ele>
        <time>2011-04-16T19:27:31Z</time>
      </trkpt>
      <trkpt lat="50.53859" lon="2.31565">
        <ele>124.14733</ele>
        <time>2011-04-16T19:27:39Z</time>
      </trkpt>
      <trkpt lat="50.53865" lon="2.31523">
        <ele>122.70544</ele>
        <time>2011-04-16T19:27:50Z</time>
      </trkpt>
      <trkpt lat="50.53848" lon="2.31438">
        <ele>122.70544</ele>
        <time>2011-04-16T19:28:13Z</time>
      </trkpt>
      <trkpt lat="50.53847" lon="2.31376">
        <ele>123.66674</ele>
        <time>2011-04-16T19:28:29Z</time>
      </trkpt>
      <trkpt lat="50.53856" lon="2.31307">
        <ele>124.14733</ele>
        <time>2011-04-16T19:28:47Z</time>
      </trkpt>
      <trkpt lat="50.53857" lon="2.31253">
        <ele>124.62805</ele>
        <time>2011-04-16T19:29:01Z</time>
      </trkpt>
      <trkpt lat="50.53858" lon="2.31166">
        <ele>124.62805</ele>
        <time>2011-04-16T19:29:23Z</time>
      </trkpt>
      <trkpt lat="50.53871" lon="2.31079">
        <ele>124.14733</ele>
        <time>2011-04-16T19:29:46Z</time>
      </trkpt>
      <trkpt lat="50.53876" lon="2.31045">
        <ele>123.66674</ele>
        <time>2011-04-16T19:29:54Z</time>
      </trkpt>
      <trkpt lat="50.53874" lon="2.31001">
        <ele>123.66674</ele>
        <time>2011-04-16T19:30:06Z</time>
      </trkpt>
      <trkpt lat="50.53853" lon="2.30874">
        <ele>124.14733</ele>
        <time>2011-04-16T19:30:39Z</time>
      </trkpt>
      <trkpt lat="50.53836" lon="2.30774">
        <ele>125.10876</ele>
        <time>2011-04-16T19:31:05Z</time>
      </trkpt>
      <trkpt lat="50.5383" lon="2.30748">
        <ele>125.10876</ele>
        <time>2011-04-16T19:31:12Z</time>
      </trkpt>
      <trkpt lat="50.53817" lon="2.30721">
        <ele>126.06994</ele>
        <time>2011-04-16T19:31:21Z</time>
      </trkpt>
      <trkpt lat="50.5379" lon="2.3066">
        <ele>128.9541</ele>
        <time>2011-04-16T19:31:40Z</time>
      </trkpt>
      <trkpt lat="50.53766" lon="2.30615">
        <ele>130.39599</ele>
        <time>2011-04-16T19:31:55Z</time>
      </trkpt>
      <trkpt lat="50.53741" lon="2.30567">
        <ele>132.3186</ele>
        <time>2011-04-16T19:32:10Z</time>
      </trkpt>
      <trkpt lat="50.53722" lon="2.30529">
        <ele>134.24121</ele>
        <time>2011-04-16T19:32:23Z</time>
      </trkpt>
      <trkpt lat="50.53703" lon="2.30502">
        <ele>135.20251</ele>
        <time>2011-04-16T19:32:33Z</time>
      </trkpt>
      <trkpt lat="50.53686" lon="2.30478">
        <ele>134.72192</ele>
        <time>2011-04-16T19:32:42Z</time>
      </trkpt>
      <trkpt lat="50.5366" lon="2.30448">
        <ele>132.3186</ele>
        <time>2011-04-16T19:32:55Z</time>
      </trkpt>
      <trkpt lat="50.53627" lon="2.30423">
        <ele>129.43469</ele>
        <time>2011-04-16T19:33:10Z</time>
      </trkpt>
      <trkpt lat="50.53592" lon="2.30369">
        <ele>127.03137</ele>
        <time>2011-04-16T19:33:29Z</time>
      </trkpt>
      <trkpt lat="50.53587" lon="2.30363">
        <ele>127.51196</ele>
        <time>2011-04-16T19:33:32Z</time>
      </trkpt>
      <trkpt lat="50.53561" lon="2.30345">
        <ele>127.51196</ele>
        <time>2011-04-16T19:33:43Z</time>
      </trkpt>
      <trkpt lat="50.53539" lon="2.30324">
        <ele>127.03137</ele>
        <time>2011-04-16T19:33:53Z</time>
      </trkpt>
      <trkpt lat="50.53497" lon="2.30262">
        <ele>127.03137</ele>
        <time>2011-04-16T19:34:17Z</time>
      </trkpt>
      <trkpt lat="50.53465" lon="2.30229">
        <ele>127.51196</ele>
        <time>2011-04-16T19:34:32Z</time>
      </trkpt>
      <trkpt lat="50.53441" lon="2.30202">
        <ele>127.99255</ele>
        <time>2011-04-16T19:34:44Z</time>
      </trkpt>
      <trkpt lat="50.53428" lon="2.3018">
        <ele>128.47338</ele>
        <time>2011-04-16T19:34:51Z</time>
      </trkpt>
      <trkpt lat="50.53396" lon="2.30144">
        <ele>129.43469</ele>
        <time>2011-04-16T19:35:07Z</time>
      </trkpt>
      <trkpt lat="50.53367" lon="2.3011">
        <ele>130.8767</ele>
        <time>2011-04-16T19:35:22Z</time>
      </trkpt>
      <trkpt lat="50.53337" lon="2.30073">
        <ele>132.3186</ele>
        <time>2011-04-16T19:35:37Z</time>
      </trkpt>
      <trkpt lat="50.53322" lon="2.30053">
        <ele>133.76049</ele>
        <time>2011-04-16T19:35:45Z</time>
      </trkpt>
      <trkpt lat="50.533" lon="2.30022">
        <ele>134.72192</ele>
        <time>2011-04-16T19:35:56Z</time>
      </trkpt>
      <trkpt lat="50.53286" lon="2.30001">
        <ele>136.64465</ele>
        <time>2011-04-16T19:36:04Z</time>
      </trkpt>
      <trkpt lat="50.53271" lon="2.29976">
        <ele>138.56726</ele>
        <time>2011-04-16T19:36:13Z</time>
      </trkpt>
      <trkpt lat="50.53251" lon="2.29939">
        <ele>140.00915</ele>
        <time>2011-04-16T19:36:25Z</time>
      </trkpt>
      <trkpt lat="50.53238" lon="2.29916">
        <ele>140.97045</ele>
        <time>2011-04-16T19:36:33Z</time>
      </trkpt>
      <trkpt lat="50.53218" lon="2.29896">
        <ele>141.93176</ele>
        <time>2011-04-16T19:36:43Z</time>
      </trkpt>
      <trkpt lat="50.532" lon="2.29877">
        <ele>143.37365</ele>
        <time>2011-04-16T19:36:51Z</time>
      </trkpt>
      <trkpt lat="50.53186" lon="2.29855">
        <ele>144.81579</ele>
        <time>2011-04-16T19:36:59Z</time>
      </trkpt>
      <trkpt lat="50.53177" lon="2.29841">
        <ele>145.29638</ele>
        <time>2011-04-16T19:37:04Z</time>
      </trkpt>
      <trkpt lat="50.53163" lon="2.29822">
        <ele>147.6997</ele>
        <time>2011-04-16T19:37:12Z</time>
      </trkpt>
      <trkpt lat="50.53151" lon="2.29804">
        <ele>148.66101</ele>
        <time>2011-04-16T19:37:18Z</time>
      </trkpt>
      <trkpt lat="50.53135" lon="2.29786">
        <ele>150.58361</ele>
        <time>2011-04-16T19:37:26Z</time>
      </trkpt>
      <trkpt lat="50.53118" lon="2.29769">
        <ele>152.50634</ele>
        <time>2011-04-16T19:37:34Z</time>
      </trkpt>
      <trkpt lat="50.53104" lon="2.29754">
        <ele>153.46765</ele>
        <time>2011-04-16T19:37:41Z</time>
      </trkpt>
      <trkpt lat="50.53087" lon="2.29739">
        <ele>155.87097</ele>
        <time>2011-04-16T19:37:49Z</time>
      </trkpt>
      <trkpt lat="50.53075" lon="2.29727">
        <ele>156.35156</ele>
        <time>2011-04-16T19:37:55Z</time>
      </trkpt>
      <trkpt lat="50.53059" lon="2.29712">
        <ele>156.35156</ele>
        <time>2011-04-16T19:38:02Z</time>
      </trkpt>
      <trkpt lat="50.53044" lon="2.29697">
        <ele>157.79357</ele>
        <time>2011-04-16T19:38:09Z</time>
      </trkpt>
      <trkpt lat="50.53028" lon="2.2968">
        <ele>159.23547</ele>
        <time>2011-04-16T19:38:17Z</time>
      </trkpt>
      <trkpt lat="50.53009" lon="2.29662">
        <ele>160.19689</ele>
        <time>2011-04-16T19:38:26Z</time>
      </trkpt>
      <trkpt lat="50.52985" lon="2.29642">
        <ele>161.63891</ele>
        <time>2011-04-16T19:38:37Z</time>
      </trkpt>
      <trkpt lat="50.52964" lon="2.29626">
        <ele>163.56152</ele>
        <time>2011-04-16T19:38:46Z</time>
      </trkpt>
      <trkpt lat="50.52945" lon="2.29613">
        <ele>165.96472</ele>
        <time>2011-04-16T19:38:54Z</time>
      </trkpt>
      <trkpt lat="50.52929" lon="2.29602">
        <ele>167.88732</ele>
        <time>2011-04-16T19:39:01Z</time>
      </trkpt>
      <trkpt lat="50.52915" lon="2.29593">
        <ele>168.84875</ele>
        <time>2011-04-16T19:39:07Z</time>
      </trkpt>
      <trkpt lat="50.52895" lon="2.29588">
        <ele>170.77136</ele>
        <time>2011-04-16T19:39:16Z</time>
      </trkpt>
      <trkpt lat="50.52874" lon="2.29592">
        <ele>173.17468</ele>
        <time>2011-04-16T19:39:24Z</time>
      </trkpt>
      <trkpt lat="50.52851" lon="2.29594">
        <ele>174.13586</ele>
        <time>2011-04-16T19:39:33Z</time>
      </trkpt>
      <trkpt lat="50.52828" lon="2.29585">
        <ele>175.09729</ele>
        <time>2011-04-16T19:39:43Z</time>
      </trkpt>
      <trkpt lat="50.52803" lon="2.29564">
        <ele>176.5393</ele>
        <time>2011-04-16T19:39:54Z</time>
      </trkpt>
      <trkpt lat="50.52774" lon="2.29547">
        <ele>177.50061</ele>
        <time>2011-04-16T19:40:07Z</time>
      </trkpt>
      <trkpt lat="50.52741" lon="2.29532">
        <ele>178.46191</ele>
        <time>2011-04-16T19:40:20Z</time>
      </trkpt>
      <trkpt lat="50.5269" lon="2.29513">
        <ele>179.9038</ele>
        <time>2011-04-16T19:40:41Z</time>
      </trkpt>
      <trkpt lat="50.52648" lon="2.29504">
        <ele>181.34582</ele>
        <time>2011-04-16T19:40:58Z</time>
      </trkpt>
      <trkpt lat="50.52605" lon="2.29484">
        <ele>182.78784</ele>
        <time>2011-04-16T19:41:16Z</time>
      </trkpt>
      <trkpt lat="50.52564" lon="2.29452">
        <ele>184.71057</ele>
        <time>2011-04-16T19:41:34Z</time>
      </trkpt>
      <trkpt lat="50.52527" lon="2.2942">
        <ele>186.63317</ele>
        <time>2011-04-16T19:41:51Z</time>
      </trkpt>
      <trkpt lat="50.52489" lon="2.29383">
        <ele>188.07507</ele>
        <time>2011-04-16T19:42:09Z</time>
      </trkpt>
      <trkpt lat="50.52451" lon="2.29343">
        <ele>188.55578</ele>
        <time>2011-04-16T19:42:27Z</time>
      </trkpt>
      <trkpt lat="50.52446" lon="2.29339">
        <ele>188.55578</ele>
        <time>2011-04-16T19:42:29Z</time>
      </trkpt>
      <trkpt lat="50.52402" lon="2.29295">
        <ele>188.55578</ele>
        <time>2011-04-16T19:42:50Z</time>
      </trkpt>
      <trkpt lat="50.52362" lon="2.2926">
        <ele>188.55578</ele>
        <time>2011-04-16T19:43:09Z</time>
      </trkpt>
      <trkpt lat="50.52312" lon="2.29222">
        <ele>187.59436</ele>
        <time>2011-04-16T19:43:31Z</time>
      </trkpt>
      <trkpt lat="50.52289" lon="2.29226">
        <ele>188.07507</ele>
        <time>2011-04-16T19:43:40Z</time>
      </trkpt>
      <trkpt lat="50.52286" lon="2.29231">
        <ele>188.07507</ele>
        <time>2011-04-16T19:43:42Z</time>
      </trkpt>
      <trkpt lat="50.52259" lon="2.29287">
        <ele>188.55578</ele>
        <time>2011-04-16T19:44:00Z</time>
      </trkpt>
      <trkpt lat="50.52231" lon="2.29345">
        <ele>189.03637</ele>
        <time>2011-04-16T19:44:19Z</time>
      </trkpt>
      <trkpt lat="50.52208" lon="2.29388">
        <ele>189.03637</ele>
        <time>2011-04-16T19:44:33Z</time>
      </trkpt>
      <trkpt lat="50.52181" lon="2.29433">
        <ele>189.51696</ele>
        <time>2011-04-16T19:44:49Z</time>
      </trkpt>
      <trkpt lat="50.52156" lon="2.29475">
        <ele>189.51696</ele>
        <time>2011-04-16T19:45:03Z</time>
      </trkpt>
      <trkpt lat="50.52127" lon="2.29522">
        <ele>189.03637</ele>
        <time>2011-04-16T19:45:20Z</time>
      </trkpt>
      <trkpt lat="50.52104" lon="2.29561">
        <ele>188.07507</ele>
        <time>2011-04-16T19:45:34Z</time>
      </trkpt>
      <trkpt lat="50.52091" lon="2.29582">
        <ele>187.59436</ele>
        <time>2011-04-16T19:45:41Z</time>
      </trkpt>
      <trkpt lat="50.52084" lon="2.29599">
        <ele>187.11376</ele>
        <time>2011-04-16T19:45:46Z</time>
      </trkpt>
      <trkpt lat="50.52065" lon="2.29646">
        <ele>185.67175</ele>
        <time>2011-04-16T19:46:00Z</time>
      </trkpt>
      <trkpt lat="50.52052" lon="2.29678">
        <ele>184.22985</ele>
        <time>2011-04-16T19:46:10Z</time>
      </trkpt>
      <trkpt lat="50.52037" lon="2.29711">
        <ele>184.22985</ele>
        <time>2011-04-16T19:46:20Z</time>
      </trkpt>
      <trkpt lat="50.52034" lon="2.29717">
        <ele>183.74902</ele>
        <time>2011-04-16T19:46:22Z</time>
      </trkpt>
      <trkpt lat="50.52023" lon="2.29743">
        <ele>183.26843</ele>
        <time>2011-04-16T19:46:30Z</time>
      </trkpt>
      <trkpt lat="50.52002" lon="2.29795">
        <ele>183.26843</ele>
        <time>2011-04-16T19:46:46Z</time>
      </trkpt>
      <trkpt lat="50.51982" lon="2.29838">
        <ele>182.78784</ele>
        <time>2011-04-16T19:46:59Z</time>
      </trkpt>
      <trkpt lat="50.51964" lon="2.29871">
        <ele>183.26843</ele>
        <time>2011-04-16T19:47:11Z</time>
      </trkpt>
      <trkpt lat="50.51933" lon="2.29919">
        <ele>182.78784</ele>
        <time>2011-04-16T19:47:28Z</time>
      </trkpt>
      <trkpt lat="50.51922" lon="2.29935">
        <ele>182.30712</ele>
        <time>2011-04-16T19:47:34Z</time>
      </trkpt>
      <trkpt lat="50.51915" lon="2.29949">
        <ele>182.30712</ele>
        <time>2011-04-16T19:47:38Z</time>
      </trkpt>
      <trkpt lat="50.51892" lon="2.29982">
        <ele>182.78784</ele>
        <time>2011-04-16T19:47:51Z</time>
      </trkpt>
      <trkpt lat="50.51868" lon="2.30021">
        <ele>183.74902</ele>
        <time>2011-04-16T19:48:05Z</time>
      </trkpt>
      <trkpt lat="50.51844" lon="2.30061">
        <ele>184.71057</ele>
        <time>2011-04-16T19:48:19Z</time>
      </trkpt>
      <trkpt lat="50.51826" lon="2.3009">
        <ele>185.19116</ele>
        <time>2011-04-16T19:48:29Z</time>
      </trkpt>
      <trkpt lat="50.51805" lon="2.3012">
        <ele>186.15246</ele>
        <time>2011-04-16T19:48:40Z</time>
      </trkpt>
      <trkpt lat="50.51764" lon="2.30167">
        <ele>187.59436</ele>
        <time>2011-04-16T19:49:01Z</time>
      </trkpt>
      <trkpt lat="50.51729" lon="2.30209">
        <ele>189.99768</ele>
        <time>2011-04-16T19:49:18Z</time>
      </trkpt>
      <trkpt lat="50.51697" lon="2.30247">
        <ele>191.43957</ele>
        <time>2011-04-16T19:49:34Z</time>
      </trkpt>
      <trkpt lat="50.51665" lon="2.30278">
        <ele>192.88171</ele>
        <time>2011-04-16T19:49:49Z</time>
      </trkpt>
      <trkpt lat="50.51638" lon="2.30299">
        <ele>193.3623</ele>
        <time>2011-04-16T19:50:01Z</time>
      </trkpt>
      <trkpt lat="50.51603" lon="2.3033">
        <ele>194.32373</ele>
        <time>2011-04-16T19:50:17Z</time>
      </trkpt>
      <trkpt lat="50.51578" lon="2.30347">
        <ele>194.32373</ele>
        <time>2011-04-16T19:50:29Z</time>
      </trkpt>
      <trkpt lat="50.51536" lon="2.30366">
        <ele>194.32373</ele>
        <time>2011-04-16T19:50:46Z</time>
      </trkpt>
      <trkpt lat="50.51511" lon="2.30376">
        <ele>194.32373</ele>
        <time>2011-04-16T19:50:56Z</time>
      </trkpt>
      <trkpt lat="50.51474" lon="2.30385">
        <ele>192.88171</ele>
        <time>2011-04-16T19:51:11Z</time>
      </trkpt>
      <trkpt lat="50.51465" lon="2.30399">
        <ele>191.92028</ele>
        <time>2011-04-16T19:51:16Z</time>
      </trkpt>
      <trkpt lat="50.51467" lon="2.30403">
        <ele>191.92028</ele>
        <time>2011-04-16T19:51:18Z</time>
      </trkpt>
      <trkpt lat="50.51487" lon="2.30449">
        <ele>191.92028</ele>
        <time>2011-04-16T19:51:32Z</time>
      </trkpt>
      <trkpt lat="50.51518" lon="2.30521">
        <ele>191.92028</ele>
        <time>2011-04-16T19:51:54Z</time>
      </trkpt>
      <trkpt lat="50.51544" lon="2.3058">
        <ele>192.40112</ele>
        <time>2011-04-16T19:52:12Z</time>
      </trkpt>
      <trkpt lat="50.5156" lon="2.30615">
        <ele>191.92028</ele>
        <time>2011-04-16T19:52:23Z</time>
      </trkpt>
      <trkpt lat="50.5156" lon="2.30644">
        <ele>191.43957</ele>
        <time>2011-04-16T19:52:30Z</time>
      </trkpt>
      <trkpt lat="50.51553" lon="2.30654">
        <ele>190.95898</ele>
        <time>2011-04-16T19:52:35Z</time>
      </trkpt>
      <trkpt lat="50.51512" lon="2.30692">
        <ele>191.43957</ele>
        <time>2011-04-16T19:52:54Z</time>
      </trkpt>
      <trkpt lat="50.51465" lon="2.30736">
        <ele>192.40112</ele>
        <time>2011-04-16T19:53:15Z</time>
      </trkpt>
      <trkpt lat="50.51425" lon="2.30773">
        <ele>193.3623</ele>
        <time>2011-04-16T19:53:34Z</time>
      </trkpt>
      <trkpt lat="50.51388" lon="2.3081">
        <ele>193.84301</ele>
        <time>2011-04-16T19:53:51Z</time>
      </trkpt>
      <trkpt lat="50.51357" lon="2.30841">
        <ele>192.88171</ele>
        <time>2011-04-16T19:54:06Z</time>
      </trkpt>
      <trkpt lat="50.51311" lon="2.30883">
        <ele>191.92028</ele>
        <time>2011-04-16T19:54:27Z</time>
      </trkpt>
      <trkpt lat="50.51249" lon="2.30942">
        <ele>190.47839</ele>
        <time>2011-04-16T19:54:57Z</time>
      </trkpt>
      <trkpt lat="50.51204" lon="2.30984">
        <ele>191.43957</ele>
        <time>2011-04-16T19:55:18Z</time>
      </trkpt>
      <trkpt lat="50.51153" lon="2.31032">
        <ele>192.40112</ele>
        <time>2011-04-16T19:55:41Z</time>
      </trkpt>
      <trkpt lat="50.51095" lon="2.31088">
        <ele>192.88171</ele>
        <time>2011-04-16T19:56:08Z</time>
      </trkpt>
      <trkpt lat="50.51036" lon="2.31144">
        <ele>191.92028</ele>
        <time>2011-04-16T19:56:36Z</time>
      </trkpt>
      <trkpt lat="50.50971" lon="2.31206">
        <ele>189.51696</ele>
        <time>2011-04-16T19:57:07Z</time>
      </trkpt>
      <trkpt lat="50.50914" lon="2.31257">
        <ele>187.59436</ele>
        <time>2011-04-16T19:57:33Z</time>
      </trkpt>
      <trkpt lat="50.50854" lon="2.31314">
        <ele>186.15246</ele>
        <time>2011-04-16T19:58:01Z</time>
      </trkpt>
      <trkpt lat="50.50847" lon="2.31321">
        <ele>186.15246</ele>
        <time>2011-04-16T19:58:04Z</time>
      </trkpt>
      <trkpt lat="50.50825" lon="2.31361">
        <ele>186.15246</ele>
        <time>2011-04-16T19:58:17Z</time>
      </trkpt>
      <trkpt lat="50.50798" lon="2.3143">
        <ele>187.59436</ele>
        <time>2011-04-16T19:58:38Z</time>
      </trkpt>
      <trkpt lat="50.50765" lon="2.31499">
        <ele>189.51696</ele>
        <time>2011-04-16T19:59:00Z</time>
      </trkpt>
      <trkpt lat="50.50734" lon="2.31554">
        <ele>190.95898</ele>
        <time>2011-04-16T19:59:19Z</time>
      </trkpt>
      <trkpt lat="50.50723" lon="2.31574">
        <ele>191.43957</ele>
        <time>2011-04-16T19:59:26Z</time>
      </trkpt>
      <trkpt lat="50.50704" lon="2.31595">
        <ele>191.92028</ele>
        <time>2011-04-16T19:59:35Z</time>
      </trkpt>
      <trkpt lat="50.50658" lon="2.31633">
        <ele>192.88171</ele>
        <time>2011-04-16T19:59:56Z</time>
      </trkpt>
      <trkpt lat="50.50622" lon="2.31672">
        <ele>192.40112</ele>
        <time>2011-04-16T20:00:13Z</time>
      </trkpt>
      <trkpt lat="50.5058" lon="2.31728">
        <ele>192.40112</ele>
        <time>2011-04-16T20:00:35Z</time>
      </trkpt>
      <trkpt lat="50.50537" lon="2.31784">
        <ele>191.43957</ele>
        <time>2011-04-16T20:00:58Z</time>
      </trkpt>
      <trkpt lat="50.50483" lon="2.31841">
        <ele>191.92028</ele>
        <time>2011-04-16T20:01:24Z</time>
      </trkpt>
      <trkpt lat="50.50436" lon="2.31893">
        <ele>191.92028</ele>
        <time>2011-04-16T20:01:47Z</time>
      </trkpt>
      <trkpt lat="50.50385" lon="2.31958">
        <ele>191.43957</ele>
        <time>2011-04-16T20:02:13Z</time>
      </trkpt>
      <trkpt lat="50.50334" lon="2.32011">
        <ele>189.51696</ele>
        <time>2011-04-16T20:02:38Z</time>
      </trkpt>
      <trkpt lat="50.50327" lon="2.32016">
        <ele>189.51696</ele>
        <time>2011-04-16T20:02:41Z</time>
      </trkpt>
      <trkpt lat="50.50295" lon="2.32018">
        <ele>188.07507</ele>
        <time>2011-04-16T20:02:53Z</time>
      </trkpt>
      <trkpt lat="50.50274" lon="2.32004">
        <ele>186.63317</ele>
        <time>2011-04-16T20:03:02Z</time>
      </trkpt>
      <trkpt lat="50.50265" lon="2.31987">
        <ele>186.15246</ele>
        <time>2011-04-16T20:03:08Z</time>
      </trkpt>
      <trkpt lat="50.50256" lon="2.3196">
        <ele>186.15246</ele>
        <time>2011-04-16T20:03:16Z</time>
      </trkpt>
      <trkpt lat="50.5024" lon="2.31933">
        <ele>185.19116</ele>
        <time>2011-04-16T20:03:25Z</time>
      </trkpt>
      <trkpt lat="50.5021" lon="2.3186">
        <ele>184.71057</ele>
        <time>2011-04-16T20:03:47Z</time>
      </trkpt>
      <trkpt lat="50.50199" lon="2.31838">
        <ele>184.22985</ele>
        <time>2011-04-16T20:03:55Z</time>
      </trkpt>
      <trkpt lat="50.50177" lon="2.31829">
        <ele>183.74902</ele>
        <time>2011-04-16T20:04:03Z</time>
      </trkpt>
      <trkpt lat="50.50172" lon="2.31833">
        <ele>183.74902</ele>
        <time>2011-04-16T20:04:06Z</time>
      </trkpt>
      <trkpt lat="50.50144" lon="2.31861">
        <ele>183.26843</ele>
        <time>2011-04-16T20:04:19Z</time>
      </trkpt>
      <trkpt lat="50.50124" lon="2.31892">
        <ele>182.30712</ele>
        <time>2011-04-16T20:04:30Z</time>
      </trkpt>
      <trkpt lat="50.50115" lon="2.31912">
        <ele>181.34582</ele>
        <time>2011-04-16T20:04:36Z</time>
      </trkpt>
      <trkpt lat="50.50078" lon="2.31995">
        <ele>179.9038</ele>
        <time>2011-04-16T20:05:02Z</time>
      </trkpt>
      <trkpt lat="50.50053" lon="2.32065">
        <ele>176.05859</ele>
        <time>2011-04-16T20:05:23Z</time>
      </trkpt>
      <trkpt lat="50.50018" lon="2.32129">
        <ele>171.73266</ele>
        <time>2011-04-16T20:05:44Z</time>
      </trkpt>
      <trkpt lat="50.5001" lon="2.32142">
        <ele>170.77136</ele>
        <time>2011-04-16T20:05:49Z</time>
      </trkpt>
      <trkpt lat="50.4995" lon="2.32215">
        <ele>165.00341</ele>
        <time>2011-04-16T20:06:19Z</time>
      </trkpt>
      <trkpt lat="50.49932" lon="2.3222">
        <ele>164.04211</ele>
        <time>2011-04-16T20:06:26Z</time>
      </trkpt>
      <trkpt lat="50.49928" lon="2.32214">
        <ele>164.04211</ele>
        <time>2011-04-16T20:06:29Z</time>
      </trkpt>
      <trkpt lat="50.49888" lon="2.32164">
        <ele>161.1582</ele>
        <time>2011-04-16T20:06:49Z</time>
      </trkpt>
      <trkpt lat="50.49851" lon="2.32116">
        <ele>160.19689</ele>
        <time>2011-04-16T20:07:08Z</time>
      </trkpt>
      <trkpt lat="50.49812" lon="2.32054">
        <ele>158.27416</ele>
        <time>2011-04-16T20:07:30Z</time>
      </trkpt>
      <trkpt lat="50.49775" lon="2.31985">
        <ele>156.35156</ele>
        <time>2011-04-16T20:07:54Z</time>
      </trkpt>
      <trkpt lat="50.49747" lon="2.31927">
        <ele>154.42895</ele>
        <time>2011-04-16T20:08:12Z</time>
      </trkpt>
      <trkpt lat="50.49712" lon="2.31859">
        <ele>151.54492</ele>
        <time>2011-04-16T20:08:34Z</time>
      </trkpt>
      <trkpt lat="50.49706" lon="2.31848">
        <ele>151.0642</ele>
        <time>2011-04-16T20:08:38Z</time>
      </trkpt>
      <trkpt lat="50.49677" lon="2.31798">
        <ele>148.66101</ele>
        <time>2011-04-16T20:08:55Z</time>
      </trkpt>
      <trkpt lat="50.49643" lon="2.31744">
        <ele>146.7384</ele>
        <time>2011-04-16T20:09:15Z</time>
      </trkpt>
      <trkpt lat="50.49602" lon="2.31682">
        <ele>145.77709</ele>
        <time>2011-04-16T20:09:37Z</time>
      </trkpt>
      <trkpt lat="50.49572" lon="2.31625">
        <ele>144.81579</ele>
        <time>2011-04-16T20:09:56Z</time>
      </trkpt>
      <trkpt lat="50.49542" lon="2.31568">
        <ele>144.81579</ele>
        <time>2011-04-16T20:10:15Z</time>
      </trkpt>
      <trkpt lat="50.49498" lon="2.31473">
        <ele>143.85437</ele>
        <time>2011-04-16T20:10:45Z</time>
      </trkpt>
      <trkpt lat="50.49468" lon="2.31418">
        <ele>140.48986</ele>
        <time>2011-04-16T20:11:03Z</time>
      </trkpt>
      <trkpt lat="50.49456" lon="2.31396">
        <ele>139.04785</ele>
        <time>2011-04-16T20:11:11Z</time>
      </trkpt>
      <trkpt lat="50.49413" lon="2.31307">
        <ele>136.16394</ele>
        <time>2011-04-16T20:11:39Z</time>
      </trkpt>
      <trkpt lat="50.49386" lon="2.31262">
        <ele>134.24121</ele>
        <time>2011-04-16T20:11:55Z</time>
      </trkpt>
      <trkpt lat="50.4937" lon="2.3124">
        <ele>133.2799</ele>
        <time>2011-04-16T20:12:03Z</time>
      </trkpt>
      <trkpt lat="50.49331" lon="2.31192">
        <ele>131.83789</ele>
        <time>2011-04-16T20:12:23Z</time>
      </trkpt>
      <trkpt lat="50.49291" lon="2.31145">
        <ele>130.39599</ele>
        <time>2011-04-16T20:12:43Z</time>
      </trkpt>
      <trkpt lat="50.49255" lon="2.31101">
        <ele>128.47338</ele>
        <time>2011-04-16T20:13:02Z</time>
      </trkpt>
      <trkpt lat="50.49231" lon="2.31064">
        <ele>127.99255</ele>
        <time>2011-04-16T20:13:15Z</time>
      </trkpt>
      <trkpt lat="50.49199" lon="2.3101">
        <ele>127.51196</ele>
        <time>2011-04-16T20:13:34Z</time>
      </trkpt>
      <trkpt lat="50.49187" lon="2.30981">
        <ele>126.55065</ele>
        <time>2011-04-16T20:13:43Z</time>
      </trkpt>
      <trkpt lat="50.49171" lon="2.30933">
        <ele>126.06994</ele>
        <time>2011-04-16T20:13:56Z</time>
      </trkpt>
      <trkpt lat="50.49165" lon="2.30881">
        <ele>124.62805</ele>
        <time>2011-04-16T20:14:10Z</time>
      </trkpt>
      <trkpt lat="50.49164" lon="2.30841">
        <ele>123.66674</ele>
        <time>2011-04-16T20:14:20Z</time>
      </trkpt>
      <trkpt lat="50.49162" lon="2.30816">
        <ele>123.66674</ele>
        <time>2011-04-16T20:14:27Z</time>
      </trkpt>
      <trkpt lat="50.49144" lon="2.3074">
        <ele>123.18615</ele>
        <time>2011-04-16T20:14:47Z</time>
      </trkpt>
      <trkpt lat="50.49138" lon="2.3072">
        <ele>123.18615</ele>
        <time>2011-04-16T20:14:53Z</time>
      </trkpt>
      <trkpt lat="50.49138" lon="2.30683">
        <ele>122.70544</ele>
        <time>2011-04-16T20:15:02Z</time>
      </trkpt>
      <trkpt lat="50.4916" lon="2.30613">
        <ele>122.70544</ele>
        <time>2011-04-16T20:15:22Z</time>
      </trkpt>
      <trkpt lat="50.49166" lon="2.30599">
        <ele>122.70544</ele>
        <time>2011-04-16T20:15:26Z</time>
      </trkpt>
      <trkpt lat="50.49189" lon="2.30565">
        <ele>122.70544</ele>
        <time>2011-04-16T20:15:39Z</time>
      </trkpt>
      <trkpt lat="50.49226" lon="2.30521">
        <ele>123.66674</ele>
        <time>2011-04-16T20:15:58Z</time>
      </trkpt>
      <trkpt lat="50.49237" lon="2.30508">
        <ele>124.62805</ele>
        <time>2011-04-16T20:16:03Z</time>
      </trkpt>
      <trkpt lat="50.49242" lon="2.30489">
        <ele>126.06994</ele>
        <time>2011-04-16T20:16:08Z</time>
      </trkpt>
      <trkpt lat="50.4924" lon="2.30478">
        <ele>126.06994</ele>
        <time>2011-04-16T20:16:11Z</time>
      </trkpt>
      <trkpt lat="50.49226" lon="2.3043">
        <ele>128.47338</ele>
        <time>2011-04-16T20:16:25Z</time>
      </trkpt>
      <trkpt lat="50.49207" lon="2.30396">
        <ele>130.8767</ele>
        <time>2011-04-16T20:16:36Z</time>
      </trkpt>
      <trkpt lat="50.49182" lon="2.30368">
        <ele>132.3186</ele>
        <time>2011-04-16T20:16:49Z</time>
      </trkpt>
      <trkpt lat="50.49148" lon="2.30347">
        <ele>134.24121</ele>
        <time>2011-04-16T20:17:03Z</time>
      </trkpt>
      <trkpt lat="50.49109" lon="2.30325">
        <ele>136.16394</ele>
        <time>2011-04-16T20:17:20Z</time>
      </trkpt>
      <trkpt lat="50.49094" lon="2.30309">
        <ele>136.64465</ele>
        <time>2011-04-16T20:17:27Z</time>
      </trkpt>
      <trkpt lat="50.49087" lon="2.30287">
        <ele>137.60583</ele>
        <time>2011-04-16T20:17:33Z</time>
      </trkpt>
      <trkpt lat="50.49085" lon="2.30281">
        <ele>138.08654</ele>
        <time>2011-04-16T20:17:35Z</time>
      </trkpt>
      <trkpt lat="50.49089" lon="2.3026">
        <ele>140.00915</ele>
        <time>2011-04-16T20:17:40Z</time>
      </trkpt>
      <trkpt lat="50.49095" lon="2.30237">
        <ele>141.45104</ele>
        <time>2011-04-16T20:17:47Z</time>
      </trkpt>
      <trkpt lat="50.49101" lon="2.30214">
        <ele>143.85437</ele>
        <time>2011-04-16T20:17:53Z</time>
      </trkpt>
      <trkpt lat="50.4911" lon="2.30181">
        <ele>146.7384</ele>
        <time>2011-04-16T20:18:02Z</time>
      </trkpt>
      <trkpt lat="50.49116" lon="2.30157">
        <ele>148.18041</ele>
        <time>2011-04-16T20:18:09Z</time>
      </trkpt>
      <trkpt lat="50.49126" lon="2.30128">
        <ele>150.10302</ele>
        <time>2011-04-16T20:18:17Z</time>
      </trkpt>
      <trkpt lat="50.49137" lon="2.30111">
        <ele>151.54492</ele>
        <time>2011-04-16T20:18:23Z</time>
      </trkpt>
      <trkpt lat="50.49148" lon="2.30098">
        <ele>152.50634</ele>
        <time>2011-04-16T20:18:29Z</time>
      </trkpt>
      <trkpt lat="50.49157" lon="2.30091">
        <ele>152.98693</ele>
        <time>2011-04-16T20:18:33Z</time>
      </trkpt>
      <trkpt lat="50.49172" lon="2.30078">
        <ele>153.46765</ele>
        <time>2011-04-16T20:18:40Z</time>
      </trkpt>
      <trkpt lat="50.49191" lon="2.30056">
        <ele>154.42895</ele>
        <time>2011-04-16T20:18:49Z</time>
      </trkpt>
      <trkpt lat="50.49207" lon="2.30026">
        <ele>154.90954</ele>
        <time>2011-04-16T20:18:59Z</time>
      </trkpt>
      <trkpt lat="50.49222" lon="2.29992">
        <ele>155.87097</ele>
        <time>2011-04-16T20:19:10Z</time>
      </trkpt>
      <trkpt lat="50.49235" lon="2.29954">
        <ele>157.31286</ele>
        <time>2011-04-16T20:19:21Z</time>
      </trkpt>
      <trkpt lat="50.49246" lon="2.29919">
        <ele>159.23547</ele>
        <time>2011-04-16T20:19:31Z</time>
      </trkpt>
      <trkpt lat="50.49255" lon="2.29892">
        <ele>160.19689</ele>
        <time>2011-04-16T20:19:38Z</time>
      </trkpt>
      <trkpt lat="50.49269" lon="2.29864">
        <ele>161.1582</ele>
        <time>2011-04-16T20:19:48Z</time>
      </trkpt>
      <trkpt lat="50.49284" lon="2.29826">
        <ele>162.60009</ele>
        <time>2011-04-16T20:19:59Z</time>
      </trkpt>
      <trkpt lat="50.49294" lon="2.29794">
        <ele>164.04211</ele>
        <time>2011-04-16T20:20:08Z</time>
      </trkpt>
      <trkpt lat="50.49303" lon="2.29767">
        <ele>164.5227</ele>
        <time>2011-04-16T20:20:16Z</time>
      </trkpt>
      <trkpt lat="50.49317" lon="2.29725">
        <ele>165.00341</ele>
        <time>2011-04-16T20:20:28Z</time>
      </trkpt>
      <trkpt lat="50.4933" lon="2.29684">
        <ele>165.96472</ele>
        <time>2011-04-16T20:20:39Z</time>
      </trkpt>
      <trkpt lat="50.49329" lon="2.29664">
        <ele>166.92602</ele>
        <time>2011-04-16T20:20:44Z</time>
      </trkpt>
      <trkpt lat="50.49315" lon="2.2963">
        <ele>168.84875</ele>
        <time>2011-04-16T20:20:55Z</time>
      </trkpt>
      <trkpt lat="50.49302" lon="2.29595">
        <ele>169.81005</ele>
        <time>2011-04-16T20:21:05Z</time>
      </trkpt>
      <trkpt lat="50.49289" lon="2.29564">
        <ele>170.77136</ele>
        <time>2011-04-16T20:21:15Z</time>
      </trkpt>
      <trkpt lat="50.49272" lon="2.29522">
        <ele>172.21325</ele>
        <time>2011-04-16T20:21:27Z</time>
      </trkpt>
      <trkpt lat="50.49248" lon="2.29467">
        <ele>173.65527</ele>
        <time>2011-04-16T20:21:44Z</time>
      </trkpt>
      <trkpt lat="50.49242" lon="2.29439">
        <ele>174.13586</ele>
        <time>2011-04-16T20:21:52Z</time>
      </trkpt>
      <trkpt lat="50.49256" lon="2.29416">
        <ele>174.13586</ele>
        <time>2011-04-16T20:22:00Z</time>
      </trkpt>
      <trkpt lat="50.49279" lon="2.29389">
        <ele>174.13586</ele>
        <time>2011-04-16T20:22:11Z</time>
      </trkpt>
      <trkpt lat="50.49304" lon="2.29359">
        <ele>174.61657</ele>
        <time>2011-04-16T20:22:24Z</time>
      </trkpt>
      <trkpt lat="50.49335" lon="2.29306">
        <ele>175.57788</ele>
        <time>2011-04-16T20:22:42Z</time>
      </trkpt>
      <trkpt lat="50.49354" lon="2.29261">
        <ele>175.57788</ele>
        <time>2011-04-16T20:22:56Z</time>
      </trkpt>
      <trkpt lat="50.49388" lon="2.29186">
        <ele>174.61657</ele>
        <time>2011-04-16T20:23:19Z</time>
      </trkpt>
      <trkpt lat="50.49422" lon="2.29111">
        <ele>173.65527</ele>
        <time>2011-04-16T20:23:43Z</time>
      </trkpt>
      <trkpt lat="50.49433" lon="2.29077">
        <ele>173.17468</ele>
        <time>2011-04-16T20:23:53Z</time>
      </trkpt>
      <trkpt lat="50.49462" lon="2.28983">
        <ele>171.73266</ele>
        <time>2011-04-16T20:24:19Z</time>
      </trkpt>
      <trkpt lat="50.49481" lon="2.28925">
        <ele>170.29064</ele>
        <time>2011-04-16T20:24:36Z</time>
      </trkpt>
      <trkpt lat="50.49497" lon="2.28884">
        <ele>168.84875</ele>
        <time>2011-04-16T20:24:48Z</time>
      </trkpt>
      <trkpt lat="50.49534" lon="2.28819">
        <ele>167.40673</ele>
        <time>2011-04-16T20:25:10Z</time>
      </trkpt>
      <trkpt lat="50.49561" lon="2.28769">
        <ele>168.84875</ele>
        <time>2011-04-16T20:25:27Z</time>
      </trkpt>
      <trkpt lat="50.49574" lon="2.28726">
        <ele>169.81005</ele>
        <time>2011-04-16T20:25:39Z</time>
      </trkpt>
      <trkpt lat="50.49588" lon="2.28645">
        <ele>168.36804</ele>
        <time>2011-04-16T20:26:00Z</time>
      </trkpt>
      <trkpt lat="50.49595" lon="2.28572">
        <ele>167.40673</ele>
        <time>2011-04-16T20:26:19Z</time>
      </trkpt>
      <trkpt lat="50.49602" lon="2.28497">
        <ele>168.84875</ele>
        <time>2011-04-16T20:26:38Z</time>
      </trkpt>
      <trkpt lat="50.49614" lon="2.28437">
        <ele>169.81005</ele>
        <time>2011-04-16T20:26:54Z</time>
      </trkpt>
      <trkpt lat="50.49625" lon="2.28399">
        <ele>170.29064</ele>
        <time>2011-04-16T20:27:05Z</time>
      </trkpt>
      <trkpt lat="50.49645" lon="2.28339">
        <ele>170.29064</ele>
        <time>2011-04-16T20:27:22Z</time>
      </trkpt>
      <trkpt lat="50.49662" lon="2.28278">
        <ele>169.32946</ele>
        <time>2011-04-16T20:27:39Z</time>
      </trkpt>
      <trkpt lat="50.49671" lon="2.28222">
        <ele>168.36804</ele>
        <time>2011-04-16T20:27:54Z</time>
      </trkpt>
      <trkpt lat="50.49683" lon="2.28151">
        <ele>165.96472</ele>
        <time>2011-04-16T20:28:13Z</time>
      </trkpt>
      <trkpt lat="50.49687" lon="2.28134">
        <ele>165.00341</ele>
        <time>2011-04-16T20:28:17Z</time>
      </trkpt>
      <trkpt lat="50.49691" lon="2.28109">
        <ele>161.63891</ele>
        <time>2011-04-16T20:28:24Z</time>
      </trkpt>
      <trkpt lat="50.49695" lon="2.28084">
        <ele>158.27416</ele>
        <time>2011-04-16T20:28:30Z</time>
      </trkpt>
      <trkpt lat="50.49695" lon="2.2807">
        <ele>157.31286</ele>
        <time>2011-04-16T20:28:34Z</time>
      </trkpt>
      <trkpt lat="50.49695" lon="2.28015">
        <ele>150.58361</ele>
        <time>2011-04-16T20:28:48Z</time>
      </trkpt>
      <trkpt lat="50.49693" lon="2.27999">
        <ele>148.18041</ele>
        <time>2011-04-16T20:28:52Z</time>
      </trkpt>
      <trkpt lat="50.49697" lon="2.2795">
        <ele>149.1416</ele>
        <time>2011-04-16T20:29:05Z</time>
      </trkpt>
      <trkpt lat="50.49702" lon="2.27913">
        <ele>145.77709</ele>
        <time>2011-04-16T20:29:14Z</time>
      </trkpt>
      <trkpt lat="50.49706" lon="2.27851">
        <ele>139.52844</ele>
        <time>2011-04-16T20:29:30Z</time>
      </trkpt>
      <trkpt lat="50.49706" lon="2.27828">
        <ele>140.48986</ele>
        <time>2011-04-16T20:29:36Z</time>
      </trkpt>
      <trkpt lat="50.49706" lon="2.2777">
        <ele>139.52844</ele>
        <time>2011-04-16T20:29:51Z</time>
      </trkpt>
      <trkpt lat="50.49709" lon="2.27746">
        <ele>131.83789</ele>
        <time>2011-04-16T20:29:57Z</time>
      </trkpt>
      <trkpt lat="50.4972" lon="2.27709">
        <ele>126.55065</ele>
        <time>2011-04-16T20:30:07Z</time>
      </trkpt>
      <trkpt lat="50.49728" lon="2.27646">
        <ele>123.18615</ele>
        <time>2011-04-16T20:30:24Z</time>
      </trkpt>
      <trkpt lat="50.49729" lon="2.27581">
        <ele>120.30212</ele>
        <time>2011-04-16T20:30:40Z</time>
      </trkpt>
      <trkpt lat="50.49728" lon="2.27551">
        <ele>119.82141</ele>
        <time>2011-04-16T20:30:48Z</time>
      </trkpt>
      <trkpt lat="50.49728" lon="2.27542">
        <ele>119.82141</ele>
        <time>2011-04-16T20:30:50Z</time>
      </trkpt>
      <trkpt lat="50.49725" lon="2.27531">
        <ele>118.37939</ele>
        <time>2011-04-16T20:30:53Z</time>
      </trkpt>
      <trkpt lat="50.49712" lon="2.27533">
        <ele>117.8988</ele>
        <time>2011-04-16T20:30:59Z</time>
      </trkpt>
      <trkpt lat="50.49702" lon="2.27537">
        <ele>116.9375</ele>
        <time>2011-04-16T20:31:03Z</time>
      </trkpt>
      <trkpt lat="50.4966" lon="2.27547">
        <ele>115.4956</ele>
        <time>2011-04-16T20:31:20Z</time>
      </trkpt>
      <trkpt lat="50.49625" lon="2.27544">
        <ele>114.53417</ele>
        <time>2011-04-16T20:31:34Z</time>
      </trkpt>
      <trkpt lat="50.49618" lon="2.27543">
        <ele>114.53417</ele>
        <time>2011-04-16T20:31:37Z</time>
      </trkpt>
      <trkpt lat="50.49561" lon="2.27521">
        <ele>114.53417</ele>
        <time>2011-04-16T20:32:00Z</time>
      </trkpt>
      <trkpt lat="50.49502" lon="2.27492">
        <ele>115.4956</ele>
        <time>2011-04-16T20:32:25Z</time>
      </trkpt>
      <trkpt lat="50.49484" lon="2.27479">
        <ele>115.4956</ele>
        <time>2011-04-16T20:32:33Z</time>
      </trkpt>
      <trkpt lat="50.49473" lon="2.27463">
        <ele>115.97619</ele>
        <time>2011-04-16T20:32:39Z</time>
      </trkpt>
      <trkpt lat="50.49475" lon="2.27449">
        <ele>115.97619</ele>
        <time>2011-04-16T20:32:42Z</time>
      </trkpt>
      <trkpt lat="50.49478" lon="2.27409">
        <ele>115.97619</ele>
        <time>2011-04-16T20:32:52Z</time>
      </trkpt>
      <trkpt lat="50.49482" lon="2.2738">
        <ele>116.45678</ele>
        <time>2011-04-16T20:33:00Z</time>
      </trkpt>
      <trkpt lat="50.49485" lon="2.27351">
        <ele>117.41821</ele>
        <time>2011-04-16T20:33:08Z</time>
      </trkpt>
      <trkpt lat="50.49479" lon="2.27346">
        <ele>117.8988</ele>
        <time>2011-04-16T20:33:10Z</time>
      </trkpt>
      <trkpt lat="50.49449" lon="2.27347">
        <ele>116.9375</ele>
        <time>2011-04-16T20:33:22Z</time>
      </trkpt>
      <trkpt lat="50.49421" lon="2.27348">
        <ele>116.45678</ele>
        <time>2011-04-16T20:33:34Z</time>
      </trkpt>
      <trkpt lat="50.49394" lon="2.27352">
        <ele>115.4956</ele>
        <time>2011-04-16T20:33:45Z</time>
      </trkpt>
      <trkpt lat="50.49366" lon="2.27351">
        <ele>114.05358</ele>
        <time>2011-04-16T20:33:56Z</time>
      </trkpt>
      <trkpt lat="50.49342" lon="2.27348">
        <ele>115.01489</ele>
        <time>2011-04-16T20:34:05Z</time>
      </trkpt>
      <trkpt lat="50.49306" lon="2.27345">
        <ele>116.45678</ele>
        <time>2011-04-16T20:34:20Z</time>
      </trkpt>
      <trkpt lat="50.49302" lon="2.27345">
        <ele>116.9375</ele>
        <time>2011-04-16T20:34:22Z</time>
      </trkpt>
      <trkpt lat="50.49275" lon="2.27344">
        <ele>116.9375</ele>
        <time>2011-04-16T20:34:32Z</time>
      </trkpt>
      <trkpt lat="50.49244" lon="2.27339">
        <ele>116.9375</ele>
        <time>2011-04-16T20:34:45Z</time>
      </trkpt>
      <trkpt lat="50.4921" lon="2.2734">
        <ele>116.45678</ele>
        <time>2011-04-16T20:34:58Z</time>
      </trkpt>
      <trkpt lat="50.49185" lon="2.27343">
        <ele>115.97619</ele>
        <time>2011-04-16T20:35:08Z</time>
      </trkpt>
      <trkpt lat="50.4918" lon="2.27344">
        <ele>115.4956</ele>
        <time>2011-04-16T20:35:10Z</time>
      </trkpt>
      <trkpt lat="50.49172" lon="2.2734">
        <ele>114.53417</ele>
        <time>2011-04-16T20:35:14Z</time>
      </trkpt>
      <trkpt lat="50.49175" lon="2.27331">
        <ele>114.05358</ele>
        <time>2011-04-16T20:35:16Z</time>
      </trkpt>
      <trkpt lat="50.4918" lon="2.27324">
        <ele>114.05358</ele>
        <time>2011-04-16T20:35:19Z</time>
      </trkpt>
      <trkpt lat="50.49198" lon="2.27293">
        <ele>115.4956</ele>
        <time>2011-04-16T20:35:29Z</time>
      </trkpt>
      <trkpt lat="50.49215" lon="2.27263">
        <ele>117.41821</ele>
        <time>2011-04-16T20:35:40Z</time>
      </trkpt>
      <trkpt lat="50.49228" lon="2.27238">
        <ele>119.34082</ele>
        <time>2011-04-16T20:35:48Z</time>
      </trkpt>
      <trkpt lat="50.49239" lon="2.27219">
        <ele>120.30212</ele>
        <time>2011-04-16T20:35:54Z</time>
      </trkpt>
      <trkpt lat="50.49248" lon="2.272">
        <ele>121.74414</ele>
        <time>2011-04-16T20:36:01Z</time>
      </trkpt>
      <trkpt lat="50.49256" lon="2.27188">
        <ele>122.70544</ele>
        <time>2011-04-16T20:36:05Z</time>
      </trkpt>
      <trkpt lat="50.49267" lon="2.27172">
        <ele>124.14733</ele>
        <time>2011-04-16T20:36:11Z</time>
      </trkpt>
      <trkpt lat="50.49279" lon="2.27153">
        <ele>126.06994</ele>
        <time>2011-04-16T20:36:18Z</time>
      </trkpt>
      <trkpt lat="50.49291" lon="2.27132">
        <ele>127.51196</ele>
        <time>2011-04-16T20:36:25Z</time>
      </trkpt>
      <trkpt lat="50.49299" lon="2.27117">
        <ele>127.99255</ele>
        <time>2011-04-16T20:36:30Z</time>
      </trkpt>
      <trkpt lat="50.49309" lon="2.27098">
        <ele>129.91528</ele>
        <time>2011-04-16T20:36:36Z</time>
      </trkpt>
      <trkpt lat="50.49317" lon="2.27082">
        <ele>130.39599</ele>
        <time>2011-04-16T20:36:41Z</time>
      </trkpt>
      <trkpt lat="50.49326" lon="2.27064">
        <ele>131.83789</ele>
        <time>2011-04-16T20:36:47Z</time>
      </trkpt>
      <trkpt lat="50.49335" lon="2.27049">
        <ele>133.76049</ele>
        <time>2011-04-16T20:36:52Z</time>
      </trkpt>
      <trkpt lat="50.49344" lon="2.27031">
        <ele>134.72192</ele>
        <time>2011-04-16T20:36:58Z</time>
      </trkpt>
      <trkpt lat="50.49353" lon="2.27014">
        <ele>135.6831</ele>
        <time>2011-04-16T20:37:04Z</time>
      </trkpt>
      <trkpt lat="50.49363" lon="2.26994">
        <ele>136.64465</ele>
        <time>2011-04-16T20:37:10Z</time>
      </trkpt>
      <trkpt lat="50.49373" lon="2.26974">
        <ele>138.56726</ele>
        <time>2011-04-16T20:37:17Z</time>
      </trkpt>
      <trkpt lat="50.49388" lon="2.26947">
        <ele>140.97045</ele>
        <time>2011-04-16T20:37:26Z</time>
      </trkpt>
      <trkpt lat="50.49402" lon="2.26919">
        <ele>143.37365</ele>
        <time>2011-04-16T20:37:35Z</time>
      </trkpt>
      <trkpt lat="50.49415" lon="2.26892">
        <ele>144.81579</ele>
        <time>2011-04-16T20:37:44Z</time>
      </trkpt>
      <trkpt lat="50.4943" lon="2.26865">
        <ele>146.7384</ele>
        <time>2011-04-16T20:37:53Z</time>
      </trkpt>
      <trkpt lat="50.4944" lon="2.26846">
        <ele>147.6997</ele>
        <time>2011-04-16T20:37:59Z</time>
      </trkpt>
      <trkpt lat="50.49455" lon="2.26817">
        <ele>149.1416</ele>
        <time>2011-04-16T20:38:09Z</time>
      </trkpt>
      <trkpt lat="50.49469" lon="2.26786">
        <ele>149.62231</ele>
        <time>2011-04-16T20:38:18Z</time>
      </trkpt>
      <trkpt lat="50.49483" lon="2.26759">
        <ele>150.10302</ele>
        <time>2011-04-16T20:38:27Z</time>
      </trkpt>
      <trkpt lat="50.49501" lon="2.26725">
        <ele>151.54492</ele>
        <time>2011-04-16T20:38:38Z</time>
      </trkpt>
      <trkpt lat="50.49523" lon="2.26685">
        <ele>153.46765</ele>
        <time>2011-04-16T20:38:52Z</time>
      </trkpt>
      <trkpt lat="50.49541" lon="2.26651">
        <ele>154.42895</ele>
        <time>2011-04-16T20:39:03Z</time>
      </trkpt>
      <trkpt lat="50.49566" lon="2.26603">
        <ele>156.35156</ele>
        <time>2011-04-16T20:39:19Z</time>
      </trkpt>
      <trkpt lat="50.49584" lon="2.26565">
        <ele>157.79357</ele>
        <time>2011-04-16T20:39:31Z</time>
      </trkpt>
      <trkpt lat="50.49603" lon="2.2652">
        <ele>159.23547</ele>
        <time>2011-04-16T20:39:45Z</time>
      </trkpt>
      <trkpt lat="50.4962" lon="2.26478">
        <ele>160.19689</ele>
        <time>2011-04-16T20:39:58Z</time>
      </trkpt>
      <trkpt lat="50.49641" lon="2.26429">
        <ele>160.67749</ele>
        <time>2011-04-16T20:40:12Z</time>
      </trkpt>
      <trkpt lat="50.49663" lon="2.2639">
        <ele>161.63891</ele>
        <time>2011-04-16T20:40:26Z</time>
      </trkpt>
      <trkpt lat="50.49684" lon="2.26358">
        <ele>162.1195</ele>
        <time>2011-04-16T20:40:37Z</time>
      </trkpt>
      <trkpt lat="50.49712" lon="2.26318">
        <ele>162.60009</ele>
        <time>2011-04-16T20:40:52Z</time>
      </trkpt>
      <trkpt lat="50.49734" lon="2.26286">
        <ele>163.08081</ele>
        <time>2011-04-16T20:41:05Z</time>
      </trkpt>
      <trkpt lat="50.49768" lon="2.26239">
        <ele>163.56152</ele>
        <time>2011-04-16T20:41:23Z</time>
      </trkpt>
      <trkpt lat="50.49802" lon="2.26189">
        <ele>164.5227</ele>
        <time>2011-04-16T20:41:41Z</time>
      </trkpt>
      <trkpt lat="50.49832" lon="2.26146">
        <ele>165.48413</ele>
        <time>2011-04-16T20:41:58Z</time>
      </trkpt>
      <trkpt lat="50.49854" lon="2.26117">
        <ele>165.00341</ele>
        <time>2011-04-16T20:42:09Z</time>
      </trkpt>
      <trkpt lat="50.4986" lon="2.26095">
        <ele>164.5227</ele>
        <time>2011-04-16T20:42:15Z</time>
      </trkpt>
      <trkpt lat="50.49851" lon="2.26069">
        <ele>165.48413</ele>
        <time>2011-04-16T20:42:23Z</time>
      </trkpt>
      <trkpt lat="50.49846" lon="2.26033">
        <ele>165.96472</ele>
        <time>2011-04-16T20:42:32Z</time>
      </trkpt>
      <trkpt lat="50.49848" lon="2.26025">
        <ele>165.96472</ele>
        <time>2011-04-16T20:42:34Z</time>
      </trkpt>
      <trkpt lat="50.49842" lon="2.26022">
        <ele>165.96472</ele>
        <time>2011-04-16T20:42:37Z</time>
      </trkpt>
      <trkpt lat="50.49818" lon="2.26037">
        <ele>166.44531</ele>
        <time>2011-04-16T20:42:47Z</time>
      </trkpt>
      <trkpt lat="50.49794" lon="2.26054">
        <ele>165.96472</ele>
        <time>2011-04-16T20:42:58Z</time>
      </trkpt>
      <trkpt lat="50.49759" lon="2.26082">
        <ele>165.48413</ele>
        <time>2011-04-16T20:43:13Z</time>
      </trkpt>
      <trkpt lat="50.49722" lon="2.26111">
        <ele>164.5227</ele>
        <time>2011-04-16T20:43:30Z</time>
      </trkpt>
      <trkpt lat="50.49689" lon="2.26138">
        <ele>164.04211</ele>
        <time>2011-04-16T20:43:45Z</time>
      </trkpt>
      <trkpt lat="50.49655" lon="2.26162">
        <ele>163.56152</ele>
        <time>2011-04-16T20:43:59Z</time>
      </trkpt>
      <trkpt lat="50.49618" lon="2.26175">
        <ele>162.1195</ele>
        <time>2011-04-16T20:44:15Z</time>
      </trkpt>
      <trkpt lat="50.49607" lon="2.26177">
        <ele>161.1582</ele>
        <time>2011-04-16T20:44:19Z</time>
      </trkpt>
      <trkpt lat="50.4959" lon="2.26177">
        <ele>160.67749</ele>
        <time>2011-04-16T20:44:26Z</time>
      </trkpt>
      <trkpt lat="50.49564" lon="2.26184">
        <ele>158.75476</ele>
        <time>2011-04-16T20:44:37Z</time>
      </trkpt>
      <trkpt lat="50.4951" lon="2.26202">
        <ele>155.39025</ele>
        <time>2011-04-16T20:44:58Z</time>
      </trkpt>
      <trkpt lat="50.49468" lon="2.26222">
        <ele>152.98693</ele>
        <time>2011-04-16T20:45:16Z</time>
      </trkpt>
      <trkpt lat="50.49441" lon="2.2624">
        <ele>152.02575</ele>
        <time>2011-04-16T20:45:28Z</time>
      </trkpt>
      <trkpt lat="50.49398" lon="2.26279">
        <ele>151.54492</ele>
        <time>2011-04-16T20:45:48Z</time>
      </trkpt>
      <trkpt lat="50.49365" lon="2.26323">
        <ele>151.54492</ele>
        <time>2011-04-16T20:46:05Z</time>
      </trkpt>
      <trkpt lat="50.4934" lon="2.26372">
        <ele>152.50634</ele>
        <time>2011-04-16T20:46:21Z</time>
      </trkpt>
      <trkpt lat="50.49308" lon="2.26432">
        <ele>151.0642</ele>
        <time>2011-04-16T20:46:41Z</time>
      </trkpt>
      <trkpt lat="50.49272" lon="2.26485">
        <ele>149.1416</ele>
        <time>2011-04-16T20:47:01Z</time>
      </trkpt>
      <trkpt lat="50.49237" lon="2.26525">
        <ele>145.77709</ele>
        <time>2011-04-16T20:47:18Z</time>
      </trkpt>
      <trkpt lat="50.49198" lon="2.26562">
        <ele>141.93176</ele>
        <time>2011-04-16T20:47:36Z</time>
      </trkpt>
      <trkpt lat="50.49154" lon="2.26607">
        <ele>138.08654</ele>
        <time>2011-04-16T20:47:57Z</time>
      </trkpt>
      <trkpt lat="50.49108" lon="2.26647">
        <ele>135.6831</ele>
        <time>2011-04-16T20:48:18Z</time>
      </trkpt>
      <trkpt lat="50.49075" lon="2.26667">
        <ele>133.76049</ele>
        <time>2011-04-16T20:48:32Z</time>
      </trkpt>
      <trkpt lat="50.48999" lon="2.26691">
        <ele>130.39599</ele>
        <time>2011-04-16T20:49:04Z</time>
      </trkpt>
      <trkpt lat="50.48935" lon="2.2672">
        <ele>126.06994</ele>
        <time>2011-04-16T20:49:30Z</time>
      </trkpt>
      <trkpt lat="50.48928" lon="2.26725">
        <ele>125.58935</ele>
        <time>2011-04-16T20:49:33Z</time>
      </trkpt>
      <trkpt lat="50.48887" lon="2.26762">
        <ele>122.70544</ele>
        <time>2011-04-16T20:49:52Z</time>
      </trkpt>
      <trkpt lat="50.48831" lon="2.26812">
        <ele>119.34082</ele>
        <time>2011-04-16T20:50:18Z</time>
      </trkpt>
      <trkpt lat="50.48793" lon="2.26827">
        <ele>117.41821</ele>
        <time>2011-04-16T20:50:34Z</time>
      </trkpt>
      <trkpt lat="50.48738" lon="2.26852">
        <ele>115.01489</ele>
        <time>2011-04-16T20:50:56Z</time>
      </trkpt>
      <trkpt lat="50.48716" lon="2.26868">
        <ele>114.05358</ele>
        <time>2011-04-16T20:51:07Z</time>
      </trkpt>
      <trkpt lat="50.48708" lon="2.26874">
        <ele>113.57299</ele>
        <time>2011-04-16T20:51:10Z</time>
      </trkpt>
      <trkpt lat="50.48649" lon="2.26924">
        <ele>110.68884</ele>
        <time>2011-04-16T20:51:37Z</time>
      </trkpt>
      <trkpt lat="50.48597" lon="2.26978">
        <ele>107.32434</ele>
        <time>2011-04-16T20:52:02Z</time>
      </trkpt>
      <trkpt lat="50.48544" lon="2.27025">
        <ele>105.88244</ele>
        <time>2011-04-16T20:52:26Z</time>
      </trkpt>
      <trkpt lat="50.48501" lon="2.27078">
        <ele>104.44042</ele>
        <time>2011-04-16T20:52:48Z</time>
      </trkpt>
      <trkpt lat="50.48484" lon="2.27103">
        <ele>104.44042</ele>
        <time>2011-04-16T20:52:57Z</time>
      </trkpt>
      <trkpt lat="50.48456" lon="2.27152">
        <ele>103.95971</ele>
        <time>2011-04-16T20:53:14Z</time>
      </trkpt>
      <trkpt lat="50.48427" lon="2.272">
        <ele>104.44042</ele>
        <time>2011-04-16T20:53:31Z</time>
      </trkpt>
      <trkpt lat="50.48392" lon="2.27243">
        <ele>103.95971</ele>
        <time>2011-04-16T20:53:49Z</time>
      </trkpt>
      <trkpt lat="50.48383" lon="2.27252">
        <ele>103.95971</ele>
        <time>2011-04-16T20:53:53Z</time>
      </trkpt>
      <trkpt lat="50.48358" lon="2.27261">
        <ele>103.95971</ele>
        <time>2011-04-16T20:54:03Z</time>
      </trkpt>
      <trkpt lat="50.48299" lon="2.27259">
        <ele>104.44042</ele>
        <time>2011-04-16T20:54:27Z</time>
      </trkpt>
      <trkpt lat="50.48253" lon="2.27268">
        <ele>103.479</ele>
        <time>2011-04-16T20:54:45Z</time>
      </trkpt>
      <trkpt lat="50.48238" lon="2.27275">
        <ele>103.479</ele>
        <time>2011-04-16T20:54:52Z</time>
      </trkpt>
      <trkpt lat="50.48236" lon="2.27282">
        <ele>102.99829</ele>
        <time>2011-04-16T20:54:53Z</time>
      </trkpt>
      <trkpt lat="50.48239" lon="2.27281">
        <ele>102.99829</ele>
        <time>2011-04-16T20:54:54Z</time>
      </trkpt>
      <trkpt lat="50.48246" lon="2.27276">
        <ele>102.99829</ele>
        <time>2011-04-16T20:54:57Z</time>
      </trkpt>
      <trkpt lat="50.48245" lon="2.27273">
        <ele>102.99829</ele>
        <time>2011-04-16T20:54:58Z</time>
      </trkpt>
      <trkpt lat="50.48229" lon="2.27284">
        <ele>104.44042</ele>
        <time>2011-04-16T20:55:05Z</time>
      </trkpt>
      <trkpt lat="50.48203" lon="2.27299">
        <ele>104.44042</ele>
        <time>2011-04-16T20:55:16Z</time>
      </trkpt>
      <trkpt lat="50.48161" lon="2.27325">
        <ele>102.99829</ele>
        <time>2011-04-16T20:55:34Z</time>
      </trkpt>
      <trkpt lat="50.48118" lon="2.27349">
        <ele>100.59509</ele>
        <time>2011-04-16T20:55:53Z</time>
      </trkpt>
      <trkpt lat="50.48078" lon="2.27372">
        <ele>98.191894</ele>
        <time>2011-04-16T20:56:10Z</time>
      </trkpt>
      <trkpt lat="50.48033" lon="2.27397">
        <ele>95.307739</ele>
        <time>2011-04-16T20:56:29Z</time>
      </trkpt>
      <trkpt lat="50.48017" lon="2.27402">
        <ele>94.346557</ele>
        <time>2011-04-16T20:56:35Z</time>
      </trkpt>
      <trkpt lat="50.48" lon="2.27415">
        <ele>92.904541</ele>
        <time>2011-04-16T20:56:43Z</time>
      </trkpt>
      <trkpt lat="50.48001" lon="2.27432">
        <ele>91.943237</ele>
        <time>2011-04-16T20:56:47Z</time>
      </trkpt>
      <trkpt lat="50.48005" lon="2.2744">
        <ele>91.462524</ele>
        <time>2011-04-16T20:56:50Z</time>
      </trkpt>
      <trkpt lat="50.48011" lon="2.27456">
        <ele>90.501342</ele>
        <time>2011-04-16T20:56:54Z</time>
      </trkpt>
      <trkpt lat="50.48016" lon="2.27494">
        <ele>89.059326</ele>
        <time>2011-04-16T20:57:04Z</time>
      </trkpt>
      <trkpt lat="50.48006" lon="2.27521">
        <ele>88.098022</ele>
        <time>2011-04-16T20:57:12Z</time>
      </trkpt>
      <trkpt lat="50.47964" lon="2.2759">
        <ele>86.175293</ele>
        <time>2011-04-16T20:57:37Z</time>
      </trkpt>
      <trkpt lat="50.4793" lon="2.27646">
        <ele>83.771972</ele>
        <time>2011-04-16T20:57:56Z</time>
      </trkpt>
      <trkpt lat="50.47924" lon="2.27655">
        <ele>83.291381</ele>
        <time>2011-04-16T20:58:00Z</time>
      </trkpt>
      <trkpt lat="50.47907" lon="2.27702">
        <ele>82.330078</ele>
        <time>2011-04-16T20:58:13Z</time>
      </trkpt>
      <trkpt lat="50.47908" lon="2.2774">
        <ele>82.330078</ele>
        <time>2011-04-16T20:58:23Z</time>
      </trkpt>
      <trkpt lat="50.47921" lon="2.27818">
        <ele>82.330078</ele>
        <time>2011-04-16T20:58:44Z</time>
      </trkpt>
      <trkpt lat="50.47924" lon="2.27828">
        <ele>82.330078</ele>
        <time>2011-04-16T20:58:47Z</time>
      </trkpt>
      <trkpt lat="50.47917" lon="2.27864">
        <ele>81.368774</ele>
        <time>2011-04-16T20:58:56Z</time>
      </trkpt>
      <trkpt lat="50.47913" lon="2.27873">
        <ele>81.368774</ele>
        <time>2011-04-16T20:58:59Z</time>
      </trkpt>
      <trkpt lat="50.47893" lon="2.27925">
        <ele>81.849365</ele>
        <time>2011-04-16T20:59:14Z</time>
      </trkpt>
      <trkpt lat="50.4789" lon="2.27931">
        <ele>81.849365</ele>
        <time>2011-04-16T20:59:16Z</time>
      </trkpt>
      <trkpt lat="50.47872" lon="2.27963">
        <ele>85.213989</ele>
        <time>2011-04-16T20:59:27Z</time>
      </trkpt>
      <trkpt lat="50.47865" lon="2.2797">
        <ele>87.617187</ele>
        <time>2011-04-16T20:59:31Z</time>
      </trkpt>
      <trkpt lat="50.47854" lon="2.27979">
        <ele>89.059326</ele>
        <time>2011-04-16T20:59:35Z</time>
      </trkpt>
      <trkpt lat="50.47838" lon="2.27991">
        <ele>91.462524</ele>
        <time>2011-04-16T20:59:43Z</time>
      </trkpt>
      <trkpt lat="50.47826" lon="2.28002">
        <ele>93.385131</ele>
        <time>2011-04-16T20:59:48Z</time>
      </trkpt>
      <trkpt lat="50.47817" lon="2.28011">
        <ele>96.269287</ele>
        <time>2011-04-16T20:59:53Z</time>
      </trkpt>
      <trkpt lat="50.47805" lon="2.28016">
        <ele>98.672485</ele>
        <time>2011-04-16T20:59:57Z</time>
      </trkpt>
      <trkpt lat="50.47798" lon="2.2802">
        <ele>98.672485</ele>
        <time>2011-04-16T21:00:00Z</time>
      </trkpt>
      <trkpt lat="50.4779" lon="2.28018">
        <ele>100.59509</ele>
        <time>2011-04-16T21:00:04Z</time>
      </trkpt>
      <trkpt lat="50.47787" lon="2.28018">
        <ele>101.07568</ele>
        <time>2011-04-16T21:00:05Z</time>
      </trkpt>
      <trkpt lat="50.47779" lon="2.28015">
        <ele>102.99829</ele>
        <time>2011-04-16T21:00:08Z</time>
      </trkpt>
      <trkpt lat="50.47769" lon="2.28013">
        <ele>104.44042</ele>
        <time>2011-04-16T21:00:12Z</time>
      </trkpt>
      <trkpt lat="50.47765" lon="2.28012">
        <ele>103.95971</ele>
        <time>2011-04-16T21:00:14Z</time>
      </trkpt>
      <trkpt lat="50.47758" lon="2.28009">
        <ele>103.479</ele>
        <time>2011-04-16T21:00:17Z</time>
      </trkpt>
      <trkpt lat="50.47749" lon="2.28006">
        <ele>102.99829</ele>
        <time>2011-04-16T21:00:20Z</time>
      </trkpt>
      <trkpt lat="50.47747" lon="2.28005">
        <ele>103.479</ele>
        <time>2011-04-16T21:00:21Z</time>
      </trkpt>
      <trkpt lat="50.47742" lon="2.28002">
        <ele>106.36303</ele>
        <time>2011-04-16T21:00:23Z</time>
      </trkpt>
      <trkpt lat="50.47739" lon="2.27999">
        <ele>107.80505</ele>
        <time>2011-04-16T21:00:25Z</time>
      </trkpt>
      <trkpt lat="50.47735" lon="2.27994">
        <ele>109.72766</ele>
        <time>2011-04-16T21:00:27Z</time>
      </trkpt>
      <trkpt lat="50.47733" lon="2.27991">
        <ele>110.20825</ele>
        <time>2011-04-16T21:00:28Z</time>
      </trkpt>
      <trkpt lat="50.47726" lon="2.27981">
        <ele>113.57299</ele>
        <time>2011-04-16T21:00:32Z</time>
      </trkpt>
      <trkpt lat="50.47721" lon="2.27971">
        <ele>117.41821</ele>
        <time>2011-04-16T21:00:35Z</time>
      </trkpt>
      <trkpt lat="50.47717" lon="2.27962">
        <ele>120.78283</ele>
        <time>2011-04-16T21:00:38Z</time>
      </trkpt>
      <trkpt lat="50.47711" lon="2.27949">
        <ele>123.66674</ele>
        <time>2011-04-16T21:00:42Z</time>
      </trkpt>
      <trkpt lat="50.47705" lon="2.27939">
        <ele>125.10876</ele>
        <time>2011-04-16T21:00:45Z</time>
      </trkpt>
      <trkpt lat="50.47699" lon="2.27927">
        <ele>126.06994</ele>
        <time>2011-04-16T21:00:49Z</time>
      </trkpt>
      <trkpt lat="50.47692" lon="2.27915">
        <ele>129.91528</ele>
        <time>2011-04-16T21:00:53Z</time>
      </trkpt>
      <trkpt lat="50.47686" lon="2.27908">
        <ele>130.39599</ele>
        <time>2011-04-16T21:00:57Z</time>
      </trkpt>
      <trkpt lat="50.47679" lon="2.27897">
        <ele>133.2799</ele>
        <time>2011-04-16T21:01:00Z</time>
      </trkpt>
      <trkpt lat="50.47674" lon="2.27887">
        <ele>135.6831</ele>
        <time>2011-04-16T21:01:03Z</time>
      </trkpt>
      <trkpt lat="50.47672" lon="2.27881">
        <ele>135.6831</ele>
        <time>2011-04-16T21:01:05Z</time>
      </trkpt>
      <trkpt lat="50.47669" lon="2.27874">
        <ele>136.16394</ele>
        <time>2011-04-16T21:01:07Z</time>
      </trkpt>
      <trkpt lat="50.47663" lon="2.27864">
        <ele>136.16394</ele>
        <time>2011-04-16T21:01:11Z</time>
      </trkpt>
      <trkpt lat="50.47654" lon="2.27865">
        <ele>136.64465</ele>
        <time>2011-04-16T21:01:15Z</time>
      </trkpt>
      <trkpt lat="50.47645" lon="2.27865">
        <ele>136.64465</ele>
        <time>2011-04-16T21:01:18Z</time>
      </trkpt>
      <trkpt lat="50.47636" lon="2.27866">
        <ele>138.08654</ele>
        <time>2011-04-16T21:01:22Z</time>
      </trkpt>
      <trkpt lat="50.4763" lon="2.27867">
        <ele>138.08654</ele>
        <time>2011-04-16T21:01:24Z</time>
      </trkpt>
      <trkpt lat="50.47627" lon="2.27869">
        <ele>136.64465</ele>
        <time>2011-04-16T21:01:25Z</time>
      </trkpt>
      <trkpt lat="50.4762" lon="2.27874">
        <ele>133.76049</ele>
        <time>2011-04-16T21:01:29Z</time>
      </trkpt>
      <trkpt lat="50.47611" lon="2.2788">
        <ele>131.35729</ele>
        <time>2011-04-16T21:01:33Z</time>
      </trkpt>
      <trkpt lat="50.47602" lon="2.27886">
        <ele>131.35729</ele>
        <time>2011-04-16T21:01:37Z</time>
      </trkpt>
      <trkpt lat="50.47593" lon="2.27894">
        <ele>130.39599</ele>
        <time>2011-04-16T21:01:41Z</time>
      </trkpt>
      <trkpt lat="50.47582" lon="2.27902">
        <ele>131.83789</ele>
        <time>2011-04-16T21:01:46Z</time>
      </trkpt>
      <trkpt lat="50.47571" lon="2.27914">
        <ele>134.24121</ele>
        <time>2011-04-16T21:01:51Z</time>
      </trkpt>
      <trkpt lat="50.47562" lon="2.27925">
        <ele>135.20251</ele>
        <time>2011-04-16T21:01:55Z</time>
      </trkpt>
      <trkpt lat="50.47548" lon="2.27943">
        <ele>139.52844</ele>
        <time>2011-04-16T21:02:03Z</time>
      </trkpt>
      <trkpt lat="50.47534" lon="2.27964">
        <ele>141.45104</ele>
        <time>2011-04-16T21:02:10Z</time>
      </trkpt>
      <trkpt lat="50.47519" lon="2.27984">
        <ele>145.77709</ele>
        <time>2011-04-16T21:02:18Z</time>
      </trkpt>
      <trkpt lat="50.47499" lon="2.28014">
        <ele>148.66101</ele>
        <time>2011-04-16T21:02:29Z</time>
      </trkpt>
      <trkpt lat="50.47492" lon="2.28033">
        <ele>149.1416</ele>
        <time>2011-04-16T21:02:35Z</time>
      </trkpt>
      <trkpt lat="50.47495" lon="2.28069">
        <ele>148.66101</ele>
        <time>2011-04-16T21:02:44Z</time>
      </trkpt>
      <trkpt lat="50.47498" lon="2.28095">
        <ele>148.18041</ele>
        <time>2011-04-16T21:02:51Z</time>
      </trkpt>
      <trkpt lat="50.47489" lon="2.28108">
        <ele>148.18041</ele>
        <time>2011-04-16T21:02:56Z</time>
      </trkpt>
      <trkpt lat="50.47466" lon="2.28118">
        <ele>148.66101</ele>
        <time>2011-04-16T21:03:06Z</time>
      </trkpt>
      <trkpt lat="50.47442" lon="2.28129">
        <ele>148.66101</ele>
        <time>2011-04-16T21:03:15Z</time>
      </trkpt>
      <trkpt lat="50.47413" lon="2.28144">
        <ele>148.66101</ele>
        <time>2011-04-16T21:03:27Z</time>
      </trkpt>
      <trkpt lat="50.47376" lon="2.28167">
        <ele>149.1416</ele>
        <time>2011-04-16T21:03:43Z</time>
      </trkpt>
      <trkpt lat="50.47341" lon="2.28192">
        <ele>149.1416</ele>
        <time>2011-04-16T21:03:59Z</time>
      </trkpt>
      <trkpt lat="50.47298" lon="2.28225">
        <ele>149.62231</ele>
        <time>2011-04-16T21:04:18Z</time>
      </trkpt>
      <trkpt lat="50.47282" lon="2.28237">
        <ele>150.10302</ele>
        <time>2011-04-16T21:04:25Z</time>
      </trkpt>
      <trkpt lat="50.47253" lon="2.2826">
        <ele>150.10302</ele>
        <time>2011-04-16T21:04:38Z</time>
      </trkpt>
      <trkpt lat="50.47216" lon="2.28289">
        <ele>149.62231</ele>
        <time>2011-04-16T21:04:55Z</time>
      </trkpt>
      <trkpt lat="50.47179" lon="2.28319">
        <ele>148.18041</ele>
        <time>2011-04-16T21:05:11Z</time>
      </trkpt>
      <trkpt lat="50.47139" lon="2.28347">
        <ele>146.7384</ele>
        <time>2011-04-16T21:05:29Z</time>
      </trkpt>
      <trkpt lat="50.47092" lon="2.28378">
        <ele>146.7384</ele>
        <time>2011-04-16T21:05:49Z</time>
      </trkpt>
      <trkpt lat="50.47052" lon="2.28415">
        <ele>149.1416</ele>
        <time>2011-04-16T21:06:08Z</time>
      </trkpt>
      <trkpt lat="50.47043" lon="2.28424">
        <ele>149.62231</ele>
        <time>2011-04-16T21:06:12Z</time>
      </trkpt>
      <trkpt lat="50.47038" lon="2.28429">
        <ele>149.62231</ele>
        <time>2011-04-16T21:06:14Z</time>
      </trkpt>
      <trkpt lat="50.47006" lon="2.28463">
        <ele>151.0642</ele>
        <time>2011-04-16T21:06:30Z</time>
      </trkpt>
      <trkpt lat="50.46975" lon="2.2849">
        <ele>151.0642</ele>
        <time>2011-04-16T21:06:44Z</time>
      </trkpt>
      <trkpt lat="50.46936" lon="2.28527">
        <ele>150.58361</ele>
        <time>2011-04-16T21:07:02Z</time>
      </trkpt>
      <trkpt lat="50.46888" lon="2.2857">
        <ele>148.66101</ele>
        <time>2011-04-16T21:07:24Z</time>
      </trkpt>
      <trkpt lat="50.46848" lon="2.28608">
        <ele>146.25781</ele>
        <time>2011-04-16T21:07:43Z</time>
      </trkpt>
      <trkpt lat="50.46823" lon="2.28629">
        <ele>145.29638</ele>
        <time>2011-04-16T21:07:55Z</time>
      </trkpt>
      <trkpt lat="50.46783" lon="2.2866">
        <ele>142.89306</ele>
        <time>2011-04-16T21:08:12Z</time>
      </trkpt>
      <trkpt lat="50.46729" lon="2.28696">
        <ele>140.48986</ele>
        <time>2011-04-16T21:08:36Z</time>
      </trkpt>
      <trkpt lat="50.46675" lon="2.28728">
        <ele>140.48986</ele>
        <time>2011-04-16T21:08:59Z</time>
      </trkpt>
      <trkpt lat="50.4667" lon="2.28723">
        <ele>140.00915</ele>
        <time>2011-04-16T21:09:01Z</time>
      </trkpt>
      <trkpt lat="50.46671" lon="2.28701">
        <ele>139.52844</ele>
        <time>2011-04-16T21:09:07Z</time>
      </trkpt>
      <trkpt lat="50.46666" lon="2.28686">
        <ele>139.04785</ele>
        <time>2011-04-16T21:09:11Z</time>
      </trkpt>
      <trkpt lat="50.46637" lon="2.286">
        <ele>138.56726</ele>
        <time>2011-04-16T21:09:36Z</time>
      </trkpt>
      <trkpt lat="50.46611" lon="2.28533">
        <ele>138.56726</ele>
        <time>2011-04-16T21:09:56Z</time>
      </trkpt>
      <trkpt lat="50.46607" lon="2.28525">
        <ele>139.04785</ele>
        <time>2011-04-16T21:09:59Z</time>
      </trkpt>
      <trkpt lat="50.46593" lon="2.28473">
        <ele>140.48986</ele>
        <time>2011-04-16T21:10:13Z</time>
      </trkpt>
      <trkpt lat="50.46574" lon="2.28422">
        <ele>141.45104</ele>
        <time>2011-04-16T21:10:28Z</time>
      </trkpt>
      <trkpt lat="50.46552" lon="2.28366">
        <ele>140.48986</ele>
        <time>2011-04-16T21:10:45Z</time>
      </trkpt>
      <trkpt lat="50.46534" lon="2.28328">
        <ele>140.00915</ele>
        <time>2011-04-16T21:10:57Z</time>
      </trkpt>
      <trkpt lat="50.46495" lon="2.28288">
        <ele>138.56726</ele>
        <time>2011-04-16T21:11:15Z</time>
      </trkpt>
      <trkpt lat="50.4645" lon="2.28249">
        <ele>137.12524</ele>
        <time>2011-04-16T21:11:36Z</time>
      </trkpt>
      <trkpt lat="50.46401" lon="2.282">
        <ele>135.20251</ele>
        <time>2011-04-16T21:11:59Z</time>
      </trkpt>
      <trkpt lat="50.46368" lon="2.28187">
        <ele>136.16394</ele>
        <time>2011-04-16T21:12:13Z</time>
      </trkpt>
      <trkpt lat="50.46357" lon="2.28186">
        <ele>137.12524</ele>
        <time>2011-04-16T21:12:17Z</time>
      </trkpt>
      <trkpt lat="50.46345" lon="2.28178">
        <ele>139.04785</ele>
        <time>2011-04-16T21:12:23Z</time>
      </trkpt>
      <trkpt lat="50.4632" lon="2.28149">
        <ele>139.52844</ele>
        <time>2011-04-16T21:12:35Z</time>
      </trkpt>
      <trkpt lat="50.46286" lon="2.28123">
        <ele>139.52844</ele>
        <time>2011-04-16T21:12:50Z</time>
      </trkpt>
      <trkpt lat="50.46245" lon="2.28097">
        <ele>139.04785</ele>
        <time>2011-04-16T21:13:08Z</time>
      </trkpt>
      <trkpt lat="50.4623" lon="2.28083">
        <ele>138.56726</ele>
        <time>2011-04-16T21:13:15Z</time>
      </trkpt>
      <trkpt lat="50.46209" lon="2.28078">
        <ele>138.56726</ele>
        <time>2011-04-16T21:13:24Z</time>
      </trkpt>
      <trkpt lat="50.46196" lon="2.28089">
        <ele>139.04785</ele>
        <time>2011-04-16T21:13:29Z</time>
      </trkpt>
      <trkpt lat="50.4617" lon="2.28123">
        <ele>140.00915</ele>
        <time>2011-04-16T21:13:43Z</time>
      </trkpt>
      <trkpt lat="50.46163" lon="2.28132">
        <ele>140.48986</ele>
        <time>2011-04-16T21:13:46Z</time>
      </trkpt>
      <trkpt lat="50.46128" lon="2.28173">
        <ele>139.52844</ele>
        <time>2011-04-16T21:14:04Z</time>
      </trkpt>
      <trkpt lat="50.4609" lon="2.28218">
        <ele>139.04785</ele>
        <time>2011-04-16T21:14:23Z</time>
      </trkpt>
      <trkpt lat="50.4605" lon="2.28267">
        <ele>137.60583</ele>
        <time>2011-04-16T21:14:43Z</time>
      </trkpt>
      <trkpt lat="50.46014" lon="2.28309">
        <ele>135.6831</ele>
        <time>2011-04-16T21:15:01Z</time>
      </trkpt>
      <trkpt lat="50.45999" lon="2.28329">
        <ele>134.72192</ele>
        <time>2011-04-16T21:15:09Z</time>
      </trkpt>
      <trkpt lat="50.45981" lon="2.28335">
        <ele>133.2799</ele>
        <time>2011-04-16T21:15:16Z</time>
      </trkpt>
      <trkpt lat="50.45971" lon="2.28323">
        <ele>132.79931</ele>
        <time>2011-04-16T21:15:22Z</time>
      </trkpt>
      <trkpt lat="50.45928" lon="2.28261">
        <ele>130.8767</ele>
        <time>2011-04-16T21:15:45Z</time>
      </trkpt>
      <trkpt lat="50.45887" lon="2.28203">
        <ele>128.47338</ele>
        <time>2011-04-16T21:16:07Z</time>
      </trkpt>
      <trkpt lat="50.45844" lon="2.28137">
        <ele>126.55065</ele>
        <time>2011-04-16T21:16:31Z</time>
      </trkpt>
      <trkpt lat="50.4581" lon="2.28098">
        <ele>125.58935</ele>
        <time>2011-04-16T21:16:48Z</time>
      </trkpt>
      <trkpt lat="50.45797" lon="2.28084">
        <ele>125.10876</ele>
        <time>2011-04-16T21:16:54Z</time>
      </trkpt>
      <trkpt lat="50.45753" lon="2.28056">
        <ele>124.14733</ele>
        <time>2011-04-16T21:17:13Z</time>
      </trkpt>
      <trkpt lat="50.45699" lon="2.28027">
        <ele>122.70544</ele>
        <time>2011-04-16T21:17:36Z</time>
      </trkpt>
      <trkpt lat="50.45691" lon="2.28022">
        <ele>122.22473</ele>
        <time>2011-04-16T21:17:39Z</time>
      </trkpt>
      <trkpt lat="50.45647" lon="2.28014">
        <ele>118.8601</ele>
        <time>2011-04-16T21:17:57Z</time>
      </trkpt>
      <trkpt lat="50.45586" lon="2.28012">
        <ele>113.57299</ele>
        <time>2011-04-16T21:18:22Z</time>
      </trkpt>
      <trkpt lat="50.45575" lon="2.2801">
        <ele>113.09228</ele>
        <time>2011-04-16T21:18:26Z</time>
      </trkpt>
      <trkpt lat="50.45539" lon="2.27983">
        <ele>111.65026</ele>
        <time>2011-04-16T21:18:42Z</time>
      </trkpt>
      <trkpt lat="50.45493" lon="2.27936">
        <ele>108.76623</ele>
        <time>2011-04-16T21:19:04Z</time>
      </trkpt>
      <trkpt lat="50.45449" lon="2.27892">
        <ele>108.28564</ele>
        <time>2011-04-16T21:19:25Z</time>
      </trkpt>
      <trkpt lat="50.45418" lon="2.27852">
        <ele>108.28564</ele>
        <time>2011-04-16T21:19:41Z</time>
      </trkpt>
      <trkpt lat="50.4539" lon="2.27798">
        <ele>109.24694</ele>
        <time>2011-04-16T21:19:59Z</time>
      </trkpt>
      <trkpt lat="50.45378" lon="2.27771">
        <ele>110.20825</ele>
        <time>2011-04-16T21:20:07Z</time>
      </trkpt>
      <trkpt lat="50.45361" lon="2.2776">
        <ele>109.24694</ele>
        <time>2011-04-16T21:20:14Z</time>
      </trkpt>
      <trkpt lat="50.45354" lon="2.27763">
        <ele>108.76623</ele>
        <time>2011-04-16T21:20:17Z</time>
      </trkpt>
      <trkpt lat="50.45338" lon="2.27772">
        <ele>107.32434</ele>
        <time>2011-04-16T21:20:24Z</time>
      </trkpt>
      <trkpt lat="50.4532" lon="2.278">
        <ele>102.99829</ele>
        <time>2011-04-16T21:20:34Z</time>
      </trkpt>
      <trkpt lat="50.45317" lon="2.27815">
        <ele>101.55639</ele>
        <time>2011-04-16T21:20:38Z</time>
      </trkpt>
      <trkpt lat="50.453" lon="2.27903">
        <ele>91.462524</ele>
        <time>2011-04-16T21:21:02Z</time>
      </trkpt>
      <trkpt lat="50.45283" lon="2.27991">
        <ele>81.849365</ele>
        <time>2011-04-16T21:21:25Z</time>
      </trkpt>
      <trkpt lat="50.4526" lon="2.28108">
        <ele>73.197631</ele>
        <time>2011-04-16T21:21:56Z</time>
      </trkpt>
      <trkpt lat="50.45253" lon="2.28141">
        <ele>71.274902</ele>
        <time>2011-04-16T21:22:05Z</time>
      </trkpt>
      <trkpt lat="50.45229" lon="2.28174">
        <ele>68.871582</ele>
        <time>2011-04-16T21:22:18Z</time>
      </trkpt>
      <trkpt lat="50.45209" lon="2.28195">
        <ele>67.910278</ele>
        <time>2011-04-16T21:22:27Z</time>
      </trkpt>
      <trkpt lat="50.45205" lon="2.28216">
        <ele>67.910278</ele>
        <time>2011-04-16T21:22:33Z</time>
      </trkpt>
      <trkpt lat="50.45204" lon="2.28229">
        <ele>67.429687</ele>
        <time>2011-04-16T21:22:36Z</time>
      </trkpt>
      <trkpt lat="50.45209" lon="2.28249">
        <ele>66.468261</ele>
        <time>2011-04-16T21:22:42Z</time>
      </trkpt>
      <trkpt lat="50.45215" lon="2.2827">
        <ele>65.50708</ele>
        <time>2011-04-16T21:22:48Z</time>
      </trkpt>
      <trkpt lat="50.4523" lon="2.2833">
        <ele>65.026367</ele>
        <time>2011-04-16T21:23:04Z</time>
      </trkpt>
      <trkpt lat="50.45258" lon="2.28401">
        <ele>64.545654</ele>
        <time>2011-04-16T21:23:25Z</time>
      </trkpt>
      <trkpt lat="50.45281" lon="2.28458">
        <ele>64.545654</ele>
        <time>2011-04-16T21:23:43Z</time>
      </trkpt>
      <trkpt lat="50.45302" lon="2.28523">
        <ele>65.98767</ele>
        <time>2011-04-16T21:24:01Z</time>
      </trkpt>
      <trkpt lat="50.45314" lon="2.2858">
        <ele>66.948974</ele>
        <time>2011-04-16T21:24:17Z</time>
      </trkpt>
      <trkpt lat="50.45326" lon="2.28656">
        <ele>67.910278</ele>
        <time>2011-04-16T21:24:36Z</time>
      </trkpt>
      <trkpt lat="50.4534" lon="2.28744">
        <ele>66.948974</ele>
        <time>2011-04-16T21:24:59Z</time>
      </trkpt>
      <trkpt lat="50.45341" lon="2.2877">
        <ele>67.910278</ele>
        <time>2011-04-16T21:25:06Z</time>
      </trkpt>
      <trkpt lat="50.45354" lon="2.28815">
        <ele>67.429687</ele>
        <time>2011-04-16T21:25:19Z</time>
      </trkpt>
      <trkpt lat="50.45365" lon="2.28832">
        <ele>67.429687</ele>
        <time>2011-04-16T21:25:25Z</time>
      </trkpt>
      <trkpt lat="50.45395" lon="2.28871">
        <ele>66.468261</ele>
        <time>2011-04-16T21:25:40Z</time>
      </trkpt>
      <trkpt lat="50.45427" lon="2.28937">
        <ele>65.50708</ele>
        <time>2011-04-16T21:26:01Z</time>
      </trkpt>
      <trkpt lat="50.45439" lon="2.28959">
        <ele>65.50708</ele>
        <time>2011-04-16T21:26:09Z</time>
      </trkpt>
      <trkpt lat="50.45452" lon="2.2899">
        <ele>65.50708</ele>
        <time>2011-04-16T21:26:18Z</time>
      </trkpt>
      <trkpt lat="50.45476" lon="2.2906">
        <ele>66.468261</ele>
        <time>2011-04-16T21:26:39Z</time>
      </trkpt>
      <trkpt lat="50.45496" lon="2.29109">
        <ele>66.948974</ele>
        <time>2011-04-16T21:26:54Z</time>
      </trkpt>
      <trkpt lat="50.45517" lon="2.29165">
        <ele>66.948974</ele>
        <time>2011-04-16T21:27:10Z</time>
      </trkpt>
      <trkpt lat="50.45538" lon="2.29203">
        <ele>66.948974</ele>
        <time>2011-04-16T21:27:23Z</time>
      </trkpt>
      <trkpt lat="50.45538" lon="2.29229">
        <ele>66.948974</ele>
        <time>2011-04-16T21:27:29Z</time>
      </trkpt>
      <trkpt lat="50.45528" lon="2.29236">
        <ele>66.468261</ele>
        <time>2011-04-16T21:27:34Z</time>
      </trkpt>
      <trkpt lat="50.4551" lon="2.29244">
        <ele>66.468261</ele>
        <time>2011-04-16T21:27:41Z</time>
      </trkpt>
      <trkpt lat="50.45492" lon="2.29267">
        <ele>66.468261</ele>
        <time>2011-04-16T21:27:51Z</time>
      </trkpt>
      <trkpt lat="50.45491" lon="2.29295">
        <ele>66.948974</ele>
        <time>2011-04-16T21:27:58Z</time>
      </trkpt>
      <trkpt lat="50.45494" lon="2.29314">
        <ele>66.948974</ele>
        <time>2011-04-16T21:28:03Z</time>
      </trkpt>
      <trkpt lat="50.45489" lon="2.2935">
        <ele>66.948974</ele>
        <time>2011-04-16T21:28:12Z</time>
      </trkpt>
      <trkpt lat="50.45474" lon="2.29367">
        <ele>67.429687</ele>
        <time>2011-04-16T21:28:19Z</time>
      </trkpt>
      <trkpt lat="50.45436" lon="2.294">
        <ele>68.871582</ele>
        <time>2011-04-16T21:28:37Z</time>
      </trkpt>
      <trkpt lat="50.45429" lon="2.29419">
        <ele>70.313476</ele>
        <time>2011-04-16T21:28:42Z</time>
      </trkpt>
      <trkpt lat="50.4543" lon="2.2943">
        <ele>71.274902</ele>
        <time>2011-04-16T21:28:45Z</time>
      </trkpt>
      <trkpt lat="50.45432" lon="2.29441">
        <ele>72.236206</ele>
        <time>2011-04-16T21:28:48Z</time>
      </trkpt>
      <trkpt lat="50.45438" lon="2.29475">
        <ele>72.716918</ele>
        <time>2011-04-16T21:28:57Z</time>
      </trkpt>
      <trkpt lat="50.45442" lon="2.29493">
        <ele>72.236206</ele>
        <time>2011-04-16T21:29:02Z</time>
      </trkpt>
      <trkpt lat="50.45444" lon="2.29494">
        <ele>72.236206</ele>
        <time>2011-04-16T21:29:03Z</time>
      </trkpt>
      <trkpt lat="50.45441" lon="2.29483">
        <ele>76.562133</ele>
        <time>2011-04-16T21:29:03Z</time>
      </trkpt>
      <trkpt lat="50.45438" lon="2.29483">
        <ele>77.523437</ele>
        <time>2011-04-16T21:29:04Z</time>
      </trkpt>
      <trkpt lat="50.45441" lon="2.29487">
        <ele>77.523437</ele>
        <time>2011-04-16T21:29:06Z</time>
      </trkpt>
      <trkpt lat="50.45439" lon="2.29482">
        <ele>77.042846</ele>
        <time>2011-04-16T21:29:07Z</time>
      </trkpt>
      <trkpt lat="50.45435" lon="2.29482">
        <ele>77.042846</ele>
        <time>2011-04-16T21:29:09Z</time>
      </trkpt>
      <trkpt lat="50.45428" lon="2.29481">
        <ele>77.042846</ele>
        <time>2011-04-16T21:29:12Z</time>
      </trkpt>
      <trkpt lat="50.45424" lon="2.29491">
        <ele>77.042846</ele>
        <time>2011-04-16T21:29:15Z</time>
      </trkpt>
      <trkpt lat="50.45421" lon="2.29491">
        <ele>77.523437</ele>
        <time>2011-04-16T21:29:16Z</time>
      </trkpt>
      <trkpt lat="50.45417" lon="2.29492">
        <ele>77.523437</ele>
        <time>2011-04-16T21:29:18Z</time>
      </trkpt>
      <trkpt lat="50.45415" lon="2.29501">
        <ele>77.042846</ele>
        <time>2011-04-16T21:29:20Z</time>
      </trkpt>
      <trkpt lat="50.45415" lon="2.29503">
        <ele>77.042846</ele>
        <time>2011-04-16T21:29:21Z</time>
      </trkpt>
      <trkpt lat="50.45419" lon="2.29511">
        <ele>76.562133</ele>
        <time>2011-04-16T21:29:23Z</time>
      </trkpt>
      <trkpt lat="50.45418" lon="2.29503">
        <ele>77.523437</ele>
        <time>2011-04-16T21:29:25Z</time>
      </trkpt>
      <trkpt lat="50.45418" lon="2.29499">
        <ele>78.004028</ele>
        <time>2011-04-16T21:29:26Z</time>
      </trkpt>
      <trkpt lat="50.45416" lon="2.295">
        <ele>78.484741</ele>
        <time>2011-04-16T21:29:27Z</time>
      </trkpt>
      <trkpt lat="50.45416" lon="2.29511">
        <ele>78.965454</ele>
        <time>2011-04-16T21:29:30Z</time>
      </trkpt>
      <trkpt lat="50.45422" lon="2.29546">
        <ele>78.484741</ele>
        <time>2011-04-16T21:29:39Z</time>
      </trkpt>
      <trkpt lat="50.45427" lon="2.29585">
        <ele>78.004028</ele>
        <time>2011-04-16T21:29:49Z</time>
      </trkpt>
      <trkpt lat="50.45431" lon="2.29613">
        <ele>77.523437</ele>
        <time>2011-04-16T21:29:56Z</time>
      </trkpt>
      <trkpt lat="50.45435" lon="2.2965">
        <ele>76.562133</ele>
        <time>2011-04-16T21:30:06Z</time>
      </trkpt>
      <trkpt lat="50.45436" lon="2.29673">
        <ele>76.562133</ele>
        <time>2011-04-16T21:30:12Z</time>
      </trkpt>
      <trkpt lat="50.45426" lon="2.29687">
        <ele>76.08142</ele>
        <time>2011-04-16T21:30:17Z</time>
      </trkpt>
      <trkpt lat="50.454" lon="2.29705">
        <ele>76.562133</ele>
        <time>2011-04-16T21:30:29Z</time>
      </trkpt>
      <trkpt lat="50.45387" lon="2.29717">
        <ele>77.523437</ele>
        <time>2011-04-16T21:30:35Z</time>
      </trkpt>
      <trkpt lat="50.45367" lon="2.29739">
        <ele>77.523437</ele>
        <time>2011-04-16T21:30:45Z</time>
      </trkpt>
      <trkpt lat="50.45353" lon="2.29751">
        <ele>77.523437</ele>
        <time>2011-04-16T21:30:51Z</time>
      </trkpt>
      <trkpt lat="50.4533" lon="2.29771">
        <ele>77.523437</ele>
        <time>2011-04-16T21:31:02Z</time>
      </trkpt>
      <trkpt lat="50.45314" lon="2.29783">
        <ele>77.042846</ele>
        <time>2011-04-16T21:31:09Z</time>
      </trkpt>
      <trkpt lat="50.45293" lon="2.29796">
        <ele>77.042846</ele>
        <time>2011-04-16T21:31:18Z</time>
      </trkpt>
      <trkpt lat="50.45269" lon="2.2981">
        <ele>77.042846</ele>
        <time>2011-04-16T21:31:28Z</time>
      </trkpt>
      <trkpt lat="50.45244" lon="2.29827">
        <ele>78.484741</ele>
        <time>2011-04-16T21:31:39Z</time>
      </trkpt>
      <trkpt lat="50.45214" lon="2.29839">
        <ele>79.926635</ele>
        <time>2011-04-16T21:31:51Z</time>
      </trkpt>
      <trkpt lat="50.45175" lon="2.29851">
        <ele>80.40747</ele>
        <time>2011-04-16T21:32:07Z</time>
      </trkpt>
      <trkpt lat="50.45142" lon="2.2986">
        <ele>81.849365</ele>
        <time>2011-04-16T21:32:21Z</time>
      </trkpt>
      <trkpt lat="50.45113" lon="2.2987">
        <ele>83.771972</ele>
        <time>2011-04-16T21:32:32Z</time>
      </trkpt>
      <trkpt lat="50.45098" lon="2.29877">
        <ele>84.733398</ele>
        <time>2011-04-16T21:32:39Z</time>
      </trkpt>
      <trkpt lat="50.45073" lon="2.2989">
        <ele>86.656005</ele>
        <time>2011-04-16T21:32:49Z</time>
      </trkpt>
      <trkpt lat="50.45058" lon="2.29897">
        <ele>87.617187</ele>
        <time>2011-04-16T21:32:55Z</time>
      </trkpt>
      <trkpt lat="50.45036" lon="2.29909">
        <ele>90.020629</ele>
        <time>2011-04-16T21:33:05Z</time>
      </trkpt>
      <trkpt lat="50.45008" lon="2.29922">
        <ele>91.462524</ele>
        <time>2011-04-16T21:33:16Z</time>
      </trkpt>
      <trkpt lat="50.44976" lon="2.29934">
        <ele>92.904541</ele>
        <time>2011-04-16T21:33:29Z</time>
      </trkpt>
      <trkpt lat="50.44938" lon="2.29948">
        <ele>93.865844</ele>
        <time>2011-04-16T21:33:45Z</time>
      </trkpt>
      <trkpt lat="50.44916" lon="2.29953">
        <ele>94.827148</ele>
        <time>2011-04-16T21:33:54Z</time>
      </trkpt>
      <trkpt lat="50.44884" lon="2.29954">
        <ele>96.749877</ele>
        <time>2011-04-16T21:34:07Z</time>
      </trkpt>
      <trkpt lat="50.44852" lon="2.29955">
        <ele>98.672485</ele>
        <time>2011-04-16T21:34:20Z</time>
      </trkpt>
      <trkpt lat="50.44827" lon="2.29971">
        <ele>99.633789</ele>
        <time>2011-04-16T21:34:31Z</time>
      </trkpt>
      <trkpt lat="50.44797" lon="2.3">
        <ele>101.55639</ele>
        <time>2011-04-16T21:34:45Z</time>
      </trkpt>
      <trkpt lat="50.44766" lon="2.30029">
        <ele>103.95971</ele>
        <time>2011-04-16T21:34:59Z</time>
      </trkpt>
      <trkpt lat="50.44737" lon="2.30051">
        <ele>105.40173</ele>
        <time>2011-04-16T21:35:12Z</time>
      </trkpt>
      <trkpt lat="50.44708" lon="2.30072">
        <ele>107.32434</ele>
        <time>2011-04-16T21:35:25Z</time>
      </trkpt>
      <trkpt lat="50.4468" lon="2.30102">
        <ele>109.72766</ele>
        <time>2011-04-16T21:35:38Z</time>
      </trkpt>
      <trkpt lat="50.4465" lon="2.30135">
        <ele>112.13098</ele>
        <time>2011-04-16T21:35:53Z</time>
      </trkpt>
      <trkpt lat="50.44625" lon="2.3015">
        <ele>114.53417</ele>
        <time>2011-04-16T21:36:04Z</time>
      </trkpt>
      <trkpt lat="50.44603" lon="2.30161">
        <ele>116.45678</ele>
        <time>2011-04-16T21:36:13Z</time>
      </trkpt>
      <trkpt lat="50.44572" lon="2.30176">
        <ele>118.8601</ele>
        <time>2011-04-16T21:36:26Z</time>
      </trkpt>
      <trkpt lat="50.44537" lon="2.30195">
        <ele>120.78283</ele>
        <time>2011-04-16T21:36:40Z</time>
      </trkpt>
      <trkpt lat="50.44507" lon="2.30216">
        <ele>122.22473</ele>
        <time>2011-04-16T21:36:54Z</time>
      </trkpt>
      <trkpt lat="50.44476" lon="2.30248">
        <ele>123.18615</ele>
        <time>2011-04-16T21:37:09Z</time>
      </trkpt>
      <trkpt lat="50.44439" lon="2.30286">
        <ele>124.14733</ele>
        <time>2011-04-16T21:37:26Z</time>
      </trkpt>
      <trkpt lat="50.44425" lon="2.30299">
        <ele>124.14733</ele>
        <time>2011-04-16T21:37:33Z</time>
      </trkpt>
      <trkpt lat="50.44406" lon="2.30299">
        <ele>124.62805</ele>
        <time>2011-04-16T21:37:41Z</time>
      </trkpt>
      <trkpt lat="50.44404" lon="2.30293">
        <ele>124.62805</ele>
        <time>2011-04-16T21:37:42Z</time>
      </trkpt>
      <trkpt lat="50.44391" lon="2.30227">
        <ele>124.14733</ele>
        <time>2011-04-16T21:38:00Z</time>
      </trkpt>
      <trkpt lat="50.44376" lon="2.30145">
        <ele>122.70544</ele>
        <time>2011-04-16T21:38:21Z</time>
      </trkpt>
      <trkpt lat="50.44375" lon="2.30135">
        <ele>122.70544</ele>
        <time>2011-04-16T21:38:24Z</time>
      </trkpt>
      <trkpt lat="50.44378" lon="2.30054">
        <ele>123.66674</ele>
        <time>2011-04-16T21:38:45Z</time>
      </trkpt>
      <trkpt lat="50.44383" lon="2.29993">
        <ele>122.70544</ele>
        <time>2011-04-16T21:39:01Z</time>
      </trkpt>
      <trkpt lat="50.44401" lon="2.2994">
        <ele>120.30212</ele>
        <time>2011-04-16T21:39:16Z</time>
      </trkpt>
      <trkpt lat="50.44419" lon="2.29856">
        <ele>118.37939</ele>
        <time>2011-04-16T21:39:38Z</time>
      </trkpt>
      <trkpt lat="50.4443" lon="2.2982">
        <ele>117.41821</ele>
        <time>2011-04-16T21:39:49Z</time>
      </trkpt>
      <trkpt lat="50.44441" lon="2.29752">
        <ele>113.57299</ele>
        <time>2011-04-16T21:40:07Z</time>
      </trkpt>
      <trkpt lat="50.44446" lon="2.29723">
        <ele>113.57299</ele>
        <time>2011-04-16T21:40:14Z</time>
      </trkpt>
      <trkpt lat="50.44455" lon="2.29676">
        <ele>114.53417</ele>
        <time>2011-04-16T21:40:27Z</time>
      </trkpt>
      <trkpt lat="50.44468" lon="2.29584">
        <ele>113.09228</ele>
        <time>2011-04-16T21:40:51Z</time>
      </trkpt>
      <trkpt lat="50.44472" lon="2.29542">
        <ele>112.13098</ele>
        <time>2011-04-16T21:41:01Z</time>
      </trkpt>
      <trkpt lat="50.44465" lon="2.29507">
        <ele>111.65026</ele>
        <time>2011-04-16T21:41:11Z</time>
      </trkpt>
      <trkpt lat="50.44457" lon="2.29498">
        <ele>112.61157</ele>
        <time>2011-04-16T21:41:15Z</time>
      </trkpt>
      <trkpt lat="50.44437" lon="2.2948">
        <ele>115.97619</ele>
        <time>2011-04-16T21:41:24Z</time>
      </trkpt>
      <trkpt lat="50.44427" lon="2.29471">
        <ele>117.8988</ele>
        <time>2011-04-16T21:41:29Z</time>
      </trkpt>
      <trkpt lat="50.44417" lon="2.29462">
        <ele>119.34082</ele>
        <time>2011-04-16T21:41:33Z</time>
      </trkpt>
      <trkpt lat="50.44401" lon="2.29446">
        <ele>120.78283</ele>
        <time>2011-04-16T21:41:41Z</time>
      </trkpt>
      <trkpt lat="50.44384" lon="2.29431">
        <ele>122.22473</ele>
        <time>2011-04-16T21:41:49Z</time>
      </trkpt>
      <trkpt lat="50.44355" lon="2.29403">
        <ele>124.14733</ele>
        <time>2011-04-16T21:42:02Z</time>
      </trkpt>
      <trkpt lat="50.44342" lon="2.29392">
        <ele>124.62805</ele>
        <time>2011-04-16T21:42:08Z</time>
      </trkpt>
      <trkpt lat="50.44339" lon="2.29396">
        <ele>124.14733</ele>
        <time>2011-04-16T21:42:10Z</time>
      </trkpt>
      <trkpt lat="50.44338" lon="2.29406">
        <ele>124.14733</ele>
        <time>2011-04-16T21:42:10Z</time>
      </trkpt>
      <trkpt lat="50.44335" lon="2.29434">
        <ele>124.14733</ele>
        <time>2011-04-16T21:42:18Z</time>
      </trkpt>
      <trkpt lat="50.44331" lon="2.29479">
        <ele>124.14733</ele>
        <time>2011-04-16T21:42:29Z</time>
      </trkpt>
      <trkpt lat="50.44325" lon="2.29525">
        <ele>124.62805</ele>
        <time>2011-04-16T21:42:41Z</time>
      </trkpt>
      <trkpt lat="50.44318" lon="2.29566">
        <ele>125.10876</ele>
        <time>2011-04-16T21:42:52Z</time>
      </trkpt>
      <trkpt lat="50.44307" lon="2.29565">
        <ele>125.10876</ele>
        <time>2011-04-16T21:42:56Z</time>
      </trkpt>
      <trkpt lat="50.44306" lon="2.2956">
        <ele>125.10876</ele>
        <time>2011-04-16T21:42:57Z</time>
      </trkpt>
      <trkpt lat="50.44295" lon="2.29522">
        <ele>125.10876</ele>
        <time>2011-04-16T21:43:08Z</time>
      </trkpt>
      <trkpt lat="50.44289" lon="2.29504">
        <ele>124.62805</ele>
        <time>2011-04-16T21:43:13Z</time>
      </trkpt>
      <trkpt lat="50.44277" lon="2.29463">
        <ele>125.10876</ele>
        <time>2011-04-16T21:43:25Z</time>
      </trkpt>
      <trkpt lat="50.4427" lon="2.29443">
        <ele>125.10876</ele>
        <time>2011-04-16T21:43:30Z</time>
      </trkpt>
      <trkpt lat="50.44269" lon="2.29437">
        <ele>125.10876</ele>
        <time>2011-04-16T21:43:32Z</time>
      </trkpt>
      <trkpt lat="50.44262" lon="2.29416">
        <ele>125.58935</ele>
        <time>2011-04-16T21:43:38Z</time>
      </trkpt>
      <trkpt lat="50.44256" lon="2.294">
        <ele>125.58935</ele>
        <time>2011-04-16T21:43:43Z</time>
      </trkpt>
      <trkpt lat="50.44249" lon="2.29376">
        <ele>125.58935</ele>
        <time>2011-04-16T21:43:49Z</time>
      </trkpt>
      <trkpt lat="50.44238" lon="2.29339">
        <ele>125.10876</ele>
        <time>2011-04-16T21:44:00Z</time>
      </trkpt>
      <trkpt lat="50.44222" lon="2.29303">
        <ele>124.62805</ele>
        <time>2011-04-16T21:44:11Z</time>
      </trkpt>
      <trkpt lat="50.44209" lon="2.2927">
        <ele>124.62805</ele>
        <time>2011-04-16T21:44:21Z</time>
      </trkpt>
      <trkpt lat="50.44206" lon="2.29262">
        <ele>125.10876</ele>
        <time>2011-04-16T21:44:23Z</time>
      </trkpt>
      <trkpt lat="50.44185" lon="2.29243">
        <ele>124.62805</ele>
        <time>2011-04-16T21:44:33Z</time>
      </trkpt>
      <trkpt lat="50.44178" lon="2.2924">
        <ele>124.62805</ele>
        <time>2011-04-16T21:44:36Z</time>
      </trkpt>
      <trkpt lat="50.44145" lon="2.29209">
        <ele>124.14733</ele>
        <time>2011-04-16T21:44:52Z</time>
      </trkpt>
      <trkpt lat="50.44122" lon="2.29187">
        <ele>125.10876</ele>
        <time>2011-04-16T21:45:02Z</time>
      </trkpt>
      <trkpt lat="50.44086" lon="2.29175">
        <ele>128.47338</ele>
        <time>2011-04-16T21:45:17Z</time>
      </trkpt>
      <trkpt lat="50.44062" lon="2.29155">
        <ele>126.55065</ele>
        <time>2011-04-16T21:45:28Z</time>
      </trkpt>
      <trkpt lat="50.44046" lon="2.29104">
        <ele>127.03137</ele>
        <time>2011-04-16T21:45:42Z</time>
      </trkpt>
      <trkpt lat="50.44042" lon="2.29095">
        <ele>127.03137</ele>
        <time>2011-04-16T21:45:45Z</time>
      </trkpt>
      <trkpt lat="50.44016" lon="2.29043">
        <ele>122.70544</ele>
        <time>2011-04-16T21:46:02Z</time>
      </trkpt>
      <trkpt lat="50.43989" lon="2.29002">
        <ele>117.41821</ele>
        <time>2011-04-16T21:46:17Z</time>
      </trkpt>
      <trkpt lat="50.43964" lon="2.28971">
        <ele>112.61157</ele>
        <time>2011-04-16T21:46:30Z</time>
      </trkpt>
      <trkpt lat="50.43917" lon="2.28893">
        <ele>105.40173</ele>
        <time>2011-04-16T21:46:57Z</time>
      </trkpt>
      <trkpt lat="50.43886" lon="2.2881">
        <ele>99.153076</ele>
        <time>2011-04-16T21:47:22Z</time>
      </trkpt>
      <trkpt lat="50.43863" lon="2.28762">
        <ele>94.827148</ele>
        <time>2011-04-16T21:47:37Z</time>
      </trkpt>
      <trkpt lat="50.4383" lon="2.28718">
        <ele>90.501342</ele>
        <time>2011-04-16T21:47:54Z</time>
      </trkpt>
      <trkpt lat="50.43798" lon="2.28663">
        <ele>85.69458</ele>
        <time>2011-04-16T21:48:13Z</time>
      </trkpt>
      <trkpt lat="50.43778" lon="2.28593">
        <ele>80.888183</ele>
        <time>2011-04-16T21:48:33Z</time>
      </trkpt>
      <trkpt lat="50.43773" lon="2.28564">
        <ele>78.484741</ele>
        <time>2011-04-16T21:48:40Z</time>
      </trkpt>
      <trkpt lat="50.43764" lon="2.28546">
        <ele>76.08142</ele>
        <time>2011-04-16T21:48:46Z</time>
      </trkpt>
      <trkpt lat="50.43761" lon="2.28546">
        <ele>76.562133</ele>
        <time>2011-04-16T21:48:48Z</time>
      </trkpt>
      <trkpt lat="50.4374" lon="2.28566">
        <ele>75.120239</ele>
        <time>2011-04-16T21:48:58Z</time>
      </trkpt>
      <trkpt lat="50.43715" lon="2.28602">
        <ele>71.755493</ele>
        <time>2011-04-16T21:49:11Z</time>
      </trkpt>
      <trkpt lat="50.43696" lon="2.28647">
        <ele>67.910278</ele>
        <time>2011-04-16T21:49:25Z</time>
      </trkpt>
      <trkpt lat="50.43677" lon="2.28708">
        <ele>65.026367</ele>
        <time>2011-04-16T21:49:42Z</time>
      </trkpt>
      <trkpt lat="50.43645" lon="2.28744">
        <ele>64.065063</ele>
        <time>2011-04-16T21:49:58Z</time>
      </trkpt>
      <trkpt lat="50.4363" lon="2.28747">
        <ele>64.065063</ele>
        <time>2011-04-16T21:50:04Z</time>
      </trkpt>
      <trkpt lat="50.43597" lon="2.28759">
        <ele>66.468261</ele>
        <time>2011-04-16T21:50:18Z</time>
      </trkpt>
      <trkpt lat="50.43575" lon="2.28785">
        <ele>70.313476</ele>
        <time>2011-04-16T21:50:29Z</time>
      </trkpt>
      <trkpt lat="50.43556" lon="2.28808">
        <ele>73.197631</ele>
        <time>2011-04-16T21:50:38Z</time>
      </trkpt>
      <trkpt lat="50.4354" lon="2.28827">
        <ele>74.639526</ele>
        <time>2011-04-16T21:50:46Z</time>
      </trkpt>
      <trkpt lat="50.43519" lon="2.28858">
        <ele>76.08142</ele>
        <time>2011-04-16T21:50:58Z</time>
      </trkpt>
      <trkpt lat="50.4351" lon="2.28878">
        <ele>77.523437</ele>
        <time>2011-04-16T21:51:04Z</time>
      </trkpt>
      <trkpt lat="50.43492" lon="2.28899">
        <ele>77.523437</ele>
        <time>2011-04-16T21:51:13Z</time>
      </trkpt>
      <trkpt lat="50.4347" lon="2.28923">
        <ele>78.965454</ele>
        <time>2011-04-16T21:51:24Z</time>
      </trkpt>
      <trkpt lat="50.43449" lon="2.28948">
        <ele>80.40747</ele>
        <time>2011-04-16T21:51:34Z</time>
      </trkpt>
      <trkpt lat="50.43423" lon="2.28984">
        <ele>79.926635</ele>
        <time>2011-04-16T21:51:48Z</time>
      </trkpt>
      <trkpt lat="50.43413" lon="2.29001">
        <ele>79.926635</ele>
        <time>2011-04-16T21:51:54Z</time>
      </trkpt>
      <trkpt lat="50.43389" lon="2.29031">
        <ele>78.484741</ele>
        <time>2011-04-16T21:52:06Z</time>
      </trkpt>
      <trkpt lat="50.43385" lon="2.29036">
        <ele>78.004028</ele>
        <time>2011-04-16T21:52:08Z</time>
      </trkpt>
      <trkpt lat="50.43365" lon="2.29058">
        <ele>77.523437</ele>
        <time>2011-04-16T21:52:18Z</time>
      </trkpt>
      <trkpt lat="50.43355" lon="2.29068">
        <ele>77.523437</ele>
        <time>2011-04-16T21:52:23Z</time>
      </trkpt>
      <trkpt lat="50.43311" lon="2.29117">
        <ele>78.004028</ele>
        <time>2011-04-16T21:52:44Z</time>
      </trkpt>
      <trkpt lat="50.4329" lon="2.2914">
        <ele>79.926635</ele>
        <time>2011-04-16T21:52:55Z</time>
      </trkpt>
      <trkpt lat="50.4327" lon="2.29161">
        <ele>79.926635</ele>
        <time>2011-04-16T21:53:04Z</time>
      </trkpt>
      <trkpt lat="50.43251" lon="2.29181">
        <ele>78.484741</ele>
        <time>2011-04-16T21:53:13Z</time>
      </trkpt>
      <trkpt lat="50.4322" lon="2.29222">
        <ele>77.523437</ele>
        <time>2011-04-16T21:53:29Z</time>
      </trkpt>
      <trkpt lat="50.43204" lon="2.29253">
        <ele>76.08142</ele>
        <time>2011-04-16T21:53:40Z</time>
      </trkpt>
      <trkpt lat="50.43174" lon="2.29288">
        <ele>75.60083</ele>
        <time>2011-04-16T21:53:55Z</time>
      </trkpt>
      <trkpt lat="50.43164" lon="2.29295">
        <ele>75.120239</ele>
        <time>2011-04-16T21:53:59Z</time>
      </trkpt>
      <trkpt lat="50.43149" lon="2.29307">
        <ele>76.08142</ele>
        <time>2011-04-16T21:54:06Z</time>
      </trkpt>
      <trkpt lat="50.4314" lon="2.29312">
        <ele>75.60083</ele>
        <time>2011-04-16T21:54:10Z</time>
      </trkpt>
      <trkpt lat="50.43124" lon="2.29323">
        <ele>76.08142</ele>
        <time>2011-04-16T21:54:17Z</time>
      </trkpt>
      <trkpt lat="50.43112" lon="2.29328">
        <ele>76.562133</ele>
        <time>2011-04-16T21:54:22Z</time>
      </trkpt>
      <trkpt lat="50.43097" lon="2.29334">
        <ele>77.523437</ele>
        <time>2011-04-16T21:54:28Z</time>
      </trkpt>
      <trkpt lat="50.4309" lon="2.29338">
        <ele>78.484741</ele>
        <time>2011-04-16T21:54:31Z</time>
      </trkpt>
      <trkpt lat="50.43074" lon="2.29345">
        <ele>80.40747</ele>
        <time>2011-04-16T21:54:37Z</time>
      </trkpt>
      <trkpt lat="50.4305" lon="2.29349">
        <ele>81.849365</ele>
        <time>2011-04-16T21:54:47Z</time>
      </trkpt>
      <trkpt lat="50.43026" lon="2.29361">
        <ele>82.810791</ele>
        <time>2011-04-16T21:54:57Z</time>
      </trkpt>
      <trkpt lat="50.43" lon="2.29387">
        <ele>83.771972</ele>
        <time>2011-04-16T21:55:10Z</time>
      </trkpt>
      <trkpt lat="50.42981" lon="2.29415">
        <ele>85.69458</ele>
        <time>2011-04-16T21:55:20Z</time>
      </trkpt>
      <trkpt lat="50.42971" lon="2.29436">
        <ele>87.617187</ele>
        <time>2011-04-16T21:55:27Z</time>
      </trkpt>
      <trkpt lat="50.42952" lon="2.29454">
        <ele>88.098022</ele>
        <time>2011-04-16T21:55:36Z</time>
      </trkpt>
      <trkpt lat="50.42931" lon="2.29474">
        <ele>88.098022</ele>
        <time>2011-04-16T21:55:45Z</time>
      </trkpt>
      <trkpt lat="50.4291" lon="2.29481">
        <ele>87.136596</ele>
        <time>2011-04-16T21:55:54Z</time>
      </trkpt>
      <trkpt lat="50.42879" lon="2.29487">
        <ele>85.213989</ele>
        <time>2011-04-16T21:56:06Z</time>
      </trkpt>
      <trkpt lat="50.4284" lon="2.29499">
        <ele>85.213989</ele>
        <time>2011-04-16T21:56:23Z</time>
      </trkpt>
      <trkpt lat="50.42785" lon="2.2952">
        <ele>85.213989</ele>
        <time>2011-04-16T21:56:45Z</time>
      </trkpt>
      <trkpt lat="50.42746" lon="2.29538">
        <ele>86.656005</ele>
        <time>2011-04-16T21:57:02Z</time>
      </trkpt>
      <trkpt lat="50.42731" lon="2.29543">
        <ele>86.175293</ele>
        <time>2011-04-16T21:57:07Z</time>
      </trkpt>
      <trkpt lat="50.42714" lon="2.2955">
        <ele>86.175293</ele>
        <time>2011-04-16T21:57:15Z</time>
      </trkpt>
      <trkpt lat="50.42669" lon="2.29575">
        <ele>85.213989</ele>
        <time>2011-04-16T21:57:34Z</time>
      </trkpt>
      <trkpt lat="50.4262" lon="2.296">
        <ele>85.69458</ele>
        <time>2011-04-16T21:57:55Z</time>
      </trkpt>
      <trkpt lat="50.42576" lon="2.29618">
        <ele>87.617187</ele>
        <time>2011-04-16T21:58:12Z</time>
      </trkpt>
      <trkpt lat="50.42541" lon="2.29634">
        <ele>89.059326</ele>
        <time>2011-04-16T21:58:27Z</time>
      </trkpt>
      <trkpt lat="50.42501" lon="2.29655">
        <ele>89.059326</ele>
        <time>2011-04-16T21:58:44Z</time>
      </trkpt>
      <trkpt lat="50.42466" lon="2.29686">
        <ele>88.098022</ele>
        <time>2011-04-16T21:59:00Z</time>
      </trkpt>
      <trkpt lat="50.42442" lon="2.29712">
        <ele>87.617187</ele>
        <time>2011-04-16T21:59:12Z</time>
      </trkpt>
      <trkpt lat="50.42407" lon="2.29749">
        <ele>88.578735</ele>
        <time>2011-04-16T21:59:29Z</time>
      </trkpt>
      <trkpt lat="50.42365" lon="2.29792">
        <ele>89.059326</ele>
        <time>2011-04-16T21:59:49Z</time>
      </trkpt>
      <trkpt lat="50.42327" lon="2.29834">
        <ele>88.578735</ele>
        <time>2011-04-16T22:00:07Z</time>
      </trkpt>
      <trkpt lat="50.42297" lon="2.29877">
        <ele>89.059326</ele>
        <time>2011-04-16T22:00:23Z</time>
      </trkpt>
      <trkpt lat="50.42285" lon="2.29927">
        <ele>90.501342</ele>
        <time>2011-04-16T22:00:37Z</time>
      </trkpt>
      <trkpt lat="50.42279" lon="2.2998">
        <ele>91.943237</ele>
        <time>2011-04-16T22:00:51Z</time>
      </trkpt>
      <trkpt lat="50.42274" lon="2.30065">
        <ele>92.904541</ele>
        <time>2011-04-16T22:01:13Z</time>
      </trkpt>
      <trkpt lat="50.42271" lon="2.30133">
        <ele>94.827148</ele>
        <time>2011-04-16T22:01:30Z</time>
      </trkpt>
      <trkpt lat="50.4227" lon="2.30158">
        <ele>95.307739</ele>
        <time>2011-04-16T22:01:36Z</time>
      </trkpt>
      <trkpt lat="50.42262" lon="2.30179">
        <ele>94.827148</ele>
        <time>2011-04-16T22:01:43Z</time>
      </trkpt>
      <trkpt lat="50.42257" lon="2.30182">
        <ele>94.346557</ele>
        <time>2011-04-16T22:01:45Z</time>
      </trkpt>
      <trkpt lat="50.42247" lon="2.30187">
        <ele>93.385131</ele>
        <time>2011-04-16T22:01:49Z</time>
      </trkpt>
      <trkpt lat="50.42213" lon="2.30222">
        <ele>90.020629</ele>
        <time>2011-04-16T22:02:05Z</time>
      </trkpt>
      <trkpt lat="50.42189" lon="2.30238">
        <ele>87.617187</ele>
        <time>2011-04-16T22:02:16Z</time>
      </trkpt>
      <trkpt lat="50.42125" lon="2.30253">
        <ele>82.810791</ele>
        <time>2011-04-16T22:02:42Z</time>
      </trkpt>
      <trkpt lat="50.42071" lon="2.30262">
        <ele>77.523437</ele>
        <time>2011-04-16T22:03:03Z</time>
      </trkpt>
      <trkpt lat="50.42021" lon="2.30292">
        <ele>71.755493</ele>
        <time>2011-04-16T22:03:25Z</time>
      </trkpt>
      <trkpt lat="50.4198" lon="2.30346">
        <ele>68.871582</ele>
        <time>2011-04-16T22:03:46Z</time>
      </trkpt>
      <trkpt lat="50.41973" lon="2.30352">
        <ele>68.390869</ele>
        <time>2011-04-16T22:03:49Z</time>
      </trkpt>
      <trkpt lat="50.41952" lon="2.30391">
        <ele>67.429687</ele>
        <time>2011-04-16T22:04:03Z</time>
      </trkpt>
      <trkpt lat="50.41931" lon="2.30435">
        <ele>66.468261</ele>
        <time>2011-04-16T22:04:16Z</time>
      </trkpt>
      <trkpt lat="50.41923" lon="2.30448">
        <ele>66.468261</ele>
        <time>2011-04-16T22:04:21Z</time>
      </trkpt>
      <trkpt lat="50.41905" lon="2.30462">
        <ele>65.98767</ele>
        <time>2011-04-16T22:04:29Z</time>
      </trkpt>
      <trkpt lat="50.41896" lon="2.30463">
        <ele>65.98767</ele>
        <time>2011-04-16T22:04:33Z</time>
      </trkpt>
      <trkpt lat="50.41865" lon="2.30465">
        <ele>67.429687</ele>
        <time>2011-04-16T22:04:45Z</time>
      </trkpt>
      <trkpt lat="50.41857" lon="2.30467">
        <ele>67.910278</ele>
        <time>2011-04-16T22:04:48Z</time>
      </trkpt>
      <trkpt lat="50.41842" lon="2.30475">
        <ele>68.871582</ele>
        <time>2011-04-16T22:04:54Z</time>
      </trkpt>
      <trkpt lat="50.4183" lon="2.30487">
        <ele>73.197631</ele>
        <time>2011-04-16T22:05:00Z</time>
      </trkpt>
      <trkpt lat="50.41822" lon="2.30496">
        <ele>75.120239</ele>
        <time>2011-04-16T22:05:04Z</time>
      </trkpt>
      <trkpt lat="50.41817" lon="2.30501">
        <ele>76.562133</ele>
        <time>2011-04-16T22:05:07Z</time>
      </trkpt>
      <trkpt lat="50.41805" lon="2.30513">
        <ele>78.484741</ele>
        <time>2011-04-16T22:05:12Z</time>
      </trkpt>
      <trkpt lat="50.41794" lon="2.30523">
        <ele>80.888183</ele>
        <time>2011-04-16T22:05:17Z</time>
      </trkpt>
      <trkpt lat="50.41783" lon="2.30531">
        <ele>82.330078</ele>
        <time>2011-04-16T22:05:22Z</time>
      </trkpt>
      <trkpt lat="50.41768" lon="2.3054">
        <ele>83.291381</ele>
        <time>2011-04-16T22:05:29Z</time>
      </trkpt>
      <trkpt lat="50.41754" lon="2.30548">
        <ele>84.252685</ele>
        <time>2011-04-16T22:05:35Z</time>
      </trkpt>
      <trkpt lat="50.41746" lon="2.30557">
        <ele>85.213989</ele>
        <time>2011-04-16T22:05:39Z</time>
      </trkpt>
      <trkpt lat="50.41736" lon="2.30563">
        <ele>86.656005</ele>
        <time>2011-04-16T22:05:43Z</time>
      </trkpt>
      <trkpt lat="50.41724" lon="2.30571">
        <ele>86.656005</ele>
        <time>2011-04-16T22:05:48Z</time>
      </trkpt>
      <trkpt lat="50.41707" lon="2.30582">
        <ele>86.175293</ele>
        <time>2011-04-16T22:05:56Z</time>
      </trkpt>
      <trkpt lat="50.41682" lon="2.30603">
        <ele>84.733398</ele>
        <time>2011-04-16T22:06:07Z</time>
      </trkpt>
      <trkpt lat="50.41653" lon="2.30624">
        <ele>85.69458</ele>
        <time>2011-04-16T22:06:20Z</time>
      </trkpt>
      <trkpt lat="50.41624" lon="2.30642">
        <ele>85.213989</ele>
        <time>2011-04-16T22:06:32Z</time>
      </trkpt>
      <trkpt lat="50.41587" lon="2.30669">
        <ele>83.771972</ele>
        <time>2011-04-16T22:06:48Z</time>
      </trkpt>
      <trkpt lat="50.41556" lon="2.30692">
        <ele>82.810791</ele>
        <time>2011-04-16T22:07:02Z</time>
      </trkpt>
      <trkpt lat="50.41519" lon="2.30714">
        <ele>82.810791</ele>
        <time>2011-04-16T22:07:18Z</time>
      </trkpt>
      <trkpt lat="50.41465" lon="2.30746">
        <ele>81.849365</ele>
        <time>2011-04-16T22:07:41Z</time>
      </trkpt>
      <trkpt lat="50.4141" lon="2.30766">
        <ele>82.330078</ele>
        <time>2011-04-16T22:08:04Z</time>
      </trkpt>
      <trkpt lat="50.41368" lon="2.30781">
        <ele>83.771972</ele>
        <time>2011-04-16T22:08:21Z</time>
      </trkpt>
      <trkpt lat="50.41317" lon="2.30804">
        <ele>84.733398</ele>
        <time>2011-04-16T22:08:42Z</time>
      </trkpt>
      <trkpt lat="50.41263" lon="2.30826">
        <ele>86.175293</ele>
        <time>2011-04-16T22:09:04Z</time>
      </trkpt>
      <trkpt lat="50.41224" lon="2.30837">
        <ele>87.617187</ele>
        <time>2011-04-16T22:09:20Z</time>
      </trkpt>
      <trkpt lat="50.41182" lon="2.30844">
        <ele>88.578735</ele>
        <time>2011-04-16T22:09:37Z</time>
      </trkpt>
      <trkpt lat="50.4114" lon="2.3085">
        <ele>89.539917</ele>
        <time>2011-04-16T22:09:54Z</time>
      </trkpt>
      <trkpt lat="50.41105" lon="2.30859">
        <ele>90.501342</ele>
        <time>2011-04-16T22:10:08Z</time>
      </trkpt>
      <trkpt lat="50.41063" lon="2.30874">
        <ele>92.42395</ele>
        <time>2011-04-16T22:10:25Z</time>
      </trkpt>
      <trkpt lat="50.41027" lon="2.30888">
        <ele>93.865844</ele>
        <time>2011-04-16T22:10:41Z</time>
      </trkpt>
      <trkpt lat="50.41002" lon="2.30902">
        <ele>93.865844</ele>
        <time>2011-04-16T22:10:51Z</time>
      </trkpt>
      <trkpt lat="50.40985" lon="2.30912">
        <ele>94.827148</ele>
        <time>2011-04-16T22:10:58Z</time>
      </trkpt>
      <trkpt lat="50.40961" lon="2.30923">
        <ele>95.307739</ele>
        <time>2011-04-16T22:11:08Z</time>
      </trkpt>
      <trkpt lat="50.40926" lon="2.30943">
        <ele>95.307739</ele>
        <time>2011-04-16T22:11:23Z</time>
      </trkpt>
      <trkpt lat="50.40922" lon="2.30946">
        <ele>95.307739</ele>
        <time>2011-04-16T22:11:25Z</time>
      </trkpt>
      <trkpt lat="50.40877" lon="2.30972">
        <ele>95.307739</ele>
        <time>2011-04-16T22:11:44Z</time>
      </trkpt>
      <trkpt lat="50.40846" lon="2.30989">
        <ele>96.269287</ele>
        <time>2011-04-16T22:11:58Z</time>
      </trkpt>
      <trkpt lat="50.40812" lon="2.31012">
        <ele>96.269287</ele>
        <time>2011-04-16T22:12:12Z</time>
      </trkpt>
      <trkpt lat="50.40779" lon="2.31035">
        <ele>97.230468</ele>
        <time>2011-04-16T22:12:27Z</time>
      </trkpt>
      <trkpt lat="50.40748" lon="2.31052">
        <ele>98.191894</ele>
        <time>2011-04-16T22:12:40Z</time>
      </trkpt>
      <trkpt lat="50.40717" lon="2.31061">
        <ele>98.191894</ele>
        <time>2011-04-16T22:12:53Z</time>
      </trkpt>
      <trkpt lat="50.40674" lon="2.31071">
        <ele>97.230468</ele>
        <time>2011-04-16T22:13:10Z</time>
      </trkpt>
      <trkpt lat="50.40669" lon="2.31073">
        <ele>97.230468</ele>
        <time>2011-04-16T22:13:12Z</time>
      </trkpt>
      <trkpt lat="50.40655" lon="2.31079">
        <ele>97.230468</ele>
        <time>2011-04-16T22:13:18Z</time>
      </trkpt>
      <trkpt lat="50.40605" lon="2.31105">
        <ele>96.269287</ele>
        <time>2011-04-16T22:13:39Z</time>
      </trkpt>
      <trkpt lat="50.40587" lon="2.31116">
        <ele>95.788452</ele>
        <time>2011-04-16T22:13:47Z</time>
      </trkpt>
      <trkpt lat="50.40562" lon="2.31131">
        <ele>94.346557</ele>
        <time>2011-04-16T22:13:57Z</time>
      </trkpt>
      <trkpt lat="50.40524" lon="2.31152">
        <ele>92.904541</ele>
        <time>2011-04-16T22:14:13Z</time>
      </trkpt>
      <trkpt lat="50.40491" lon="2.31167">
        <ele>93.865844</ele>
        <time>2011-04-16T22:14:27Z</time>
      </trkpt>
      <trkpt lat="50.40485" lon="2.31169">
        <ele>93.865844</ele>
        <time>2011-04-16T22:14:29Z</time>
      </trkpt>
      <trkpt lat="50.40459" lon="2.31168">
        <ele>94.346557</ele>
        <time>2011-04-16T22:14:40Z</time>
      </trkpt>
      <trkpt lat="50.40451" lon="2.31168">
        <ele>94.827148</ele>
        <time>2011-04-16T22:14:43Z</time>
      </trkpt>
      <trkpt lat="50.40446" lon="2.31177">
        <ele>95.788452</ele>
        <time>2011-04-16T22:14:46Z</time>
      </trkpt>
      <trkpt lat="50.40447" lon="2.31202">
        <ele>96.749877</ele>
        <time>2011-04-16T22:14:52Z</time>
      </trkpt>
      <trkpt lat="50.40444" lon="2.31226">
        <ele>97.230468</ele>
        <time>2011-04-16T22:14:59Z</time>
      </trkpt>
      <trkpt lat="50.4044" lon="2.31247">
        <ele>98.672485</ele>
        <time>2011-04-16T22:15:04Z</time>
      </trkpt>
      <trkpt lat="50.40439" lon="2.31253">
        <ele>98.672485</ele>
        <time>2011-04-16T22:15:06Z</time>
      </trkpt>
      <trkpt lat="50.40432" lon="2.31284">
        <ele>100.59509</ele>
        <time>2011-04-16T22:15:14Z</time>
      </trkpt>
      <trkpt lat="50.40427" lon="2.31303">
        <ele>102.0371</ele>
        <time>2011-04-16T22:15:20Z</time>
      </trkpt>
      <trkpt lat="50.40415" lon="2.31326">
        <ele>102.99829</ele>
        <time>2011-04-16T22:15:27Z</time>
      </trkpt>
      <trkpt lat="50.40399" lon="2.31349">
        <ele>103.95971</ele>
        <time>2011-04-16T22:15:36Z</time>
      </trkpt>
      <trkpt lat="50.40385" lon="2.31367">
        <ele>105.40173</ele>
        <time>2011-04-16T22:15:43Z</time>
      </trkpt>
      <trkpt lat="50.40372" lon="2.3138">
        <ele>105.88244</ele>
        <time>2011-04-16T22:15:49Z</time>
      </trkpt>
      <trkpt lat="50.40361" lon="2.3139">
        <ele>106.84362</ele>
        <time>2011-04-16T22:15:54Z</time>
      </trkpt>
      <trkpt lat="50.40347" lon="2.31403">
        <ele>106.84362</ele>
        <time>2011-04-16T22:16:01Z</time>
      </trkpt>
      <trkpt lat="50.40334" lon="2.31414">
        <ele>107.32434</ele>
        <time>2011-04-16T22:16:07Z</time>
      </trkpt>
      <trkpt lat="50.40319" lon="2.31427">
        <ele>107.32434</ele>
        <time>2011-04-16T22:16:14Z</time>
      </trkpt>
      <trkpt lat="50.40305" lon="2.31448">
        <ele>106.84362</ele>
        <time>2011-04-16T22:16:21Z</time>
      </trkpt>
      <trkpt lat="50.40297" lon="2.31469">
        <ele>107.80505</ele>
        <time>2011-04-16T22:16:28Z</time>
      </trkpt>
      <trkpt lat="50.40288" lon="2.31508">
        <ele>109.72766</ele>
        <time>2011-04-16T22:16:38Z</time>
      </trkpt>
      <trkpt lat="50.40285" lon="2.3154">
        <ele>112.13098</ele>
        <time>2011-04-16T22:16:47Z</time>
      </trkpt>
      <trkpt lat="50.40286" lon="2.31576">
        <ele>113.09228</ele>
        <time>2011-04-16T22:16:56Z</time>
      </trkpt>
      <trkpt lat="50.40289" lon="2.31601">
        <ele>113.57299</ele>
        <time>2011-04-16T22:17:02Z</time>
      </trkpt>
      <trkpt lat="50.40292" lon="2.31638">
        <ele>116.45678</ele>
        <time>2011-04-16T22:17:12Z</time>
      </trkpt>
      <trkpt lat="50.40298" lon="2.31686">
        <ele>119.82141</ele>
        <time>2011-04-16T22:17:24Z</time>
      </trkpt>
      <trkpt lat="50.40303" lon="2.3172">
        <ele>125.10876</ele>
        <time>2011-04-16T22:17:33Z</time>
      </trkpt>
      <trkpt lat="50.40315" lon="2.31736">
        <ele>121.74414</ele>
        <time>2011-04-16T22:17:39Z</time>
      </trkpt>
      <trkpt lat="50.40331" lon="2.31761">
        <ele>122.22473</ele>
        <time>2011-04-16T22:17:48Z</time>
      </trkpt>
      <trkpt lat="50.40348" lon="2.31783">
        <ele>121.26354</ele>
        <time>2011-04-16T22:17:57Z</time>
      </trkpt>
      <trkpt lat="50.40368" lon="2.31809">
        <ele>120.78283</ele>
        <time>2011-04-16T22:18:08Z</time>
      </trkpt>
      <trkpt lat="50.40395" lon="2.31852">
        <ele>122.22473</ele>
        <time>2011-04-16T22:18:23Z</time>
      </trkpt>
      <trkpt lat="50.40409" lon="2.31888">
        <ele>122.70544</ele>
        <time>2011-04-16T22:18:34Z</time>
      </trkpt>
      <trkpt lat="50.40418" lon="2.31935">
        <ele>122.70544</ele>
        <time>2011-04-16T22:18:46Z</time>
      </trkpt>
      <trkpt lat="50.40422" lon="2.31983">
        <ele>123.66674</ele>
        <time>2011-04-16T22:18:59Z</time>
      </trkpt>
      <trkpt lat="50.40429" lon="2.32052">
        <ele>124.62805</ele>
        <time>2011-04-16T22:19:17Z</time>
      </trkpt>
      <trkpt lat="50.4044" lon="2.3211">
        <ele>125.10876</ele>
        <time>2011-04-16T22:19:32Z</time>
      </trkpt>
      <trkpt lat="50.4045" lon="2.32155">
        <ele>125.58935</ele>
        <time>2011-04-16T22:19:44Z</time>
      </trkpt>
      <trkpt lat="50.40465" lon="2.32197">
        <ele>125.58935</ele>
        <time>2011-04-16T22:19:56Z</time>
      </trkpt>
      <trkpt lat="50.40481" lon="2.32234">
        <ele>125.58935</ele>
        <time>2011-04-16T22:20:08Z</time>
      </trkpt>
      <trkpt lat="50.40492" lon="2.32263">
        <ele>126.55065</ele>
        <time>2011-04-16T22:20:16Z</time>
      </trkpt>
      <trkpt lat="50.40507" lon="2.32315">
        <ele>127.03137</ele>
        <time>2011-04-16T22:20:31Z</time>
      </trkpt>
      <trkpt lat="50.40521" lon="2.32364">
        <ele>127.99255</ele>
        <time>2011-04-16T22:20:45Z</time>
      </trkpt>
      <trkpt lat="50.40527" lon="2.32397">
        <ele>127.99255</ele>
        <time>2011-04-16T22:20:54Z</time>
      </trkpt>
      <trkpt lat="50.40527" lon="2.32426">
        <ele>128.47338</ele>
        <time>2011-04-16T22:21:01Z</time>
      </trkpt>
      <trkpt lat="50.4052" lon="2.32467">
        <ele>129.43469</ele>
        <time>2011-04-16T22:21:12Z</time>
      </trkpt>
      <trkpt lat="50.40511" lon="2.32519">
        <ele>129.91528</ele>
        <time>2011-04-16T22:21:26Z</time>
      </trkpt>
      <trkpt lat="50.40496" lon="2.32578">
        <ele>130.39599</ele>
        <time>2011-04-16T22:21:42Z</time>
      </trkpt>
      <trkpt lat="50.40478" lon="2.32623">
        <ele>131.35729</ele>
        <time>2011-04-16T22:21:55Z</time>
      </trkpt>
      <trkpt lat="50.40469" lon="2.32642">
        <ele>130.8767</ele>
        <time>2011-04-16T22:22:01Z</time>
      </trkpt>
      <trkpt lat="50.40445" lon="2.32701">
        <ele>128.9541</ele>
        <time>2011-04-16T22:22:19Z</time>
      </trkpt>
      <trkpt lat="50.40433" lon="2.32733">
        <ele>127.51196</ele>
        <time>2011-04-16T22:22:29Z</time>
      </trkpt>
      <trkpt lat="50.40418" lon="2.32793">
        <ele>126.55065</ele>
        <time>2011-04-16T22:22:45Z</time>
      </trkpt>
      <trkpt lat="50.40403" lon="2.3286">
        <ele>127.03137</ele>
        <time>2011-04-16T22:23:03Z</time>
      </trkpt>
      <trkpt lat="50.40402" lon="2.32892">
        <ele>127.51196</ele>
        <time>2011-04-16T22:23:11Z</time>
      </trkpt>
      <trkpt lat="50.40407" lon="2.32948">
        <ele>128.9541</ele>
        <time>2011-04-16T22:23:26Z</time>
      </trkpt>
      <trkpt lat="50.40406" lon="2.32984">
        <ele>130.39599</ele>
        <time>2011-04-16T22:23:35Z</time>
      </trkpt>
      <trkpt lat="50.40399" lon="2.33011">
        <ele>131.35729</ele>
        <time>2011-04-16T22:23:42Z</time>
      </trkpt>
      <trkpt lat="50.40384" lon="2.33065">
        <ele>132.79931</ele>
        <time>2011-04-16T22:23:57Z</time>
      </trkpt>
      <trkpt lat="50.40373" lon="2.33103">
        <ele>134.24121</ele>
        <time>2011-04-16T22:24:08Z</time>
      </trkpt>
      <trkpt lat="50.40362" lon="2.33137">
        <ele>135.20251</ele>
        <time>2011-04-16T22:24:18Z</time>
      </trkpt>
      <trkpt lat="50.40346" lon="2.33199">
        <ele>136.64465</ele>
        <time>2011-04-16T22:24:35Z</time>
      </trkpt>
      <trkpt lat="50.40333" lon="2.33246">
        <ele>137.60583</ele>
        <time>2011-04-16T22:24:48Z</time>
      </trkpt>
      <trkpt lat="50.40322" lon="2.33286">
        <ele>138.08654</ele>
        <time>2011-04-16T22:24:59Z</time>
      </trkpt>
      <trkpt lat="50.40311" lon="2.33325">
        <ele>139.04785</ele>
        <time>2011-04-16T22:25:10Z</time>
      </trkpt>
      <trkpt lat="50.40296" lon="2.3338">
        <ele>140.00915</ele>
        <time>2011-04-16T22:25:25Z</time>
      </trkpt>
      <trkpt lat="50.40277" lon="2.33446">
        <ele>140.97045</ele>
        <time>2011-04-16T22:25:44Z</time>
      </trkpt>
      <trkpt lat="50.40261" lon="2.33503">
        <ele>140.97045</ele>
        <time>2011-04-16T22:26:00Z</time>
      </trkpt>
      <trkpt lat="50.40252" lon="2.33535">
        <ele>140.48986</ele>
        <time>2011-04-16T22:26:08Z</time>
      </trkpt>
      <trkpt lat="50.40254" lon="2.33551">
        <ele>140.00915</ele>
        <time>2011-04-16T22:26:12Z</time>
      </trkpt>
      <trkpt lat="50.40258" lon="2.33552">
        <ele>140.00915</ele>
        <time>2011-04-16T22:26:14Z</time>
      </trkpt>
      <trkpt lat="50.40285" lon="2.33555">
        <ele>140.00915</ele>
        <time>2011-04-16T22:26:25Z</time>
      </trkpt>
      <trkpt lat="50.40325" lon="2.33564">
        <ele>139.52844</ele>
        <time>2011-04-16T22:26:41Z</time>
      </trkpt>
      <trkpt lat="50.40363" lon="2.33568">
        <ele>138.08654</ele>
        <time>2011-04-16T22:26:56Z</time>
      </trkpt>
      <trkpt lat="50.4038" lon="2.33568">
        <ele>137.60583</ele>
        <time>2011-04-16T22:27:03Z</time>
      </trkpt>
      <trkpt lat="50.40402" lon="2.33563">
        <ele>137.12524</ele>
        <time>2011-04-16T22:27:12Z</time>
      </trkpt>
      <trkpt lat="50.40447" lon="2.33551">
        <ele>135.6831</ele>
        <time>2011-04-16T22:27:30Z</time>
      </trkpt>
      <trkpt lat="50.40498" lon="2.33528">
        <ele>133.76049</ele>
        <time>2011-04-16T22:27:52Z</time>
      </trkpt>
      <trkpt lat="50.40556" lon="2.3351">
        <ele>131.83789</ele>
        <time>2011-04-16T22:28:15Z</time>
      </trkpt>
      <trkpt lat="50.40608" lon="2.33506">
        <ele>131.35729</ele>
        <time>2011-04-16T22:28:36Z</time>
      </trkpt>
      <trkpt lat="50.40674" lon="2.33517">
        <ele>129.91528</ele>
        <time>2011-04-16T22:29:03Z</time>
      </trkpt>
      <trkpt lat="50.40733" lon="2.33518">
        <ele>127.99255</ele>
        <time>2011-04-16T22:29:26Z</time>
      </trkpt>
      <trkpt lat="50.40792" lon="2.33512">
        <ele>125.58935</ele>
        <time>2011-04-16T22:29:50Z</time>
      </trkpt>
      <trkpt lat="50.40843" lon="2.33493">
        <ele>123.66674</ele>
        <time>2011-04-16T22:30:11Z</time>
      </trkpt>
      <trkpt lat="50.40896" lon="2.33472">
        <ele>121.26354</ele>
        <time>2011-04-16T22:30:33Z</time>
      </trkpt>
      <trkpt lat="50.40935" lon="2.33465">
        <ele>119.34082</ele>
        <time>2011-04-16T22:30:49Z</time>
      </trkpt>
      <trkpt lat="50.40998" lon="2.33456">
        <ele>116.9375</ele>
        <time>2011-04-16T22:31:14Z</time>
      </trkpt>
      <trkpt lat="50.41056" lon="2.33434">
        <ele>111.65026</ele>
        <time>2011-04-16T22:31:38Z</time>
      </trkpt>
      <trkpt lat="50.41093" lon="2.33415">
        <ele>109.24694</ele>
        <time>2011-04-16T22:31:53Z</time>
      </trkpt>
      <trkpt lat="50.41111" lon="2.33406">
        <ele>108.28564</ele>
        <time>2011-04-16T22:32:01Z</time>
      </trkpt>
      <trkpt lat="50.4112" lon="2.33402">
        <ele>107.80505</ele>
        <time>2011-04-16T22:32:04Z</time>
      </trkpt>
      <trkpt lat="50.41173" lon="2.33374">
        <ele>104.44042</ele>
        <time>2011-04-16T22:32:27Z</time>
      </trkpt>
      <trkpt lat="50.41214" lon="2.33363">
        <ele>102.0371</ele>
        <time>2011-04-16T22:32:44Z</time>
      </trkpt>
      <trkpt lat="50.41259" lon="2.33357">
        <ele>100.1145</ele>
        <time>2011-04-16T22:33:02Z</time>
      </trkpt>
      <trkpt lat="50.41269" lon="2.33357">
        <ele>99.633789</ele>
        <time>2011-04-16T22:33:05Z</time>
      </trkpt>
      <trkpt lat="50.41318" lon="2.33368">
        <ele>96.269287</ele>
        <time>2011-04-16T22:33:25Z</time>
      </trkpt>
      <trkpt lat="50.41374" lon="2.33386">
        <ele>91.943237</ele>
        <time>2011-04-16T22:33:48Z</time>
      </trkpt>
      <trkpt lat="50.41423" lon="2.33406">
        <ele>86.656005</ele>
        <time>2011-04-16T22:34:09Z</time>
      </trkpt>
      <trkpt lat="50.41459" lon="2.33425">
        <ele>84.733398</ele>
        <time>2011-04-16T22:34:24Z</time>
      </trkpt>
      <trkpt lat="50.41503" lon="2.33432">
        <ele>83.771972</ele>
        <time>2011-04-16T22:34:41Z</time>
      </trkpt>
      <trkpt lat="50.41568" lon="2.33426">
        <ele>82.810791</ele>
        <time>2011-04-16T22:35:07Z</time>
      </trkpt>
      <trkpt lat="50.41605" lon="2.33425">
        <ele>81.849365</ele>
        <time>2011-04-16T22:35:22Z</time>
      </trkpt>
      <trkpt lat="50.41611" lon="2.33425">
        <ele>81.849365</ele>
        <time>2011-04-16T22:35:25Z</time>
      </trkpt>
      <trkpt lat="50.41621" lon="2.33432">
        <ele>82.330078</ele>
        <time>2011-04-16T22:35:29Z</time>
      </trkpt>
      <trkpt lat="50.41623" lon="2.33456">
        <ele>82.330078</ele>
        <time>2011-04-16T22:35:35Z</time>
      </trkpt>
      <trkpt lat="50.41635" lon="2.33529">
        <ele>83.291381</ele>
        <time>2011-04-16T22:35:55Z</time>
      </trkpt>
      <trkpt lat="50.4164" lon="2.33587">
        <ele>83.771972</ele>
        <time>2011-04-16T22:36:10Z</time>
      </trkpt>
      <trkpt lat="50.41638" lon="2.3365">
        <ele>84.252685</ele>
        <time>2011-04-16T22:36:26Z</time>
      </trkpt>
      <trkpt lat="50.41638" lon="2.33673">
        <ele>83.771972</ele>
        <time>2011-04-16T22:36:31Z</time>
      </trkpt>
      <trkpt lat="50.41637" lon="2.33689">
        <ele>83.771972</ele>
        <time>2011-04-16T22:36:35Z</time>
      </trkpt>
      <trkpt lat="50.4163" lon="2.33756">
        <ele>83.771972</ele>
        <time>2011-04-16T22:36:53Z</time>
      </trkpt>
      <trkpt lat="50.41617" lon="2.33824">
        <ele>86.175293</ele>
        <time>2011-04-16T22:37:11Z</time>
      </trkpt>
      <trkpt lat="50.41614" lon="2.33845">
        <ele>86.656005</ele>
        <time>2011-04-16T22:37:17Z</time>
      </trkpt>
      <trkpt lat="50.41597" lon="2.33927">
        <ele>89.059326</ele>
        <time>2011-04-16T22:37:38Z</time>
      </trkpt>
      <trkpt lat="50.41576" lon="2.34018">
        <ele>90.501342</ele>
        <time>2011-04-16T22:38:03Z</time>
      </trkpt>
      <trkpt lat="50.41561" lon="2.34091">
        <ele>92.42395</ele>
        <time>2011-04-16T22:38:23Z</time>
      </trkpt>
      <trkpt lat="50.41549" lon="2.34151">
        <ele>93.385131</ele>
        <time>2011-04-16T22:38:39Z</time>
      </trkpt>
      <trkpt lat="50.4154" lon="2.34199">
        <ele>93.385131</ele>
        <time>2011-04-16T22:38:51Z</time>
      </trkpt>
      <trkpt lat="50.41534" lon="2.34231">
        <ele>93.865844</ele>
        <time>2011-04-16T22:39:00Z</time>
      </trkpt>
      <trkpt lat="50.41539" lon="2.34251">
        <ele>94.827148</ele>
        <time>2011-04-16T22:39:05Z</time>
      </trkpt>
      <trkpt lat="50.41547" lon="2.34253">
        <ele>95.307739</ele>
        <time>2011-04-16T22:39:09Z</time>
      </trkpt>
      <trkpt lat="50.41552" lon="2.34249">
        <ele>95.788452</ele>
        <time>2011-04-16T22:39:11Z</time>
      </trkpt>
      <trkpt lat="50.41569" lon="2.34231">
        <ele>97.711181</ele>
        <time>2011-04-16T22:39:19Z</time>
      </trkpt>
      <trkpt lat="50.41582" lon="2.34217">
        <ele>99.633789</ele>
        <time>2011-04-16T22:39:26Z</time>
      </trkpt>
      <trkpt lat="50.41596" lon="2.34197">
        <ele>100.59509</ele>
        <time>2011-04-16T22:39:33Z</time>
      </trkpt>
      <trkpt lat="50.41607" lon="2.34177">
        <ele>101.55639</ele>
        <time>2011-04-16T22:39:40Z</time>
      </trkpt>
      <trkpt lat="50.41621" lon="2.34151">
        <ele>101.55639</ele>
        <time>2011-04-16T22:39:48Z</time>
      </trkpt>
      <trkpt lat="50.41636" lon="2.3413">
        <ele>102.99829</ele>
        <time>2011-04-16T22:39:56Z</time>
      </trkpt>
      <trkpt lat="50.41652" lon="2.34116">
        <ele>104.92102</ele>
        <time>2011-04-16T22:40:04Z</time>
      </trkpt>
      <trkpt lat="50.41668" lon="2.34112">
        <ele>106.36303</ele>
        <time>2011-04-16T22:40:10Z</time>
      </trkpt>
      <trkpt lat="50.41688" lon="2.34111">
        <ele>109.24694</ele>
        <time>2011-04-16T22:40:18Z</time>
      </trkpt>
      <trkpt lat="50.41702" lon="2.34112">
        <ele>110.20825</ele>
        <time>2011-04-16T22:40:24Z</time>
      </trkpt>
      <trkpt lat="50.41722" lon="2.34116">
        <ele>110.20825</ele>
        <time>2011-04-16T22:40:32Z</time>
      </trkpt>
      <trkpt lat="50.41744" lon="2.34121">
        <ele>110.68884</ele>
        <time>2011-04-16T22:40:41Z</time>
      </trkpt>
      <trkpt lat="50.41766" lon="2.34126">
        <ele>111.65026</ele>
        <time>2011-04-16T22:40:50Z</time>
      </trkpt>
      <trkpt lat="50.41778" lon="2.3413">
        <ele>112.13098</ele>
        <time>2011-04-16T22:40:55Z</time>
      </trkpt>
      <trkpt lat="50.41791" lon="2.34137">
        <ele>113.09228</ele>
        <time>2011-04-16T22:41:00Z</time>
      </trkpt>
      <trkpt lat="50.41806" lon="2.34145">
        <ele>114.53417</ele>
        <time>2011-04-16T22:41:06Z</time>
      </trkpt>
      <trkpt lat="50.41816" lon="2.34152">
        <ele>114.53417</ele>
        <time>2011-04-16T22:41:11Z</time>
      </trkpt>
      <trkpt lat="50.41836" lon="2.34166">
        <ele>114.53417</ele>
        <time>2011-04-16T22:41:20Z</time>
      </trkpt>
      <trkpt lat="50.41848" lon="2.34175">
        <ele>116.45678</ele>
        <time>2011-04-16T22:41:25Z</time>
      </trkpt>
      <trkpt lat="50.41869" lon="2.34191">
        <ele>113.09228</ele>
        <time>2011-04-16T22:41:34Z</time>
      </trkpt>
      <trkpt lat="50.4189" lon="2.34206">
        <ele>113.09228</ele>
        <time>2011-04-16T22:41:44Z</time>
      </trkpt>
      <trkpt lat="50.41914" lon="2.34222">
        <ele>113.09228</ele>
        <time>2011-04-16T22:41:54Z</time>
      </trkpt>
      <trkpt lat="50.41925" lon="2.34232">
        <ele>113.57299</ele>
        <time>2011-04-16T22:41:59Z</time>
      </trkpt>
      <trkpt lat="50.41927" lon="2.34233">
        <ele>113.57299</ele>
        <time>2011-04-16T22:42:00Z</time>
      </trkpt>
      <trkpt lat="50.41933" lon="2.34233">
        <ele>116.45678</ele>
        <time>2011-04-16T22:42:00Z</time>
      </trkpt>
      <trkpt lat="50.41936" lon="2.34235">
        <ele>116.45678</ele>
        <time>2011-04-16T22:42:01Z</time>
      </trkpt>
      <trkpt lat="50.41953" lon="2.34251">
        <ele>114.05358</ele>
        <time>2011-04-16T22:42:09Z</time>
      </trkpt>
      <trkpt lat="50.41981" lon="2.34281">
        <ele>111.65026</ele>
        <time>2011-04-16T22:42:23Z</time>
      </trkpt>
      <trkpt lat="50.41996" lon="2.34298">
        <ele>110.20825</ele>
        <time>2011-04-16T22:42:30Z</time>
      </trkpt>
      <trkpt lat="50.42011" lon="2.34311">
        <ele>109.72766</ele>
        <time>2011-04-16T22:42:37Z</time>
      </trkpt>
      <trkpt lat="50.42015" lon="2.34315">
        <ele>109.72766</ele>
        <time>2011-04-16T22:42:39Z</time>
      </trkpt>
      <trkpt lat="50.42042" lon="2.34334">
        <ele>112.13098</ele>
        <time>2011-04-16T22:42:50Z</time>
      </trkpt>
      <trkpt lat="50.42066" lon="2.34351">
        <ele>113.57299</ele>
        <time>2011-04-16T22:43:01Z</time>
      </trkpt>
      <trkpt lat="50.42087" lon="2.34366">
        <ele>115.01489</ele>
        <time>2011-04-16T22:43:10Z</time>
      </trkpt>
      <trkpt lat="50.42101" lon="2.34377">
        <ele>116.45678</ele>
        <time>2011-04-16T22:43:16Z</time>
      </trkpt>
      <trkpt lat="50.42111" lon="2.34385">
        <ele>116.9375</ele>
        <time>2011-04-16T22:43:21Z</time>
      </trkpt>
      <trkpt lat="50.42123" lon="2.34394">
        <ele>116.9375</ele>
        <time>2011-04-16T22:43:26Z</time>
      </trkpt>
      <trkpt lat="50.42137" lon="2.34406">
        <ele>116.9375</ele>
        <time>2011-04-16T22:43:33Z</time>
      </trkpt>
      <trkpt lat="50.42153" lon="2.3442">
        <ele>116.45678</ele>
        <time>2011-04-16T22:43:40Z</time>
      </trkpt>
      <trkpt lat="50.4218" lon="2.34445">
        <ele>115.4956</ele>
        <time>2011-04-16T22:43:53Z</time>
      </trkpt>
      <trkpt lat="50.42211" lon="2.34483">
        <ele>113.09228</ele>
        <time>2011-04-16T22:44:08Z</time>
      </trkpt>
      <trkpt lat="50.42235" lon="2.34513">
        <ele>111.16955</ele>
        <time>2011-04-16T22:44:21Z</time>
      </trkpt>
      <trkpt lat="50.42257" lon="2.34539">
        <ele>109.72766</ele>
        <time>2011-04-16T22:44:32Z</time>
      </trkpt>
      <trkpt lat="50.42272" lon="2.34561">
        <ele>109.24694</ele>
        <time>2011-04-16T22:44:40Z</time>
      </trkpt>
      <trkpt lat="50.42281" lon="2.34575">
        <ele>108.76623</ele>
        <time>2011-04-16T22:44:45Z</time>
      </trkpt>
      <trkpt lat="50.42285" lon="2.34583">
        <ele>108.76623</ele>
        <time>2011-04-16T22:44:48Z</time>
      </trkpt>
      <trkpt lat="50.42291" lon="2.34597">
        <ele>108.76623</ele>
        <time>2011-04-16T22:44:52Z</time>
      </trkpt>
      <trkpt lat="50.42317" lon="2.34644">
        <ele>107.32434</ele>
        <time>2011-04-16T22:45:08Z</time>
      </trkpt>
      <trkpt lat="50.42327" lon="2.34661">
        <ele>105.88244</ele>
        <time>2011-04-16T22:45:14Z</time>
      </trkpt>
      <trkpt lat="50.42332" lon="2.34667">
        <ele>105.88244</ele>
        <time>2011-04-16T22:45:16Z</time>
      </trkpt>
      <trkpt lat="50.42348" lon="2.34689">
        <ele>104.92102</ele>
        <time>2011-04-16T22:45:25Z</time>
      </trkpt>
      <trkpt lat="50.4236" lon="2.34706">
        <ele>103.95971</ele>
        <time>2011-04-16T22:45:31Z</time>
      </trkpt>
      <trkpt lat="50.42388" lon="2.34748">
        <ele>103.95971</ele>
        <time>2011-04-16T22:45:47Z</time>
      </trkpt>
      <trkpt lat="50.42413" lon="2.34784">
        <ele>104.92102</ele>
        <time>2011-04-16T22:46:00Z</time>
      </trkpt>
      <trkpt lat="50.42435" lon="2.34812">
        <ele>104.92102</ele>
        <time>2011-04-16T22:46:12Z</time>
      </trkpt>
      <trkpt lat="50.4246" lon="2.34843">
        <ele>106.36303</ele>
        <time>2011-04-16T22:46:24Z</time>
      </trkpt>
      <trkpt lat="50.42481" lon="2.34861">
        <ele>108.76623</ele>
        <time>2011-04-16T22:46:34Z</time>
      </trkpt>
      <trkpt lat="50.4251" lon="2.34884">
        <ele>113.09228</ele>
        <time>2011-04-16T22:46:47Z</time>
      </trkpt>
      <trkpt lat="50.42528" lon="2.34896">
        <ele>114.05358</ele>
        <time>2011-04-16T22:46:55Z</time>
      </trkpt>
      <trkpt lat="50.42552" lon="2.34909">
        <ele>115.01489</ele>
        <time>2011-04-16T22:47:05Z</time>
      </trkpt>
      <trkpt lat="50.42557" lon="2.34912">
        <ele>115.01489</ele>
        <time>2011-04-16T22:47:07Z</time>
      </trkpt>
      <trkpt lat="50.42583" lon="2.34929">
        <ele>115.97619</ele>
        <time>2011-04-16T22:47:18Z</time>
      </trkpt>
      <trkpt lat="50.42587" lon="2.34932">
        <ele>115.4956</ele>
        <time>2011-04-16T22:47:20Z</time>
      </trkpt>
      <trkpt lat="50.42601" lon="2.34929">
        <ele>116.9375</ele>
        <time>2011-04-16T22:47:26Z</time>
      </trkpt>
      <trkpt lat="50.42601" lon="2.34925">
        <ele>117.41821</ele>
        <time>2011-04-16T22:47:27Z</time>
      </trkpt>
      <trkpt lat="50.42604" lon="2.349">
        <ele>119.82141</ele>
        <time>2011-04-16T22:47:33Z</time>
      </trkpt>
      <trkpt lat="50.42605" lon="2.34889">
        <ele>119.82141</ele>
        <time>2011-04-16T22:47:36Z</time>
      </trkpt>
      <trkpt lat="50.42606" lon="2.34868">
        <ele>121.26354</ele>
        <time>2011-04-16T22:47:41Z</time>
      </trkpt>
      <trkpt lat="50.42605" lon="2.34854">
        <ele>123.18615</ele>
        <time>2011-04-16T22:47:45Z</time>
      </trkpt>
      <trkpt lat="50.42605" lon="2.34835">
        <ele>124.62805</ele>
        <time>2011-04-16T22:47:50Z</time>
      </trkpt>
      <trkpt lat="50.42604" lon="2.34816">
        <ele>126.06994</ele>
        <time>2011-04-16T22:47:55Z</time>
      </trkpt>
      <trkpt lat="50.426" lon="2.34795">
        <ele>126.55065</ele>
        <time>2011-04-16T22:48:00Z</time>
      </trkpt>
      <trkpt lat="50.42593" lon="2.34768">
        <ele>127.03137</ele>
        <time>2011-04-16T22:48:08Z</time>
      </trkpt>
      <trkpt lat="50.42591" lon="2.34759">
        <ele>127.03137</ele>
        <time>2011-04-16T22:48:10Z</time>
      </trkpt>
      <trkpt lat="50.42598" lon="2.34747">
        <ele>128.9541</ele>
        <time>2011-04-16T22:48:14Z</time>
      </trkpt>
      <trkpt lat="50.42601" lon="2.34745">
        <ele>129.43469</ele>
        <time>2011-04-16T22:48:15Z</time>
      </trkpt>
      <trkpt lat="50.42618" lon="2.34734">
        <ele>131.35729</ele>
        <time>2011-04-16T22:48:23Z</time>
      </trkpt>
      <trkpt lat="50.42636" lon="2.34722">
        <ele>132.79931</ele>
        <time>2011-04-16T22:48:31Z</time>
      </trkpt>
      <trkpt lat="50.42656" lon="2.34709">
        <ele>134.24121</ele>
        <time>2011-04-16T22:48:39Z</time>
      </trkpt>
      <trkpt lat="50.4268" lon="2.34693">
        <ele>135.6831</ele>
        <time>2011-04-16T22:48:50Z</time>
      </trkpt>
      <trkpt lat="50.42707" lon="2.34675">
        <ele>137.12524</ele>
        <time>2011-04-16T22:49:01Z</time>
      </trkpt>
      <trkpt lat="50.42734" lon="2.34658">
        <ele>137.60583</ele>
        <time>2011-04-16T22:49:13Z</time>
      </trkpt>
      <trkpt lat="50.42763" lon="2.3464">
        <ele>138.56726</ele>
        <time>2011-04-16T22:49:26Z</time>
      </trkpt>
      <trkpt lat="50.42791" lon="2.34621">
        <ele>140.97045</ele>
        <time>2011-04-16T22:49:38Z</time>
      </trkpt>
      <trkpt lat="50.42811" lon="2.34608">
        <ele>142.41247</ele>
        <time>2011-04-16T22:49:47Z</time>
      </trkpt>
      <trkpt lat="50.42831" lon="2.34595">
        <ele>144.3352</ele>
        <time>2011-04-16T22:49:55Z</time>
      </trkpt>
      <trkpt lat="50.42849" lon="2.34582">
        <ele>145.77709</ele>
        <time>2011-04-16T22:50:03Z</time>
      </trkpt>
      <trkpt lat="50.42871" lon="2.34568">
        <ele>147.21899</ele>
        <time>2011-04-16T22:50:13Z</time>
      </trkpt>
      <trkpt lat="50.42891" lon="2.34554">
        <ele>147.6997</ele>
        <time>2011-04-16T22:50:21Z</time>
      </trkpt>
      <trkpt lat="50.4292" lon="2.34536">
        <ele>148.66101</ele>
        <time>2011-04-16T22:50:34Z</time>
      </trkpt>
      <trkpt lat="50.42931" lon="2.34544">
        <ele>148.66101</ele>
        <time>2011-04-16T22:50:38Z</time>
      </trkpt>
      <trkpt lat="50.42953" lon="2.34572">
        <ele>148.66101</ele>
        <time>2011-04-16T22:50:50Z</time>
      </trkpt>
      <trkpt lat="50.42984" lon="2.34605">
        <ele>147.6997</ele>
        <time>2011-04-16T22:51:05Z</time>
      </trkpt>
      <trkpt lat="50.43018" lon="2.34644">
        <ele>147.6997</ele>
        <time>2011-04-16T22:51:22Z</time>
      </trkpt>
      <trkpt lat="50.43044" lon="2.34674">
        <ele>146.7384</ele>
        <time>2011-04-16T22:51:35Z</time>
      </trkpt>
      <trkpt lat="50.43082" lon="2.34718">
        <ele>146.7384</ele>
        <time>2011-04-16T22:51:54Z</time>
      </trkpt>
      <trkpt lat="50.4312" lon="2.34763">
        <ele>146.25781</ele>
        <time>2011-04-16T22:52:13Z</time>
      </trkpt>
      <trkpt lat="50.43132" lon="2.34778">
        <ele>146.25781</ele>
        <time>2011-04-16T22:52:19Z</time>
      </trkpt>
      <trkpt lat="50.43151" lon="2.34824">
        <ele>143.85437</ele>
        <time>2011-04-16T22:52:33Z</time>
      </trkpt>
      <trkpt lat="50.43171" lon="2.34885">
        <ele>140.48986</ele>
        <time>2011-04-16T22:52:50Z</time>
      </trkpt>
      <trkpt lat="50.43179" lon="2.34906">
        <ele>140.00915</ele>
        <time>2011-04-16T22:52:56Z</time>
      </trkpt>
      <trkpt lat="50.43178" lon="2.34935">
        <ele>139.52844</ele>
        <time>2011-04-16T22:53:04Z</time>
      </trkpt>
      <trkpt lat="50.43167" lon="2.34945">
        <ele>139.04785</ele>
        <time>2011-04-16T22:53:09Z</time>
      </trkpt>
      <trkpt lat="50.43113" lon="2.34979">
        <ele>137.12524</ele>
        <time>2011-04-16T22:53:32Z</time>
      </trkpt>
      <trkpt lat="50.43102" lon="2.34989">
        <ele>137.12524</ele>
        <time>2011-04-16T22:53:37Z</time>
      </trkpt>
      <trkpt lat="50.43077" lon="2.35028">
        <ele>137.12524</ele>
        <time>2011-04-16T22:53:51Z</time>
      </trkpt>
      <trkpt lat="50.43064" lon="2.35053">
        <ele>138.56726</ele>
        <time>2011-04-16T22:54:00Z</time>
      </trkpt>
      <trkpt lat="50.43053" lon="2.35075">
        <ele>140.97045</ele>
        <time>2011-04-16T22:54:07Z</time>
      </trkpt>
      <trkpt lat="50.43049" lon="2.35083">
        <ele>141.45104</ele>
        <time>2011-04-16T22:54:10Z</time>
      </trkpt>
      <trkpt lat="50.43032" lon="2.35117">
        <ele>142.89306</ele>
        <time>2011-04-16T22:54:20Z</time>
      </trkpt>
      <trkpt lat="50.43016" lon="2.35152">
        <ele>143.37365</ele>
        <time>2011-04-16T22:54:31Z</time>
      </trkpt>
      <trkpt lat="50.42991" lon="2.35202">
        <ele>143.85437</ele>
        <time>2011-04-16T22:54:48Z</time>
      </trkpt>
      <trkpt lat="50.42972" lon="2.35241">
        <ele>143.85437</ele>
        <time>2011-04-16T22:55:00Z</time>
      </trkpt>
      <trkpt lat="50.42963" lon="2.35263">
        <ele>143.85437</ele>
        <time>2011-04-16T22:55:07Z</time>
      </trkpt>
      <trkpt lat="50.42963" lon="2.35298">
        <ele>142.89306</ele>
        <time>2011-04-16T22:55:16Z</time>
      </trkpt>
      <trkpt lat="50.42968" lon="2.35314">
        <ele>143.37365</ele>
        <time>2011-04-16T22:55:20Z</time>
      </trkpt>
      <trkpt lat="50.42973" lon="2.35329">
        <ele>143.37365</ele>
        <time>2011-04-16T22:55:25Z</time>
      </trkpt>
      <trkpt lat="50.42984" lon="2.35377">
        <ele>144.3352</ele>
        <time>2011-04-16T22:55:38Z</time>
      </trkpt>
      <trkpt lat="50.42998" lon="2.35427">
        <ele>145.77709</ele>
        <time>2011-04-16T22:55:52Z</time>
      </trkpt>
      <trkpt lat="50.43012" lon="2.35479">
        <ele>146.25781</ele>
        <time>2011-04-16T22:56:06Z</time>
      </trkpt>
      <trkpt lat="50.43024" lon="2.35516">
        <ele>146.25781</ele>
        <time>2011-04-16T22:56:17Z</time>
      </trkpt>
      <trkpt lat="50.43024" lon="2.35553">
        <ele>145.77709</ele>
        <time>2011-04-16T22:56:26Z</time>
      </trkpt>
      <trkpt lat="50.43015" lon="2.35579">
        <ele>145.29638</ele>
        <time>2011-04-16T22:56:33Z</time>
      </trkpt>
      <trkpt lat="50.43011" lon="2.35583">
        <ele>144.81579</ele>
        <time>2011-04-16T22:56:36Z</time>
      </trkpt>
      <trkpt lat="50.42975" lon="2.3561">
        <ele>142.89306</ele>
        <time>2011-04-16T22:56:51Z</time>
      </trkpt>
      <trkpt lat="50.42941" lon="2.35637">
        <ele>141.93176</ele>
        <time>2011-04-16T22:57:07Z</time>
      </trkpt>
      <trkpt lat="50.42896" lon="2.35669">
        <ele>142.41247</ele>
        <time>2011-04-16T22:57:27Z</time>
      </trkpt>
      <trkpt lat="50.42868" lon="2.35687">
        <ele>143.85437</ele>
        <time>2011-04-16T22:57:39Z</time>
      </trkpt>
      <trkpt lat="50.4285" lon="2.35709">
        <ele>144.81579</ele>
        <time>2011-04-16T22:57:48Z</time>
      </trkpt>
      <trkpt lat="50.42839" lon="2.35752">
        <ele>144.81579</ele>
        <time>2011-04-16T22:57:59Z</time>
      </trkpt>
      <trkpt lat="50.42845" lon="2.35779">
        <ele>144.3352</ele>
        <time>2011-04-16T22:58:07Z</time>
      </trkpt>
      <trkpt lat="50.42852" lon="2.35794">
        <ele>144.3352</ele>
        <time>2011-04-16T22:58:11Z</time>
      </trkpt>
      <trkpt lat="50.4289" lon="2.35847">
        <ele>144.81579</ele>
        <time>2011-04-16T22:58:32Z</time>
      </trkpt>
      <trkpt lat="50.42918" lon="2.35887">
        <ele>145.29638</ele>
        <time>2011-04-16T22:58:47Z</time>
      </trkpt>
      <trkpt lat="50.42948" lon="2.35937">
        <ele>145.29638</ele>
        <time>2011-04-16T22:59:05Z</time>
      </trkpt>
      <trkpt lat="50.42969" lon="2.35987">
        <ele>147.21899</ele>
        <time>2011-04-16T22:59:20Z</time>
      </trkpt>
      <trkpt lat="50.42991" lon="2.36045">
        <ele>149.1416</ele>
        <time>2011-04-16T22:59:37Z</time>
      </trkpt>
      <trkpt lat="50.43013" lon="2.36109">
        <ele>150.10302</ele>
        <time>2011-04-16T22:59:56Z</time>
      </trkpt>
      <trkpt lat="50.43033" lon="2.36174">
        <ele>151.0642</ele>
        <time>2011-04-16T23:00:14Z</time>
      </trkpt>
      <trkpt lat="50.4305" lon="2.36239">
        <ele>151.54492</ele>
        <time>2011-04-16T23:00:32Z</time>
      </trkpt>
      <trkpt lat="50.4306" lon="2.36284">
        <ele>152.50634</ele>
        <time>2011-04-16T23:00:44Z</time>
      </trkpt>
      <trkpt lat="50.43064" lon="2.36292">
        <ele>152.98693</ele>
        <time>2011-04-16T23:00:47Z</time>
      </trkpt>
      <trkpt lat="50.43068" lon="2.36301">
        <ele>152.98693</ele>
        <time>2011-04-16T23:00:50Z</time>
      </trkpt>
      <trkpt lat="50.4308" lon="2.36319">
        <ele>153.46765</ele>
        <time>2011-04-16T23:00:56Z</time>
      </trkpt>
      <trkpt lat="50.43111" lon="2.36347">
        <ele>154.90954</ele>
        <time>2011-04-16T23:01:10Z</time>
      </trkpt>
      <trkpt lat="50.43145" lon="2.36377">
        <ele>156.83215</ele>
        <time>2011-04-16T23:01:26Z</time>
      </trkpt>
      <trkpt lat="50.43189" lon="2.36416">
        <ele>157.79357</ele>
        <time>2011-04-16T23:01:46Z</time>
      </trkpt>
      <trkpt lat="50.43225" lon="2.36454">
        <ele>157.31286</ele>
        <time>2011-04-16T23:02:04Z</time>
      </trkpt>
      <trkpt lat="50.43262" lon="2.36504">
        <ele>158.27416</ele>
        <time>2011-04-16T23:02:23Z</time>
      </trkpt>
      <trkpt lat="50.43291" lon="2.36548">
        <ele>158.75476</ele>
        <time>2011-04-16T23:02:39Z</time>
      </trkpt>
      <trkpt lat="50.43318" lon="2.36597">
        <ele>158.75476</ele>
        <time>2011-04-16T23:02:56Z</time>
      </trkpt>
      <trkpt lat="50.43342" lon="2.36645">
        <ele>159.23547</ele>
        <time>2011-04-16T23:03:12Z</time>
      </trkpt>
      <trkpt lat="50.43373" lon="2.36704">
        <ele>160.19689</ele>
        <time>2011-04-16T23:03:31Z</time>
      </trkpt>
      <trkpt lat="50.43392" lon="2.36741">
        <ele>161.1582</ele>
        <time>2011-04-16T23:03:43Z</time>
      </trkpt>
      <trkpt lat="50.43419" lon="2.36794">
        <ele>161.1582</ele>
        <time>2011-04-16T23:04:00Z</time>
      </trkpt>
      <trkpt lat="50.43422" lon="2.368">
        <ele>161.1582</ele>
        <time>2011-04-16T23:04:02Z</time>
      </trkpt>
      <trkpt lat="50.43421" lon="2.36821">
        <ele>161.1582</ele>
        <time>2011-04-16T23:04:08Z</time>
      </trkpt>
      <trkpt lat="50.43407" lon="2.3683">
        <ele>160.67749</ele>
        <time>2011-04-16T23:04:14Z</time>
      </trkpt>
      <trkpt lat="50.43403" lon="2.36832">
        <ele>160.67749</ele>
        <time>2011-04-16T23:04:15Z</time>
      </trkpt>
      <trkpt lat="50.43364" lon="2.36854">
        <ele>159.71618</ele>
        <time>2011-04-16T23:04:32Z</time>
      </trkpt>
      <trkpt lat="50.43324" lon="2.36893">
        <ele>158.75476</ele>
        <time>2011-04-16T23:04:51Z</time>
      </trkpt>
      <trkpt lat="50.43289" lon="2.36925">
        <ele>158.75476</ele>
        <time>2011-04-16T23:05:07Z</time>
      </trkpt>
      <trkpt lat="50.43245" lon="2.36951">
        <ele>158.27416</ele>
        <time>2011-04-16T23:05:26Z</time>
      </trkpt>
      <trkpt lat="50.4324" lon="2.36954">
        <ele>158.27416</ele>
        <time>2011-04-16T23:05:28Z</time>
      </trkpt>
      <trkpt lat="50.43226" lon="2.36977">
        <ele>157.79357</ele>
        <time>2011-04-16T23:05:36Z</time>
      </trkpt>
      <trkpt lat="50.43205" lon="2.3703">
        <ele>157.79357</ele>
        <time>2011-04-16T23:05:52Z</time>
      </trkpt>
      <trkpt lat="50.43188" lon="2.37068">
        <ele>157.79357</ele>
        <time>2011-04-16T23:06:04Z</time>
      </trkpt>
      <trkpt lat="50.43161" lon="2.37135">
        <ele>156.83215</ele>
        <time>2011-04-16T23:06:24Z</time>
      </trkpt>
      <trkpt lat="50.43147" lon="2.3717">
        <ele>155.87097</ele>
        <time>2011-04-16T23:06:34Z</time>
      </trkpt>
      <trkpt lat="50.43134" lon="2.37204">
        <ele>155.39025</ele>
        <time>2011-04-16T23:06:45Z</time>
      </trkpt>
      <trkpt lat="50.43114" lon="2.37247">
        <ele>154.90954</ele>
        <time>2011-04-16T23:06:58Z</time>
      </trkpt>
      <trkpt lat="50.43101" lon="2.37272">
        <ele>154.90954</ele>
        <time>2011-04-16T23:07:07Z</time>
      </trkpt>
      <trkpt lat="50.43086" lon="2.37295">
        <ele>155.39025</ele>
        <time>2011-04-16T23:07:15Z</time>
      </trkpt>
      <trkpt lat="50.4306" lon="2.37327">
        <ele>155.87097</ele>
        <time>2011-04-16T23:07:28Z</time>
      </trkpt>
      <trkpt lat="50.43038" lon="2.37356">
        <ele>155.87097</ele>
        <time>2011-04-16T23:07:39Z</time>
      </trkpt>
      <trkpt lat="50.43018" lon="2.37382">
        <ele>155.87097</ele>
        <time>2011-04-16T23:07:50Z</time>
      </trkpt>
      <trkpt lat="50.42993" lon="2.37415">
        <ele>155.39025</ele>
        <time>2011-04-16T23:08:03Z</time>
      </trkpt>
      <trkpt lat="50.42971" lon="2.37446">
        <ele>155.39025</ele>
        <time>2011-04-16T23:08:15Z</time>
      </trkpt>
      <trkpt lat="50.42953" lon="2.37484">
        <ele>155.87097</ele>
        <time>2011-04-16T23:08:27Z</time>
      </trkpt>
      <trkpt lat="50.42951" lon="2.37493">
        <ele>155.39025</ele>
        <time>2011-04-16T23:08:29Z</time>
      </trkpt>
      <trkpt lat="50.42929" lon="2.37569">
        <ele>155.87097</ele>
        <time>2011-04-16T23:08:51Z</time>
      </trkpt>
      <trkpt lat="50.42924" lon="2.37592">
        <ele>156.35156</ele>
        <time>2011-04-16T23:08:57Z</time>
      </trkpt>
      <trkpt lat="50.4291" lon="2.37647">
        <ele>157.31286</ele>
        <time>2011-04-16T23:09:12Z</time>
      </trkpt>
      <trkpt lat="50.42903" lon="2.37684">
        <ele>157.79357</ele>
        <time>2011-04-16T23:09:22Z</time>
      </trkpt>
      <trkpt lat="50.42896" lon="2.37745">
        <ele>158.27416</ele>
        <time>2011-04-16T23:09:38Z</time>
      </trkpt>
      <trkpt lat="50.4289" lon="2.3781">
        <ele>158.75476</ele>
        <time>2011-04-16T23:09:54Z</time>
      </trkpt>
      <trkpt lat="50.42885" lon="2.37852">
        <ele>159.71618</ele>
        <time>2011-04-16T23:10:05Z</time>
      </trkpt>
      <trkpt lat="50.42879" lon="2.3787">
        <ele>160.19689</ele>
        <time>2011-04-16T23:10:10Z</time>
      </trkpt>
      <trkpt lat="50.42866" lon="2.37895">
        <ele>160.19689</ele>
        <time>2011-04-16T23:10:19Z</time>
      </trkpt>
      <trkpt lat="50.42857" lon="2.37915">
        <ele>159.71618</ele>
        <time>2011-04-16T23:10:25Z</time>
      </trkpt>
      <trkpt lat="50.42861" lon="2.37935">
        <ele>159.71618</ele>
        <time>2011-04-16T23:10:30Z</time>
      </trkpt>
      <trkpt lat="50.42873" lon="2.37961">
        <ele>159.71618</ele>
        <time>2011-04-16T23:10:38Z</time>
      </trkpt>
      <trkpt lat="50.42888" lon="2.37988">
        <ele>158.75476</ele>
        <time>2011-04-16T23:10:48Z</time>
      </trkpt>
      <trkpt lat="50.42914" lon="2.37999">
        <ele>158.75476</ele>
        <time>2011-04-16T23:10:58Z</time>
      </trkpt>
      <trkpt lat="50.42932" lon="2.38007">
        <ele>158.75476</ele>
        <time>2011-04-16T23:11:06Z</time>
      </trkpt>
      <trkpt lat="50.42954" lon="2.38019">
        <ele>158.27416</ele>
        <time>2011-04-16T23:11:15Z</time>
      </trkpt>
      <trkpt lat="50.42988" lon="2.38036">
        <ele>157.79357</ele>
        <time>2011-04-16T23:11:29Z</time>
      </trkpt>
      <trkpt lat="50.43019" lon="2.38053">
        <ele>157.79357</ele>
        <time>2011-04-16T23:11:43Z</time>
      </trkpt>
      <trkpt lat="50.43037" lon="2.38054">
        <ele>157.31286</ele>
        <time>2011-04-16T23:11:50Z</time>
      </trkpt>
      <trkpt lat="50.43056" lon="2.38036">
        <ele>158.27416</ele>
        <time>2011-04-16T23:11:59Z</time>
      </trkpt>
      <trkpt lat="50.43058" lon="2.38029">
        <ele>158.27416</ele>
        <time>2011-04-16T23:12:01Z</time>
      </trkpt>
      <trkpt lat="50.43062" lon="2.38014">
        <ele>158.75476</ele>
        <time>2011-04-16T23:12:05Z</time>
      </trkpt>
      <trkpt lat="50.43086" lon="2.37958">
        <ele>159.71618</ele>
        <time>2011-04-16T23:12:22Z</time>
      </trkpt>
      <trkpt lat="50.43115" lon="2.37905">
        <ele>159.71618</ele>
        <time>2011-04-16T23:12:40Z</time>
      </trkpt>
      <trkpt lat="50.4314" lon="2.37854">
        <ele>158.75476</ele>
        <time>2011-04-16T23:12:56Z</time>
      </trkpt>
      <trkpt lat="50.4317" lon="2.37797">
        <ele>159.23547</ele>
        <time>2011-04-16T23:13:15Z</time>
      </trkpt>
      <trkpt lat="50.43175" lon="2.37785">
        <ele>159.23547</ele>
        <time>2011-04-16T23:13:19Z</time>
      </trkpt>
      <trkpt lat="50.4319" lon="2.37775">
        <ele>159.23547</ele>
        <time>2011-04-16T23:13:25Z</time>
      </trkpt>
      <trkpt lat="50.43197" lon="2.3778">
        <ele>159.23547</ele>
        <time>2011-04-16T23:13:28Z</time>
      </trkpt>
      <trkpt lat="50.43208" lon="2.37792">
        <ele>158.75476</ele>
        <time>2011-04-16T23:13:34Z</time>
      </trkpt>
      <trkpt lat="50.43232" lon="2.37822">
        <ele>157.31286</ele>
        <time>2011-04-16T23:13:46Z</time>
      </trkpt>
      <trkpt lat="50.43235" lon="2.37826">
        <ele>156.83215</ele>
        <time>2011-04-16T23:13:47Z</time>
      </trkpt>
      <trkpt lat="50.43244" lon="2.37837">
        <ele>155.39025</ele>
        <time>2011-04-16T23:13:52Z</time>
      </trkpt>
      <trkpt lat="50.43246" lon="2.3785">
        <ele>154.90954</ele>
        <time>2011-04-16T23:13:56Z</time>
      </trkpt>
      <trkpt lat="50.43248" lon="2.37839">
        <ele>162.1195</ele>
        <time>2011-04-16T23:13:56Z</time>
      </trkpt>
      <trkpt lat="50.4325" lon="2.3784">
        <ele>162.1195</ele>
        <time>2011-04-16T23:13:57Z</time>
      </trkpt>
      <trkpt lat="50.43253" lon="2.37844">
        <ele>161.63891</ele>
        <time>2011-04-16T23:13:58Z</time>
      </trkpt>
      <trkpt lat="50.43256" lon="2.37847">
        <ele>161.1582</ele>
        <time>2011-04-16T23:14:00Z</time>
      </trkpt>
      <trkpt lat="50.43265" lon="2.37858">
        <ele>160.19689</ele>
        <time>2011-04-16T23:14:04Z</time>
      </trkpt>
      <trkpt lat="50.43278" lon="2.37876">
        <ele>159.23547</ele>
        <time>2011-04-16T23:14:11Z</time>
      </trkpt>
      <trkpt lat="50.4329" lon="2.37899">
        <ele>159.23547</ele>
        <time>2011-04-16T23:14:19Z</time>
      </trkpt>
      <trkpt lat="50.433" lon="2.37917">
        <ele>159.23547</ele>
        <time>2011-04-16T23:14:25Z</time>
      </trkpt>
      <trkpt lat="50.43309" lon="2.37939">
        <ele>157.79357</ele>
        <time>2011-04-16T23:14:31Z</time>
      </trkpt>
      <trkpt lat="50.43316" lon="2.3796">
        <ele>155.87097</ele>
        <time>2011-04-16T23:14:38Z</time>
      </trkpt>
      <trkpt lat="50.43318" lon="2.37972">
        <ele>154.42895</ele>
        <time>2011-04-16T23:14:41Z</time>
      </trkpt>
      <trkpt lat="50.43325" lon="2.37987">
        <ele>152.02575</ele>
        <time>2011-04-16T23:14:45Z</time>
      </trkpt>
      <trkpt lat="50.43339" lon="2.38008">
        <ele>149.62231</ele>
        <time>2011-04-16T23:14:53Z</time>
      </trkpt>
      <trkpt lat="50.43365" lon="2.38036">
        <ele>147.21899</ele>
        <time>2011-04-16T23:15:06Z</time>
      </trkpt>
      <trkpt lat="50.43385" lon="2.3806">
        <ele>146.7384</ele>
        <time>2011-04-16T23:15:16Z</time>
      </trkpt>
      <trkpt lat="50.43394" lon="2.38069">
        <ele>146.7384</ele>
        <time>2011-04-16T23:15:20Z</time>
      </trkpt>
      <trkpt lat="50.43415" lon="2.38089">
        <ele>148.18041</ele>
        <time>2011-04-16T23:15:30Z</time>
      </trkpt>
      <trkpt lat="50.43425" lon="2.38098">
        <ele>146.7384</ele>
        <time>2011-04-16T23:15:34Z</time>
      </trkpt>
      <trkpt lat="50.43449" lon="2.38111">
        <ele>147.6997</ele>
        <time>2011-04-16T23:15:45Z</time>
      </trkpt>
      <trkpt lat="50.43458" lon="2.38117">
        <ele>147.21899</ele>
        <time>2011-04-16T23:15:49Z</time>
      </trkpt>
      <trkpt lat="50.43479" lon="2.38144">
        <ele>146.7384</ele>
        <time>2011-04-16T23:15:59Z</time>
      </trkpt>
      <trkpt lat="50.43497" lon="2.38181">
        <ele>147.6997</ele>
        <time>2011-04-16T23:16:11Z</time>
      </trkpt>
      <trkpt lat="50.43495" lon="2.38191">
        <ele>147.6997</ele>
        <time>2011-04-16T23:16:14Z</time>
      </trkpt>
      <trkpt lat="50.43492" lon="2.38194">
        <ele>147.6997</ele>
        <time>2011-04-16T23:16:15Z</time>
      </trkpt>
      <trkpt lat="50.43463" lon="2.38215">
        <ele>147.21899</ele>
        <time>2011-04-16T23:16:28Z</time>
      </trkpt>
      <trkpt lat="50.43435" lon="2.38234">
        <ele>147.21899</ele>
        <time>2011-04-16T23:16:40Z</time>
      </trkpt>
      <trkpt lat="50.43414" lon="2.3825">
        <ele>147.21899</ele>
        <time>2011-04-16T23:16:50Z</time>
      </trkpt>
      <trkpt lat="50.4341" lon="2.38253">
        <ele>147.6997</ele>
        <time>2011-04-16T23:16:51Z</time>
      </trkpt>
      <trkpt lat="50.43395" lon="2.38273">
        <ele>149.1416</ele>
        <time>2011-04-16T23:16:59Z</time>
      </trkpt>
      <trkpt lat="50.43383" lon="2.38295">
        <ele>150.58361</ele>
        <time>2011-04-16T23:17:07Z</time>
      </trkpt>
      <trkpt lat="50.43372" lon="2.38313">
        <ele>151.54492</ele>
        <time>2011-04-16T23:17:13Z</time>
      </trkpt>
      <trkpt lat="50.43354" lon="2.38345">
        <ele>152.02575</ele>
        <time>2011-04-16T23:17:24Z</time>
      </trkpt>
      <trkpt lat="50.43341" lon="2.38369">
        <ele>152.02575</ele>
        <time>2011-04-16T23:17:32Z</time>
      </trkpt>
      <trkpt lat="50.43323" lon="2.38404">
        <ele>151.54492</ele>
        <time>2011-04-16T23:17:43Z</time>
      </trkpt>
      <trkpt lat="50.43317" lon="2.38416">
        <ele>151.0642</ele>
        <time>2011-04-16T23:17:47Z</time>
      </trkpt>
      <trkpt lat="50.43301" lon="2.38444">
        <ele>149.62231</ele>
        <time>2011-04-16T23:17:57Z</time>
      </trkpt>
      <trkpt lat="50.43289" lon="2.38466">
        <ele>149.62231</ele>
        <time>2011-04-16T23:18:04Z</time>
      </trkpt>
      <trkpt lat="50.43256" lon="2.3851">
        <ele>150.10302</ele>
        <time>2011-04-16T23:18:22Z</time>
      </trkpt>
      <trkpt lat="50.43225" lon="2.38541">
        <ele>151.54492</ele>
        <time>2011-04-16T23:18:36Z</time>
      </trkpt>
      <trkpt lat="50.43222" lon="2.38544">
        <ele>151.54492</ele>
        <time>2011-04-16T23:18:38Z</time>
      </trkpt>
      <trkpt lat="50.43209" lon="2.38552">
        <ele>151.54492</ele>
        <time>2011-04-16T23:18:43Z</time>
      </trkpt>
      <trkpt lat="50.43191" lon="2.38561">
        <ele>152.02575</ele>
        <time>2011-04-16T23:18:51Z</time>
      </trkpt>
      <trkpt lat="50.43177" lon="2.38566">
        <ele>152.02575</ele>
        <time>2011-04-16T23:18:57Z</time>
      </trkpt>
      <trkpt lat="50.43154" lon="2.38572">
        <ele>151.54492</ele>
        <time>2011-04-16T23:19:06Z</time>
      </trkpt>
      <trkpt lat="50.43135" lon="2.38578">
        <ele>151.0642</ele>
        <time>2011-04-16T23:19:14Z</time>
      </trkpt>
      <trkpt lat="50.43118" lon="2.38582">
        <ele>151.0642</ele>
        <time>2011-04-16T23:19:21Z</time>
      </trkpt>
      <trkpt lat="50.43098" lon="2.38585">
        <ele>151.0642</ele>
        <time>2011-04-16T23:19:29Z</time>
      </trkpt>
      <trkpt lat="50.43083" lon="2.38582">
        <ele>151.0642</ele>
        <time>2011-04-16T23:19:35Z</time>
      </trkpt>
      <trkpt lat="50.43063" lon="2.38569">
        <ele>152.02575</ele>
        <time>2011-04-16T23:19:43Z</time>
      </trkpt>
      <trkpt lat="50.43055" lon="2.3856">
        <ele>152.50634</ele>
        <time>2011-04-16T23:19:47Z</time>
      </trkpt>
      <trkpt lat="50.43042" lon="2.38566">
        <ele>152.98693</ele>
        <time>2011-04-16T23:19:53Z</time>
      </trkpt>
      <trkpt lat="50.43042" lon="2.38573">
        <ele>152.98693</ele>
        <time>2011-04-16T23:19:54Z</time>
      </trkpt>
      <trkpt lat="50.43039" lon="2.38642">
        <ele>152.50634</ele>
        <time>2011-04-16T23:20:12Z</time>
      </trkpt>
      <trkpt lat="50.43038" lon="2.38651">
        <ele>152.50634</ele>
        <time>2011-04-16T23:20:14Z</time>
      </trkpt>
      <trkpt lat="50.43044" lon="2.38727">
        <ele>151.54492</ele>
        <time>2011-04-16T23:20:34Z</time>
      </trkpt>
      <trkpt lat="50.43056" lon="2.38824">
        <ele>151.0642</ele>
        <time>2011-04-16T23:20:59Z</time>
      </trkpt>
      <trkpt lat="50.43073" lon="2.38946">
        <ele>151.0642</ele>
        <time>2011-04-16T23:21:31Z</time>
      </trkpt>
      <trkpt lat="50.43086" lon="2.3904">
        <ele>151.54492</ele>
        <time>2011-04-16T23:21:56Z</time>
      </trkpt>
      <trkpt lat="50.43095" lon="2.39093">
        <ele>152.50634</ele>
        <time>2011-04-16T23:22:09Z</time>
      </trkpt>
      <trkpt lat="50.43107" lon="2.39169">
        <ele>153.46765</ele>
        <time>2011-04-16T23:22:29Z</time>
      </trkpt>
      <trkpt lat="50.43124" lon="2.39259">
        <ele>153.46765</ele>
        <time>2011-04-16T23:22:53Z</time>
      </trkpt>
      <trkpt lat="50.4314" lon="2.39351">
        <ele>153.94836</ele>
        <time>2011-04-16T23:23:18Z</time>
      </trkpt>
      <trkpt lat="50.4315" lon="2.39409">
        <ele>154.42895</ele>
        <time>2011-04-16T23:23:33Z</time>
      </trkpt>
      <trkpt lat="50.43161" lon="2.39448">
        <ele>154.90954</ele>
        <time>2011-04-16T23:23:44Z</time>
      </trkpt>
      <trkpt lat="50.4319" lon="2.39502">
        <ele>155.87097</ele>
        <time>2011-04-16T23:24:02Z</time>
      </trkpt>
      <trkpt lat="50.43189" lon="2.39529">
        <ele>156.35156</ele>
        <time>2011-04-16T23:24:09Z</time>
      </trkpt>
      <trkpt lat="50.43175" lon="2.39564">
        <ele>157.31286</ele>
        <time>2011-04-16T23:24:19Z</time>
      </trkpt>
      <trkpt lat="50.43171" lon="2.39577">
        <ele>157.31286</ele>
        <time>2011-04-16T23:24:23Z</time>
      </trkpt>
      <trkpt lat="50.43156" lon="2.39613">
        <ele>157.31286</ele>
        <time>2011-04-16T23:24:34Z</time>
      </trkpt>
      <trkpt lat="50.43151" lon="2.39624">
        <ele>157.31286</ele>
        <time>2011-04-16T23:24:38Z</time>
      </trkpt>
      <trkpt lat="50.43123" lon="2.3969">
        <ele>157.31286</ele>
        <time>2011-04-16T23:24:58Z</time>
      </trkpt>
      <trkpt lat="50.4312" lon="2.39696">
        <ele>157.31286</ele>
        <time>2011-04-16T23:25:00Z</time>
      </trkpt>
      <trkpt lat="50.43099" lon="2.39746">
        <ele>158.27416</ele>
        <time>2011-04-16T23:25:15Z</time>
      </trkpt>
      <trkpt lat="50.43082" lon="2.39787">
        <ele>158.27416</ele>
        <time>2011-04-16T23:25:27Z</time>
      </trkpt>
      <trkpt lat="50.43052" lon="2.3986">
        <ele>157.79357</ele>
        <time>2011-04-16T23:25:50Z</time>
      </trkpt>
      <trkpt lat="50.43018" lon="2.39942">
        <ele>156.83215</ele>
        <time>2011-04-16T23:26:14Z</time>
      </trkpt>
      <trkpt lat="50.42997" lon="2.39995">
        <ele>156.83215</ele>
        <time>2011-04-16T23:26:30Z</time>
      </trkpt>
      <trkpt lat="50.43" lon="2.40022">
        <ele>156.35156</ele>
        <time>2011-04-16T23:26:37Z</time>
      </trkpt>
      <trkpt lat="50.43015" lon="2.40033">
        <ele>155.87097</ele>
        <time>2011-04-16T23:26:44Z</time>
      </trkpt>
      <trkpt lat="50.43085" lon="2.40072">
        <ele>154.42895</ele>
        <time>2011-04-16T23:27:14Z</time>
      </trkpt>
      <trkpt lat="50.43141" lon="2.40107">
        <ele>152.98693</ele>
        <time>2011-04-16T23:27:38Z</time>
      </trkpt>
      <trkpt lat="50.43182" lon="2.40142">
        <ele>152.98693</ele>
        <time>2011-04-16T23:27:57Z</time>
      </trkpt>
      <trkpt lat="50.43228" lon="2.40184">
        <ele>152.50634</ele>
        <time>2011-04-16T23:28:18Z</time>
      </trkpt>
      <trkpt lat="50.43265" lon="2.40222">
        <ele>152.02575</ele>
        <time>2011-04-16T23:28:36Z</time>
      </trkpt>
      <trkpt lat="50.43295" lon="2.40242">
        <ele>152.02575</ele>
        <time>2011-04-16T23:28:49Z</time>
      </trkpt>
      <trkpt lat="50.43308" lon="2.40276">
        <ele>151.0642</ele>
        <time>2011-04-16T23:28:59Z</time>
      </trkpt>
      <trkpt lat="50.43322" lon="2.40348">
        <ele>150.10302</ele>
        <time>2011-04-16T23:29:18Z</time>
      </trkpt>
      <trkpt lat="50.43331" lon="2.40415">
        <ele>151.54492</ele>
        <time>2011-04-16T23:29:35Z</time>
      </trkpt>
      <trkpt lat="50.43338" lon="2.40461">
        <ele>151.54492</ele>
        <time>2011-04-16T23:29:48Z</time>
      </trkpt>
      <trkpt lat="50.43341" lon="2.40515">
        <ele>152.02575</ele>
        <time>2011-04-16T23:30:01Z</time>
      </trkpt>
      <trkpt lat="50.43333" lon="2.4054">
        <ele>152.50634</ele>
        <time>2011-04-16T23:30:09Z</time>
      </trkpt>
      <trkpt lat="50.43324" lon="2.40547">
        <ele>152.50634</ele>
        <time>2011-04-16T23:30:12Z</time>
      </trkpt>
      <trkpt lat="50.43279" lon="2.40574">
        <ele>152.50634</ele>
        <time>2011-04-16T23:30:32Z</time>
      </trkpt>
      <trkpt lat="50.43237" lon="2.40601">
        <ele>152.98693</ele>
        <time>2011-04-16T23:30:50Z</time>
      </trkpt>
      <trkpt lat="50.43209" lon="2.40621">
        <ele>153.46765</ele>
        <time>2011-04-16T23:31:02Z</time>
      </trkpt>
      <trkpt lat="50.43178" lon="2.40662">
        <ele>152.50634</ele>
        <time>2011-04-16T23:31:19Z</time>
      </trkpt>
      <trkpt lat="50.43132" lon="2.40723">
        <ele>152.02575</ele>
        <time>2011-04-16T23:31:43Z</time>
      </trkpt>
      <trkpt lat="50.43127" lon="2.40728">
        <ele>152.02575</ele>
        <time>2011-04-16T23:31:45Z</time>
      </trkpt>
      <trkpt lat="50.4309" lon="2.40763">
        <ele>151.54492</ele>
        <time>2011-04-16T23:32:02Z</time>
      </trkpt>
      <trkpt lat="50.43045" lon="2.40801">
        <ele>151.0642</ele>
        <time>2011-04-16T23:32:23Z</time>
      </trkpt>
      <trkpt lat="50.43008" lon="2.40828">
        <ele>149.62231</ele>
        <time>2011-04-16T23:32:39Z</time>
      </trkpt>
      <trkpt lat="50.42955" lon="2.40859">
        <ele>148.66101</ele>
        <time>2011-04-16T23:33:02Z</time>
      </trkpt>
      <trkpt lat="50.42918" lon="2.40892">
        <ele>148.18041</ele>
        <time>2011-04-16T23:33:19Z</time>
      </trkpt>
      <trkpt lat="50.42876" lon="2.40946">
        <ele>148.18041</ele>
        <time>2011-04-16T23:33:41Z</time>
      </trkpt>
      <trkpt lat="50.42871" lon="2.40953">
        <ele>148.18041</ele>
        <time>2011-04-16T23:33:43Z</time>
      </trkpt>
      <trkpt lat="50.42841" lon="2.40996">
        <ele>150.10302</ele>
        <time>2011-04-16T23:34:00Z</time>
      </trkpt>
      <trkpt lat="50.42807" lon="2.41045">
        <ele>149.62231</ele>
        <time>2011-04-16T23:34:18Z</time>
      </trkpt>
      <trkpt lat="50.42772" lon="2.41086">
        <ele>148.66101</ele>
        <time>2011-04-16T23:34:35Z</time>
      </trkpt>
      <trkpt lat="50.42761" lon="2.41096">
        <ele>148.18041</ele>
        <time>2011-04-16T23:34:41Z</time>
      </trkpt>
      <trkpt lat="50.42732" lon="2.41129">
        <ele>146.25781</ele>
        <time>2011-04-16T23:34:55Z</time>
      </trkpt>
      <trkpt lat="50.42698" lon="2.41162">
        <ele>145.29638</ele>
        <time>2011-04-16T23:35:11Z</time>
      </trkpt>
      <trkpt lat="50.42662" lon="2.41195">
        <ele>147.21899</ele>
        <time>2011-04-16T23:35:28Z</time>
      </trkpt>
      <trkpt lat="50.42638" lon="2.41219">
        <ele>149.1416</ele>
        <time>2011-04-16T23:35:39Z</time>
      </trkpt>
      <trkpt lat="50.4263" lon="2.41231">
        <ele>149.1416</ele>
        <time>2011-04-16T23:35:43Z</time>
      </trkpt>
      <trkpt lat="50.42623" lon="2.41261">
        <ele>149.62231</ele>
        <time>2011-04-16T23:35:52Z</time>
      </trkpt>
      <trkpt lat="50.42619" lon="2.4132">
        <ele>149.1416</ele>
        <time>2011-04-16T23:36:07Z</time>
      </trkpt>
      <trkpt lat="50.42613" lon="2.41392">
        <ele>147.6997</ele>
        <time>2011-04-16T23:36:25Z</time>
      </trkpt>
      <trkpt lat="50.42609" lon="2.41457">
        <ele>146.7384</ele>
        <time>2011-04-16T23:36:42Z</time>
      </trkpt>
      <trkpt lat="50.42606" lon="2.41508">
        <ele>145.77709</ele>
        <time>2011-04-16T23:36:55Z</time>
      </trkpt>
      <trkpt lat="50.42612" lon="2.41537">
        <ele>146.7384</ele>
        <time>2011-04-16T23:37:03Z</time>
      </trkpt>
      <trkpt lat="50.42621" lon="2.41542">
        <ele>148.66101</ele>
        <time>2011-04-16T23:37:07Z</time>
      </trkpt>
      <trkpt lat="50.42646" lon="2.41542">
        <ele>152.02575</ele>
        <time>2011-04-16T23:37:16Z</time>
      </trkpt>
      <trkpt lat="50.42671" lon="2.41542">
        <ele>156.35156</ele>
        <time>2011-04-16T23:37:27Z</time>
      </trkpt>
      <trkpt lat="50.42695" lon="2.41541">
        <ele>159.23547</ele>
        <time>2011-04-16T23:37:36Z</time>
      </trkpt>
      <trkpt lat="50.42702" lon="2.4154">
        <ele>160.67749</ele>
        <time>2011-04-16T23:37:39Z</time>
      </trkpt>
      <trkpt lat="50.42724" lon="2.41541">
        <ele>164.04211</ele>
        <time>2011-04-16T23:37:48Z</time>
      </trkpt>
      <trkpt lat="50.42738" lon="2.4154">
        <ele>165.96472</ele>
        <time>2011-04-16T23:37:53Z</time>
      </trkpt>
      <trkpt lat="50.42759" lon="2.41537">
        <ele>164.5227</ele>
        <time>2011-04-16T23:38:02Z</time>
      </trkpt>
      <trkpt lat="50.42772" lon="2.4154">
        <ele>163.56152</ele>
        <time>2011-04-16T23:38:07Z</time>
      </trkpt>
      <trkpt lat="50.42782" lon="2.4156">
        <ele>164.04211</ele>
        <time>2011-04-16T23:38:13Z</time>
      </trkpt>
      <trkpt lat="50.42796" lon="2.41596">
        <ele>164.5227</ele>
        <time>2011-04-16T23:38:24Z</time>
      </trkpt>
      <trkpt lat="50.42815" lon="2.41644">
        <ele>165.48413</ele>
        <time>2011-04-16T23:38:39Z</time>
      </trkpt>
      <trkpt lat="50.42821" lon="2.41657">
        <ele>164.04211</ele>
        <time>2011-04-16T23:38:43Z</time>
      </trkpt>
      <trkpt lat="50.42852" lon="2.41722">
        <ele>161.63891</ele>
        <time>2011-04-16T23:39:04Z</time>
      </trkpt>
      <trkpt lat="50.42871" lon="2.41761">
        <ele>159.23547</ele>
        <time>2011-04-16T23:39:16Z</time>
      </trkpt>
      <trkpt lat="50.42891" lon="2.41802">
        <ele>157.31286</ele>
        <time>2011-04-16T23:39:29Z</time>
      </trkpt>
      <trkpt lat="50.42901" lon="2.41823">
        <ele>156.35156</ele>
        <time>2011-04-16T23:39:36Z</time>
      </trkpt>
      <trkpt lat="50.42933" lon="2.4189">
        <ele>155.39025</ele>
        <time>2011-04-16T23:39:57Z</time>
      </trkpt>
      <trkpt lat="50.42948" lon="2.41924">
        <ele>155.39025</ele>
        <time>2011-04-16T23:40:08Z</time>
      </trkpt>
      <trkpt lat="50.42969" lon="2.41972">
        <ele>155.87097</ele>
        <time>2011-04-16T23:40:23Z</time>
      </trkpt>
      <trkpt lat="50.42978" lon="2.41993">
        <ele>156.35156</ele>
        <time>2011-04-16T23:40:29Z</time>
      </trkpt>
      <trkpt lat="50.43008" lon="2.42057">
        <ele>155.39025</ele>
        <time>2011-04-16T23:40:49Z</time>
      </trkpt>
      <trkpt lat="50.43022" lon="2.42092">
        <ele>156.35156</ele>
        <time>2011-04-16T23:41:00Z</time>
      </trkpt>
      <trkpt lat="50.43037" lon="2.42127">
        <ele>157.79357</ele>
        <time>2011-04-16T23:41:10Z</time>
      </trkpt>
      <trkpt lat="50.43066" lon="2.42187">
        <ele>155.87097</ele>
        <time>2011-04-16T23:41:30Z</time>
      </trkpt>
      <trkpt lat="50.43087" lon="2.4223">
        <ele>154.42895</ele>
        <time>2011-04-16T23:41:44Z</time>
      </trkpt>
      <trkpt lat="50.43099" lon="2.42261">
        <ele>153.94836</ele>
        <time>2011-04-16T23:41:53Z</time>
      </trkpt>
      <trkpt lat="50.43119" lon="2.42349">
        <ele>157.79357</ele>
        <time>2011-04-16T23:42:17Z</time>
      </trkpt>
      <trkpt lat="50.43138" lon="2.42432">
        <ele>159.23547</ele>
        <time>2011-04-16T23:42:39Z</time>
      </trkpt>
      <trkpt lat="50.43157" lon="2.4249">
        <ele>159.23547</ele>
        <time>2011-04-16T23:42:56Z</time>
      </trkpt>
      <trkpt lat="50.43188" lon="2.42571">
        <ele>159.71618</ele>
        <time>2011-04-16T23:43:20Z</time>
      </trkpt>
      <trkpt lat="50.43217" lon="2.42645">
        <ele>159.23547</ele>
        <time>2011-04-16T23:43:42Z</time>
      </trkpt>
      <trkpt lat="50.4325" lon="2.42728">
        <ele>158.75476</ele>
        <time>2011-04-16T23:44:07Z</time>
      </trkpt>
      <trkpt lat="50.43283" lon="2.42815">
        <ele>157.79357</ele>
        <time>2011-04-16T23:44:33Z</time>
      </trkpt>
      <trkpt lat="50.43314" lon="2.42891">
        <ele>157.31286</ele>
        <time>2011-04-16T23:44:56Z</time>
      </trkpt>
      <trkpt lat="50.43341" lon="2.42945">
        <ele>156.83215</ele>
        <time>2011-04-16T23:45:13Z</time>
      </trkpt>
      <trkpt lat="50.4337" lon="2.43009">
        <ele>156.35156</ele>
        <time>2011-04-16T23:45:33Z</time>
      </trkpt>
      <trkpt lat="50.43411" lon="2.43091">
        <ele>155.39025</ele>
        <time>2011-04-16T23:46:00Z</time>
      </trkpt>
      <trkpt lat="50.43436" lon="2.43146">
        <ele>154.90954</ele>
        <time>2011-04-16T23:46:17Z</time>
      </trkpt>
      <trkpt lat="50.43471" lon="2.43216">
        <ele>153.94836</ele>
        <time>2011-04-16T23:46:40Z</time>
      </trkpt>
      <trkpt lat="50.43502" lon="2.43292">
        <ele>152.98693</ele>
        <time>2011-04-16T23:47:03Z</time>
      </trkpt>
      <trkpt lat="50.43508" lon="2.4332">
        <ele>152.98693</ele>
        <time>2011-04-16T23:47:10Z</time>
      </trkpt>
      <trkpt lat="50.43509" lon="2.4339">
        <ele>151.54492</ele>
        <time>2011-04-16T23:47:28Z</time>
      </trkpt>
      <trkpt lat="50.4351" lon="2.43463">
        <ele>150.10302</ele>
        <time>2011-04-16T23:47:47Z</time>
      </trkpt>
      <trkpt lat="50.4351" lon="2.43535">
        <ele>149.1416</ele>
        <time>2011-04-16T23:48:05Z</time>
      </trkpt>
      <trkpt lat="50.4352" lon="2.43605">
        <ele>148.66101</ele>
        <time>2011-04-16T23:48:24Z</time>
      </trkpt>
      <trkpt lat="50.43539" lon="2.43717">
        <ele>147.6997</ele>
        <time>2011-04-16T23:48:53Z</time>
      </trkpt>
      <trkpt lat="50.43543" lon="2.43791">
        <ele>147.21899</ele>
        <time>2011-04-16T23:49:12Z</time>
      </trkpt>
      <trkpt lat="50.43546" lon="2.43823">
        <ele>147.21899</ele>
        <time>2011-04-16T23:49:20Z</time>
      </trkpt>
      <trkpt lat="50.43564" lon="2.43892">
        <ele>145.77709</ele>
        <time>2011-04-16T23:49:39Z</time>
      </trkpt>
      <trkpt lat="50.43581" lon="2.43962">
        <ele>148.18041</ele>
        <time>2011-04-16T23:49:59Z</time>
      </trkpt>
      <trkpt lat="50.43583" lon="2.43973">
        <ele>148.66101</ele>
        <time>2011-04-16T23:50:01Z</time>
      </trkpt>
      <trkpt lat="50.43587" lon="2.44032">
        <ele>147.6997</ele>
        <time>2011-04-16T23:50:16Z</time>
      </trkpt>
      <trkpt lat="50.43592" lon="2.44063">
        <ele>148.18041</ele>
        <time>2011-04-16T23:50:25Z</time>
      </trkpt>
      <trkpt lat="50.43593" lon="2.44077">
        <ele>150.10302</ele>
        <time>2011-04-16T23:50:28Z</time>
      </trkpt>
      <trkpt lat="50.43601" lon="2.44108">
        <ele>151.0642</ele>
        <time>2011-04-16T23:50:37Z</time>
      </trkpt>
      <trkpt lat="50.43606" lon="2.4415">
        <ele>151.0642</ele>
        <time>2011-04-16T23:50:48Z</time>
      </trkpt>
      <trkpt lat="50.43612" lon="2.44194">
        <ele>152.50634</ele>
        <time>2011-04-16T23:50:59Z</time>
      </trkpt>
      <trkpt lat="50.43612" lon="2.44237">
        <ele>152.50634</ele>
        <time>2011-04-16T23:51:10Z</time>
      </trkpt>
      <trkpt lat="50.43611" lon="2.44288">
        <ele>152.98693</ele>
        <time>2011-04-16T23:51:23Z</time>
      </trkpt>
      <trkpt lat="50.4361" lon="2.44335">
        <ele>152.50634</ele>
        <time>2011-04-16T23:51:35Z</time>
      </trkpt>
      <trkpt lat="50.43613" lon="2.44367">
        <ele>152.98693</ele>
        <time>2011-04-16T23:51:43Z</time>
      </trkpt>
      <trkpt lat="50.43631" lon="2.44417">
        <ele>153.46765</ele>
        <time>2011-04-16T23:51:58Z</time>
      </trkpt>
      <trkpt lat="50.43637" lon="2.4444">
        <ele>153.46765</ele>
        <time>2011-04-16T23:52:04Z</time>
      </trkpt>
      <trkpt lat="50.43633" lon="2.44474">
        <ele>152.50634</ele>
        <time>2011-04-16T23:52:13Z</time>
      </trkpt>
      <trkpt lat="50.43608" lon="2.44525">
        <ele>150.10302</ele>
        <time>2011-04-16T23:52:30Z</time>
      </trkpt>
      <trkpt lat="50.4359" lon="2.44593">
        <ele>148.18041</ele>
        <time>2011-04-16T23:52:48Z</time>
      </trkpt>
      <trkpt lat="50.43588" lon="2.44604">
        <ele>148.18041</ele>
        <time>2011-04-16T23:52:51Z</time>
      </trkpt>
      <trkpt lat="50.43578" lon="2.44627">
        <ele>147.21899</ele>
        <time>2011-04-16T23:52:59Z</time>
      </trkpt>
      <trkpt lat="50.43566" lon="2.44632">
        <ele>146.7384</ele>
        <time>2011-04-16T23:53:03Z</time>
      </trkpt>
      <trkpt lat="50.43561" lon="2.44623">
        <ele>146.7384</ele>
        <time>2011-04-16T23:53:07Z</time>
      </trkpt>
      <trkpt lat="50.43559" lon="2.44591">
        <ele>148.18041</ele>
        <time>2011-04-16T23:53:15Z</time>
      </trkpt>
      <trkpt lat="50.43554" lon="2.44558">
        <ele>148.66101</ele>
        <time>2011-04-16T23:53:23Z</time>
      </trkpt>
      <trkpt lat="50.43549" lon="2.44527">
        <ele>149.1416</ele>
        <time>2011-04-16T23:53:32Z</time>
      </trkpt>
      <trkpt lat="50.43536" lon="2.44509">
        <ele>148.18041</ele>
        <time>2011-04-16T23:53:38Z</time>
      </trkpt>
      <trkpt lat="50.43526" lon="2.44503">
        <ele>147.21899</ele>
        <time>2011-04-16T23:53:43Z</time>
      </trkpt>
      <trkpt lat="50.43517" lon="2.44477">
        <ele>146.25781</ele>
        <time>2011-04-16T23:53:50Z</time>
      </trkpt>
      <trkpt lat="50.43514" lon="2.44473">
        <ele>146.25781</ele>
        <time>2011-04-16T23:53:51Z</time>
      </trkpt>
      <trkpt lat="50.43511" lon="2.44472">
        <ele>144.3352</ele>
        <time>2011-04-16T23:53:53Z</time>
      </trkpt>
      <trkpt lat="50.43491" lon="2.44494">
        <ele>135.6831</ele>
        <time>2011-04-16T23:54:03Z</time>
      </trkpt>
      <trkpt lat="50.43469" lon="2.44496">
        <ele>130.8767</ele>
        <time>2011-04-16T23:54:11Z</time>
      </trkpt>
      <trkpt lat="50.43461" lon="2.44496">
        <ele>128.9541</ele>
        <time>2011-04-16T23:54:15Z</time>
      </trkpt>
      <trkpt lat="50.43433" lon="2.44489">
        <ele>125.10876</ele>
        <time>2011-04-16T23:54:26Z</time>
      </trkpt>
      <trkpt lat="50.43413" lon="2.4449">
        <ele>127.03137</ele>
        <time>2011-04-16T23:54:34Z</time>
      </trkpt>
      <trkpt lat="50.43387" lon="2.44494">
        <ele>129.91528</ele>
        <time>2011-04-16T23:54:45Z</time>
      </trkpt>
      <trkpt lat="50.43376" lon="2.44494">
        <ele>130.8767</ele>
        <time>2011-04-16T23:54:49Z</time>
      </trkpt>
      <trkpt lat="50.43369" lon="2.44505">
        <ele>130.39599</ele>
        <time>2011-04-16T23:54:53Z</time>
      </trkpt>
      <trkpt lat="50.43374" lon="2.44521">
        <ele>129.43469</ele>
        <time>2011-04-16T23:54:57Z</time>
      </trkpt>
      <trkpt lat="50.43392" lon="2.44573">
        <ele>126.55065</ele>
        <time>2011-04-16T23:55:12Z</time>
      </trkpt>
      <trkpt lat="50.43394" lon="2.44602">
        <ele>124.62805</ele>
        <time>2011-04-16T23:55:20Z</time>
      </trkpt>
      <trkpt lat="50.43396" lon="2.44691">
        <ele>119.82141</ele>
        <time>2011-04-16T23:55:43Z</time>
      </trkpt>
      <trkpt lat="50.43392" lon="2.44735">
        <ele>118.8601</ele>
        <time>2011-04-16T23:55:54Z</time>
      </trkpt>
      <trkpt lat="50.43397" lon="2.44786">
        <ele>117.8988</ele>
        <time>2011-04-16T23:56:07Z</time>
      </trkpt>
      <trkpt lat="50.4341" lon="2.4482">
        <ele>116.9375</ele>
        <time>2011-04-16T23:56:17Z</time>
      </trkpt>
      <trkpt lat="50.43422" lon="2.44827">
        <ele>118.37939</ele>
        <time>2011-04-16T23:56:22Z</time>
      </trkpt>
      <trkpt lat="50.43425" lon="2.44829">
        <ele>119.34082</ele>
        <time>2011-04-16T23:56:24Z</time>
      </trkpt>
      <trkpt lat="50.43433" lon="2.44836">
        <ele>120.78283</ele>
        <time>2011-04-16T23:56:27Z</time>
      </trkpt>
      <trkpt lat="50.43441" lon="2.44851">
        <ele>122.22473</ele>
        <time>2011-04-16T23:56:32Z</time>
      </trkpt>
      <trkpt lat="50.43447" lon="2.44873">
        <ele>124.14733</ele>
        <time>2011-04-16T23:56:38Z</time>
      </trkpt>
      <trkpt lat="50.43454" lon="2.44898">
        <ele>128.9541</ele>
        <time>2011-04-16T23:56:45Z</time>
      </trkpt>
      <trkpt lat="50.43468" lon="2.44919">
        <ele>131.83789</ele>
        <time>2011-04-16T23:56:53Z</time>
      </trkpt>
      <trkpt lat="50.43485" lon="2.44923">
        <ele>133.2799</ele>
        <time>2011-04-16T23:57:00Z</time>
      </trkpt>
      <trkpt lat="50.43504" lon="2.44915">
        <ele>134.24121</ele>
        <time>2011-04-16T23:57:08Z</time>
      </trkpt>
      <trkpt lat="50.43518" lon="2.44919">
        <ele>135.6831</ele>
        <time>2011-04-16T23:57:13Z</time>
      </trkpt>
      <trkpt lat="50.43525" lon="2.44937">
        <ele>137.12524</ele>
        <time>2011-04-16T23:57:19Z</time>
      </trkpt>
      <trkpt lat="50.43534" lon="2.4496">
        <ele>137.60583</ele>
        <time>2011-04-16T23:57:26Z</time>
      </trkpt>
      <trkpt lat="50.43554" lon="2.44993">
        <ele>137.12524</ele>
        <time>2011-04-16T23:57:37Z</time>
      </trkpt>
      <trkpt lat="50.43558" lon="2.44999">
        <ele>136.64465</ele>
        <time>2011-04-16T23:57:39Z</time>
      </trkpt>
      <trkpt lat="50.43564" lon="2.45013">
        <ele>135.6831</ele>
        <time>2011-04-16T23:57:44Z</time>
      </trkpt>
      <trkpt lat="50.43548" lon="2.45041">
        <ele>132.3186</ele>
        <time>2011-04-16T23:57:53Z</time>
      </trkpt>
      <trkpt lat="50.43535" lon="2.45054">
        <ele>129.91528</ele>
        <time>2011-04-16T23:58:00Z</time>
      </trkpt>
      <trkpt lat="50.43499" lon="2.45087">
        <ele>125.10876</ele>
        <time>2011-04-16T23:58:16Z</time>
      </trkpt>
      <trkpt lat="50.43471" lon="2.45115">
        <ele>122.22473</ele>
        <time>2011-04-16T23:58:29Z</time>
      </trkpt>
      <trkpt lat="50.4343" lon="2.4515">
        <ele>120.30212</ele>
        <time>2011-04-16T23:58:48Z</time>
      </trkpt>
      <trkpt lat="50.43407" lon="2.45178">
        <ele>118.8601</ele>
        <time>2011-04-16T23:59:00Z</time>
      </trkpt>
      <trkpt lat="50.43387" lon="2.45203">
        <ele>119.34082</ele>
        <time>2011-04-16T23:59:10Z</time>
      </trkpt>
      <trkpt lat="50.43378" lon="2.45218">
        <ele>118.37939</ele>
        <time>2011-04-16T23:59:16Z</time>
      </trkpt>
      <trkpt lat="50.43372" lon="2.45229">
        <ele>119.82141</ele>
        <time>2011-04-16T23:59:19Z</time>
      </trkpt>
      <trkpt lat="50.43366" lon="2.45243">
        <ele>121.26354</ele>
        <time>2011-04-16T23:59:23Z</time>
      </trkpt>
      <trkpt lat="50.43363" lon="2.45252">
        <ele>122.70544</ele>
        <time>2011-04-16T23:59:26Z</time>
      </trkpt>
      <trkpt lat="50.43356" lon="2.45262">
        <ele>125.58935</ele>
        <time>2011-04-16T23:59:30Z</time>
      </trkpt>
      <trkpt lat="50.43352" lon="2.4527">
        <ele>126.06994</ele>
        <time>2011-04-16T23:59:32Z</time>
      </trkpt>
      <trkpt lat="50.43343" lon="2.45281">
        <ele>129.43469</ele>
        <time>2011-04-16T23:59:37Z</time>
      </trkpt>
      <trkpt lat="50.43337" lon="2.45289">
        <ele>130.39599</ele>
        <time>2011-04-16T23:59:40Z</time>
      </trkpt>
      <trkpt lat="50.43332" lon="2.45297">
        <ele>128.9541</ele>
        <time>2011-04-16T23:59:43Z</time>
      </trkpt>
      <trkpt lat="50.43324" lon="2.45305">
        <ele>131.83789</ele>
        <time>2011-04-16T23:59:47Z</time>
      </trkpt>
      <trkpt lat="50.4332" lon="2.45312">
        <ele>134.24121</ele>
        <time>2011-04-16T23:59:49Z</time>
      </trkpt>
      <trkpt lat="50.43314" lon="2.4532">
        <ele>137.60583</ele>
        <time>2011-04-16T23:59:52Z</time>
      </trkpt>
      <trkpt lat="50.43311" lon="2.45324">
        <ele>139.52844</ele>
        <time>2011-04-16T23:59:54Z</time>
      </trkpt>
      <trkpt lat="50.43307" lon="2.45331">
        <ele>140.00915</ele>
        <time>2011-04-16T23:59:56Z</time>
      </trkpt>
      <trkpt lat="50.43303" lon="2.45335">
        <ele>141.45104</ele>
        <time>2011-04-16T23:59:58Z</time>
      </trkpt>
      <trkpt lat="50.43299" lon="2.45339">
        <ele>140.97045</ele>
        <time>2011-04-17T00:00:00Z</time>
      </trkpt>
      <trkpt lat="50.43294" lon="2.4535">
        <ele>142.89306</ele>
        <time>2011-04-17T00:00:03Z</time>
      </trkpt>
      <trkpt lat="50.43291" lon="2.45356">
        <ele>144.3352</ele>
        <time>2011-04-17T00:00:05Z</time>
      </trkpt>
      <trkpt lat="50.43291" lon="2.45357">
        <ele>145.29638</ele>
        <time>2011-04-17T00:00:06Z</time>
      </trkpt>
      <trkpt lat="50.43291" lon="2.45367">
        <ele>146.25781</ele>
        <time>2011-04-17T00:00:06Z</time>
      </trkpt>
      <trkpt lat="50.43292" lon="2.45378">
        <ele>146.7384</ele>
        <time>2011-04-17T00:00:08Z</time>
      </trkpt>
      <trkpt lat="50.43295" lon="2.454">
        <ele>147.21899</ele>
        <time>2011-04-17T00:00:14Z</time>
      </trkpt>
      <trkpt lat="50.43303" lon="2.45429">
        <ele>146.7384</ele>
        <time>2011-04-17T00:00:22Z</time>
      </trkpt>
      <trkpt lat="50.43316" lon="2.45456">
        <ele>146.7384</ele>
        <time>2011-04-17T00:00:31Z</time>
      </trkpt>
      <trkpt lat="50.43331" lon="2.4549">
        <ele>146.7384</ele>
        <time>2011-04-17T00:00:41Z</time>
      </trkpt>
      <trkpt lat="50.4334" lon="2.45533">
        <ele>148.66101</ele>
        <time>2011-04-17T00:00:53Z</time>
      </trkpt>
      <trkpt lat="50.43344" lon="2.45582">
        <ele>151.54492</ele>
        <time>2011-04-17T00:01:05Z</time>
      </trkpt>
      <trkpt lat="50.43354" lon="2.45629">
        <ele>153.94836</ele>
        <time>2011-04-17T00:01:18Z</time>
      </trkpt>
      <trkpt lat="50.43365" lon="2.45672">
        <ele>154.42895</ele>
        <time>2011-04-17T00:01:30Z</time>
      </trkpt>
      <trkpt lat="50.43384" lon="2.45711">
        <ele>155.39025</ele>
        <time>2011-04-17T00:01:42Z</time>
      </trkpt>
      <trkpt lat="50.43411" lon="2.45757">
        <ele>154.90954</ele>
        <time>2011-04-17T00:01:58Z</time>
      </trkpt>
      <trkpt lat="50.43434" lon="2.45808">
        <ele>153.94836</ele>
        <time>2011-04-17T00:02:14Z</time>
      </trkpt>
      <trkpt lat="50.43437" lon="2.45814">
        <ele>153.94836</ele>
        <time>2011-04-17T00:02:16Z</time>
      </trkpt>
      <trkpt lat="50.43449" lon="2.45878">
        <ele>155.39025</ele>
        <time>2011-04-17T00:02:33Z</time>
      </trkpt>
      <trkpt lat="50.4346" lon="2.4596">
        <ele>157.79357</ele>
        <time>2011-04-17T00:02:54Z</time>
      </trkpt>
      <trkpt lat="50.43471" lon="2.46036">
        <ele>158.27416</ele>
        <time>2011-04-17T00:03:14Z</time>
      </trkpt>
      <trkpt lat="50.43479" lon="2.46085">
        <ele>157.79357</ele>
        <time>2011-04-17T00:03:27Z</time>
      </trkpt>
      <trkpt lat="50.43494" lon="2.46123">
        <ele>157.31286</ele>
        <time>2011-04-17T00:03:39Z</time>
      </trkpt>
      <trkpt lat="50.43545" lon="2.46174">
        <ele>155.87097</ele>
        <time>2011-04-17T00:04:03Z</time>
      </trkpt>
      <trkpt lat="50.43592" lon="2.46224">
        <ele>154.42895</ele>
        <time>2011-04-17T00:04:26Z</time>
      </trkpt>
      <trkpt lat="50.43627" lon="2.46259">
        <ele>152.02575</ele>
        <time>2011-04-17T00:04:42Z</time>
      </trkpt>
      <trkpt lat="50.43677" lon="2.46306">
        <ele>149.62231</ele>
        <time>2011-04-17T00:05:06Z</time>
      </trkpt>
      <trkpt lat="50.43727" lon="2.46353">
        <ele>147.21899</ele>
        <time>2011-04-17T00:05:29Z</time>
      </trkpt>
      <trkpt lat="50.43777" lon="2.46406">
        <ele>144.3352</ele>
        <time>2011-04-17T00:05:53Z</time>
      </trkpt>
      <trkpt lat="50.43785" lon="2.46414">
        <ele>144.3352</ele>
        <time>2011-04-17T00:05:57Z</time>
      </trkpt>
      <trkpt lat="50.43812" lon="2.46442">
        <ele>142.89306</ele>
        <time>2011-04-17T00:06:10Z</time>
      </trkpt>
      <trkpt lat="50.43863" lon="2.46495">
        <ele>138.08654</ele>
        <time>2011-04-17T00:06:34Z</time>
      </trkpt>
      <trkpt lat="50.439" lon="2.46533">
        <ele>134.24121</ele>
        <time>2011-04-17T00:06:52Z</time>
      </trkpt>
      <trkpt lat="50.43939" lon="2.46579">
        <ele>128.47338</ele>
        <time>2011-04-17T00:07:11Z</time>
      </trkpt>
      <trkpt lat="50.43944" lon="2.46588">
        <ele>127.51196</ele>
        <time>2011-04-17T00:07:15Z</time>
      </trkpt>
      <trkpt lat="50.43973" lon="2.46644">
        <ele>123.18615</ele>
        <time>2011-04-17T00:07:33Z</time>
      </trkpt>
      <trkpt lat="50.43998" lon="2.4668">
        <ele>119.82141</ele>
        <time>2011-04-17T00:07:47Z</time>
      </trkpt>
      <trkpt lat="50.44031" lon="2.4673">
        <ele>115.01489</ele>
        <time>2011-04-17T00:08:05Z</time>
      </trkpt>
      <trkpt lat="50.44049" lon="2.46756">
        <ele>113.09228</ele>
        <time>2011-04-17T00:08:15Z</time>
      </trkpt>
      <trkpt lat="50.44074" lon="2.46795">
        <ele>110.20825</ele>
        <time>2011-04-17T00:08:29Z</time>
      </trkpt>
      <trkpt lat="50.44113" lon="2.46857">
        <ele>107.80505</ele>
        <time>2011-04-17T00:08:51Z</time>
      </trkpt>
      <trkpt lat="50.4413" lon="2.46899">
        <ele>107.80505</ele>
        <time>2011-04-17T00:09:04Z</time>
      </trkpt>
      <trkpt lat="50.44148" lon="2.46947">
        <ele>107.32434</ele>
        <time>2011-04-17T00:09:18Z</time>
      </trkpt>
      <trkpt lat="50.44165" lon="2.46989">
        <ele>109.24694</ele>
        <time>2011-04-17T00:09:30Z</time>
      </trkpt>
      <trkpt lat="50.44184" lon="2.46998">
        <ele>109.72766</ele>
        <time>2011-04-17T00:09:38Z</time>
      </trkpt>
      <trkpt lat="50.44189" lon="2.46994">
        <ele>109.72766</ele>
        <time>2011-04-17T00:09:40Z</time>
      </trkpt>
      <trkpt lat="50.44234" lon="2.46953">
        <ele>107.32434</ele>
        <time>2011-04-17T00:10:01Z</time>
      </trkpt>
      <trkpt lat="50.4427" lon="2.46915">
        <ele>104.44042</ele>
        <time>2011-04-17T00:10:19Z</time>
      </trkpt>
      <trkpt lat="50.44304" lon="2.46881">
        <ele>101.07568</ele>
        <time>2011-04-17T00:10:35Z</time>
      </trkpt>
      <trkpt lat="50.44319" lon="2.4687">
        <ele>99.633789</ele>
        <time>2011-04-17T00:10:42Z</time>
      </trkpt>
      <trkpt lat="50.44342" lon="2.46861">
        <ele>97.711181</ele>
        <time>2011-04-17T00:10:51Z</time>
      </trkpt>
      <trkpt lat="50.44367" lon="2.46863">
        <ele>98.191894</ele>
        <time>2011-04-17T00:11:01Z</time>
      </trkpt>
      <trkpt lat="50.44376" lon="2.46872">
        <ele>98.191894</ele>
        <time>2011-04-17T00:11:05Z</time>
      </trkpt>
      <trkpt lat="50.444" lon="2.46905">
        <ele>101.07568</ele>
        <time>2011-04-17T00:11:18Z</time>
      </trkpt>
      <trkpt lat="50.44421" lon="2.46938">
        <ele>102.99829</ele>
        <time>2011-04-17T00:11:30Z</time>
      </trkpt>
      <trkpt lat="50.4443" lon="2.46952">
        <ele>102.99829</ele>
        <time>2011-04-17T00:11:35Z</time>
      </trkpt>
      <trkpt lat="50.44451" lon="2.46984">
        <ele>101.55639</ele>
        <time>2011-04-17T00:11:47Z</time>
      </trkpt>
      <trkpt lat="50.44454" lon="2.4699">
        <ele>100.59509</ele>
        <time>2011-04-17T00:11:49Z</time>
      </trkpt>
      <trkpt lat="50.44465" lon="2.47013">
        <ele>100.1145</ele>
        <time>2011-04-17T00:11:56Z</time>
      </trkpt>
      <trkpt lat="50.44479" lon="2.47046">
        <ele>99.153076</ele>
        <time>2011-04-17T00:12:06Z</time>
      </trkpt>
      <trkpt lat="50.4449" lon="2.47074">
        <ele>98.672485</ele>
        <time>2011-04-17T00:12:14Z</time>
      </trkpt>
      <trkpt lat="50.44496" lon="2.47094">
        <ele>97.711181</ele>
        <time>2011-04-17T00:12:20Z</time>
      </trkpt>
      <trkpt lat="50.44518" lon="2.47165">
        <ele>94.346557</ele>
        <time>2011-04-17T00:12:40Z</time>
      </trkpt>
      <trkpt lat="50.44529" lon="2.47191">
        <ele>93.865844</ele>
        <time>2011-04-17T00:12:48Z</time>
      </trkpt>
      <trkpt lat="50.44548" lon="2.47236">
        <ele>92.904541</ele>
        <time>2011-04-17T00:13:02Z</time>
      </trkpt>
      <trkpt lat="50.44557" lon="2.47256">
        <ele>92.904541</ele>
        <time>2011-04-17T00:13:08Z</time>
      </trkpt>
      <trkpt lat="50.44581" lon="2.47318">
        <ele>90.501342</ele>
        <time>2011-04-17T00:13:27Z</time>
      </trkpt>
      <trkpt lat="50.44584" lon="2.47326">
        <ele>90.020629</ele>
        <time>2011-04-17T00:13:29Z</time>
      </trkpt>
      <trkpt lat="50.44598" lon="2.47368">
        <ele>88.578735</ele>
        <time>2011-04-17T00:13:41Z</time>
      </trkpt>
      <trkpt lat="50.44605" lon="2.47387">
        <ele>87.617187</ele>
        <time>2011-04-17T00:13:47Z</time>
      </trkpt>
      <trkpt lat="50.44612" lon="2.47408">
        <ele>88.098022</ele>
        <time>2011-04-17T00:13:53Z</time>
      </trkpt>
      <trkpt lat="50.44629" lon="2.47457">
        <ele>88.578735</ele>
        <time>2011-04-17T00:14:07Z</time>
      </trkpt>
      <trkpt lat="50.44647" lon="2.47507">
        <ele>90.020629</ele>
        <time>2011-04-17T00:14:22Z</time>
      </trkpt>
      <trkpt lat="50.4465" lon="2.47514">
        <ele>90.020629</ele>
        <time>2011-04-17T00:14:24Z</time>
      </trkpt>
      <trkpt lat="50.44666" lon="2.47582">
        <ele>90.981933</ele>
        <time>2011-04-17T00:14:42Z</time>
      </trkpt>
      <trkpt lat="50.44673" lon="2.47627">
        <ele>91.943237</ele>
        <time>2011-04-17T00:14:54Z</time>
      </trkpt>
      <trkpt lat="50.44677" lon="2.47672">
        <ele>92.904541</ele>
        <time>2011-04-17T00:15:06Z</time>
      </trkpt>
      <trkpt lat="50.44678" lon="2.47719">
        <ele>93.385131</ele>
        <time>2011-04-17T00:15:18Z</time>
      </trkpt>
      <trkpt lat="50.44677" lon="2.47756">
        <ele>94.346557</ele>
        <time>2011-04-17T00:15:27Z</time>
      </trkpt>
      <trkpt lat="50.44676" lon="2.47812">
        <ele>94.346557</ele>
        <time>2011-04-17T00:15:42Z</time>
      </trkpt>
      <trkpt lat="50.44676" lon="2.47838">
        <ele>94.827148</ele>
        <time>2011-04-17T00:15:48Z</time>
      </trkpt>
      <trkpt lat="50.44676" lon="2.47889">
        <ele>95.307739</ele>
        <time>2011-04-17T00:16:01Z</time>
      </trkpt>
      <trkpt lat="50.44672" lon="2.47955">
        <ele>96.269287</ele>
        <time>2011-04-17T00:16:18Z</time>
      </trkpt>
      <trkpt lat="50.44662" lon="2.48013">
        <ele>97.711181</ele>
        <time>2011-04-17T00:16:33Z</time>
      </trkpt>
      <trkpt lat="50.44645" lon="2.48068">
        <ele>98.672485</ele>
        <time>2011-04-17T00:16:49Z</time>
      </trkpt>
      <trkpt lat="50.44626" lon="2.48123">
        <ele>99.633789</ele>
        <time>2011-04-17T00:17:05Z</time>
      </trkpt>
      <trkpt lat="50.44609" lon="2.48174">
        <ele>102.0371</ele>
        <time>2011-04-17T00:17:20Z</time>
      </trkpt>
      <trkpt lat="50.44596" lon="2.48218">
        <ele>103.95971</ele>
        <time>2011-04-17T00:17:32Z</time>
      </trkpt>
      <trkpt lat="50.44589" lon="2.48256">
        <ele>103.95971</ele>
        <time>2011-04-17T00:17:42Z</time>
      </trkpt>
      <trkpt lat="50.44588" lon="2.48263">
        <ele>103.95971</ele>
        <time>2011-04-17T00:17:44Z</time>
      </trkpt>
      <trkpt lat="50.44576" lon="2.48296">
        <ele>104.44042</ele>
        <time>2011-04-17T00:17:54Z</time>
      </trkpt>
      <trkpt lat="50.44573" lon="2.483">
        <ele>104.44042</ele>
        <time>2011-04-17T00:17:55Z</time>
      </trkpt>
      <trkpt lat="50.44552" lon="2.4834">
        <ele>104.44042</ele>
        <time>2011-04-17T00:18:08Z</time>
      </trkpt>
      <trkpt lat="50.44539" lon="2.48378">
        <ele>104.92102</ele>
        <time>2011-04-17T00:18:19Z</time>
      </trkpt>
      <trkpt lat="50.44543" lon="2.48409">
        <ele>104.44042</ele>
        <time>2011-04-17T00:18:27Z</time>
      </trkpt>
      <trkpt lat="50.44557" lon="2.48462">
        <ele>106.36303</ele>
        <time>2011-04-17T00:18:42Z</time>
      </trkpt>
      <trkpt lat="50.44568" lon="2.48503">
        <ele>108.28564</ele>
        <time>2011-04-17T00:18:53Z</time>
      </trkpt>
      <trkpt lat="50.44574" lon="2.4854">
        <ele>109.24694</ele>
        <time>2011-04-17T00:19:03Z</time>
      </trkpt>
      <trkpt lat="50.44576" lon="2.48586">
        <ele>110.20825</ele>
        <time>2011-04-17T00:19:15Z</time>
      </trkpt>
      <trkpt lat="50.44578" lon="2.48627">
        <ele>111.16955</ele>
        <time>2011-04-17T00:19:25Z</time>
      </trkpt>
      <trkpt lat="50.44581" lon="2.4868">
        <ele>112.61157</ele>
        <time>2011-04-17T00:19:39Z</time>
      </trkpt>
      <trkpt lat="50.44585" lon="2.48723">
        <ele>113.57299</ele>
        <time>2011-04-17T00:19:50Z</time>
      </trkpt>
      <trkpt lat="50.44592" lon="2.4876">
        <ele>115.01489</ele>
        <time>2011-04-17T00:20:00Z</time>
      </trkpt>
      <trkpt lat="50.44602" lon="2.48789">
        <ele>116.45678</ele>
        <time>2011-04-17T00:20:08Z</time>
      </trkpt>
      <trkpt lat="50.44612" lon="2.48819">
        <ele>118.37939</ele>
        <time>2011-04-17T00:20:17Z</time>
      </trkpt>
      <trkpt lat="50.44621" lon="2.48846">
        <ele>119.82141</ele>
        <time>2011-04-17T00:20:24Z</time>
      </trkpt>
      <trkpt lat="50.44627" lon="2.48885">
        <ele>119.34082</ele>
        <time>2011-04-17T00:20:35Z</time>
      </trkpt>
      <trkpt lat="50.44633" lon="2.48936">
        <ele>117.8988</ele>
        <time>2011-04-17T00:20:48Z</time>
      </trkpt>
      <trkpt lat="50.44635" lon="2.48951">
        <ele>117.8988</ele>
        <time>2011-04-17T00:20:52Z</time>
      </trkpt>
      <trkpt lat="50.44637" lon="2.49012">
        <ele>115.97619</ele>
        <time>2011-04-17T00:21:07Z</time>
      </trkpt>
      <trkpt lat="50.44635" lon="2.49083">
        <ele>114.53417</ele>
        <time>2011-04-17T00:21:26Z</time>
      </trkpt>
      <trkpt lat="50.44634" lon="2.4915">
        <ele>112.61157</ele>
        <time>2011-04-17T00:21:43Z</time>
      </trkpt>
      <trkpt lat="50.44638" lon="2.49217">
        <ele>111.65026</ele>
        <time>2011-04-17T00:22:00Z</time>
      </trkpt>
      <trkpt lat="50.44645" lon="2.49259">
        <ele>111.65026</ele>
        <time>2011-04-17T00:22:11Z</time>
      </trkpt>
      <trkpt lat="50.4465" lon="2.49299">
        <ele>111.65026</ele>
        <time>2011-04-17T00:22:21Z</time>
      </trkpt>
      <trkpt lat="50.44655" lon="2.4935">
        <ele>111.65026</ele>
        <time>2011-04-17T00:22:35Z</time>
      </trkpt>
      <trkpt lat="50.44655" lon="2.494">
        <ele>111.65026</ele>
        <time>2011-04-17T00:22:47Z</time>
      </trkpt>
      <trkpt lat="50.44655" lon="2.49419">
        <ele>111.16955</ele>
        <time>2011-04-17T00:22:52Z</time>
      </trkpt>
      <trkpt lat="50.44655" lon="2.49469">
        <ele>111.16955</ele>
        <time>2011-04-17T00:23:05Z</time>
      </trkpt>
      <trkpt lat="50.4465" lon="2.49515">
        <ele>112.13098</ele>
        <time>2011-04-17T00:23:17Z</time>
      </trkpt>
      <trkpt lat="50.44647" lon="2.49553">
        <ele>112.61157</ele>
        <time>2011-04-17T00:23:26Z</time>
      </trkpt>
      <trkpt lat="50.44648" lon="2.49595">
        <ele>113.57299</ele>
        <time>2011-04-17T00:23:37Z</time>
      </trkpt>
      <trkpt lat="50.44652" lon="2.49628">
        <ele>115.4956</ele>
        <time>2011-04-17T00:23:46Z</time>
      </trkpt>
      <trkpt lat="50.44655" lon="2.49661">
        <ele>117.41821</ele>
        <time>2011-04-17T00:23:54Z</time>
      </trkpt>
      <trkpt lat="50.44662" lon="2.49693">
        <ele>119.82141</ele>
        <time>2011-04-17T00:24:03Z</time>
      </trkpt>
      <trkpt lat="50.44675" lon="2.49708">
        <ele>122.22473</ele>
        <time>2011-04-17T00:24:09Z</time>
      </trkpt>
      <trkpt lat="50.44697" lon="2.49719">
        <ele>124.14733</ele>
        <time>2011-04-17T00:24:19Z</time>
      </trkpt>
      <trkpt lat="50.44723" lon="2.49733">
        <ele>124.62805</ele>
        <time>2011-04-17T00:24:30Z</time>
      </trkpt>
      <trkpt lat="50.44745" lon="2.49757">
        <ele>124.14733</ele>
        <time>2011-04-17T00:24:40Z</time>
      </trkpt>
      <trkpt lat="50.44762" lon="2.49789">
        <ele>123.66674</ele>
        <time>2011-04-17T00:24:51Z</time>
      </trkpt>
      <trkpt lat="50.44784" lon="2.49845">
        <ele>123.66674</ele>
        <time>2011-04-17T00:25:08Z</time>
      </trkpt>
      <trkpt lat="50.44804" lon="2.4991">
        <ele>123.18615</ele>
        <time>2011-04-17T00:25:26Z</time>
      </trkpt>
      <trkpt lat="50.44828" lon="2.49985">
        <ele>122.22473</ele>
        <time>2011-04-17T00:25:47Z</time>
      </trkpt>
      <trkpt lat="50.44851" lon="2.50059">
        <ele>120.30212</ele>
        <time>2011-04-17T00:26:08Z</time>
      </trkpt>
      <trkpt lat="50.44876" lon="2.50154">
        <ele>118.8601</ele>
        <time>2011-04-17T00:26:34Z</time>
      </trkpt>
      <trkpt lat="50.44883" lon="2.50199">
        <ele>118.8601</ele>
        <time>2011-04-17T00:26:46Z</time>
      </trkpt>
      <trkpt lat="50.4489" lon="2.50288">
        <ele>118.37939</ele>
        <time>2011-04-17T00:27:09Z</time>
      </trkpt>
      <trkpt lat="50.44891" lon="2.50366">
        <ele>117.8988</ele>
        <time>2011-04-17T00:27:29Z</time>
      </trkpt>
      <trkpt lat="50.44892" lon="2.50436">
        <ele>116.45678</ele>
        <time>2011-04-17T00:27:47Z</time>
      </trkpt>
      <trkpt lat="50.44895" lon="2.50551">
        <ele>115.01489</ele>
        <time>2011-04-17T00:28:16Z</time>
      </trkpt>
      <trkpt lat="50.44903" lon="2.5064">
        <ele>114.05358</ele>
        <time>2011-04-17T00:28:39Z</time>
      </trkpt>
      <trkpt lat="50.44916" lon="2.50716">
        <ele>112.61157</ele>
        <time>2011-04-17T00:28:59Z</time>
      </trkpt>
      <trkpt lat="50.44942" lon="2.50787">
        <ele>111.65026</ele>
        <time>2011-04-17T00:29:20Z</time>
      </trkpt>
      <trkpt lat="50.44989" lon="2.509">
        <ele>110.20825</ele>
        <time>2011-04-17T00:29:55Z</time>
      </trkpt>
      <trkpt lat="50.45034" lon="2.51004">
        <ele>108.76623</ele>
        <time>2011-04-17T00:30:27Z</time>
      </trkpt>
      <trkpt lat="50.45088" lon="2.51133">
        <ele>106.84362</ele>
        <time>2011-04-17T00:31:06Z</time>
      </trkpt>
      <trkpt lat="50.4513" lon="2.51226">
        <ele>105.88244</ele>
        <time>2011-04-17T00:31:35Z</time>
      </trkpt>
      <trkpt lat="50.45181" lon="2.51326">
        <ele>103.95971</ele>
        <time>2011-04-17T00:32:08Z</time>
      </trkpt>
      <trkpt lat="50.4524" lon="2.51448">
        <ele>101.55639</ele>
        <time>2011-04-17T00:32:47Z</time>
      </trkpt>
      <trkpt lat="50.45248" lon="2.51471">
        <ele>101.07568</ele>
        <time>2011-04-17T00:32:53Z</time>
      </trkpt>
      <trkpt lat="50.45261" lon="2.51548">
        <ele>99.153076</ele>
        <time>2011-04-17T00:33:14Z</time>
      </trkpt>
      <trkpt lat="50.45269" lon="2.51641">
        <ele>95.788452</ele>
        <time>2011-04-17T00:33:38Z</time>
      </trkpt>
      <trkpt lat="50.45272" lon="2.51695">
        <ele>93.865844</ele>
        <time>2011-04-17T00:33:52Z</time>
      </trkpt>
      <trkpt lat="50.45278" lon="2.5178">
        <ele>90.981933</ele>
        <time>2011-04-17T00:34:13Z</time>
      </trkpt>
      <trkpt lat="50.45284" lon="2.51888">
        <ele>86.175293</ele>
        <time>2011-04-17T00:34:41Z</time>
      </trkpt>
      <trkpt lat="50.45294" lon="2.52034">
        <ele>80.888183</ele>
        <time>2011-04-17T00:35:18Z</time>
      </trkpt>
      <trkpt lat="50.45296" lon="2.52061">
        <ele>79.926635</ele>
        <time>2011-04-17T00:35:25Z</time>
      </trkpt>
      <trkpt lat="50.45304" lon="2.52085">
        <ele>78.484741</ele>
        <time>2011-04-17T00:35:32Z</time>
      </trkpt>
      <trkpt lat="50.45309" lon="2.52079">
        <ele>78.004028</ele>
        <time>2011-04-17T00:35:35Z</time>
      </trkpt>
      <trkpt lat="50.45337" lon="2.52029">
        <ele>80.40747</ele>
        <time>2011-04-17T00:35:52Z</time>
      </trkpt>
      <trkpt lat="50.4536" lon="2.51988">
        <ele>80.888183</ele>
        <time>2011-04-17T00:36:06Z</time>
      </trkpt>
      <trkpt lat="50.45376" lon="2.51956">
        <ele>81.368774</ele>
        <time>2011-04-17T00:36:16Z</time>
      </trkpt>
      <trkpt lat="50.45378" lon="2.51951">
        <ele>81.368774</ele>
        <time>2011-04-17T00:36:17Z</time>
      </trkpt>
      <trkpt lat="50.45399" lon="2.5191">
        <ele>82.810791</ele>
        <time>2011-04-17T00:36:31Z</time>
      </trkpt>
      <trkpt lat="50.45423" lon="2.51866">
        <ele>84.733398</ele>
        <time>2011-04-17T00:36:46Z</time>
      </trkpt>
      <trkpt lat="50.45445" lon="2.51826">
        <ele>86.175293</ele>
        <time>2011-04-17T00:36:59Z</time>
      </trkpt>
      <trkpt lat="50.45476" lon="2.51772">
        <ele>88.578735</ele>
        <time>2011-04-17T00:37:17Z</time>
      </trkpt>
      <trkpt lat="50.45507" lon="2.5172">
        <ele>89.059326</ele>
        <time>2011-04-17T00:37:35Z</time>
      </trkpt>
      <trkpt lat="50.45535" lon="2.51677">
        <ele>88.578735</ele>
        <time>2011-04-17T00:37:51Z</time>
      </trkpt>
      <trkpt lat="50.45569" lon="2.51623">
        <ele>87.136596</ele>
        <time>2011-04-17T00:38:11Z</time>
      </trkpt>
      <trkpt lat="50.45593" lon="2.51585">
        <ele>85.213989</ele>
        <time>2011-04-17T00:38:24Z</time>
      </trkpt>
      <trkpt lat="50.45605" lon="2.51569">
        <ele>84.252685</ele>
        <time>2011-04-17T00:38:31Z</time>
      </trkpt>
      <trkpt lat="50.45624" lon="2.51543">
        <ele>82.330078</ele>
        <time>2011-04-17T00:38:41Z</time>
      </trkpt>
      <trkpt lat="50.45664" lon="2.5148">
        <ele>76.562133</ele>
        <time>2011-04-17T00:39:03Z</time>
      </trkpt>
      <trkpt lat="50.45707" lon="2.51403">
        <ele>71.755493</ele>
        <time>2011-04-17T00:39:29Z</time>
      </trkpt>
      <trkpt lat="50.45754" lon="2.51323">
        <ele>70.794189</ele>
        <time>2011-04-17T00:39:57Z</time>
      </trkpt>
      <trkpt lat="50.45775" lon="2.51291">
        <ele>72.236206</ele>
        <time>2011-04-17T00:40:09Z</time>
      </trkpt>
      <trkpt lat="50.45783" lon="2.51275">
        <ele>73.197631</ele>
        <time>2011-04-17T00:40:14Z</time>
      </trkpt>
      <trkpt lat="50.45799" lon="2.51252">
        <ele>74.639526</ele>
        <time>2011-04-17T00:40:23Z</time>
      </trkpt>
      <trkpt lat="50.45809" lon="2.51238">
        <ele>76.08142</ele>
        <time>2011-04-17T00:40:28Z</time>
      </trkpt>
      <trkpt lat="50.45821" lon="2.5122">
        <ele>78.004028</ele>
        <time>2011-04-17T00:40:35Z</time>
      </trkpt>
      <trkpt lat="50.45833" lon="2.512">
        <ele>79.926635</ele>
        <time>2011-04-17T00:40:42Z</time>
      </trkpt>
      <trkpt lat="50.45845" lon="2.51181">
        <ele>81.849365</ele>
        <time>2011-04-17T00:40:49Z</time>
      </trkpt>
      <trkpt lat="50.45858" lon="2.51158">
        <ele>83.291381</ele>
        <time>2011-04-17T00:40:56Z</time>
      </trkpt>
      <trkpt lat="50.45876" lon="2.51128">
        <ele>85.213989</ele>
        <time>2011-04-17T00:41:07Z</time>
      </trkpt>
      <trkpt lat="50.45891" lon="2.51106">
        <ele>87.136596</ele>
        <time>2011-04-17T00:41:15Z</time>
      </trkpt>
      <trkpt lat="50.45911" lon="2.51076">
        <ele>89.539917</ele>
        <time>2011-04-17T00:41:26Z</time>
      </trkpt>
      <trkpt lat="50.45926" lon="2.51052">
        <ele>90.501342</ele>
        <time>2011-04-17T00:41:35Z</time>
      </trkpt>
      <trkpt lat="50.45936" lon="2.51036">
        <ele>91.462524</ele>
        <time>2011-04-17T00:41:41Z</time>
      </trkpt>
      <trkpt lat="50.45939" lon="2.51016">
        <ele>91.943237</ele>
        <time>2011-04-17T00:41:46Z</time>
      </trkpt>
      <trkpt lat="50.45932" lon="2.51">
        <ele>92.904541</ele>
        <time>2011-04-17T00:41:51Z</time>
      </trkpt>
      <trkpt lat="50.45922" lon="2.50984">
        <ele>94.346557</ele>
        <time>2011-04-17T00:41:56Z</time>
      </trkpt>
      <trkpt lat="50.45905" lon="2.50951">
        <ele>96.749877</ele>
        <time>2011-04-17T00:42:07Z</time>
      </trkpt>
      <trkpt lat="50.45887" lon="2.5092">
        <ele>98.191894</ele>
        <time>2011-04-17T00:42:18Z</time>
      </trkpt>
      <trkpt lat="50.45862" lon="2.50876">
        <ele>100.59509</ele>
        <time>2011-04-17T00:42:33Z</time>
      </trkpt>
      <trkpt lat="50.45841" lon="2.5084">
        <ele>102.99829</ele>
        <time>2011-04-17T00:42:45Z</time>
      </trkpt>
      <trkpt lat="50.45825" lon="2.50814">
        <ele>104.44042</ele>
        <time>2011-04-17T00:42:54Z</time>
      </trkpt>
      <trkpt lat="50.45805" lon="2.50779">
        <ele>105.88244</ele>
        <time>2011-04-17T00:43:06Z</time>
      </trkpt>
      <trkpt lat="50.45781" lon="2.50737">
        <ele>106.84362</ele>
        <time>2011-04-17T00:43:21Z</time>
      </trkpt>
      <trkpt lat="50.45761" lon="2.50703">
        <ele>107.32434</ele>
        <time>2011-04-17T00:43:33Z</time>
      </trkpt>
      <trkpt lat="50.45734" lon="2.50657">
        <ele>109.24694</ele>
        <time>2011-04-17T00:43:49Z</time>
      </trkpt>
      <trkpt lat="50.45709" lon="2.50613">
        <ele>110.68884</ele>
        <time>2011-04-17T00:44:04Z</time>
      </trkpt>
      <trkpt lat="50.457" lon="2.50585">
        <ele>111.16955</ele>
        <time>2011-04-17T00:44:12Z</time>
      </trkpt>
      <trkpt lat="50.45698" lon="2.50551">
        <ele>112.13098</ele>
        <time>2011-04-17T00:44:20Z</time>
      </trkpt>
      <trkpt lat="50.45686" lon="2.50525">
        <ele>113.09228</ele>
        <time>2011-04-17T00:44:28Z</time>
      </trkpt>
      <trkpt lat="50.4567" lon="2.50498">
        <ele>113.57299</ele>
        <time>2011-04-17T00:44:38Z</time>
      </trkpt>
      <trkpt lat="50.45659" lon="2.50479">
        <ele>114.53417</ele>
        <time>2011-04-17T00:44:44Z</time>
      </trkpt>
      <trkpt lat="50.4564" lon="2.50444">
        <ele>114.05358</ele>
        <time>2011-04-17T00:44:56Z</time>
      </trkpt>
      <trkpt lat="50.4562" lon="2.50406">
        <ele>115.01489</ele>
        <time>2011-04-17T00:45:09Z</time>
      </trkpt>
      <trkpt lat="50.45605" lon="2.50378">
        <ele>115.97619</ele>
        <time>2011-04-17T00:45:18Z</time>
      </trkpt>
      <trkpt lat="50.45584" lon="2.50342">
        <ele>115.97619</ele>
        <time>2011-04-17T00:45:30Z</time>
      </trkpt>
      <trkpt lat="50.45564" lon="2.5031">
        <ele>116.45678</ele>
        <time>2011-04-17T00:45:42Z</time>
      </trkpt>
      <trkpt lat="50.45551" lon="2.50275">
        <ele>117.41821</ele>
        <time>2011-04-17T00:45:52Z</time>
      </trkpt>
      <trkpt lat="50.45567" lon="2.50251">
        <ele>117.41821</ele>
        <time>2011-04-17T00:46:01Z</time>
      </trkpt>
      <trkpt lat="50.45602" lon="2.50212">
        <ele>117.41821</ele>
        <time>2011-04-17T00:46:18Z</time>
      </trkpt>
      <trkpt lat="50.45634" lon="2.50177">
        <ele>117.41821</ele>
        <time>2011-04-17T00:46:34Z</time>
      </trkpt>
      <trkpt lat="50.45662" lon="2.50145">
        <ele>117.8988</ele>
        <time>2011-04-17T00:46:48Z</time>
      </trkpt>
      <trkpt lat="50.45685" lon="2.50121">
        <ele>117.8988</ele>
        <time>2011-04-17T00:46:59Z</time>
      </trkpt>
      <trkpt lat="50.45689" lon="2.50117">
        <ele>117.8988</ele>
        <time>2011-04-17T00:47:01Z</time>
      </trkpt>
      <trkpt lat="50.45714" lon="2.50086">
        <ele>116.9375</ele>
        <time>2011-04-17T00:47:14Z</time>
      </trkpt>
      <trkpt lat="50.45723" lon="2.50076">
        <ele>116.45678</ele>
        <time>2011-04-17T00:47:18Z</time>
      </trkpt>
      <trkpt lat="50.4573" lon="2.50053">
        <ele>115.4956</ele>
        <time>2011-04-17T00:47:25Z</time>
      </trkpt>
      <trkpt lat="50.45725" lon="2.50039">
        <ele>115.97619</ele>
        <time>2011-04-17T00:47:29Z</time>
      </trkpt>
      <trkpt lat="50.45701" lon="2.49997">
        <ele>117.8988</ele>
        <time>2011-04-17T00:47:43Z</time>
      </trkpt>
      <trkpt lat="50.45699" lon="2.49991">
        <ele>118.37939</ele>
        <time>2011-04-17T00:47:45Z</time>
      </trkpt>
      <trkpt lat="50.45697" lon="2.49965">
        <ele>117.8988</ele>
        <time>2011-04-17T00:47:52Z</time>
      </trkpt>
      <trkpt lat="50.45704" lon="2.49953">
        <ele>117.41821</ele>
        <time>2011-04-17T00:47:56Z</time>
      </trkpt>
      <trkpt lat="50.4573" lon="2.49925">
        <ele>116.9375</ele>
        <time>2011-04-17T00:48:08Z</time>
      </trkpt>
      <trkpt lat="50.45754" lon="2.49919">
        <ele>115.97619</ele>
        <time>2011-04-17T00:48:18Z</time>
      </trkpt>
      <trkpt lat="50.4576" lon="2.49921">
        <ele>115.97619</ele>
        <time>2011-04-17T00:48:21Z</time>
      </trkpt>
      <trkpt lat="50.45809" lon="2.4994">
        <ele>115.4956</ele>
        <time>2011-04-17T00:48:41Z</time>
      </trkpt>
      <trkpt lat="50.45872" lon="2.49952">
        <ele>115.4956</ele>
        <time>2011-04-17T00:49:06Z</time>
      </trkpt>
      <trkpt lat="50.45923" lon="2.49953">
        <ele>115.4956</ele>
        <time>2011-04-17T00:49:27Z</time>
      </trkpt>
      <trkpt lat="50.45959" lon="2.49952">
        <ele>115.01489</ele>
        <time>2011-04-17T00:49:41Z</time>
      </trkpt>
      <trkpt lat="50.45965" lon="2.49951">
        <ele>115.01489</ele>
        <time>2011-04-17T00:49:44Z</time>
      </trkpt>
      <trkpt lat="50.46012" lon="2.49931">
        <ele>114.05358</ele>
        <time>2011-04-17T00:50:03Z</time>
      </trkpt>
      <trkpt lat="50.46044" lon="2.49935">
        <ele>112.61157</ele>
        <time>2011-04-17T00:50:16Z</time>
      </trkpt>
      <trkpt lat="50.46062" lon="2.49948">
        <ele>111.65026</ele>
        <time>2011-04-17T00:50:24Z</time>
      </trkpt>
      <trkpt lat="50.46067" lon="2.49954">
        <ele>111.65026</ele>
        <time>2011-04-17T00:50:26Z</time>
      </trkpt>
      <trkpt lat="50.46089" lon="2.4998">
        <ele>111.16955</ele>
        <time>2011-04-17T00:50:37Z</time>
      </trkpt>
      <trkpt lat="50.46108" lon="2.49985">
        <ele>110.68884</ele>
        <time>2011-04-17T00:50:45Z</time>
      </trkpt>
      <trkpt lat="50.46117" lon="2.49974">
        <ele>110.68884</ele>
        <time>2011-04-17T00:50:50Z</time>
      </trkpt>
      <trkpt lat="50.46141" lon="2.49922">
        <ele>110.68884</ele>
        <time>2011-04-17T00:51:06Z</time>
      </trkpt>
      <trkpt lat="50.46162" lon="2.49877">
        <ele>111.16955</ele>
        <time>2011-04-17T00:51:20Z</time>
      </trkpt>
      <trkpt lat="50.46188" lon="2.49828">
        <ele>110.68884</ele>
        <time>2011-04-17T00:51:36Z</time>
      </trkpt>
      <trkpt lat="50.46205" lon="2.49799">
        <ele>110.20825</ele>
        <time>2011-04-17T00:51:47Z</time>
      </trkpt>
      <trkpt lat="50.46212" lon="2.49773">
        <ele>109.24694</ele>
        <time>2011-04-17T00:51:54Z</time>
      </trkpt>
      <trkpt lat="50.46206" lon="2.49758">
        <ele>110.20825</ele>
        <time>2011-04-17T00:51:58Z</time>
      </trkpt>
      <trkpt lat="50.46173" lon="2.49706">
        <ele>113.57299</ele>
        <time>2011-04-17T00:52:17Z</time>
      </trkpt>
      <trkpt lat="50.46149" lon="2.49667">
        <ele>116.45678</ele>
        <time>2011-04-17T00:52:31Z</time>
      </trkpt>
      <trkpt lat="50.46133" lon="2.49643">
        <ele>117.41821</ele>
        <time>2011-04-17T00:52:40Z</time>
      </trkpt>
      <trkpt lat="50.46104" lon="2.49598">
        <ele>119.34082</ele>
        <time>2011-04-17T00:52:56Z</time>
      </trkpt>
      <trkpt lat="50.46078" lon="2.49558">
        <ele>120.78283</ele>
        <time>2011-04-17T00:53:11Z</time>
      </trkpt>
      <trkpt lat="50.4606" lon="2.49534">
        <ele>121.26354</ele>
        <time>2011-04-17T00:53:20Z</time>
      </trkpt>
      <trkpt lat="50.46042" lon="2.49543">
        <ele>121.74414</ele>
        <time>2011-04-17T00:53:27Z</time>
      </trkpt>
      <trkpt lat="50.46017" lon="2.49564">
        <ele>123.18615</ele>
        <time>2011-04-17T00:53:39Z</time>
      </trkpt>
      <trkpt lat="50.45998" lon="2.49582">
        <ele>123.66674</ele>
        <time>2011-04-17T00:53:48Z</time>
      </trkpt>
      <trkpt lat="50.45975" lon="2.49601">
        <ele>124.62805</ele>
        <time>2011-04-17T00:53:58Z</time>
      </trkpt>
      <trkpt lat="50.45946" lon="2.49624">
        <ele>124.62805</ele>
        <time>2011-04-17T00:54:11Z</time>
      </trkpt>
      <trkpt lat="50.4594" lon="2.49622">
        <ele>124.62805</ele>
        <time>2011-04-17T00:54:14Z</time>
      </trkpt>
      <trkpt lat="50.45932" lon="2.49605">
        <ele>125.58935</ele>
        <time>2011-04-17T00:54:19Z</time>
      </trkpt>
      <trkpt lat="50.45921" lon="2.49582">
        <ele>126.06994</ele>
        <time>2011-04-17T00:54:26Z</time>
      </trkpt>
      <trkpt lat="50.45903" lon="2.49544">
        <ele>126.55065</ele>
        <time>2011-04-17T00:54:38Z</time>
      </trkpt>
      <trkpt lat="50.45888" lon="2.49511">
        <ele>126.55065</ele>
        <time>2011-04-17T00:54:49Z</time>
      </trkpt>
      <trkpt lat="50.45872" lon="2.49488">
        <ele>127.03137</ele>
        <time>2011-04-17T00:54:57Z</time>
      </trkpt>
      <trkpt lat="50.45851" lon="2.49461">
        <ele>127.03137</ele>
        <time>2011-04-17T00:55:08Z</time>
      </trkpt>
      <trkpt lat="50.45835" lon="2.4944">
        <ele>127.99255</ele>
        <time>2011-04-17T00:55:17Z</time>
      </trkpt>
      <trkpt lat="50.45815" lon="2.49411">
        <ele>128.9541</ele>
        <time>2011-04-17T00:55:28Z</time>
      </trkpt>
      <trkpt lat="50.45808" lon="2.49403">
        <ele>128.47338</ele>
        <time>2011-04-17T00:55:31Z</time>
      </trkpt>
      <trkpt lat="50.45792" lon="2.49384">
        <ele>127.51196</ele>
        <time>2011-04-17T00:55:39Z</time>
      </trkpt>
      <trkpt lat="50.45774" lon="2.49361">
        <ele>128.47338</ele>
        <time>2011-04-17T00:55:48Z</time>
      </trkpt>
      <trkpt lat="50.45759" lon="2.49343">
        <ele>128.9541</ele>
        <time>2011-04-17T00:55:56Z</time>
      </trkpt>
      <trkpt lat="50.45756" lon="2.49336">
        <ele>129.91528</ele>
        <time>2011-04-17T00:55:58Z</time>
      </trkpt>
      <trkpt lat="50.45754" lon="2.49303">
        <ele>130.8767</ele>
        <time>2011-04-17T00:56:07Z</time>
      </trkpt>
      <trkpt lat="50.45754" lon="2.49255">
        <ele>127.03137</ele>
        <time>2011-04-17T00:56:19Z</time>
      </trkpt>
      <trkpt lat="50.45755" lon="2.49215">
        <ele>125.10876</ele>
        <time>2011-04-17T00:56:29Z</time>
      </trkpt>
      <trkpt lat="50.45757" lon="2.49178">
        <ele>123.18615</ele>
        <time>2011-04-17T00:56:38Z</time>
      </trkpt>
      <trkpt lat="50.45757" lon="2.49125">
        <ele>119.82141</ele>
        <time>2011-04-17T00:56:52Z</time>
      </trkpt>
      <trkpt lat="50.45753" lon="2.49068">
        <ele>115.01489</ele>
        <time>2011-04-17T00:57:07Z</time>
      </trkpt>
      <trkpt lat="50.45749" lon="2.49015">
        <ele>113.09228</ele>
        <time>2011-04-17T00:57:20Z</time>
      </trkpt>
      <trkpt lat="50.45742" lon="2.48933">
        <ele>108.28564</ele>
        <time>2011-04-17T00:57:41Z</time>
      </trkpt>
      <trkpt lat="50.45739" lon="2.48874">
        <ele>104.92102</ele>
        <time>2011-04-17T00:57:56Z</time>
      </trkpt>
      <trkpt lat="50.45736" lon="2.48805">
        <ele>102.5177</ele>
        <time>2011-04-17T00:58:14Z</time>
      </trkpt>
      <trkpt lat="50.45745" lon="2.48781">
        <ele>101.55639</ele>
        <time>2011-04-17T00:58:21Z</time>
      </trkpt>
      <trkpt lat="50.45757" lon="2.48784">
        <ele>100.59509</ele>
        <time>2011-04-17T00:58:26Z</time>
      </trkpt>
      <trkpt lat="50.45795" lon="2.48792">
        <ele>99.153076</ele>
        <time>2011-04-17T00:58:41Z</time>
      </trkpt>
      <trkpt lat="50.45837" lon="2.48793">
        <ele>97.230468</ele>
        <time>2011-04-17T00:58:58Z</time>
      </trkpt>
      <trkpt lat="50.45876" lon="2.4878">
        <ele>96.269287</ele>
        <time>2011-04-17T00:59:14Z</time>
      </trkpt>
      <trkpt lat="50.45907" lon="2.48761">
        <ele>95.307739</ele>
        <time>2011-04-17T00:59:27Z</time>
      </trkpt>
      <trkpt lat="50.45955" lon="2.48724">
        <ele>93.865844</ele>
        <time>2011-04-17T00:59:49Z</time>
      </trkpt>
      <trkpt lat="50.46012" lon="2.48681">
        <ele>91.462524</ele>
        <time>2011-04-17T01:00:14Z</time>
      </trkpt>
      <trkpt lat="50.46053" lon="2.48659">
        <ele>88.098022</ele>
        <time>2011-04-17T01:00:31Z</time>
      </trkpt>
      <trkpt lat="50.46069" lon="2.48652">
        <ele>86.175293</ele>
        <time>2011-04-17T01:00:38Z</time>
      </trkpt>
      <trkpt lat="50.4609" lon="2.48651">
        <ele>83.291381</ele>
        <time>2011-04-17T01:00:46Z</time>
      </trkpt>
      <trkpt lat="50.46091" lon="2.48654">
        <ele>82.810791</ele>
        <time>2011-04-17T01:00:47Z</time>
      </trkpt>
      <trkpt lat="50.46101" lon="2.48685">
        <ele>81.368774</ele>
        <time>2011-04-17T01:00:56Z</time>
      </trkpt>
      <trkpt lat="50.46106" lon="2.487">
        <ele>80.40747</ele>
        <time>2011-04-17T01:01:00Z</time>
      </trkpt>
      <trkpt lat="50.46109" lon="2.48708">
        <ele>79.926635</ele>
        <time>2011-04-17T01:01:03Z</time>
      </trkpt>
      <trkpt lat="50.46122" lon="2.48758">
        <ele>78.004028</ele>
        <time>2011-04-17T01:01:16Z</time>
      </trkpt>
      <trkpt lat="50.46132" lon="2.488">
        <ele>77.042846</ele>
        <time>2011-04-17T01:01:28Z</time>
      </trkpt>
      <trkpt lat="50.46134" lon="2.48806">
        <ele>77.042846</ele>
        <time>2011-04-17T01:01:29Z</time>
      </trkpt>
      <trkpt lat="50.46145" lon="2.48823">
        <ele>77.042846</ele>
        <time>2011-04-17T01:01:36Z</time>
      </trkpt>
      <trkpt lat="50.46148" lon="2.48823">
        <ele>77.042846</ele>
        <time>2011-04-17T01:01:37Z</time>
      </trkpt>
      <trkpt lat="50.46158" lon="2.48822">
        <ele>75.120239</ele>
        <time>2011-04-17T01:01:41Z</time>
      </trkpt>
      <trkpt lat="50.46165" lon="2.48815">
        <ele>72.236206</ele>
        <time>2011-04-17T01:01:41Z</time>
      </trkpt>
      <trkpt lat="50.46175" lon="2.48813">
        <ele>71.755493</ele>
        <time>2011-04-17T01:01:45Z</time>
      </trkpt>
      <trkpt lat="50.46183" lon="2.4882">
        <ele>73.197631</ele>
        <time>2011-04-17T01:01:49Z</time>
      </trkpt>
      <trkpt lat="50.46191" lon="2.48812">
        <ele>72.716918</ele>
        <time>2011-04-17T01:01:53Z</time>
      </trkpt>
      <trkpt lat="50.46194" lon="2.48807">
        <ele>71.755493</ele>
        <time>2011-04-17T01:01:55Z</time>
      </trkpt>
      <trkpt lat="50.46204" lon="2.48795">
        <ele>70.313476</ele>
        <time>2011-04-17T01:02:00Z</time>
      </trkpt>
      <trkpt lat="50.46211" lon="2.48793">
        <ele>72.236206</ele>
        <time>2011-04-17T01:02:00Z</time>
      </trkpt>
      <trkpt lat="50.4622" lon="2.488">
        <ele>72.716918</ele>
        <time>2011-04-17T01:02:04Z</time>
      </trkpt>
      <trkpt lat="50.46228" lon="2.48814">
        <ele>73.197631</ele>
        <time>2011-04-17T01:02:09Z</time>
      </trkpt>
      <trkpt lat="50.4623" lon="2.48818">
        <ele>73.197631</ele>
        <time>2011-04-17T01:02:11Z</time>
      </trkpt>
      <trkpt lat="50.46241" lon="2.48825">
        <ele>74.158813</ele>
        <time>2011-04-17T01:02:15Z</time>
      </trkpt>
      <trkpt lat="50.4626" lon="2.48845">
        <ele>75.120239</ele>
        <time>2011-04-17T01:02:25Z</time>
      </trkpt>
      <trkpt lat="50.46282" lon="2.4887">
        <ele>75.60083</ele>
        <time>2011-04-17T01:02:35Z</time>
      </trkpt>
      <trkpt lat="50.46298" lon="2.48884">
        <ele>75.60083</ele>
        <time>2011-04-17T01:02:43Z</time>
      </trkpt>
      <trkpt lat="50.46303" lon="2.48888">
        <ele>75.60083</ele>
        <time>2011-04-17T01:02:45Z</time>
      </trkpt>
      <trkpt lat="50.46317" lon="2.48877">
        <ele>73.678222</ele>
        <time>2011-04-17T01:02:51Z</time>
      </trkpt>
      <trkpt lat="50.46342" lon="2.48895">
        <ele>70.794189</ele>
        <time>2011-04-17T01:03:02Z</time>
      </trkpt>
      <trkpt lat="50.46345" lon="2.48916">
        <ele>69.352294</ele>
        <time>2011-04-17T01:03:08Z</time>
      </trkpt>
      <trkpt lat="50.46354" lon="2.48936">
        <ele>68.871582</ele>
        <time>2011-04-17T01:03:14Z</time>
      </trkpt>
      <trkpt lat="50.46371" lon="2.48963">
        <ele>68.390869</ele>
        <time>2011-04-17T01:03:24Z</time>
      </trkpt>
      <trkpt lat="50.46389" lon="2.48995">
        <ele>67.910278</ele>
        <time>2011-04-17T01:03:34Z</time>
      </trkpt>
      <trkpt lat="50.46403" lon="2.49015">
        <ele>66.948974</ele>
        <time>2011-04-17T01:03:42Z</time>
      </trkpt>
      <trkpt lat="50.46411" lon="2.49023">
        <ele>66.948974</ele>
        <time>2011-04-17T01:03:46Z</time>
      </trkpt>
      <trkpt lat="50.46411" lon="2.49031">
        <ele>66.468261</ele>
        <time>2011-04-17T01:03:48Z</time>
      </trkpt>
      <trkpt lat="50.46415" lon="2.4905">
        <ele>64.065063</ele>
        <time>2011-04-17T01:03:48Z</time>
      </trkpt>
      <trkpt lat="50.46427" lon="2.49078">
        <ele>62.142334</ele>
        <time>2011-04-17T01:03:57Z</time>
      </trkpt>
      <trkpt lat="50.46442" lon="2.49096">
        <ele>60.700317</ele>
        <time>2011-04-17T01:04:04Z</time>
      </trkpt>
      <trkpt lat="50.46459" lon="2.49112">
        <ele>59.739135</ele>
        <time>2011-04-17T01:04:12Z</time>
      </trkpt>
      <trkpt lat="50.46468" lon="2.49135">
        <ele>58.297119</ele>
        <time>2011-04-17T01:04:19Z</time>
      </trkpt>
      <trkpt lat="50.4648" lon="2.49161">
        <ele>58.77771</ele>
        <time>2011-04-17T01:04:27Z</time>
      </trkpt>
      <trkpt lat="50.46487" lon="2.49188">
        <ele>60.219726</ele>
        <time>2011-04-17T01:04:35Z</time>
      </trkpt>
      <trkpt lat="50.46499" lon="2.49214">
        <ele>60.219726</ele>
        <time>2011-04-17T01:04:43Z</time>
      </trkpt>
      <trkpt lat="50.46513" lon="2.49247">
        <ele>61.661743</ele>
        <time>2011-04-17T01:04:53Z</time>
      </trkpt>
      <trkpt lat="50.46527" lon="2.49274">
        <ele>62.142334</ele>
        <time>2011-04-17T01:05:02Z</time>
      </trkpt>
      <trkpt lat="50.46544" lon="2.49303">
        <ele>60.219726</ele>
        <time>2011-04-17T01:05:12Z</time>
      </trkpt>
      <trkpt lat="50.46557" lon="2.49325">
        <ele>58.297119</ele>
        <time>2011-04-17T01:05:20Z</time>
      </trkpt>
      <trkpt lat="50.46572" lon="2.49358">
        <ele>61.18103</ele>
        <time>2011-04-17T01:05:30Z</time>
      </trkpt>
      <trkpt lat="50.46583" lon="2.49387">
        <ele>62.622924</ele>
        <time>2011-04-17T01:05:39Z</time>
      </trkpt>
      <trkpt lat="50.46586" lon="2.49411">
        <ele>62.622924</ele>
        <time>2011-04-17T01:05:45Z</time>
      </trkpt>
      <trkpt lat="50.4658" lon="2.49417">
        <ele>63.103637</ele>
        <time>2011-04-17T01:05:48Z</time>
      </trkpt>
      <trkpt lat="50.46578" lon="2.49422">
        <ele>63.58435</ele>
        <time>2011-04-17T01:05:49Z</time>
      </trkpt>
      <trkpt lat="50.46582" lon="2.49435">
        <ele>64.545654</ele>
        <time>2011-04-17T01:05:53Z</time>
      </trkpt>
      <trkpt lat="50.46595" lon="2.49473">
        <ele>69.832885</ele>
        <time>2011-04-17T01:06:04Z</time>
      </trkpt>
      <trkpt lat="50.46613" lon="2.49485">
        <ele>72.236206</ele>
        <time>2011-04-17T01:06:11Z</time>
      </trkpt>
      <trkpt lat="50.4662" lon="2.49493">
        <ele>73.678222</ele>
        <time>2011-04-17T01:06:15Z</time>
      </trkpt>
      <trkpt lat="50.46641" lon="2.49516">
        <ele>74.639526</ele>
        <time>2011-04-17T01:06:25Z</time>
      </trkpt>
      <trkpt lat="50.46652" lon="2.49533">
        <ele>73.678222</ele>
        <time>2011-04-17T01:06:31Z</time>
      </trkpt>
      <trkpt lat="50.46667" lon="2.49562">
        <ele>73.678222</ele>
        <time>2011-04-17T01:06:41Z</time>
      </trkpt>
      <trkpt lat="50.46702" lon="2.49589">
        <ele>72.716918</ele>
        <time>2011-04-17T01:06:56Z</time>
      </trkpt>
      <trkpt lat="50.46718" lon="2.49591">
        <ele>70.794189</ele>
        <time>2011-04-17T01:07:03Z</time>
      </trkpt>
      <trkpt lat="50.4673" lon="2.49588">
        <ele>69.832885</ele>
        <time>2011-04-17T01:07:08Z</time>
      </trkpt>
      <trkpt lat="50.46736" lon="2.49585">
        <ele>69.352294</ele>
        <time>2011-04-17T01:07:10Z</time>
      </trkpt>
      <trkpt lat="50.46756" lon="2.49561">
        <ele>68.390869</ele>
        <time>2011-04-17T01:07:20Z</time>
      </trkpt>
      <trkpt lat="50.46761" lon="2.49558">
        <ele>67.910278</ele>
        <time>2011-04-17T01:07:22Z</time>
      </trkpt>
      <trkpt lat="50.46768" lon="2.49571">
        <ele>66.468261</ele>
        <time>2011-04-17T01:07:27Z</time>
      </trkpt>
      <trkpt lat="50.46763" lon="2.49591">
        <ele>64.545654</ele>
        <time>2011-04-17T01:07:32Z</time>
      </trkpt>
      <trkpt lat="50.46769" lon="2.49594">
        <ele>64.545654</ele>
        <time>2011-04-17T01:07:35Z</time>
      </trkpt>
      <trkpt lat="50.4678" lon="2.49605">
        <ele>64.545654</ele>
        <time>2011-04-17T01:07:40Z</time>
      </trkpt>
      <trkpt lat="50.46788" lon="2.49618">
        <ele>64.545654</ele>
        <time>2011-04-17T01:07:45Z</time>
      </trkpt>
      <trkpt lat="50.46794" lon="2.49631">
        <ele>63.58435</ele>
        <time>2011-04-17T01:07:49Z</time>
      </trkpt>
      <trkpt lat="50.46801" lon="2.49631">
        <ele>63.103637</ele>
        <time>2011-04-17T01:07:51Z</time>
      </trkpt>
      <trkpt lat="50.46806" lon="2.49625">
        <ele>63.103637</ele>
        <time>2011-04-17T01:07:54Z</time>
      </trkpt>
      <trkpt lat="50.46812" lon="2.49607">
        <ele>61.661743</ele>
        <time>2011-04-17T01:07:59Z</time>
      </trkpt>
      <trkpt lat="50.46815" lon="2.49603">
        <ele>61.661743</ele>
        <time>2011-04-17T01:08:01Z</time>
      </trkpt>
      <trkpt lat="50.4682" lon="2.49596">
        <ele>61.18103</ele>
        <time>2011-04-17T01:08:03Z</time>
      </trkpt>
      <trkpt lat="50.4683" lon="2.49582">
        <ele>62.142334</ele>
        <time>2011-04-17T01:08:09Z</time>
      </trkpt>
      <trkpt lat="50.46836" lon="2.49571">
        <ele>61.661743</ele>
        <time>2011-04-17T01:08:12Z</time>
      </trkpt>
      <trkpt lat="50.46843" lon="2.49559">
        <ele>60.700317</ele>
        <time>2011-04-17T01:08:17Z</time>
      </trkpt>
      <trkpt lat="50.4685" lon="2.49546">
        <ele>62.142334</ele>
        <time>2011-04-17T01:08:21Z</time>
      </trkpt>
      <trkpt lat="50.4685" lon="2.49539">
        <ele>63.103637</ele>
        <time>2011-04-17T01:08:23Z</time>
      </trkpt>
      <trkpt lat="50.46844" lon="2.49523">
        <ele>66.468261</ele>
        <time>2011-04-17T01:08:28Z</time>
      </trkpt>
      <trkpt lat="50.46841" lon="2.49515">
        <ele>68.390869</ele>
        <time>2011-04-17T01:08:30Z</time>
      </trkpt>
    </trkseg>
  </trk>
</gpx>